GFSNGP_sfc_wetblb_000.txt.gz
Wetbulb
34.30 35.59 35.20 37.48 38.04 37.68 36.42 36.88 32.35 34.72 34.82 38.69 41.71 40.50 40.54 42.60 43.65 43.89 44.19 44.63 44.58 43.14 41.94 40.80 38.97 36.63 34.75 33.29 32.60 32.17 31.50 30.92 30.45 30.49 30.70 30.88 31.10 31.03 30.96 30.32 29.92 29.32 28.85 28.39
32.65 38.14 37.60 37.83 39.23 40.31 39.48 37.46 36.87 37.60 36.59 43.18 40.18 40.60 40.96 42.22 43.80 43.92 44.37 44.83 44.28 43.62 41.90 39.77 38.27 35.63 34.33 32.35 31.67 32.07 30.95 30.49 31.00 31.03 31.09 31.09 30.73 30.24 29.44 29.15 28.20 28.11 27.26 26.97
32.77 39.93 38.73 35.92 38.67 39.61 36.36 37.39 36.39 33.97 39.74 40.58 38.30 40.15 39.48 41.55 44.48 44.36 44.79 44.71 43.69 42.61 41.48 39.23 37.04 35.41 32.64 31.58 31.30 30.83 30.53 30.64 30.85 31.09 30.85 30.41 29.73 28.97 27.96 26.79 26.50 26.42 26.28 25.92
33.82 37.26 26.96 34.89 43.21 43.12 39.88 41.54 41.48 40.74 37.99 39.24 38.68 37.45 38.13 39.11 41.44 42.11 43.20 43.89 42.58 40.44 38.01 36.46 34.27 32.97 31.63 31.11 30.43 30.16 29.98 30.17 30.73 30.93 29.98 29.30 28.53 26.95 25.97 26.09 26.01 25.99 25.51 25.25
30.28 28.85 32.44 34.81 36.76 39.58 39.33 39.11 40.26 38.25 37.81 38.25 38.76 38.89 38.01 39.21 40.30 40.23 40.50 40.38 39.21 37.77 36.17 34.24 32.95 32.04 31.23 29.89 29.53 29.62 29.39 29.79 30.47 30.10 28.92 27.75 26.23 25.35 25.90 25.63 25.02 24.55 25.35 24.46
32.02 26.18 26.57 33.17 37.01 38.82 38.80 33.41 39.15 39.45 38.87 38.54 38.09 35.08 35.10 37.99 38.01 36.42 36.45 36.50 34.96 34.17 33.49 32.15 29.81 30.95 30.26 28.91 28.69 28.40 29.13 29.29 28.97 28.22 27.31 26.05 25.08 24.85 25.13 24.21 24.54 25.29 24.84 24.02
30.39 30.67 31.94 37.94 38.03 38.81 32.56 33.86 38.19 40.07 40.64 38.24 36.98 36.80 37.79 36.84 35.07 35.19 34.80 33.71 33.67 33.29 31.41 29.68 29.69 30.26 28.11 27.38 26.96 28.15 28.48 27.89 27.79 27.00 26.05 25.39 24.53 24.14 23.41 23.10 23.49 22.36 22.45 22.21
34.21 29.46 26.69 39.11 37.86 33.72 37.48 38.04 38.13 37.97 37.13 36.39 37.18 37.68 36.35 35.48 34.71 34.74 33.66 32.60 32.01 30.47 28.92 28.63 29.58 29.70 26.59 25.98 26.49 27.00 27.31 26.91 25.94 25.18 26.61 26.76 23.63 23.06 22.61 21.90 21.06 20.75 20.81 21.26
35.39 34.32 39.16 38.56 38.85 40.15 39.68 38.64 37.60 36.98 38.04 38.18 36.80 35.89 35.85 34.38 33.87 32.98 31.70 30.65 30.67 29.47 28.14 27.36 27.64 27.14 25.13 24.72 26.05 25.96 25.35 24.51 24.24 24.48 24.52 23.43 22.29 21.78 22.24 21.31 20.50 21.08 23.45 23.11
37.03 37.46 36.99 37.99 39.42 40.42 39.91 38.94 38.54 38.71 38.60 38.73 35.81 35.55 34.32 34.19 33.35 32.42 31.16 30.00 29.60 28.32 26.26 24.95 25.11 25.29 24.87 25.35 25.74 24.75 23.58 22.92 22.86 22.28 23.84 22.27 23.27 23.66 21.71 20.96 20.53 23.51 23.71 22.99
35.82 35.47 35.46 37.30 37.77 38.58 37.98 38.65 38.22 38.07 38.23 37.15 36.07 34.90 34.78 33.61 32.91 32.36 31.25 29.65 29.14 27.17 25.16 23.62 23.90 24.09 24.50 24.72 24.46 23.31 22.26 22.19 21.44 22.69 20.92 21.15 22.26 21.60 23.76 22.56 24.93 24.33 23.61 23.65
35.80 38.76 38.83 37.77 39.02 38.52 38.38 37.57 38.16 37.54 36.42 36.65 36.69 35.53 34.93 33.60 33.25 32.67 31.05 29.72 27.96 25.93 24.38 23.18 23.61 23.65 23.80 24.36 23.48 22.19 21.81 22.13 21.88 22.53 20.67 21.63 20.80 21.52 27.24 28.78 29.72 29.70 29.59 27.84
39.87 38.94 37.61 37.83 37.69 37.66 37.42 37.76 38.18 37.46 37.57 35.51 35.46 35.92 35.32 33.81 32.69 34.77 30.54 29.47 27.39 25.15 24.12 23.23 23.17 23.17 23.38 23.66 22.72 21.63 20.25 21.49 22.18 23.67 21.57 20.58 21.02 20.39 19.56 23.27 27.98 28.13 28.37 28.57
38.98 39.35 36.78 37.05 36.30 37.09 37.50 37.20 37.13 35.42 35.44 35.34 33.95 33.79 33.54 32.81 32.02 29.87 29.22 28.16 25.87 24.50 23.43 23.02 22.65 22.45 22.91 22.85 22.20 20.84 20.33 26.56 21.63 20.67 20.02 20.12 20.81 20.62 20.34 20.10 19.49 20.33 25.25 26.59
36.91 37.73 38.20 36.67 36.09 34.56 35.29 35.32 33.38 32.13 31.97 31.45 32.18 31.24 30.60 28.74 27.74 27.11 26.18 25.12 24.36 23.17 22.52 22.70 22.12 21.44 22.58 22.46 22.90 21.21 21.37 21.95 21.70 20.74 20.55 22.70 21.14 20.83 20.43 20.34 19.78 19.70 20.76 23.32
34.70 35.60 36.42 35.44 33.64 33.44 33.16 32.49 31.32 30.60 30.64 30.01 29.36 28.51 28.01 26.59 25.03 24.00 23.40 23.17 23.06 21.65 22.22 21.94 21.81 21.77 22.65 22.22 21.55 20.98 20.69 25.31 25.34 21.35 20.50 20.68 20.71 20.40 20.07 19.51 19.01 18.80 19.12 19.34
33.40 29.16 30.76 30.44 31.04 30.51 31.28 32.16 32.08 31.27 30.45 29.49 28.51 27.67 25.77 24.23 22.96 22.27 22.47 22.82 22.69 22.11 22.19 22.41 21.88 23.51 23.64 22.91 21.60 20.65 19.93 20.73 25.58 20.52 20.36 20.78 20.37 19.47 19.37 18.77 18.20 18.25 18.56 21.03
37.15 36.11 35.29 34.29 31.66 30.51 30.16 31.06 32.09 32.26 31.18 29.69 28.37 26.35 24.48 24.00 23.05 21.87 21.02 20.80 20.57 20.58 21.90 22.36 22.78 23.13 23.69 23.55 22.66 21.19 20.06 20.15 20.63 20.35 20.85 20.08 19.77 19.21 18.59 18.27 18.45 18.02 18.63 20.47
36.14 34.23 33.29 32.53 32.24 31.30 30.63 30.07 29.95 30.07 29.92 28.89 27.80 26.33 26.19 24.81 22.91 21.58 20.72 20.27 19.78 18.77 19.01 21.35 27.17 24.12 22.33 24.15 23.71 20.71 19.67 19.20 20.37 20.11 19.86 21.02 18.01 18.06 17.75 18.00 18.28 18.59 19.04 19.61
31.51 31.66 31.61 30.39 31.36 31.36 29.86 30.25 30.11 29.29 28.73 28.22 26.81 25.34 23.73 22.76 21.93 20.68 20.40 18.51 18.81 19.37 19.80 22.05 22.64 21.47 21.16 21.79 26.03 20.08 19.05 18.82 18.92 18.16 17.99 18.59 17.20 17.48 17.79 19.54 19.34 19.27 18.86 18.38
30.31 30.72 30.00 29.83 28.74 29.38 29.79 29.42 29.30 28.20 27.15 27.86 26.34 23.99 22.32 20.82 20.27 19.66 19.08 18.40 19.96 21.88 21.67 24.26 21.17 20.63 21.38 23.19 20.60 18.44 17.98 16.78 17.30 16.31 16.13 16.88 16.85 16.95 17.58 18.00 18.64 18.16 17.67 17.71
30.59 30.79 30.19 30.09 28.79 25.88 25.29 25.78 26.85 26.02 25.37 23.87 22.26 21.26 19.96 17.94 18.01 17.98 19.51 19.32 20.83 25.61 21.19 19.76 20.05 24.02 23.11 23.67 18.71 17.76 16.98 15.48 15.67 16.57 15.93 16.22 16.70 16.92 17.55 17.52 16.67 16.21 16.86 15.86
31.63 30.96 30.03 28.83 27.25 24.75 23.84 23.52 23.19 23.22 21.87 21.14 20.71 20.21 19.91 19.30 19.33 19.04 17.77 21.02 20.96 23.32 19.08 18.84 23.85 25.73 24.66 18.53 17.88 16.65 15.37 14.56 14.37 15.14 16.27 16.43 17.51 17.19 15.18 13.80 15.39 15.67 15.11 15.97
29.97 29.05 26.31 25.15 24.74 23.54 20.61 19.03 20.68 20.01 19.90 20.21 19.45 20.05 19.87 18.21 17.00 18.55 21.68 24.50 24.77 20.99 18.95 20.65 22.01 24.08 22.14 15.39 14.94 14.47 14.26 13.61 13.71 14.68 16.11 19.03 16.20 13.87 11.98 13.57 14.18 14.89 14.79 15.31
27.26 25.85 24.54 23.75 21.83 19.67 18.59 18.22 17.69 17.69 17.96 17.41 17.38 17.74 18.58 18.66 17.97 16.09 16.43 17.94 22.60 17.81 15.64 20.60 21.84 21.69 15.45 14.79 14.57 14.55 14.30 14.11 14.31 11.56 12.46 11.23 10.70 9.49 12.16 12.95 12.64 13.33 15.13 13.22
26.53 25.35 23.54 22.83 21.26 20.62 19.92 20.17 18.24 18.04 17.87 16.15 15.65 16.09 16.34 16.96 17.77 15.46 15.81 17.41 16.04 17.48 13.48 13.76 15.31 15.66 14.67 14.65 15.14 14.01 12.93 12.74 13.40 12.62 14.88 11.54 11.41 11.05 11.39 11.69 12.11 12.32 12.53 12.88
24.60 24.60 21.33 20.27 20.68 20.50 19.60 19.70 19.11 18.41 18.26 17.17 15.36 14.70 15.11 15.51 16.77 15.77 17.28 14.77 14.34 13.27 12.95 13.32 13.60 15.13 14.69 14.15 13.17 12.39 12.46 12.09 14.43 14.22 13.29 11.33 11.06 10.52 11.51 11.89 12.29 12.90 12.79 12.07

GFSNGP_sfc_wetblb_003.txt.gz
Wetbulb
34.21 34.93 35.67 35.01 34.41 34.14 32.16 32.55 28.85 32.64 33.73 36.95 39.87 41.91 41.07 41.83 42.63 42.46 42.98 43.72 43.67 41.80 40.44 39.00 37.17 34.85 33.88 32.95 32.72 32.39 31.33 30.68 30.08 30.01 30.20 30.38 30.35 29.94 29.66 28.92 28.08 27.87 28.28 27.48
31.88 34.87 34.39 32.94 34.69 37.08 35.34 36.24 35.42 36.60 35.35 41.92 43.71 41.09 39.09 41.42 42.65 42.45 43.05 43.83 43.42 42.38 40.59 38.44 36.58 34.25 33.36 32.06 31.54 31.85 30.60 30.04 30.48 30.57 30.67 30.46 29.58 28.87 28.21 27.60 27.47 27.39 26.44 25.96
29.61 36.86 34.85 30.24 34.07 36.72 37.51 39.26 38.41 33.94 38.66 42.83 40.70 39.46 39.30 40.95 43.39 43.23 43.68 43.63 42.70 41.89 40.50 37.58 35.37 34.04 31.72 30.85 30.84 30.42 30.13 30.24 30.53 30.74 30.36 29.14 28.62 28.02 27.30 26.00 25.52 25.56 25.24 25.02
31.35 35.40 27.94 36.12 43.03 42.09 39.44 39.42 39.88 39.88 41.43 42.45 41.29 38.12 38.33 39.35 42.07 42.01 43.19 42.99 41.93 40.08 37.47 35.70 32.96 31.86 30.92 30.85 30.41 30.03 29.59 29.85 30.39 30.43 29.28 28.72 27.41 25.86 24.86 24.91 24.81 24.38 24.93 24.54
32.40 29.86 33.22 36.12 41.25 40.56 38.52 37.16 41.59 41.13 41.77 38.21 38.01 38.56 39.74 39.75 39.47 40.25 41.47 41.34 39.62 38.62 35.71 33.53 32.11 31.38 30.76 29.38 29.01 29.11 28.77 29.35 30.13 29.60 28.01 26.72 25.10 24.14 24.56 23.87 23.78 24.17 23.95 23.07
33.95 27.06 25.42 32.41 39.20 41.71 43.14 34.48 42.90 43.03 42.27 37.30 38.40 37.05 39.89 35.40 35.48 35.36 36.52 37.06 35.42 34.59 33.60 31.81 30.19 30.89 29.88 28.15 28.28 28.14 29.09 28.76 28.14 27.44 26.18 24.78 24.00 23.59 23.69 23.39 24.34 23.87 23.48 22.86
32.34 31.01 31.10 36.91 37.77 39.57 33.27 33.65 37.91 42.19 41.55 39.42 37.53 37.27 34.93 33.61 32.37 33.57 33.64 33.13 33.77 33.60 31.51 29.53 29.69 30.54 28.48 27.63 27.10 27.71 28.00 27.24 26.64 25.73 24.74 23.91 23.21 22.77 22.65 21.79 22.10 20.99 21.94 21.39
30.27 27.53 24.71 38.37 37.29 34.45 36.88 36.14 37.65 37.75 36.32 35.32 35.64 34.96 33.77 33.43 32.87 32.63 31.71 31.52 31.84 30.56 28.87 27.90 28.95 29.52 26.85 26.14 26.05 26.49 26.42 25.58 24.34 23.56 26.13 25.30 22.67 21.83 21.21 20.64 20.21 20.04 20.19 21.01
33.79 32.73 38.24 37.97 37.56 38.43 38.59 37.58 35.98 36.33 37.19 37.22 35.54 34.48 34.52 32.76 31.72 30.88 30.42 29.47 30.23 29.17 27.25 26.40 26.90 27.96 25.14 23.79 25.16 24.90 24.16 23.15 22.68 23.78 23.51 23.19 21.10 20.67 21.45 20.52 19.94 20.21 22.86 21.77
37.26 36.18 36.20 36.98 38.15 38.47 38.24 36.59 37.03 37.99 37.88 38.21 34.90 34.50 32.68 32.00 30.63 29.51 29.29 28.34 28.72 27.76 25.88 23.98 24.48 24.77 24.03 24.35 24.68 23.70 21.78 21.52 22.12 21.87 21.78 20.97 22.90 23.26 21.13 20.51 19.88 22.85 22.90 22.24
35.40 34.48 35.21 37.45 36.88 36.99 36.57 37.31 37.25 37.30 37.53 36.50 35.00 33.51 32.98 31.57 30.34 29.59 28.70 28.34 27.78 26.34 24.88 22.79 23.04 22.98 23.45 23.83 23.50 22.10 21.30 21.72 21.19 22.13 19.85 19.99 21.65 20.60 23.30 21.89 23.53 23.48 22.73 22.98
35.55 38.93 38.98 37.92 38.16 37.33 36.94 36.17 36.65 35.89 35.11 35.75 35.75 33.85 33.09 31.77 31.35 29.84 28.33 27.35 25.49 24.09 23.17 21.86 22.41 22.37 22.67 23.21 22.51 21.64 21.37 22.05 21.87 21.78 19.80 21.02 19.93 20.27 26.19 28.11 29.11 29.16 29.03 27.27
40.18 37.38 36.24 36.40 36.84 37.06 36.41 36.35 36.58 35.70 36.00 34.29 34.31 34.33 33.54 31.61 30.42 32.61 28.05 26.54 24.69 23.66 22.67 22.01 21.96 21.78 21.99 22.42 21.98 21.03 19.82 21.27 21.56 23.34 20.77 19.63 20.20 19.58 18.72 22.67 27.31 27.25 27.61 27.98
37.11 37.80 36.25 35.74 35.22 36.02 36.51 36.41 36.63 34.77 34.66 34.65 33.71 33.73 33.18 32.20 31.38 28.57 27.19 26.01 24.04 22.91 21.90 21.88 21.53 20.99 21.61 21.82 21.68 20.10 19.85 26.47 20.73 20.03 19.16 19.34 20.10 19.84 19.37 18.97 18.46 19.28 24.17 25.68
35.49 36.47 37.59 35.43 35.10 33.94 34.91 35.22 33.51 32.17 32.11 31.48 32.21 31.92 31.40 29.10 27.90 26.60 24.55 24.21 23.88 22.04 21.39 21.44 20.70 20.32 21.42 21.64 22.37 20.65 20.96 21.43 20.94 19.87 19.70 22.09 20.50 20.03 19.44 19.29 18.62 18.33 19.39 22.11
33.67 34.48 34.91 34.21 32.91 33.32 33.58 33.04 31.55 30.40 30.39 29.78 28.97 28.40 27.39 26.35 24.59 23.06 22.60 22.62 22.55 20.87 21.17 20.34 21.14 20.97 21.82 21.68 21.09 20.16 20.02 24.93 24.74 20.68 20.03 20.15 19.88 19.15 18.78 18.09 17.47 17.37 17.74 18.20
32.49 27.77 29.10 28.61 30.80 30.84 32.03 33.00 33.31 31.01 29.23 28.45 26.71 25.64 24.65 23.35 22.11 21.09 21.02 21.68 21.76 21.37 21.59 22.02 21.43 23.14 23.19 22.55 21.00 19.80 19.20 20.23 24.76 19.89 19.63 19.88 19.09 18.20 18.00 17.26 16.82 16.95 17.38 20.01
35.71 34.75 34.83 34.46 32.02 30.16 29.38 29.76 29.88 30.04 29.12 28.64 25.82 24.10 22.29 22.44 21.32 20.49 20.27 20.04 19.78 19.81 21.54 22.14 22.48 22.74 23.32 22.93 21.85 20.35 19.54 19.41 19.73 19.31 19.61 18.58 18.44 18.03 17.22 17.00 17.24 16.88 17.65 19.49
34.93 33.88 32.70 32.25 31.84 30.91 30.18 29.74 29.34 29.42 28.39 26.49 25.01 23.31 22.95 21.77 20.72 19.92 19.99 19.55 19.13 18.08 18.41 20.62 27.02 23.67 21.68 24.37 22.51 20.18 18.37 17.78 18.86 18.45 18.25 19.79 16.93 16.78 16.55 16.83 17.12 17.60 18.19 18.47
31.29 31.71 31.15 29.69 30.49 30.76 28.98 29.34 29.04 27.68 27.10 26.41 25.37 24.12 22.05 20.78 20.94 20.12 19.89 18.58 18.13 18.84 19.26 22.09 22.14 20.95 20.65 21.77 24.78 18.32 17.44 17.07 17.54 16.63 16.58 17.77 16.02 16.15 16.63 18.43 18.44 18.21 17.67 17.46
29.86 30.32 29.77 29.48 28.24 28.93 29.33 29.41 28.73 27.22 26.08 26.21 25.30 23.53 21.90 19.63 19.51 19.37 18.79 17.98 19.62 21.40 21.07 23.85 20.64 20.29 20.89 21.65 19.14 16.95 16.38 15.22 16.39 15.38 14.86 15.51 15.56 15.70 16.34 16.89 17.59 17.15 16.70 16.71
30.00 29.72 28.50 28.74 27.96 26.39 27.03 27.88 27.77 26.50 25.10 23.10 21.73 20.86 19.58 17.69 17.66 17.72 19.11 18.96 20.44 25.11 20.50 19.20 19.64 23.61 22.84 21.87 17.30 16.50 15.73 14.37 14.62 15.60 14.80 14.94 15.52 15.78 16.20 16.12 15.31 14.63 15.67 15.08
30.54 30.28 29.92 29.24 27.66 25.37 25.50 25.27 24.75 24.12 22.06 21.04 20.67 19.86 19.80 18.95 19.14 18.93 17.81 20.93 20.57 22.77 18.43 18.74 23.99 25.62 22.94 17.44 16.96 15.67 14.41 13.67 13.30 13.90 15.13 15.31 16.20 15.74 13.85 12.72 13.81 14.07 13.23 13.91
29.24 28.78 26.99 26.37 25.73 24.85 21.74 20.06 20.86 20.11 19.73 20.14 19.77 20.08 19.60 18.16 17.12 18.71 22.07 24.66 24.73 20.60 19.17 20.47 21.75 23.78 20.69 14.45 13.95 13.71 13.52 12.61 12.40 13.23 14.78 17.62 14.51 12.66 11.16 11.85 11.66 12.44 12.54 13.12
27.50 26.55 25.96 24.07 21.93 19.34 18.42 18.35 18.06 18.08 18.38 17.80 17.86 18.17 18.68 18.52 18.45 16.51 17.10 19.05 22.08 17.11 15.09 20.97 21.84 20.95 14.64 14.05 13.74 13.69 12.83 12.43 12.89 9.86 10.67 9.77 9.46 8.96 9.99 10.59 10.72 11.31 13.43 12.11
26.93 25.49 23.12 23.15 21.21 20.43 19.92 20.33 17.96 17.77 17.92 16.25 15.78 16.22 16.48 17.17 18.13 14.96 15.65 17.25 15.53 17.40 13.12 13.21 14.85 14.89 13.74 13.35 13.85 12.22 11.36 11.29 11.96 11.27 13.62 11.21 10.16 9.38 9.86 10.09 10.31 10.67 10.90 10.88
23.62 24.04 20.76 19.55 20.10 20.29 19.81 19.80 18.81 18.15 18.26 17.67 15.50 14.91 14.86 15.16 16.59 15.55 17.00 14.34 14.05 12.94 12.42 12.58 12.51 13.82 13.63 13.22 11.94 11.25 11.30 11.01 13.45 13.06 11.78 8.66 8.99 8.72 9.98 10.38 10.72 11.18 11.08 10.80

GFSNGP_sfc_wetblb_006.txt.gz
Wetbulb
33.43 33.79 33.95 34.38 33.55 33.01 30.76 30.59 26.42 29.35 30.68 35.31 37.99 39.16 41.96 43.02 42.25 42.69 43.61 42.43 42.00 40.21 38.56 36.42 35.03 33.31 32.62 31.95 31.80 32.14 31.55 30.88 29.93 29.12 29.28 29.35 29.10 28.65 28.41 28.13 27.44 27.37 26.95 26.24
31.31 35.15 33.92 32.63 34.92 35.47 34.76 33.18 32.17 32.36 31.77 39.10 40.93 42.21 42.51 41.13 41.67 42.37 43.23 43.30 42.20 40.78 38.60 36.71 34.64 32.89 32.53 31.31 31.00 32.09 31.30 29.57 29.49 29.55 29.68 29.04 28.22 27.65 27.94 27.29 26.58 26.24 25.30 24.94
28.42 35.32 34.83 29.41 33.23 34.07 35.28 36.22 34.51 30.41 34.81 39.31 39.57 40.92 39.03 39.69 42.27 42.85 43.46 43.03 41.79 40.38 38.92 35.99 34.03 33.23 31.48 30.72 31.25 30.71 29.77 29.41 29.59 29.82 29.04 28.01 27.46 27.43 27.03 25.27 24.62 24.01 23.79 23.62
29.24 32.93 27.80 36.28 39.74 37.78 35.56 37.97 38.10 37.55 39.94 41.11 40.15 38.25 37.63 38.67 40.78 42.37 43.55 43.10 41.63 39.59 36.26 34.08 32.57 31.02 30.56 30.76 30.14 29.71 29.03 29.11 29.59 29.09 27.85 27.27 26.56 25.61 24.48 23.70 23.21 23.02 22.77 22.63
30.40 30.73 33.95 36.44 40.12 36.02 34.87 35.66 39.83 39.08 40.93 41.37 37.71 37.40 37.59 38.04 39.08 41.33 42.39 42.04 40.14 38.63 35.44 33.17 31.64 31.15 30.50 29.29 29.08 29.08 28.19 28.41 28.74 28.34 27.02 26.11 24.65 23.70 23.05 22.52 22.10 21.67 22.51 21.77
32.75 29.11 23.87 31.73 40.88 44.13 42.79 35.07 41.90 41.74 41.52 40.86 38.18 36.18 38.25 34.91 36.37 37.24 38.13 37.83 35.97 34.56 33.17 31.44 30.11 30.95 29.75 28.26 28.29 27.66 27.84 27.63 27.59 27.07 25.70 23.87 23.23 22.55 22.27 21.53 22.92 23.21 23.14 22.16
31.67 30.97 30.92 35.85 36.63 42.77 34.48 34.52 37.75 43.03 42.55 37.19 37.26 35.48 33.23 33.24 32.65 33.96 34.38 33.66 33.88 33.66 30.94 29.09 30.07 30.51 28.20 27.64 26.63 26.84 26.96 26.34 25.37 24.67 23.64 22.80 21.89 21.22 20.42 20.36 21.42 20.16 21.39 20.89
29.66 27.40 24.15 37.60 36.84 33.54 37.02 36.74 36.41 37.27 36.81 34.87 33.00 32.85 32.47 32.62 32.20 32.62 32.23 31.51 31.73 30.20 28.34 28.25 29.66 29.89 27.16 25.22 25.13 25.65 25.32 24.21 23.20 23.02 25.42 23.94 20.93 19.96 19.96 19.75 19.50 19.30 19.81 21.01
32.85 31.88 37.21 37.12 37.36 38.90 37.97 37.20 35.18 36.14 36.20 35.48 33.49 32.88 33.10 30.91 30.61 30.59 30.52 29.99 30.41 28.92 27.44 26.66 27.21 28.36 25.01 22.78 24.51 23.86 22.89 22.15 22.49 22.57 22.58 22.32 19.93 19.66 20.70 19.74 19.46 19.80 22.45 21.41
35.79 35.12 35.99 36.31 37.05 36.61 36.59 35.70 36.28 37.23 36.60 36.71 33.37 32.52 30.90 31.01 30.21 29.31 29.26 28.42 28.92 27.89 25.81 23.97 24.40 24.10 23.80 23.63 23.64 22.69 21.04 20.98 21.33 22.30 20.30 19.70 22.62 22.62 20.72 20.05 19.40 21.84 22.23 21.85
35.30 36.60 35.92 36.79 36.30 35.54 35.62 36.32 36.64 36.88 37.10 35.85 34.42 32.73 31.43 29.57 28.96 28.76 28.22 27.88 27.73 26.29 24.69 22.59 23.29 22.67 22.73 23.02 22.70 21.49 20.71 21.12 21.16 21.12 19.10 19.16 21.22 19.98 22.67 21.00 21.99 22.76 22.20 22.43
35.61 38.97 38.17 37.05 36.69 36.46 35.85 35.14 36.20 35.70 35.06 35.87 35.57 32.87 31.23 29.03 28.77 28.47 27.05 26.68 25.32 24.36 23.15 21.79 22.29 21.89 22.00 22.46 21.90 21.10 20.79 21.72 22.39 20.83 19.25 20.63 19.45 19.70 25.73 27.37 28.68 28.66 28.48 26.68
39.75 36.25 35.43 35.61 36.16 35.93 35.10 35.06 35.48 34.95 35.53 33.67 33.97 33.55 31.92 29.50 28.61 31.27 26.57 25.45 24.56 23.34 22.62 21.90 21.38 20.87 21.00 21.42 21.42 20.87 19.79 20.86 21.32 22.92 20.34 19.24 19.73 19.05 18.05 21.68 26.40 26.59 26.93 27.15
36.34 36.95 35.85 35.83 35.73 35.84 35.89 35.20 35.39 33.71 33.95 34.03 33.02 32.96 31.98 30.62 29.02 27.11 25.64 23.98 23.21 22.60 21.68 21.31 20.54 19.83 20.50 20.94 21.05 19.85 20.79 26.87 20.20 19.59 18.69 18.69 19.61 19.29 18.55 17.97 17.46 18.16 23.30 25.05
34.77 35.60 37.17 35.27 34.65 33.90 34.37 34.35 32.82 32.22 32.75 32.24 32.60 31.47 30.67 28.17 26.99 25.13 23.96 24.03 23.55 21.65 20.72 20.29 19.70 18.96 20.51 21.42 22.05 20.28 21.03 21.00 20.31 19.44 19.33 21.32 20.07 19.08 18.40 18.09 17.34 17.08 18.20 21.09
33.43 34.29 34.87 34.24 32.81 33.17 33.55 33.02 32.27 31.59 31.03 30.72 30.16 29.13 27.70 26.43 24.59 23.04 22.30 22.38 22.19 20.54 20.54 19.82 20.52 20.43 21.37 21.47 20.44 19.56 19.67 25.25 24.53 20.41 19.49 19.43 18.95 17.98 17.69 16.73 16.10 16.06 16.64 17.11
32.52 29.24 30.23 30.63 32.58 32.42 32.73 33.30 33.00 32.13 30.62 29.87 26.78 25.92 24.93 23.26 21.97 20.84 20.54 21.09 21.19 20.81 21.29 22.11 21.24 22.68 22.68 21.78 20.34 19.29 18.87 19.87 24.29 19.00 18.60 18.84 17.78 17.18 16.97 15.96 15.50 15.78 16.31 18.94
36.25 35.13 35.55 35.47 32.97 31.43 30.78 30.57 30.18 29.79 28.45 27.03 25.76 24.36 23.44 23.20 20.96 19.67 19.23 19.65 19.86 19.79 21.52 21.94 22.24 22.28 22.73 22.17 21.14 19.84 19.15 18.56 18.65 18.11 18.23 17.26 17.33 17.22 16.13 15.85 16.19 15.79 16.69 18.53
34.67 34.43 33.90 33.80 33.32 31.94 30.24 29.23 28.51 27.91 27.01 25.71 25.06 23.01 21.88 20.60 20.13 19.11 19.33 19.23 18.86 18.16 17.95 20.60 26.97 22.93 21.48 24.49 22.04 19.31 17.14 16.51 17.53 17.01 16.96 18.99 16.14 15.74 15.34 15.76 16.08 16.72 17.28 17.50
31.83 31.97 31.76 30.38 31.24 30.99 28.81 28.61 27.86 26.81 25.85 25.23 23.82 22.32 20.00 18.86 19.71 19.11 19.36 17.63 17.81 18.50 19.57 22.30 21.54 20.41 20.47 22.48 23.15 17.10 16.30 15.90 16.40 15.68 15.50 16.79 14.83 15.18 15.75 17.44 17.51 17.31 16.78 16.41
29.43 29.99 29.87 29.60 28.44 29.14 28.87 28.66 27.74 26.00 25.57 25.65 24.17 22.45 20.60 18.83 19.00 19.07 18.95 18.30 19.18 20.99 20.97 23.57 20.08 19.98 20.71 20.65 18.17 16.02 15.34 14.34 15.32 14.44 13.94 14.43 14.52 14.75 15.39 15.90 16.26 16.06 15.44 15.37
28.51 28.81 28.15 28.80 28.43 27.53 28.00 28.16 27.27 26.19 24.91 23.30 22.23 21.10 19.66 17.59 17.82 18.18 19.10 18.91 20.35 25.12 20.44 19.19 19.51 23.98 22.43 21.29 16.42 15.55 14.81 13.56 13.66 14.55 13.82 13.91 14.52 14.75 15.21 14.86 14.07 13.30 14.17 13.61
29.25 29.34 28.88 28.66 28.08 27.12 27.16 26.43 25.68 24.57 22.79 21.90 21.24 20.59 20.02 19.17 19.18 19.18 18.17 21.22 20.68 22.90 18.78 19.09 24.28 25.72 22.64 16.67 16.03 14.74 13.68 12.94 12.43 12.68 13.80 14.18 15.07 14.51 12.68 11.41 12.30 12.46 11.11 11.81
28.42 28.10 27.52 27.97 27.87 26.56 22.99 21.33 21.77 21.25 20.82 20.63 20.01 20.40 19.92 18.49 17.84 19.88 22.89 24.82 25.00 21.34 19.23 20.17 22.00 23.44 20.16 13.63 13.18 12.92 12.75 11.60 11.27 12.00 13.54 16.77 13.09 11.60 10.09 10.43 9.98 10.61 10.92 11.58
27.62 27.60 27.91 27.78 25.22 21.62 20.21 19.73 19.08 18.89 18.80 18.25 18.38 18.53 18.80 18.99 19.37 17.52 18.36 19.58 22.26 17.02 15.08 21.45 21.78 20.74 13.80 13.15 12.63 12.75 11.64 11.28 11.65 9.58 9.32 8.83 8.47 8.14 8.69 9.34 9.35 9.98 12.45 11.75
27.39 27.12 25.41 25.29 23.03 22.00 21.24 21.41 18.55 18.37 18.36 16.57 16.00 16.66 16.83 17.92 18.85 15.20 15.72 16.94 15.25 17.13 12.49 12.46 13.97 14.14 12.69 12.38 12.98 11.53 10.54 10.43 11.31 10.47 12.74 9.72 8.91 8.12 8.67 9.11 9.30 9.60 9.92 9.87
23.49 24.29 21.20 19.89 20.66 20.85 20.04 19.92 19.45 18.84 18.95 18.09 15.58 15.22 15.53 15.41 16.65 15.19 16.68 13.72 13.28 12.09 11.44 11.42 11.35 12.67 12.98 12.62 11.57 10.56 10.68 10.47 12.78 12.44 9.29 6.63 7.23 6.79 8.66 9.20 9.37 10.01 10.26 10.29

GFSNGP_sfc_wetblb_009.txt.gz
Wetbulb
33.13 33.85 33.43 33.22 33.18 33.04 31.05 30.71 26.36 29.30 29.64 33.81 36.86 38.49 40.00 41.74 42.93 43.46 42.97 41.75 41.51 40.46 39.20 37.88 36.99 36.74 36.33 35.24 35.31 35.44 34.50 33.98 33.04 33.03 33.19 32.89 32.31 31.97 31.98 32.26 31.84 31.64 31.03 30.36
31.07 34.85 34.34 31.41 34.07 34.33 33.56 33.10 31.62 31.93 31.16 38.22 39.60 40.51 40.80 42.02 43.31 43.23 43.23 42.27 41.22 39.75 38.20 37.40 36.96 35.64 34.83 34.06 34.01 34.94 33.89 32.39 32.56 32.70 32.53 31.64 31.39 31.13 31.34 30.95 30.74 30.45 29.58 29.19
28.14 34.52 34.01 30.74 33.32 33.72 34.58 35.70 33.97 29.81 34.74 39.32 38.70 39.47 40.48 42.23 41.37 42.86 44.34 42.39 40.57 39.41 38.26 36.25 35.40 34.85 33.72 33.36 33.88 33.30 32.39 32.23 32.36 32.29 31.14 30.65 30.54 30.66 30.11 29.54 29.55 28.80 28.59 28.30
29.34 32.17 26.62 37.05 40.83 38.80 35.91 36.24 37.96 37.50 38.16 39.56 39.57 40.55 42.01 40.81 39.40 43.14 43.87 42.35 40.89 39.13 36.25 35.00 34.77 33.42 32.85 33.30 32.78 32.17 31.82 31.82 31.88 31.07 29.90 29.70 29.78 29.33 28.90 28.80 28.26 28.01 27.58 27.17
29.55 30.73 34.16 35.47 38.23 36.75 35.11 34.57 38.98 38.53 39.65 40.58 39.84 39.67 40.74 38.42 39.28 43.34 44.03 42.94 40.62 38.99 36.18 34.73 33.59 33.40 32.46 31.86 31.80 31.69 31.15 30.96 30.77 30.31 29.19 29.14 28.40 28.01 27.81 27.74 27.24 26.71 27.09 26.72
33.13 28.88 27.26 33.30 39.53 41.37 41.71 34.27 39.76 40.14 40.73 39.66 40.45 37.57 40.23 35.49 37.33 39.14 39.94 39.54 37.23 36.13 34.71 33.14 32.32 33.08 31.94 31.06 31.24 30.17 30.23 29.68 29.97 29.63 28.87 27.91 27.51 27.05 26.40 26.51 26.81 27.10 26.77 26.79
31.89 31.08 31.94 37.17 38.54 42.98 33.18 34.50 37.26 41.42 41.52 39.25 39.76 39.13 35.53 34.48 34.15 35.38 36.86 35.51 35.28 35.19 32.82 31.40 32.47 32.73 30.54 30.25 28.92 28.89 29.04 28.57 28.03 27.99 27.07 26.84 26.26 25.94 25.37 25.53 25.40 25.03 25.84 26.45
32.34 29.74 24.57 37.43 38.87 35.44 37.68 37.30 37.65 39.71 39.80 36.37 33.85 33.16 32.90 33.05 33.09 33.56 32.83 32.37 32.50 31.07 30.01 30.93 31.97 31.40 29.08 27.24 27.74 28.09 27.85 27.10 26.58 26.84 27.72 25.93 25.26 24.70 24.59 24.48 24.31 24.39 24.90 25.95
32.98 32.09 37.30 38.21 37.79 39.28 38.26 37.03 36.96 37.94 37.55 35.54 33.51 32.55 32.07 30.74 31.26 31.09 30.88 30.42 31.18 29.79 28.69 29.23 30.43 30.22 27.04 25.86 27.07 26.45 26.17 25.26 25.34 25.64 25.56 25.35 24.58 24.15 25.18 24.31 23.83 23.99 24.90 24.72
35.82 35.98 37.10 38.26 38.33 37.11 36.23 36.35 37.10 37.23 36.29 35.77 32.38 31.89 30.03 30.36 29.98 29.59 29.98 29.37 29.91 29.15 27.48 26.12 27.19 27.60 26.58 26.24 26.24 25.75 24.79 24.69 25.13 24.53 23.64 23.83 25.50 25.31 24.53 23.94 23.66 24.49 24.46 23.95
35.26 37.41 36.95 37.46 36.96 36.05 35.68 36.04 35.97 36.09 35.67 33.77 32.42 30.72 30.22 29.34 29.24 29.24 29.00 29.26 29.49 27.90 26.08 24.59 25.52 24.92 25.58 25.29 25.71 24.34 23.89 24.20 24.31 23.53 23.16 23.32 24.18 24.10 25.42 25.25 25.67 25.68 25.06 24.92
35.71 39.34 38.19 37.14 36.48 36.42 35.75 34.87 35.27 35.00 33.83 34.20 33.41 30.65 30.16 28.62 28.82 28.35 27.37 27.48 26.57 25.87 24.64 23.78 24.20 23.77 24.01 24.65 24.89 24.02 23.58 24.53 24.24 23.58 23.23 23.64 23.09 23.31 26.37 27.45 28.10 28.00 27.89 27.16
39.43 36.52 36.10 35.83 36.31 36.03 34.68 34.72 35.29 34.58 34.72 32.65 33.07 31.83 30.40 28.64 28.54 30.73 27.42 26.77 25.93 24.79 24.17 23.55 23.15 22.45 22.88 23.49 23.98 23.33 22.67 23.32 24.79 23.92 22.88 22.60 22.45 21.86 20.58 23.08 25.51 25.63 26.36 26.71
37.48 36.89 35.70 35.58 35.87 35.80 35.58 35.03 35.04 33.43 33.67 33.11 32.29 32.20 31.66 30.00 28.83 27.21 25.79 24.97 24.90 23.77 22.62 22.47 21.97 21.14 22.14 23.14 23.47 23.76 24.83 26.03 22.70 22.42 22.20 22.32 22.46 21.72 20.84 19.89 18.89 19.82 23.51 25.06
35.60 35.49 36.48 35.26 34.80 33.82 34.38 34.31 32.66 31.62 31.70 31.37 31.99 30.57 29.62 27.54 26.26 24.35 24.20 24.64 24.19 22.67 21.76 21.70 21.10 20.20 22.18 23.32 23.29 22.50 23.13 23.74 22.85 22.55 22.18 23.72 21.96 20.94 20.44 19.82 18.95 18.82 19.75 21.75
33.85 34.52 34.78 34.36 33.41 33.44 33.62 33.05 31.97 31.34 31.65 31.27 30.05 28.85 27.77 26.60 24.68 23.49 23.30 23.88 23.35 21.65 21.47 21.15 21.20 21.50 22.82 22.99 21.86 21.61 22.71 26.69 25.33 22.36 21.44 21.11 20.65 19.61 19.51 18.68 18.04 18.07 18.09 18.51
32.72 29.39 30.40 31.17 32.50 32.27 32.69 33.55 33.06 32.50 31.49 29.97 27.27 26.43 25.45 23.76 22.92 22.31 21.82 22.36 22.41 21.73 22.14 22.71 21.96 23.42 23.57 22.56 21.81 21.32 21.49 21.61 24.27 20.82 20.20 20.02 19.32 19.10 18.77 17.88 17.44 17.52 17.89 19.62
36.30 36.17 36.49 36.62 34.25 32.63 32.06 32.30 32.01 31.36 29.25 27.42 26.30 24.99 24.23 24.47 22.21 20.87 20.46 20.74 20.66 20.52 22.03 22.77 22.99 23.27 23.15 22.88 22.13 21.63 20.65 19.88 19.92 19.33 19.15 18.57 19.51 18.74 17.70 17.31 17.41 17.13 17.94 19.25
35.21 35.55 35.47 35.19 34.35 33.16 31.17 30.18 29.48 28.32 27.57 26.71 25.71 23.53 22.80 21.99 21.14 20.26 20.49 20.41 19.92 19.17 19.37 22.95 26.92 23.70 23.33 25.03 22.35 20.21 18.86 18.18 18.42 18.15 18.06 19.48 17.67 17.22 16.98 17.07 17.36 17.83 18.16 18.07
32.33 32.57 32.61 31.46 31.89 31.39 29.06 28.70 28.05 26.38 25.80 24.79 23.49 22.30 20.12 19.81 20.56 20.16 20.30 18.36 19.27 20.11 21.29 22.54 22.03 21.52 21.97 24.68 22.60 18.58 17.80 17.33 17.37 16.86 16.51 17.87 16.15 16.61 16.90 17.57 17.78 17.34 17.22 16.81
30.04 30.64 30.35 30.00 28.59 28.91 28.45 28.36 27.82 26.28 25.31 25.01 23.50 21.86 20.44 19.23 19.53 19.85 19.84 19.04 20.32 22.19 22.06 23.58 21.13 21.01 22.20 21.17 18.79 17.43 16.70 15.93 16.26 15.72 15.04 15.19 15.31 15.49 16.02 16.36 16.39 15.96 15.43 15.16
28.81 28.74 28.28 28.50 27.75 26.11 26.39 27.20 27.25 25.79 24.66 23.23 21.88 21.18 20.11 18.59 19.04 19.28 20.13 20.12 21.15 25.56 21.48 20.53 20.96 24.14 22.96 21.12 17.48 16.70 15.93 14.96 14.93 15.21 14.70 14.61 14.99 15.12 15.35 15.13 14.23 13.75 14.09 14.06
28.72 29.07 28.76 28.24 27.59 26.17 26.65 26.48 26.01 25.10 23.51 22.50 21.68 21.14 20.77 20.24 20.70 20.25 18.77 21.96 21.54 23.68 20.11 20.53 25.76 25.41 22.53 17.03 16.57 15.51 14.76 14.04 13.44 13.52 14.20 14.64 15.18 14.89 13.93 12.74 13.02 13.63 12.05 12.06
28.29 28.58 27.53 27.53 27.14 25.98 23.28 22.77 22.46 22.23 21.80 21.23 20.82 21.34 20.69 19.27 19.11 20.94 23.43 24.86 26.01 22.08 20.00 20.97 23.31 23.45 19.38 14.53 13.99 13.77 13.60 12.72 12.43 12.93 13.92 16.94 13.55 13.03 11.60 11.34 11.14 11.39 11.48 12.32
27.48 27.52 27.18 27.57 26.96 23.27 21.95 20.50 19.60 19.14 18.94 18.42 18.58 18.86 19.35 19.93 20.26 18.67 19.80 20.94 23.93 18.11 16.50 22.48 22.17 20.10 14.20 13.56 13.06 13.28 12.64 12.31 12.66 13.41 12.44 11.67 11.24 10.69 10.49 10.52 10.51 10.80 13.42 13.52
27.39 28.49 28.06 26.80 24.28 23.71 22.25 22.37 19.52 18.95 18.67 16.77 16.07 16.60 17.66 19.52 20.33 16.70 16.75 17.59 15.85 17.45 12.90 12.97 14.36 13.97 12.88 12.91 13.95 12.61 11.68 11.46 12.17 11.43 13.60 12.53 11.08 9.93 9.70 9.98 10.18 10.59 11.10 11.06
23.90 25.43 23.21 22.38 22.57 22.28 21.39 20.94 19.67 18.86 19.02 17.90 15.17 15.31 16.10 16.53 17.31 16.11 16.97 13.75 13.20 12.07 11.47 11.49 11.44 13.50 13.59 13.36 12.30 11.43 11.50 11.52 13.54 13.38 13.10 9.93 9.11 8.55 9.28 9.76 9.92 10.46 10.95 11.23

GFSNGP_sfc_wetblb_012.txt.gz
Wetbulb
34.21 35.02 34.80 34.08 33.56 34.55 31.68 32.69 28.99 32.75 33.31 37.19 40.13 41.05 42.41 44.07 44.39 44.13 46.12 48.08 46.67 47.06 48.55 49.49 46.91 43.11 39.99 38.48 39.07 40.97 42.13 41.58 40.10 39.78 39.31 38.52 37.95 37.35 37.32 37.54 36.89 36.80 35.88 35.37
31.57 35.09 35.55 33.16 35.23 35.34 34.90 34.76 34.19 34.63 33.90 41.12 41.98 43.19 42.80 43.37 42.62 43.23 45.73 47.18 46.24 46.06 46.46 44.46 40.37 38.99 37.82 37.41 38.64 39.56 40.64 38.83 37.83 37.80 37.66 37.17 36.78 36.52 36.63 35.87 35.86 35.35 34.71 34.27
29.05 35.88 35.43 31.89 35.03 35.87 35.94 36.63 35.50 31.40 36.86 40.73 38.01 39.02 39.61 41.18 42.72 44.59 45.56 46.35 45.15 44.62 43.59 41.37 39.38 38.18 37.16 38.10 39.36 40.24 37.71 37.47 37.23 36.96 35.89 36.03 36.10 35.94 35.25 35.09 34.97 34.20 33.83 33.63
29.80 33.53 28.78 38.12 41.17 40.55 38.06 38.30 38.79 38.40 39.52 40.48 40.93 42.11 42.34 44.72 44.67 43.88 47.03 45.88 45.03 42.19 41.00 40.42 40.46 39.60 39.30 39.41 38.63 37.65 36.87 36.48 36.48 35.86 34.83 35.20 35.26 34.46 34.27 34.44 33.80 33.91 33.19 32.72
31.08 31.42 35.33 38.12 38.53 39.83 37.11 37.45 41.33 40.00 40.99 41.99 43.25 43.40 43.38 40.75 41.71 45.20 47.65 46.56 45.24 42.70 40.55 40.18 38.87 38.86 38.52 37.75 37.54 36.82 35.84 35.54 35.42 35.06 34.30 34.27 33.69 33.48 33.31 33.32 33.35 33.04 32.65 31.69
33.47 29.25 28.99 38.15 40.94 42.94 42.28 35.82 41.98 41.19 41.63 41.62 42.29 37.95 42.20 39.41 42.99 45.25 43.77 42.42 40.22 39.15 38.98 38.60 38.23 38.63 37.28 36.09 36.25 35.23 35.06 34.56 34.88 35.10 34.12 33.47 33.18 32.70 32.05 33.08 32.25 32.37 31.58 31.63
32.67 31.26 35.58 41.10 41.38 44.51 35.20 37.03 41.99 42.51 43.70 43.50 41.66 41.65 38.14 39.75 38.04 41.00 43.07 41.45 40.39 39.94 38.61 36.93 38.12 37.85 35.90 35.61 34.06 34.27 34.46 34.13 33.64 33.86 33.28 32.92 32.27 32.17 31.96 31.95 31.45 31.23 30.66 31.41
34.68 30.90 31.27 42.35 42.65 38.84 42.31 43.52 41.79 42.76 42.97 42.64 40.55 37.72 37.22 37.33 37.80 37.78 36.09 36.39 37.19 36.00 35.26 36.23 36.96 36.48 34.18 32.17 33.34 33.42 33.29 32.40 32.13 32.21 31.35 31.60 31.46 31.13 31.04 31.09 30.35 29.93 30.00 30.47
38.57 39.59 43.45 44.23 44.46 45.42 43.13 41.79 42.19 42.55 42.33 41.58 38.09 36.25 36.04 35.05 34.48 34.75 35.58 35.53 35.97 34.83 34.51 35.63 36.22 34.41 30.53 31.30 32.84 32.59 31.93 31.01 30.81 30.92 30.62 30.86 31.12 30.58 30.88 30.15 29.29 28.79 28.51 28.49
40.06 43.66 43.35 44.60 45.09 43.45 41.46 41.01 41.42 42.92 41.40 40.39 37.54 36.21 34.23 33.91 33.88 33.37 33.49 33.00 33.96 33.38 32.59 32.57 34.02 32.94 31.71 32.17 32.74 32.02 30.62 30.21 30.20 29.98 29.92 30.39 30.32 30.21 29.97 29.09 28.60 28.02 27.68 27.20
41.43 44.17 45.16 44.09 43.23 41.62 40.18 40.34 40.07 40.82 40.03 38.26 36.83 35.90 35.31 33.58 33.06 32.99 32.83 33.19 33.06 31.55 30.80 30.07 31.44 31.18 31.39 31.73 32.38 30.82 30.17 29.85 29.89 29.91 29.84 29.46 29.06 29.42 29.26 29.65 28.82 27.64 27.60 27.43
41.76 44.31 44.46 43.47 41.52 40.93 40.25 39.07 38.97 37.59 36.59 37.16 36.71 34.75 34.48 33.26 33.71 32.87 31.96 31.81 30.88 30.49 29.87 29.63 29.87 29.44 30.13 31.30 31.49 30.40 29.28 29.47 29.57 29.38 29.20 28.87 28.77 28.76 27.25 27.08 27.68 27.61 27.57 27.35
45.81 43.34 41.62 41.22 41.11 40.85 39.58 38.78 38.90 38.10 37.08 34.52 35.39 34.38 34.21 32.97 32.98 33.26 32.05 31.01 30.08 29.23 28.97 29.07 28.86 28.49 29.25 30.34 31.25 30.40 29.64 29.29 28.94 28.31 28.05 27.82 27.28 26.49 25.33 27.39 26.89 26.18 26.12 26.70
43.87 41.95 40.50 40.17 41.36 40.05 39.33 38.48 38.06 37.03 36.69 35.80 34.91 34.61 33.89 32.35 31.98 31.09 30.23 29.85 29.40 28.91 28.63 28.73 28.30 27.64 29.15 30.16 29.97 29.61 28.97 27.92 28.46 27.88 27.80 27.68 26.80 25.82 25.32 24.14 23.31 24.33 25.98 25.44
42.36 40.97 40.64 40.66 39.06 37.86 37.63 37.13 35.57 34.29 34.10 34.05 34.64 33.06 32.37 30.82 29.48 28.49 28.92 29.03 28.51 28.13 27.75 27.81 26.91 26.45 28.90 29.45 28.62 28.51 28.66 28.24 28.17 27.77 27.31 26.72 26.14 25.05 24.53 23.94 23.24 23.15 23.99 25.05
38.94 38.99 38.84 38.76 37.25 36.38 36.90 36.68 35.42 34.36 34.37 33.07 32.34 32.13 31.37 29.98 28.59 28.15 28.12 28.74 28.06 27.11 27.04 27.00 26.71 27.18 28.42 28.35 27.98 28.44 28.84 27.50 26.91 26.65 25.99 25.27 24.69 23.70 23.52 22.97 22.37 22.58 22.50 22.51
36.72 34.41 35.02 34.60 34.74 35.81 36.35 37.91 37.32 35.18 33.83 32.88 30.90 30.04 29.29 28.25 27.56 27.18 27.75 29.02 28.19 27.24 27.43 27.38 26.07 27.36 27.49 27.59 27.63 27.43 27.24 26.37 24.46 25.45 24.81 23.80 23.37 23.06 22.68 21.99 21.73 21.84 21.97 23.04
41.12 40.90 40.17 39.64 37.43 36.60 36.09 35.62 34.91 34.42 32.83 31.25 30.12 29.44 28.48 28.97 27.69 26.85 26.49 26.71 26.33 25.96 26.44 26.77 27.10 27.05 26.81 26.79 27.09 26.74 26.04 24.84 24.37 23.72 23.27 22.63 22.95 22.65 21.80 21.40 21.34 21.01 21.60 22.32
39.70 39.46 39.87 39.04 38.20 36.78 35.23 34.69 34.10 32.38 30.79 30.26 29.90 29.42 29.41 28.25 27.27 26.05 26.76 26.14 25.36 24.65 24.62 27.28 27.18 27.05 26.72 26.75 26.16 25.67 24.60 23.65 22.82 22.70 22.01 21.78 21.79 21.65 21.21 21.04 21.08 21.21 21.16 20.64
36.29 37.40 37.71 36.35 35.97 35.49 33.73 32.90 32.09 30.70 30.54 30.10 28.51 27.23 25.88 25.65 25.79 25.80 26.55 25.53 26.51 26.94 27.47 27.50 26.78 26.97 27.67 26.15 24.42 24.11 23.19 22.56 21.78 21.44 20.90 21.23 20.77 20.78 20.77 20.38 20.17 20.08 19.90 19.58
34.41 34.49 34.02 33.73 32.78 33.19 32.69 32.09 30.89 28.80 28.66 29.73 28.82 27.23 25.81 25.27 25.37 24.83 23.89 23.42 24.46 27.29 26.92 26.04 26.15 25.95 26.10 25.00 23.70 23.18 22.30 21.70 21.01 20.52 19.74 19.61 19.68 19.91 19.84 19.83 19.39 18.70 18.19 17.85
33.12 32.80 32.05 31.71 31.45 30.21 31.18 31.91 30.60 28.86 28.44 27.89 26.82 25.36 23.97 23.12 23.61 23.67 25.70 25.31 25.78 27.26 26.03 25.88 25.75 25.76 25.61 22.50 22.79 22.00 21.15 20.45 20.13 19.89 19.42 19.13 19.13 18.93 18.81 18.38 17.60 17.73 17.89 17.93
32.63 32.36 31.75 30.89 30.24 29.03 29.87 29.71 29.05 27.95 26.48 25.89 24.96 24.69 24.58 24.43 25.03 23.76 21.84 25.22 26.30 25.68 25.48 26.47 27.43 25.36 22.36 21.96 21.31 20.58 20.16 19.37 18.98 18.87 18.74 18.79 18.88 18.46 17.66 17.38 17.40 17.71 17.12 16.95
31.48 31.80 30.69 29.81 29.65 28.69 26.53 27.02 26.82 26.82 26.20 25.54 25.03 24.96 24.17 23.37 23.50 25.88 26.63 26.18 26.92 25.54 25.49 26.57 25.99 23.36 19.84 20.44 19.74 19.21 18.96 18.74 18.31 18.32 18.59 18.65 17.73 17.41 16.99 16.67 16.27 16.75 16.70 16.61
30.54 29.66 29.29 29.06 28.86 27.26 25.32 25.01 24.08 23.94 23.52 23.12 23.11 23.69 24.65 25.94 25.10 24.50 25.20 25.40 25.71 23.89 23.70 23.98 22.79 20.01 19.62 19.18 18.70 18.56 18.37 18.05 17.96 19.13 18.66 17.37 17.06 16.65 16.57 16.25 15.96 16.12 16.89 17.91
29.62 29.41 29.71 29.51 26.93 26.14 25.44 26.29 24.03 23.84 22.99 21.33 21.21 22.18 23.16 23.90 24.08 22.49 22.17 21.68 21.14 20.46 19.28 19.19 19.54 19.13 18.35 18.22 18.74 18.03 17.59 17.47 17.23 17.19 17.34 17.04 16.68 15.92 15.65 15.52 15.46 15.67 15.98 16.18
28.31 28.04 25.91 25.12 25.95 26.38 26.03 24.83 23.65 22.94 23.08 22.34 19.91 21.08 21.15 20.79 21.17 20.40 20.40 19.12 18.54 18.08 17.85 17.70 17.47 17.65 18.12 18.06 17.54 17.23 17.16 17.08 17.18 16.96 17.40 16.89 15.78 15.55 15.27 15.24 15.31 15.40 15.42 15.59

GFSNGP_sfc_wetblb_015.txt.gz
Wetbulb
35.38 36.37 36.40 35.40 34.93 35.46 32.53 33.68 29.91 33.05 33.46 37.62 40.41 41.14 42.13 44.11 45.19 45.08 45.62 47.84 48.98 48.59 50.35 51.96 51.79 51.59 48.28 47.41 46.12 44.39 42.56 41.42 41.65 41.36 41.06 40.65 40.03 39.52 39.33 39.34 38.63 38.15 37.04 36.46
31.55 35.70 35.97 34.23 37.01 37.27 36.98 36.43 34.82 34.99 34.02 40.95 42.57 42.79 42.75 43.20 43.98 43.93 44.29 46.33 48.37 48.46 49.35 49.65 47.07 44.58 43.22 42.93 42.17 42.44 41.37 40.60 39.89 39.87 39.72 38.81 38.24 37.66 38.07 37.47 36.95 36.39 35.80 35.04
30.02 36.50 35.65 33.08 36.87 37.41 37.52 38.33 36.88 33.19 37.59 41.76 39.99 40.54 40.94 41.03 43.12 42.57 43.71 45.95 47.47 47.54 47.91 43.99 41.32 39.72 38.69 39.77 40.12 39.18 38.31 38.09 39.60 38.33 37.77 37.44 37.38 37.39 36.72 36.20 36.13 35.22 34.41 34.15
31.56 33.97 29.20 38.54 41.65 41.30 39.24 40.67 41.42 40.36 41.40 42.14 42.12 42.63 43.34 44.06 43.16 43.62 45.18 46.34 46.41 46.41 42.21 39.23 38.91 38.75 39.12 38.29 37.94 37.58 36.56 37.98 37.42 37.56 36.42 36.71 36.81 36.11 35.51 35.60 34.80 34.09 33.57 33.43
31.02 30.72 35.23 39.45 41.51 39.82 38.08 38.26 42.52 40.32 42.81 43.33 44.30 43.48 40.07 40.39 42.25 43.59 47.06 46.49 44.47 41.28 39.37 38.33 38.56 38.23 37.81 37.82 38.46 36.39 35.06 36.32 36.07 36.60 36.18 35.84 35.17 34.69 34.54 34.00 33.39 33.07 33.02 32.76
33.60 29.21 28.45 39.06 44.22 45.37 44.03 36.53 43.40 42.73 43.98 42.34 43.03 39.66 37.02 40.80 45.18 43.83 44.04 40.95 38.59 38.38 38.29 38.47 38.36 38.85 38.14 36.79 37.71 36.16 36.19 36.37 36.80 36.66 35.70 34.69 34.10 33.25 33.21 33.28 32.32 32.38 32.05 32.48
32.22 30.69 34.79 42.88 44.34 45.15 35.95 37.48 43.66 42.25 44.95 44.32 41.54 38.62 39.66 41.00 42.85 43.03 41.54 39.78 39.61 39.52 38.70 39.32 40.49 40.23 38.17 37.53 35.72 36.06 36.26 35.69 35.54 35.23 34.23 33.78 32.96 32.83 32.67 32.12 31.98 31.80 31.32 32.20
33.17 30.89 30.23 45.09 44.74 39.76 43.79 45.82 44.91 44.43 44.37 43.13 39.87 38.75 39.41 39.55 37.95 40.01 39.12 39.05 38.86 38.42 38.38 39.49 39.49 38.34 35.77 34.11 35.08 35.07 34.34 33.35 32.94 32.82 32.86 32.94 32.23 31.97 31.74 31.44 30.91 30.75 30.58 30.73
39.32 40.05 46.82 47.77 45.84 47.72 46.51 44.37 44.65 44.24 45.31 43.75 39.44 37.35 37.52 36.42 37.37 36.42 36.10 36.34 37.78 36.91 37.00 37.33 36.41 34.79 32.03 32.70 33.37 33.29 33.02 32.28 31.59 31.65 31.75 32.21 31.80 31.29 30.72 30.56 29.69 29.43 28.91 28.66
41.65 45.51 46.39 47.77 48.01 46.31 44.36 43.48 44.13 44.80 44.21 43.89 39.52 38.33 36.46 36.09 35.74 35.52 36.13 35.98 36.44 35.91 34.34 32.70 32.92 32.78 31.94 32.27 33.33 33.18 31.56 30.73 30.90 30.59 30.85 31.03 30.92 30.72 30.21 29.35 28.74 28.17 27.83 27.34
43.01 46.02 47.81 46.37 45.53 44.21 42.65 42.84 43.32 43.99 42.86 41.34 39.66 38.30 37.09 35.62 35.47 35.19 35.21 35.71 35.06 32.57 30.52 29.86 31.22 31.44 32.88 33.83 33.87 31.71 31.15 30.79 30.58 30.71 31.04 30.38 30.08 29.83 29.06 29.67 28.29 26.94 26.86 26.35
41.67 46.79 46.40 45.42 44.07 43.74 42.54 41.40 41.50 40.21 38.79 39.73 38.74 37.15 37.01 35.68 35.76 35.15 33.81 33.00 31.27 30.33 30.05 30.40 31.34 31.93 32.81 33.56 33.04 31.45 30.05 30.19 30.51 30.30 29.97 29.44 28.93 28.67 28.80 27.83 27.71 28.09 28.00 26.95
46.66 46.50 45.00 43.90 43.22 43.31 41.84 41.06 40.61 39.77 38.85 36.81 37.39 37.18 35.53 35.23 35.20 35.46 33.92 33.05 31.81 30.74 30.70 30.96 30.55 30.17 31.64 32.91 33.13 32.04 30.52 29.81 29.26 29.64 29.01 28.34 27.64 26.86 25.73 28.27 29.04 28.17 27.21 27.10
48.22 45.46 43.63 42.71 43.06 42.13 41.31 40.31 39.84 38.89 38.44 37.31 36.16 36.41 35.40 34.24 34.16 33.40 31.99 31.54 31.58 31.11 30.64 30.44 29.98 29.45 31.48 32.07 31.16 30.71 29.79 30.40 29.45 28.85 28.33 27.88 26.89 26.12 25.80 24.69 23.65 24.60 27.30 27.14
46.54 45.56 43.50 43.64 41.79 40.37 39.60 38.70 37.02 36.50 36.29 35.82 36.20 34.64 34.01 32.42 30.78 30.07 30.91 30.84 30.61 30.08 29.78 29.71 29.00 29.02 31.42 31.47 30.34 29.99 29.63 29.08 29.04 28.14 27.41 26.49 26.30 25.51 25.09 24.57 23.80 23.52 24.40 25.94
44.08 42.60 41.64 40.84 39.74 38.88 38.74 38.24 36.51 35.79 35.90 34.83 34.25 33.98 32.98 31.60 30.48 30.04 30.15 30.50 29.26 27.91 28.94 28.77 27.99 28.81 30.01 29.99 29.87 29.87 28.71 27.81 27.47 26.82 26.14 25.50 25.07 24.29 24.07 23.47 22.75 22.87 22.93 22.96
39.02 36.71 37.18 36.60 37.12 38.08 38.39 39.45 38.33 36.65 35.63 34.81 33.07 31.93 30.99 29.98 29.27 29.29 30.31 31.16 29.69 29.03 29.00 28.26 27.14 28.47 28.91 29.24 29.13 28.56 27.92 26.78 25.02 25.71 24.91 24.16 23.68 23.59 23.21 22.36 21.99 22.09 22.29 23.81
45.06 44.65 41.91 41.58 39.57 38.91 39.12 39.49 37.92 36.38 34.73 33.05 31.75 31.26 30.15 29.81 28.62 28.53 28.51 28.69 28.02 27.59 27.63 27.88 28.14 28.11 27.84 28.21 28.46 27.64 26.65 25.35 24.75 24.04 23.74 23.37 23.26 22.98 22.32 22.01 21.84 21.53 22.07 22.99
43.03 41.94 42.44 42.17 41.46 40.15 38.78 37.07 36.26 35.35 33.09 32.23 31.37 30.76 31.55 30.22 28.99 27.95 28.44 27.82 26.67 25.15 25.80 27.92 28.37 28.19 27.46 27.08 27.13 26.36 25.34 24.30 23.62 23.38 22.78 22.80 22.82 22.55 22.04 21.86 21.33 21.25 21.38 21.09
39.42 40.75 41.12 40.35 39.93 38.15 36.58 36.36 34.43 32.97 32.43 32.63 31.69 29.75 28.77 28.43 28.19 28.25 28.71 27.74 28.62 27.61 28.39 27.53 28.37 28.24 27.37 25.84 25.56 25.02 24.00 23.22 22.59 22.41 21.88 21.50 21.56 21.23 21.36 21.66 21.17 20.68 20.31 20.02
37.52 37.69 36.89 36.65 36.58 36.66 35.39 34.42 33.22 31.70 31.45 31.04 30.17 28.84 27.70 27.67 28.60 28.07 25.51 24.33 26.01 28.52 27.94 27.52 27.35 26.97 27.01 25.57 24.64 23.89 23.06 22.40 21.97 21.45 20.83 20.59 20.53 20.68 20.63 20.62 20.20 19.72 19.15 18.92
35.54 35.21 34.86 34.34 33.96 32.77 33.28 33.54 32.36 30.72 30.87 31.03 29.84 28.05 26.88 25.95 26.35 26.71 28.24 26.08 26.88 28.42 27.15 26.93 26.74 26.74 25.54 23.88 23.53 22.70 21.93 21.40 21.12 21.01 20.43 20.19 19.84 19.57 19.55 19.31 18.61 18.89 19.07 19.13
35.42 34.91 34.41 33.96 32.80 32.22 32.69 31.76 31.33 30.87 29.53 28.18 27.09 26.65 26.46 26.01 26.55 24.73 22.84 26.89 27.34 27.24 26.90 27.22 27.28 25.69 23.15 22.88 22.07 21.38 21.03 20.53 20.27 20.11 19.92 19.69 19.51 19.41 18.70 18.34 18.43 18.49 18.19 18.06
33.95 33.93 33.27 33.01 32.33 31.10 28.98 29.25 28.32 28.68 28.18 27.46 27.56 27.45 26.45 25.07 25.64 27.88 28.03 28.24 27.91 27.04 27.35 27.51 25.69 22.99 21.44 21.28 20.69 20.25 20.08 19.91 19.55 19.41 19.53 20.82 19.23 18.72 18.34 18.00 17.43 17.83 17.68 17.81
33.27 31.68 30.88 30.55 30.32 29.21 27.33 27.11 26.25 26.00 25.82 25.46 25.74 26.54 27.37 27.81 26.33 26.09 26.58 26.50 27.43 26.10 24.93 25.51 23.56 20.53 20.64 20.17 19.80 19.69 19.59 19.28 19.04 19.24 19.10 18.58 18.17 17.99 18.03 17.74 17.26 17.19 17.49 17.99
31.11 30.99 31.15 31.93 30.13 28.08 27.00 27.36 25.48 25.69 24.99 23.75 24.00 24.67 24.77 25.64 26.24 25.37 24.96 24.72 23.25 23.12 21.09 20.64 20.47 20.16 19.50 19.47 19.53 19.43 18.95 18.72 18.66 18.25 18.72 18.20 17.98 17.48 17.17 16.84 16.53 16.47 16.68 16.80
31.64 30.64 27.81 27.29 27.76 27.89 28.30 27.02 25.47 24.78 25.24 24.21 22.37 23.38 23.39 23.20 23.49 22.48 22.41 20.95 20.34 19.89 19.32 18.93 18.84 18.86 18.74 19.02 18.88 18.65 18.58 18.53 19.10 18.56 18.29 17.76 17.22 16.85 16.72 16.61 16.51 16.44 16.34 16.16

GFSNGP_sfc_wetblb_018.txt.gz
Wetbulb
33.74 34.81 34.32 32.75 33.08 34.32 32.74 33.75 30.04 31.66 32.71 36.60 39.47 40.62 41.83 42.85 43.29 43.31 42.52 43.91 45.38 46.18 46.76 48.40 48.17 48.38 47.39 44.35 43.13 41.17 41.18 41.34 40.58 40.54 40.15 39.32 38.29 38.06 38.05 37.55 35.12 34.48 34.10 34.02
30.45 34.00 33.99 31.70 34.05 35.11 36.07 36.91 36.62 36.47 35.53 41.78 42.97 42.10 40.74 40.96 40.80 40.67 42.19 44.33 45.68 46.72 46.72 46.48 44.51 43.59 44.23 42.41 41.67 41.80 41.51 39.28 38.86 38.48 38.50 37.38 37.31 36.66 36.06 34.15 32.95 34.47 33.84 32.78
26.73 34.33 33.14 29.77 34.60 37.92 38.07 38.84 38.44 34.64 38.43 41.82 41.22 41.21 40.94 41.59 41.72 42.30 43.46 44.38 44.40 46.57 42.56 41.05 40.10 40.80 40.54 40.98 41.40 39.60 38.28 37.70 37.34 37.48 36.54 36.38 36.01 34.75 33.44 33.02 33.48 32.40 31.82 31.60
29.44 30.73 22.32 36.47 41.35 41.44 39.49 40.82 41.98 40.53 41.58 42.84 41.55 42.58 41.09 40.42 40.15 41.19 43.36 44.59 45.34 41.08 38.78 38.24 38.66 38.53 38.04 37.89 37.45 36.97 36.34 36.50 36.80 36.32 35.47 35.50 34.49 33.71 33.42 32.32 31.40 30.79 30.99 31.84
29.80 26.65 31.64 36.86 41.72 39.22 37.08 36.89 41.09 38.73 41.95 42.49 43.19 43.16 40.15 41.41 42.61 42.84 42.53 40.36 39.06 38.03 37.52 37.66 37.40 37.38 37.22 36.76 36.96 36.19 35.89 36.42 35.81 35.63 34.81 33.97 33.13 31.25 31.55 30.83 30.86 31.21 31.39 30.48
33.01 27.92 23.80 37.63 41.64 44.60 41.92 34.85 42.00 40.50 41.37 41.43 41.61 36.20 35.95 41.41 40.38 37.79 37.65 37.42 36.99 37.79 38.01 37.42 37.79 38.70 37.40 35.69 35.76 35.07 34.97 35.35 35.28 34.94 33.85 31.43 31.21 29.60 31.08 31.61 30.42 30.31 29.07 27.96
31.76 30.67 32.11 39.57 41.68 43.76 33.39 34.15 41.56 41.37 42.35 39.30 35.65 35.56 38.30 41.73 40.27 39.08 38.18 37.92 38.47 37.81 36.75 37.71 39.34 38.67 36.46 36.11 35.20 35.68 36.00 34.67 33.57 32.74 31.86 31.31 31.25 31.01 28.83 27.51 27.35 26.54 26.68 27.09
32.63 30.19 25.58 41.49 40.97 36.35 40.00 41.72 42.00 41.03 41.25 37.34 38.05 38.22 37.60 37.39 37.97 38.27 38.42 38.86 38.97 38.38 38.46 38.89 38.11 35.39 32.91 31.59 32.31 32.79 32.58 31.79 31.31 31.79 32.20 30.53 27.26 26.96 26.87 26.30 25.78 25.17 24.71 24.64
34.87 34.95 42.03 43.46 42.66 42.94 42.61 40.60 40.65 40.57 41.12 38.41 36.56 36.09 36.55 34.47 34.30 34.99 35.36 35.32 35.88 33.94 32.48 32.87 32.80 31.68 29.57 29.94 31.22 31.73 31.11 30.06 28.57 28.31 28.30 28.11 26.86 26.03 25.23 25.61 24.40 23.68 24.05 22.76
38.22 41.11 41.55 43.02 43.59 42.53 40.69 39.35 40.73 42.14 42.05 39.70 35.94 35.55 34.67 34.27 33.39 32.82 33.68 33.08 32.47 31.35 30.24 29.77 30.38 30.24 30.83 32.22 32.32 30.66 27.89 27.11 26.58 26.33 26.56 26.65 26.40 25.56 23.88 23.11 22.32 22.78 22.45 21.78
38.63 41.76 42.02 41.25 40.44 40.25 40.11 40.77 40.90 40.53 40.61 38.10 36.48 35.76 34.80 33.92 33.00 33.32 32.90 32.42 31.91 29.78 28.37 29.01 30.93 30.36 32.27 31.95 30.78 28.03 26.82 26.03 26.25 26.42 25.21 23.82 24.22 23.58 23.79 23.70 24.05 22.13 21.90 22.15
37.17 42.42 41.82 38.86 39.61 41.07 39.66 38.92 38.72 37.39 36.70 37.25 36.99 35.70 34.84 33.14 32.97 31.48 30.03 29.82 29.32 29.36 29.61 30.26 31.08 31.02 30.54 30.21 29.08 27.73 25.64 25.20 24.88 23.82 23.89 23.62 22.52 22.39 29.11 28.36 28.41 28.24 28.12 25.78
42.56 41.69 41.59 40.61 40.37 40.29 39.01 38.54 38.32 36.85 36.23 34.53 34.91 34.80 33.82 32.96 31.63 32.63 29.75 29.52 29.19 28.86 29.28 29.68 29.44 28.69 29.21 29.78 28.36 26.91 23.62 23.81 24.64 24.99 22.69 22.00 22.10 21.33 19.82 23.44 29.93 29.44 28.98 28.42
44.11 41.95 39.86 39.87 38.89 39.39 38.71 38.26 38.35 36.24 35.74 35.03 34.26 33.98 33.41 32.31 31.89 30.27 28.58 28.65 29.71 29.04 28.33 27.84 27.49 26.33 26.99 27.44 25.52 25.02 24.96 30.18 22.98 22.33 21.73 21.39 21.44 20.95 20.13 19.59 18.81 18.99 25.18 26.74
43.71 42.41 40.71 40.01 39.10 37.88 37.50 36.86 34.89 33.49 33.43 33.09 33.44 32.32 31.64 29.28 28.45 28.48 28.86 28.55 28.05 27.35 26.64 26.26 25.72 25.30 27.15 26.98 25.41 24.26 23.78 23.41 22.44 21.52 21.12 22.19 21.19 20.67 19.96 19.77 18.73 18.28 19.23 23.06
40.11 39.61 38.99 38.25 37.52 36.79 36.73 36.02 34.13 33.59 32.78 32.31 31.70 30.67 28.92 28.43 27.76 27.41 27.28 27.14 26.02 23.98 23.59 24.53 23.18 24.40 26.05 26.21 25.07 24.19 24.27 28.12 25.49 21.17 20.85 20.52 20.17 19.67 19.49 18.45 17.98 17.52 18.05 18.50
36.73 32.96 32.95 31.72 34.09 35.96 36.11 36.71 36.06 34.52 33.09 31.89 29.85 29.10 27.83 26.86 26.48 26.30 26.12 25.90 24.99 23.98 23.69 23.76 23.43 24.91 25.31 24.94 23.88 22.64 21.92 21.65 25.58 20.70 19.82 19.77 19.36 18.84 18.60 17.83 17.29 17.41 17.82 21.12
41.50 41.69 39.30 38.41 37.10 36.34 36.48 36.34 35.67 34.74 32.92 30.66 29.71 28.72 27.43 27.51 26.32 24.85 24.15 24.31 23.47 22.65 23.36 23.61 23.98 24.20 24.73 24.77 23.67 22.03 20.73 20.48 20.53 19.51 19.63 19.57 19.11 19.19 18.26 18.16 18.13 17.68 17.94 20.70
41.90 39.60 40.14 40.01 39.06 38.09 37.12 35.90 35.08 33.36 30.98 30.20 29.04 27.64 27.81 26.86 25.55 24.16 23.39 22.83 21.64 20.64 21.20 24.00 29.17 25.31 23.72 25.83 23.52 20.83 19.50 19.23 20.00 19.42 19.50 20.87 18.37 18.26 17.75 17.82 17.74 17.83 18.00 19.11
38.16 39.16 39.75 39.57 39.27 38.36 35.67 35.05 32.79 31.19 30.54 30.11 29.36 27.44 25.37 24.87 24.71 24.24 23.73 22.94 22.40 21.95 23.37 24.37 24.57 23.71 22.78 23.56 24.87 19.36 18.86 18.81 18.90 18.47 18.47 18.20 17.18 17.14 17.46 19.92 19.47 18.67 17.50 18.06
35.78 36.21 36.46 36.94 35.91 35.42 34.98 33.16 31.79 29.83 29.64 29.56 27.64 26.14 25.12 24.30 24.47 23.68 22.63 21.49 22.68 25.15 24.28 27.37 23.73 23.15 22.70 22.18 20.55 18.42 17.92 17.22 18.00 16.73 16.76 16.59 16.66 16.83 17.04 17.25 17.76 18.23 17.99 18.10
34.21 33.92 34.03 33.98 33.56 32.22 32.09 31.68 31.36 29.88 29.08 27.78 27.09 25.74 25.18 23.19 23.25 22.91 23.23 22.44 22.89 28.45 23.37 22.26 22.48 25.67 22.73 24.06 18.77 17.84 17.25 16.51 16.17 16.77 15.94 15.99 16.01 16.12 16.57 16.68 16.38 15.73 15.90 14.86
34.21 33.83 33.45 32.42 31.68 30.86 30.52 30.27 29.91 29.57 27.87 27.09 26.30 25.26 24.88 24.33 24.20 22.56 20.66 23.85 23.39 26.54 22.49 22.70 26.54 26.37 24.45 18.87 18.23 17.05 16.12 15.60 15.19 15.24 15.97 15.84 16.34 16.53 13.92 11.15 12.45 13.56 12.34 13.55
32.27 32.71 31.55 31.69 31.52 29.83 28.07 28.14 26.88 27.08 26.66 26.35 26.24 26.13 25.30 23.62 22.41 23.53 25.70 27.83 28.21 26.49 24.44 24.78 24.49 23.75 22.52 16.28 15.64 15.05 14.95 14.62 14.40 14.44 15.44 19.82 16.62 12.99 10.80 12.03 12.07 12.89 13.17 14.87
29.62 27.57 27.64 27.17 26.84 26.03 25.45 25.26 25.04 25.26 24.79 24.34 24.56 24.96 24.99 24.91 22.94 22.83 23.60 24.82 28.60 24.48 23.06 27.29 24.38 21.93 16.32 15.45 15.10 15.10 14.91 14.64 14.61 10.92 11.59 9.80 9.25 9.61 11.32 12.00 11.97 12.61 13.14 12.83
27.85 27.73 28.07 28.65 26.64 25.64 25.24 25.83 24.13 24.24 24.02 22.97 23.10 23.60 23.49 24.56 25.13 23.42 23.46 23.74 22.06 23.91 18.26 17.78 16.68 16.21 15.45 15.35 15.51 15.31 14.49 14.21 13.87 12.54 14.07 10.97 10.90 11.23 11.96 12.39 12.21 12.59 12.90 11.46
25.78 28.62 24.32 24.09 24.89 26.17 26.03 25.89 24.44 23.88 24.72 23.93 22.34 22.62 22.84 22.49 22.79 21.74 22.55 19.19 17.64 16.34 15.90 15.91 15.35 16.32 14.86 15.07 15.13 14.49 14.45 13.86 16.31 14.13 11.30 9.87 10.06 10.01 12.06 12.50 12.20 12.80 13.14 13.74

GFSNGP_sfc_wetblb_021.txt.gz
Wetbulb
31.86 33.39 32.90 31.35 31.81 33.15 30.85 32.26 29.34 31.51 32.53 36.01 39.92 41.64 43.15 43.02 42.16 42.68 43.31 43.95 44.57 43.20 43.66 44.15 44.22 44.48 43.85 43.46 45.75 46.86 44.16 43.52 41.92 41.11 41.09 39.89 39.62 39.07 39.02 38.91 37.34 36.12 34.78 34.10
25.31 32.46 32.48 30.14 33.03 34.09 34.24 34.34 34.11 34.59 34.33 41.74 44.13 43.48 42.16 42.45 41.87 41.81 42.17 42.45 43.61 44.24 43.94 41.70 43.15 42.47 42.82 42.46 43.21 43.04 41.38 39.86 39.01 38.43 38.43 38.32 37.92 37.42 36.25 35.29 34.71 34.12 33.50 31.82
21.30 32.18 31.22 28.39 31.92 34.22 38.05 39.25 38.33 34.52 38.39 43.39 42.09 41.89 39.29 39.50 40.90 42.27 43.19 44.13 44.32 42.18 38.10 39.41 40.61 42.21 41.33 40.74 40.00 38.25 37.11 37.08 37.14 37.29 36.74 37.80 35.96 34.58 33.85 33.03 33.05 32.46 31.94 31.71
27.40 28.24 21.24 36.07 40.20 40.32 37.98 39.73 40.50 40.69 41.01 41.00 42.55 42.14 40.43 41.30 37.13 41.29 41.78 43.60 39.53 37.01 36.85 37.25 37.68 37.81 38.16 37.88 37.33 36.51 35.98 36.37 36.60 36.22 35.92 35.50 35.48 34.34 33.19 32.19 31.71 31.08 30.46 30.52
29.54 28.54 29.36 34.81 39.94 37.80 36.76 36.11 39.96 37.96 38.86 40.76 40.90 42.72 39.87 40.38 36.90 36.47 37.11 37.00 37.06 37.16 36.57 36.69 36.84 37.64 36.80 36.57 36.72 36.53 36.15 36.55 37.28 37.04 35.67 34.62 33.22 32.79 32.87 31.74 30.04 29.39 29.66 30.23
32.61 26.98 22.26 34.41 40.23 42.74 40.36 34.12 40.18 39.74 39.75 39.83 38.16 35.23 36.97 39.50 36.84 36.19 36.93 37.39 36.43 36.89 37.60 36.85 36.70 38.04 37.20 36.76 36.76 35.87 36.02 35.96 35.98 35.51 34.56 33.15 32.46 31.06 29.94 29.81 30.06 31.08 28.20 26.72
31.73 30.03 31.53 37.51 39.51 43.00 31.67 32.68 39.16 39.60 39.77 37.45 35.25 35.37 37.87 39.80 37.30 37.85 37.45 36.81 38.19 38.39 37.49 37.88 38.35 37.94 35.81 35.56 34.32 35.51 35.90 35.48 34.94 33.85 31.92 31.05 29.78 30.24 30.28 29.27 27.54 25.16 24.76 24.31
33.09 29.95 25.31 39.38 39.40 36.21 39.21 39.90 39.24 39.53 37.88 36.51 36.09 35.99 35.90 37.61 38.21 38.28 37.52 37.43 38.11 37.53 37.00 37.50 38.05 36.40 34.92 34.26 35.93 35.09 33.35 31.66 30.74 30.73 31.67 30.86 29.41 27.01 25.43 24.63 23.33 22.75 22.76 22.87
33.55 32.34 38.21 40.87 41.87 40.82 40.64 39.16 38.37 39.14 38.51 38.09 35.62 34.76 33.94 31.69 33.08 36.36 37.60 37.93 37.88 36.48 34.59 34.23 33.60 32.57 29.73 30.06 31.44 31.35 30.76 29.85 29.59 29.57 28.33 26.93 24.89 24.02 23.32 23.24 22.45 22.07 22.80 21.02
37.74 38.98 39.85 41.01 39.58 39.21 38.50 37.51 39.35 40.68 38.73 37.70 34.76 35.04 32.72 31.28 31.12 30.99 30.65 30.50 31.43 30.99 29.28 29.14 30.84 31.05 30.71 31.17 31.31 30.33 28.50 26.46 25.29 25.32 24.78 24.35 24.45 23.93 22.23 21.49 20.78 21.56 21.43 20.16
36.61 40.37 39.50 38.74 38.27 38.66 38.20 38.92 37.86 38.95 38.60 36.37 35.12 33.68 33.34 31.77 30.94 31.47 30.54 31.37 31.20 30.08 29.32 29.41 30.90 30.75 31.05 30.80 30.22 26.80 24.77 24.43 24.56 24.39 22.99 22.25 23.14 22.38 23.04 22.23 22.43 21.13 21.08 21.45
35.48 42.49 40.36 38.92 38.58 39.25 37.80 36.98 37.03 36.59 35.86 35.69 35.12 33.83 32.71 30.90 30.72 29.20 29.25 29.86 29.68 29.59 29.80 30.16 30.46 29.96 29.77 29.10 27.30 26.14 23.80 23.79 23.26 22.48 22.16 21.93 21.20 21.47 29.44 28.65 29.27 28.77 28.31 25.40
40.60 42.01 40.63 39.20 38.93 38.50 37.16 36.94 36.88 35.74 35.31 33.74 33.53 33.13 31.91 29.72 29.00 30.94 28.84 29.82 29.67 29.32 29.65 29.95 29.52 28.56 27.44 27.47 26.16 24.97 22.78 23.19 24.00 23.59 21.45 20.69 20.73 19.99 18.81 22.01 28.64 28.97 28.76 28.57
42.58 41.44 39.14 38.68 37.97 37.41 37.38 37.01 37.35 34.78 34.07 33.72 32.55 32.22 31.52 30.41 30.28 28.83 28.86 29.55 29.61 29.31 28.81 28.37 26.86 25.15 25.58 25.87 24.44 23.57 23.78 28.19 21.48 20.90 20.08 19.73 20.21 19.71 19.11 18.91 18.00 18.10 24.11 26.48
41.98 41.54 40.87 38.65 36.84 35.73 35.62 35.06 33.83 32.83 32.31 31.66 31.91 31.04 30.29 28.28 28.06 28.15 28.87 28.60 27.66 26.36 25.51 25.62 24.84 23.94 25.41 25.14 24.20 22.78 22.28 21.34 20.46 19.88 20.31 21.28 20.12 19.67 19.14 18.80 17.60 17.24 18.41 22.08
38.48 38.18 37.11 36.58 35.42 34.66 34.36 34.02 32.98 32.14 31.62 30.61 29.35 28.52 27.90 27.39 26.92 26.96 27.10 27.13 25.51 23.82 23.26 23.73 22.79 23.59 25.03 24.47 23.30 22.85 23.64 27.73 23.57 20.03 19.81 19.48 19.24 18.93 18.54 17.38 16.92 16.57 17.22 17.54
37.53 33.64 30.64 29.83 32.89 33.90 34.02 34.70 34.85 33.18 32.46 31.01 28.19 27.53 27.12 25.95 25.71 25.44 24.71 24.25 23.69 23.17 22.99 23.61 23.10 24.25 24.41 23.97 23.04 21.68 20.32 21.70 25.49 19.59 18.93 19.07 18.54 18.09 17.69 16.88 16.39 16.45 16.72 20.01
38.80 39.67 40.03 38.47 35.96 35.04 34.47 34.64 34.47 33.81 31.74 29.47 28.65 27.80 26.80 26.81 25.04 23.16 22.90 23.02 22.37 22.03 22.96 22.94 23.30 23.83 24.11 23.49 22.13 20.59 19.68 19.53 19.79 18.77 18.77 18.79 18.66 18.42 17.33 17.13 17.07 16.59 16.89 19.31
38.49 39.53 39.40 38.97 37.57 36.95 35.47 34.33 33.69 32.70 30.64 29.39 28.09 27.29 27.24 25.59 24.32 23.12 22.77 22.11 21.23 20.07 20.42 23.64 28.38 24.64 23.26 25.07 21.81 19.36 18.37 18.56 19.18 18.57 18.60 20.29 17.33 17.18 16.71 16.80 16.81 16.85 16.91 17.86
36.77 37.84 39.32 38.44 38.30 38.19 35.57 33.54 31.69 30.79 30.54 29.72 27.97 26.54 24.86 24.04 23.40 22.52 22.27 21.05 20.88 21.24 22.37 24.21 23.51 22.36 22.24 23.99 23.57 18.35 18.01 18.08 18.07 17.46 17.43 17.11 16.11 16.19 16.26 18.77 18.54 17.58 16.53 17.10
34.91 35.44 36.58 36.96 35.84 35.67 34.09 32.86 31.68 30.30 29.45 29.47 27.76 26.08 24.77 24.15 24.05 22.87 21.58 20.77 21.39 25.05 23.46 26.83 22.67 21.63 21.99 22.20 19.44 17.54 16.91 16.37 16.98 15.70 15.67 15.34 15.41 15.52 15.78 16.16 16.64 17.23 17.23 17.28
34.00 33.14 34.10 34.93 34.21 33.11 33.03 32.96 32.19 29.95 29.02 27.84 26.74 25.58 24.58 22.68 22.37 21.58 22.71 22.29 22.48 29.12 23.31 22.25 22.05 24.85 23.08 23.41 17.81 16.95 16.30 15.48 15.08 15.58 14.76 14.75 14.81 14.94 15.47 15.68 15.28 14.59 14.83 13.17
32.95 33.58 33.22 32.54 31.93 30.54 30.23 30.11 29.92 29.23 27.47 26.52 25.89 25.66 25.28 24.60 24.53 23.01 20.91 23.23 23.84 26.03 21.39 21.69 26.91 27.32 25.73 17.96 17.42 16.09 15.09 14.50 14.02 14.03 14.82 14.72 15.38 15.72 13.15 9.92 11.36 12.18 11.05 12.07
31.22 31.67 31.39 31.39 29.94 29.04 27.62 27.57 26.88 26.77 26.37 26.33 26.16 26.56 25.35 23.98 22.60 23.40 25.09 27.68 28.04 26.34 22.91 24.84 25.06 25.56 21.63 15.38 14.78 14.04 13.91 13.56 13.34 13.37 14.23 19.06 15.28 11.57 9.17 10.75 10.99 11.73 11.83 13.57
28.72 27.43 26.82 26.72 26.42 25.09 25.03 24.81 24.64 24.91 25.05 24.81 25.01 25.58 25.79 25.82 24.36 23.00 24.18 24.68 29.07 25.52 23.44 27.58 25.32 23.66 15.44 14.62 14.17 14.19 13.98 13.71 13.72 9.43 9.59 7.84 7.79 7.26 9.58 10.66 10.69 11.60 12.81 11.12
27.94 27.91 27.75 27.95 26.34 24.91 24.63 25.31 23.95 24.08 24.36 23.59 23.74 24.04 24.43 24.55 25.01 23.69 23.54 25.17 24.73 25.89 20.63 19.00 16.53 15.48 14.73 14.50 14.72 14.49 13.65 13.31 12.97 11.36 13.22 10.21 9.52 9.41 10.33 11.12 10.95 11.41 11.98 11.02
23.61 28.95 24.89 24.16 24.11 24.12 24.11 24.02 23.55 23.35 25.05 24.18 22.79 23.67 24.44 23.68 23.58 22.95 24.13 21.11 19.14 17.19 15.79 15.46 15.27 16.23 14.07 14.27 14.44 13.67 13.52 12.92 15.12 13.16 10.12 8.04 8.84 8.62 10.80 11.05 11.29 12.08 12.13 12.39

GFSNGP_sfc_wetblb_024.txt.gz
Wetbulb
30.33 32.14 31.66 30.53 30.96 31.46 27.32 30.59 26.40 30.10 31.19 35.00 38.12 40.72 42.69 42.27 42.48 43.59 43.42 42.79 42.66 43.54 44.47 43.56 41.60 40.57 40.92 42.29 43.92 43.75 43.83 43.82 42.25 41.78 41.34 40.62 40.19 39.76 40.08 39.36 38.19 37.05 35.91 34.84
28.64 31.06 31.56 28.85 31.65 32.25 32.89 33.62 33.23 32.63 31.79 39.46 41.95 44.42 43.66 40.65 40.72 40.35 42.54 43.76 43.99 43.24 42.15 40.76 39.77 39.91 40.41 40.44 41.10 41.17 41.72 40.69 40.37 39.02 38.96 38.27 37.93 36.53 35.70 35.32 34.85 34.53 33.64 33.32
22.80 30.30 29.84 26.19 30.37 32.43 34.57 35.94 33.95 32.92 37.51 41.27 40.77 40.88 40.43 40.03 37.16 36.25 40.29 42.48 43.71 40.31 37.22 38.33 40.93 40.99 39.07 38.68 39.39 38.66 37.92 38.13 37.68 37.09 35.92 35.62 35.42 35.15 34.29 33.33 33.47 32.45 32.04 32.14
25.89 27.36 18.86 33.35 37.70 37.35 34.90 37.80 38.95 38.87 40.20 41.31 39.33 40.64 40.41 38.30 35.33 35.48 35.74 36.19 36.07 36.14 36.21 37.45 38.03 37.93 37.61 37.63 37.20 36.90 36.35 36.57 36.62 36.23 35.89 36.23 35.52 34.01 33.23 33.07 32.37 32.12 31.80 32.14
27.39 26.34 29.51 33.48 37.67 37.06 35.63 35.35 39.02 38.65 39.14 39.03 41.63 40.04 39.80 37.47 36.28 35.97 36.20 35.91 35.99 36.48 36.77 37.12 36.75 37.50 36.58 36.02 35.96 36.21 36.26 36.61 37.10 37.19 36.26 35.59 34.24 33.31 33.80 33.31 32.36 31.58 31.83 30.86
32.47 25.80 22.83 32.03 39.38 41.21 39.81 32.21 39.80 39.60 38.60 38.90 39.13 36.32 36.63 37.34 36.93 36.38 36.98 36.93 36.72 36.70 36.80 36.85 37.16 37.90 37.23 36.69 36.20 35.52 36.26 36.30 36.66 36.48 35.74 34.61 34.18 33.49 32.89 31.78 30.22 30.63 29.27 29.04
32.43 29.46 30.10 36.82 38.11 41.59 30.12 32.16 39.47 38.88 38.93 37.21 36.97 36.50 36.61 37.91 37.38 37.43 37.08 37.71 38.39 38.22 37.45 37.53 37.81 37.49 35.44 34.34 33.03 35.75 36.31 35.59 34.85 34.74 33.44 32.50 31.25 30.82 29.81 29.03 28.45 26.68 24.63 24.01
33.29 30.07 25.52 39.02 38.66 35.75 38.74 39.23 39.93 38.77 38.43 36.38 35.31 35.85 36.44 38.11 37.88 37.62 37.13 37.83 37.57 35.65 34.90 36.37 37.89 36.84 35.04 33.24 34.13 34.25 34.07 33.28 32.11 31.46 31.52 30.48 29.01 28.34 26.84 24.19 22.15 21.31 21.37 21.30
33.01 32.31 38.56 39.53 40.16 40.84 39.80 38.72 38.25 37.80 38.23 37.14 34.98 34.01 35.03 35.75 36.65 37.30 37.68 37.10 36.55 34.65 32.43 32.46 32.83 34.10 32.62 32.19 32.57 31.57 30.48 29.44 29.26 29.32 28.65 26.88 24.01 22.16 21.77 21.98 21.40 21.24 22.78 20.71
36.07 37.98 38.38 39.65 39.83 38.86 38.04 37.55 38.82 39.67 38.14 37.17 35.04 33.36 31.75 32.12 31.77 29.90 30.35 32.52 31.98 30.03 30.08 29.11 30.58 30.86 29.50 29.20 31.20 29.99 28.17 26.73 25.11 24.56 23.77 23.22 23.84 23.24 21.75 21.28 20.80 21.59 21.50 20.18
36.81 38.67 40.29 38.80 40.39 38.63 38.04 38.24 37.25 38.14 37.46 36.12 34.86 32.07 31.29 31.49 31.02 30.97 30.99 30.96 30.85 29.26 29.00 28.98 30.06 29.87 30.45 29.74 28.19 25.57 24.53 24.00 23.68 23.37 21.75 21.47 22.38 21.77 22.76 21.07 21.82 20.94 20.76 21.22
33.27 40.03 41.70 40.95 39.25 39.25 37.59 36.88 36.17 35.98 34.44 35.01 34.31 32.33 31.11 29.70 30.63 30.50 29.80 30.30 29.76 29.55 29.63 29.54 29.48 28.97 27.02 26.70 26.48 25.17 23.47 23.26 22.28 21.59 21.08 21.53 21.11 21.51 29.78 29.37 29.85 29.16 28.82 25.25
38.56 40.29 41.01 40.39 38.92 38.06 36.62 36.21 36.17 35.46 35.25 33.29 32.96 31.75 30.21 28.80 27.90 30.95 30.04 30.12 30.01 29.52 29.56 29.57 28.93 26.05 25.63 25.99 25.34 24.08 22.17 22.47 23.44 23.06 20.75 19.95 20.16 19.74 18.73 21.85 27.99 28.18 28.11 28.17
42.52 42.27 38.90 38.56 38.91 38.10 36.64 36.32 37.11 33.72 33.83 32.95 31.50 30.61 29.63 28.84 29.37 28.59 29.75 30.27 29.83 29.48 28.91 28.22 24.93 23.80 24.42 24.93 23.90 22.70 23.22 27.71 21.18 20.43 19.46 19.14 19.80 19.18 18.63 18.36 17.08 17.38 23.44 25.94
40.03 41.49 41.07 37.49 36.22 35.28 34.72 33.43 32.20 31.36 31.58 30.53 30.37 29.28 28.94 27.12 26.87 28.87 29.67 29.02 28.40 27.58 26.19 24.27 23.44 22.68 24.16 24.27 24.12 22.49 21.66 20.80 19.87 19.21 19.52 20.22 19.47 18.86 18.32 17.73 16.69 16.40 17.73 21.44
37.42 39.49 38.08 36.29 35.23 34.07 33.12 32.32 31.24 30.61 31.73 30.23 28.19 27.59 27.17 27.16 28.64 28.14 28.08 27.78 26.54 23.94 23.01 23.10 22.88 22.96 23.96 23.60 22.46 21.62 22.16 25.79 22.41 19.46 19.41 18.78 18.51 18.25 17.59 16.45 16.08 15.81 16.38 16.64
33.61 32.72 34.28 29.58 31.69 33.37 32.65 32.92 32.44 32.18 31.11 30.22 28.91 27.98 26.09 25.02 23.89 23.60 23.92 24.44 23.54 22.78 23.12 23.64 23.11 24.43 24.51 23.83 22.40 21.17 20.79 22.09 24.42 19.06 18.37 18.25 17.91 17.44 16.90 15.95 15.54 15.56 15.79 18.92
36.05 37.01 37.45 38.06 37.18 34.58 33.02 33.08 32.62 32.41 32.19 31.02 28.53 27.09 26.13 25.75 24.66 22.67 22.27 22.23 22.07 21.79 23.13 23.18 23.39 23.52 23.68 23.03 21.70 20.05 19.23 19.12 19.15 18.03 17.98 18.10 17.90 17.26 16.43 16.33 16.21 15.70 15.97 18.27
36.05 36.13 37.22 38.52 38.19 36.13 34.65 33.79 33.11 33.26 31.87 29.72 27.54 26.40 26.74 25.57 24.36 22.95 22.17 22.14 21.22 19.70 19.83 21.87 28.22 24.27 22.08 23.44 21.55 18.78 17.83 17.87 18.38 17.81 17.79 19.71 16.56 16.22 15.80 15.85 15.96 16.08 16.05 16.91
35.91 36.34 37.07 37.82 37.14 37.13 35.64 34.73 33.10 30.36 30.06 29.58 28.23 26.52 24.64 23.95 23.61 22.94 22.34 21.09 20.89 20.65 20.88 24.26 23.22 22.48 22.35 23.78 23.41 17.62 17.36 17.40 17.29 16.75 16.93 15.93 15.21 15.31 15.30 17.83 17.69 16.73 15.79 16.41
34.68 34.52 35.15 36.52 35.17 34.93 33.82 32.76 31.63 30.07 29.81 29.67 27.89 26.65 25.46 23.98 24.13 22.79 21.56 21.04 21.34 24.54 22.57 26.32 21.69 20.80 21.23 22.44 18.82 16.71 16.16 15.73 16.32 14.99 15.01 14.54 14.55 14.69 14.84 15.23 15.78 16.41 16.28 16.51
32.80 33.66 33.25 35.02 34.62 33.45 33.41 33.30 32.58 31.29 30.22 28.29 27.34 26.10 24.38 23.18 23.01 22.26 22.77 22.90 22.58 29.20 24.46 22.13 21.48 24.07 22.20 23.54 17.00 16.15 15.51 14.80 14.41 14.87 14.05 14.03 14.01 14.15 14.62 15.03 14.61 13.53 13.99 12.27
31.50 32.13 32.93 32.97 33.42 33.51 33.30 33.12 32.01 30.60 28.65 27.44 26.43 25.71 25.49 24.84 24.60 23.02 21.61 23.11 25.16 27.37 22.11 21.67 25.60 28.24 26.56 17.30 16.73 15.52 14.57 13.96 13.44 13.40 14.11 13.98 14.90 15.05 12.41 8.72 10.12 11.14 9.97 11.12
29.51 29.77 29.45 31.03 30.09 28.98 27.59 28.31 28.97 29.12 28.07 27.32 27.13 27.18 25.82 24.21 22.75 24.00 25.63 27.87 28.19 27.23 22.11 24.27 26.94 27.53 21.70 14.79 14.25 13.69 13.48 13.04 12.78 12.72 13.57 18.25 14.16 10.25 7.12 8.86 9.30 10.52 10.97 12.73
27.79 27.11 25.73 25.18 25.78 26.25 25.60 25.02 24.82 24.91 25.55 25.69 25.47 25.72 26.27 27.11 25.77 23.86 25.52 25.68 29.18 25.27 23.77 29.13 27.59 25.20 14.90 14.21 13.88 13.82 13.52 13.19 13.11 8.84 8.83 6.95 6.48 6.08 7.98 8.94 9.14 10.11 12.19 11.46
26.13 27.08 27.34 27.12 26.70 25.73 24.95 24.66 23.88 23.88 24.27 23.54 24.02 25.02 25.41 25.81 26.09 24.89 24.57 26.39 25.63 26.48 22.01 20.67 17.55 15.66 14.61 14.27 14.31 14.17 13.29 12.83 12.43 10.60 11.79 8.94 7.77 7.94 8.97 9.87 9.88 10.60 10.84 10.24
24.05 29.63 25.37 24.95 24.67 24.65 24.28 24.21 23.16 22.87 25.07 24.21 23.57 24.29 25.14 25.81 25.18 24.78 26.44 24.93 23.85 20.69 18.00 16.75 17.15 16.51 14.17 14.03 14.49 13.50 13.08 12.42 14.08 11.95 9.37 7.15 7.79 7.34 9.59 10.59 10.89 11.50 11.72 11.86

GFSNGP_sfc_wetblb_027.txt.gz
Wetbulb
29.53 31.26 30.78 30.23 30.47 30.49 26.25 29.13 24.81 27.86 28.58 33.52 37.35 39.28 40.20 43.35 42.28 41.59 39.22 40.21 43.34 44.26 43.76 44.47 41.42 40.35 40.43 40.13 41.51 42.24 41.92 41.30 40.89 43.05 43.44 43.94 41.89 41.04 40.80 39.89 37.94 36.48 35.99 35.73
24.67 30.42 30.64 28.51 30.76 31.25 31.51 31.61 30.92 31.41 30.66 38.42 39.46 39.48 42.31 41.29 40.29 37.39 36.41 38.37 41.53 43.61 42.34 39.96 39.11 38.79 38.73 37.35 37.25 38.50 37.90 37.56 39.91 39.96 39.34 38.40 36.94 36.45 36.63 36.15 36.23 36.27 35.71 34.93
23.89 28.78 29.43 26.09 29.69 31.11 31.95 33.61 32.62 28.76 34.27 38.24 39.79 41.81 40.38 39.72 36.97 34.98 36.34 36.73 35.99 35.73 36.61 39.76 39.85 38.86 37.58 37.58 38.03 36.77 36.46 37.37 37.56 36.97 36.00 35.80 36.18 36.32 35.88 35.02 34.88 33.70 33.79 34.43
26.46 27.15 19.30 30.81 35.03 35.38 33.77 35.22 35.83 36.19 38.20 40.31 41.26 40.56 40.46 37.72 35.10 35.40 35.40 35.09 35.54 35.85 36.55 37.53 37.91 37.70 38.19 37.84 36.89 36.20 35.99 36.03 36.45 36.34 35.96 36.25 35.95 35.42 34.30 33.95 33.04 32.70 32.41 32.54
26.36 26.79 27.55 32.12 35.42 36.02 34.58 35.00 38.44 37.95 39.64 39.53 41.29 38.10 36.47 37.40 36.87 35.86 36.31 36.30 36.24 36.55 36.95 37.12 37.25 37.32 36.73 35.21 36.69 36.61 36.12 36.78 37.52 37.37 36.35 35.74 34.12 33.31 33.64 33.02 32.80 32.72 32.90 32.61
31.48 26.45 21.08 31.08 38.34 40.23 39.10 31.00 39.07 39.09 38.84 37.88 38.61 33.88 35.88 37.56 36.83 36.34 37.14 37.26 37.09 37.16 37.51 37.32 37.61 38.08 36.24 34.93 35.09 34.22 34.74 35.56 36.37 36.54 35.23 34.05 34.37 33.93 33.93 33.56 32.22 32.99 31.65 31.28
31.66 29.49 29.18 35.81 37.79 40.86 28.93 31.42 38.53 38.70 38.68 37.02 35.99 36.13 35.98 37.14 37.36 37.52 37.81 37.91 38.08 37.86 37.19 37.13 37.38 36.69 34.51 34.06 31.98 34.99 35.55 35.69 35.25 35.43 34.59 34.30 33.73 33.13 32.03 30.76 29.58 27.51 25.63 24.74
31.81 30.36 24.64 38.88 39.85 35.02 37.88 38.43 39.00 38.32 37.41 37.57 35.93 36.07 35.96 38.12 37.00 36.37 37.49 36.97 36.54 34.48 34.63 36.76 37.59 35.62 33.65 33.08 34.93 34.95 33.95 32.73 32.42 32.82 33.68 31.55 29.44 28.21 27.04 25.43 23.95 22.42 21.50 21.54
31.85 32.19 37.92 39.58 38.48 40.19 39.29 38.17 37.50 37.09 38.10 37.46 35.46 34.75 35.72 35.60 35.87 36.60 36.90 36.23 35.73 33.16 31.91 33.06 35.08 35.48 32.95 32.87 32.91 31.99 30.40 29.28 28.91 28.59 27.71 25.40 24.66 22.70 22.48 21.89 21.23 21.23 22.57 20.34
35.05 37.47 37.79 39.75 40.37 39.46 38.59 37.44 37.89 38.67 38.52 36.93 35.43 34.46 32.93 35.83 32.72 31.79 33.31 31.39 32.46 31.37 29.53 29.20 30.45 30.61 30.63 30.48 30.61 29.37 27.02 24.37 23.76 23.24 22.41 21.89 23.47 22.99 21.26 20.53 20.11 21.29 21.08 19.69
35.08 37.35 39.09 39.04 40.02 40.18 38.89 38.15 37.57 37.52 37.28 36.86 35.70 32.83 30.98 32.66 31.56 31.31 31.18 30.56 30.73 29.00 27.61 27.56 29.57 29.39 28.60 28.00 26.06 24.22 23.05 22.80 22.15 22.02 20.55 20.48 21.79 21.10 21.91 19.94 21.53 20.86 20.62 21.04
32.60 36.86 37.80 39.29 41.49 39.73 38.35 37.37 37.10 36.49 34.56 34.90 34.71 31.56 30.28 29.12 31.50 31.26 30.35 30.33 29.86 29.75 29.25 28.35 29.14 27.41 25.04 25.33 24.71 23.64 22.62 22.51 21.86 20.95 20.91 21.55 21.59 21.84 30.63 30.06 30.32 29.70 28.48 24.88
38.56 40.25 41.24 41.46 39.93 38.97 37.70 36.81 36.23 35.97 35.36 33.89 32.54 31.12 29.72 28.24 28.08 31.97 30.36 30.40 29.99 29.61 29.39 29.13 27.42 24.36 24.36 25.00 24.59 23.58 21.88 22.17 23.04 22.60 20.22 19.51 19.65 19.23 18.16 21.64 28.45 28.28 28.35 28.35
41.77 39.95 38.36 38.69 38.75 38.15 36.90 36.02 37.46 34.35 34.05 33.70 31.89 30.30 29.45 28.39 29.15 29.23 30.05 30.75 30.34 29.68 28.96 27.78 25.34 22.93 23.61 24.21 23.64 22.38 22.88 27.16 20.60 19.78 18.85 18.83 19.22 18.43 18.09 17.83 16.44 16.72 22.86 25.46
37.90 38.20 38.27 39.12 37.02 35.37 34.80 33.77 32.70 32.12 31.34 30.53 30.21 29.29 28.69 27.10 26.33 29.49 30.35 29.52 28.87 28.13 26.91 23.97 22.71 21.89 23.42 23.82 23.92 22.02 21.19 20.40 19.31 18.76 18.94 19.89 18.86 18.22 17.58 16.91 15.90 15.72 17.02 20.78
35.13 35.17 36.67 37.52 37.76 34.65 33.21 32.34 31.81 31.03 30.41 29.26 28.87 29.06 27.65 27.15 29.48 29.10 28.20 28.57 27.23 26.00 23.54 22.72 22.75 22.60 23.51 23.24 21.85 21.06 22.19 26.07 22.60 19.51 18.89 18.17 17.95 17.53 16.72 15.73 15.36 15.03 15.53 15.72
31.05 30.39 29.98 29.16 30.06 33.73 32.71 32.95 32.70 31.61 30.54 29.74 29.48 28.75 27.32 27.91 27.38 27.10 27.10 27.23 26.18 23.65 23.24 23.83 23.05 24.00 24.12 23.45 22.35 21.37 21.06 21.82 24.41 18.64 17.80 17.61 17.30 16.75 16.15 15.11 14.67 14.70 14.96 18.01
33.03 34.59 35.22 34.99 35.21 35.79 34.58 33.08 32.40 31.48 30.80 31.54 29.53 28.30 25.97 24.92 24.78 24.48 24.46 23.40 22.02 22.01 23.39 23.58 23.85 23.84 23.91 23.15 21.75 20.16 19.41 18.96 18.56 17.41 17.37 17.55 17.11 16.51 15.69 15.55 15.42 14.92 15.22 17.35
34.81 35.61 35.23 35.55 36.45 36.67 35.92 33.40 32.05 31.70 31.80 30.83 29.14 27.52 27.02 26.35 24.25 23.15 21.95 22.03 21.63 20.23 20.26 21.96 28.27 24.55 22.36 23.42 21.43 18.45 17.37 17.17 17.79 17.17 17.17 19.42 16.01 15.55 15.09 15.06 15.23 15.38 15.25 16.14
34.70 36.03 35.64 36.55 36.36 37.51 36.35 34.87 33.79 32.40 31.86 30.62 28.85 26.38 24.69 23.42 23.37 22.62 22.70 22.22 22.39 21.78 20.72 23.28 23.43 22.00 21.53 23.72 23.88 17.18 16.75 16.86 16.78 16.21 16.34 15.38 14.63 14.73 14.58 17.12 16.98 15.97 15.14 15.72
32.62 34.17 34.23 35.77 35.33 34.31 33.71 33.21 31.89 29.94 29.50 29.80 28.26 26.57 24.81 23.02 23.30 22.85 21.94 21.76 21.90 24.37 21.85 27.06 21.63 20.83 20.95 22.50 19.33 16.21 15.77 15.41 15.87 14.68 14.72 14.13 14.04 14.05 14.13 14.48 15.17 15.73 15.63 15.84
31.08 31.64 32.28 33.60 34.76 34.17 33.61 33.12 31.83 30.07 29.76 29.52 28.62 26.13 23.85 22.44 22.57 22.57 23.50 23.88 22.08 28.68 24.75 21.64 21.25 23.61 21.65 25.12 16.47 15.65 14.93 14.38 14.04 14.42 13.68 13.60 13.49 13.62 14.14 14.55 14.20 12.95 13.36 11.81
30.03 30.28 30.32 31.06 30.68 32.78 33.94 33.63 32.66 31.85 30.82 29.96 27.73 25.86 25.59 24.76 24.75 23.41 21.99 22.99 24.30 27.93 23.08 21.95 24.49 27.87 28.03 17.12 16.30 15.17 14.23 13.63 13.26 13.17 13.78 13.54 14.09 14.55 12.32 8.44 9.34 11.04 9.46 10.30
28.26 29.25 28.85 28.82 29.56 29.55 29.64 29.98 30.94 31.20 30.19 28.80 28.11 27.91 26.16 24.21 23.48 24.51 26.02 27.43 28.61 28.76 22.64 23.69 27.20 29.58 26.46 14.83 14.18 13.56 13.40 13.27 12.82 12.70 13.22 18.47 14.16 10.56 6.59 8.29 8.75 10.10 10.40 12.22
26.91 26.75 26.31 26.76 26.90 26.68 25.79 25.38 25.38 26.59 27.75 27.44 27.17 27.37 26.91 27.24 26.11 24.39 24.65 26.24 29.98 26.62 23.25 28.98 30.29 29.18 16.08 14.55 14.55 14.29 13.90 13.52 13.17 8.88 8.87 6.87 6.74 6.45 7.72 8.61 8.88 9.76 10.26 10.97
25.24 25.96 26.92 26.23 25.56 25.73 25.66 25.15 24.58 24.29 24.32 23.74 24.68 25.40 25.49 26.36 26.83 25.94 25.59 26.93 26.74 25.73 23.28 24.86 22.02 18.42 15.30 14.89 14.95 15.13 14.49 13.85 13.73 11.34 11.75 9.55 8.47 8.19 8.76 9.69 9.94 10.56 10.67 10.03
25.95 28.64 26.49 25.67 25.84 25.16 24.54 24.19 23.27 23.10 25.32 24.14 23.58 25.18 25.63 26.34 26.42 25.82 26.74 25.58 24.86 23.24 21.22 19.42 19.28 18.52 15.03 14.73 15.57 14.85 14.30 13.48 14.74 12.33 11.03 8.47 7.71 7.39 9.43 10.32 10.27 11.32 11.83 12.07

GFSNGP_sfc_wetblb_030.txt.gz
Wetbulb
28.69 30.26 29.57 29.11 29.66 29.76 25.60 27.04 22.06 25.53 26.89 32.04 35.37 36.77 39.68 39.34 42.59 40.85 36.91 36.48 36.55 37.18 39.18 39.77 38.86 38.41 38.51 37.54 38.83 41.60 41.49 41.60 41.96 43.83 44.77 43.43 42.28 41.48 40.80 39.48 38.17 37.67 37.26 36.96
22.13 29.64 29.60 27.78 30.07 30.63 30.51 31.08 30.15 31.03 30.18 37.53 38.23 39.44 41.55 42.06 39.23 37.01 36.89 36.11 36.33 35.98 36.51 38.49 39.06 38.79 38.64 38.09 37.70 37.44 36.83 37.41 38.83 38.45 38.84 39.17 38.31 37.73 37.35 37.03 37.21 37.31 37.15 37.25
19.17 27.92 28.72 25.23 28.94 30.31 31.36 32.27 32.00 28.04 33.62 36.37 37.05 40.98 40.90 39.01 35.96 35.00 35.86 34.95 34.48 35.33 36.36 37.55 37.49 38.14 37.69 37.71 37.89 36.65 35.92 35.85 36.50 35.99 35.64 36.27 36.75 36.69 36.50 35.97 36.14 36.12 36.91 36.47
18.98 25.77 18.16 29.78 34.23 34.64 33.09 33.98 34.30 34.38 35.57 37.19 37.79 41.19 39.34 35.27 33.07 33.80 35.47 35.65 35.56 35.11 36.46 37.25 37.47 37.22 37.59 37.81 36.89 36.74 36.35 36.27 36.59 36.51 36.18 36.37 35.88 34.92 34.51 34.69 34.57 34.12 33.88 34.40
20.82 26.76 27.55 31.82 33.96 33.84 33.53 34.46 36.58 35.60 36.99 37.65 39.25 38.37 35.66 36.73 34.88 34.70 36.09 36.67 36.42 36.85 37.08 37.45 37.21 37.22 36.16 36.13 35.90 35.55 35.78 37.02 37.18 36.95 35.68 34.90 33.73 33.29 33.07 32.60 32.73 32.57 33.32 32.87
29.43 24.97 20.94 30.19 37.92 40.18 38.44 31.41 38.56 38.12 37.98 37.17 36.70 33.09 35.57 35.82 35.32 34.98 36.03 37.40 37.02 37.67 37.55 36.91 36.44 36.19 34.98 35.28 35.38 34.59 34.70 34.65 35.56 35.12 34.24 32.60 32.46 32.11 32.81 32.73 31.95 32.33 32.06 32.30
29.51 26.43 28.78 34.40 37.62 40.57 29.45 31.57 37.70 37.85 38.38 36.45 35.71 36.37 35.89 36.73 35.59 35.74 37.24 36.81 37.00 36.58 36.80 36.96 37.10 36.57 34.79 34.75 32.08 34.88 36.17 35.48 35.26 35.20 34.11 33.16 32.42 33.02 32.13 31.18 30.36 29.60 28.43 26.86
30.71 27.48 24.49 38.12 38.68 35.53 38.23 37.47 37.99 37.00 36.27 36.97 36.25 35.54 35.81 36.84 35.35 36.23 35.43 35.27 35.49 34.57 34.56 36.53 36.97 35.65 34.20 33.57 34.67 34.75 34.03 33.06 32.73 33.20 34.35 32.70 30.60 29.31 28.01 26.30 24.73 22.91 22.17 21.81
30.61 30.13 36.52 38.75 39.34 40.88 39.89 38.94 36.76 35.66 36.53 37.45 35.64 34.77 35.74 35.30 35.14 37.09 35.20 35.62 34.66 33.15 32.72 33.95 35.30 34.76 32.38 31.95 31.93 30.95 29.77 28.49 28.17 26.83 25.23 24.34 22.81 21.59 21.78 21.37 21.12 21.22 22.36 19.80
33.67 35.68 36.86 38.89 39.29 39.53 38.86 37.40 37.55 37.49 37.35 37.09 35.52 35.31 34.62 34.99 34.30 34.49 32.89 32.00 32.22 31.43 30.07 29.19 30.11 30.23 29.85 30.04 29.68 28.31 25.74 22.57 22.17 21.84 20.86 20.78 23.02 22.43 20.88 20.25 20.15 21.33 20.96 19.10
34.55 36.14 37.46 38.36 40.44 40.14 39.64 38.29 37.90 37.36 37.21 37.07 36.17 33.94 33.76 34.72 33.24 33.49 31.80 29.47 29.29 27.76 28.65 28.52 29.51 28.67 26.81 25.79 24.79 23.42 22.19 22.02 21.33 21.12 19.90 20.23 21.44 20.53 21.59 18.81 20.85 20.15 19.66 20.30
32.00 35.78 36.55 37.78 39.96 40.35 38.86 38.36 38.02 36.57 34.48 35.05 36.02 33.17 31.52 29.99 32.44 31.67 30.91 30.76 30.23 28.36 27.31 28.11 28.60 27.04 24.07 24.45 23.91 22.72 21.98 22.11 21.34 21.07 20.98 21.99 21.87 22.12 31.36 30.59 30.73 29.58 27.84 24.45
37.98 37.78 38.86 39.90 40.37 38.68 38.11 38.22 37.37 36.05 36.00 34.57 33.61 31.59 30.45 28.26 29.61 32.90 30.87 30.62 29.98 29.59 29.34 28.88 27.26 23.59 23.59 24.20 23.82 22.92 21.30 21.86 22.52 22.40 20.08 19.23 19.45 18.90 17.92 21.88 28.44 28.64 28.61 28.36
38.16 39.26 38.80 38.75 37.02 37.95 37.39 37.04 37.10 34.26 34.58 34.70 33.22 31.21 30.05 28.22 29.39 29.31 30.24 30.80 30.50 29.76 28.92 27.98 25.77 22.68 23.10 23.60 23.38 21.89 22.46 26.64 20.33 19.32 18.43 18.10 18.37 17.69 17.46 17.11 15.91 16.16 22.59 25.40
35.96 36.30 36.02 36.98 37.54 36.57 35.06 34.00 32.93 32.74 32.01 31.01 30.67 29.74 29.09 27.51 26.47 29.45 30.94 30.32 29.59 28.58 27.29 25.60 22.36 21.50 22.77 23.31 23.87 21.84 21.08 20.22 19.08 18.37 18.32 19.38 18.25 17.62 16.89 16.28 15.24 15.01 16.28 20.23
32.84 32.98 33.24 33.20 34.53 37.25 35.06 32.28 32.10 32.17 30.90 29.71 28.98 28.64 28.59 28.05 28.83 29.65 28.79 29.03 27.71 26.43 26.12 23.49 23.18 22.65 23.28 23.07 21.67 20.83 21.65 25.25 22.34 19.04 18.32 17.61 17.48 16.97 16.08 15.03 14.64 14.32 14.87 15.03
29.58 29.89 28.18 30.39 30.84 32.93 35.10 34.34 32.85 32.68 31.03 29.42 28.80 28.57 29.30 28.70 28.30 27.45 27.80 29.07 28.87 27.23 25.65 24.75 23.61 23.91 23.86 22.86 21.69 20.95 20.93 21.45 24.18 18.33 17.42 17.13 16.82 16.18 15.53 14.50 14.04 14.13 14.37 17.30
31.45 32.03 32.55 32.87 33.21 33.64 34.72 35.27 33.98 32.20 30.60 30.48 30.42 29.04 27.57 27.53 27.25 26.76 26.55 26.37 25.11 23.24 24.18 24.25 24.03 23.63 23.56 22.96 21.82 20.35 19.71 18.88 18.26 17.14 16.93 17.18 16.64 15.92 15.14 14.95 14.79 14.32 14.66 16.64
34.37 35.22 35.92 35.35 35.53 35.66 36.41 37.03 35.80 32.39 30.79 30.68 29.52 28.42 28.65 28.60 26.91 26.30 25.53 24.79 23.72 21.75 21.80 22.96 28.28 25.21 22.56 23.39 21.31 18.35 17.37 17.10 17.56 16.76 16.77 19.30 15.60 15.04 14.55 14.43 14.61 14.83 14.76 15.61
33.09 34.07 35.05 35.13 36.96 35.07 34.92 35.93 34.40 32.29 31.66 30.61 29.97 28.67 27.47 26.22 25.32 23.59 23.85 23.21 24.10 24.07 22.60 24.07 24.88 22.96 22.01 24.69 23.86 17.20 16.84 16.82 16.61 15.89 16.06 15.16 14.24 14.31 14.17 16.67 16.57 15.61 14.69 15.09
31.29 32.28 32.96 34.03 35.16 35.76 33.42 33.02 32.88 31.62 31.02 30.64 29.33 28.06 26.87 25.13 24.46 23.57 22.50 22.29 22.69 25.35 23.18 28.06 23.01 21.78 21.92 23.71 19.46 17.00 16.08 15.45 15.70 14.62 14.61 13.99 13.77 13.72 13.69 13.79 14.74 15.37 15.28 15.30
29.94 30.06 30.23 31.15 31.76 33.74 33.91 33.19 31.09 29.89 29.61 29.37 29.13 27.62 25.44 23.62 23.39 23.20 24.56 25.30 23.48 29.02 26.17 23.73 23.06 24.53 22.99 25.77 17.54 16.40 15.19 14.52 13.98 14.19 13.49 13.34 13.23 13.23 13.77 14.13 14.00 12.79 12.85 11.37
28.91 29.16 29.49 29.26 28.77 29.25 33.51 33.62 32.51 31.50 30.94 30.65 29.24 27.71 26.33 25.43 24.87 23.75 22.86 24.18 25.01 28.30 24.55 23.09 25.64 28.58 28.73 17.79 17.05 15.56 14.67 13.77 13.08 13.07 13.69 13.38 13.53 14.09 12.29 8.89 9.41 10.88 9.39 10.23
27.50 27.93 27.58 28.19 28.91 28.42 26.82 28.32 31.09 31.96 31.81 31.57 30.53 29.67 27.60 24.58 24.15 25.42 26.48 27.73 28.30 29.14 23.70 24.34 27.56 29.77 28.23 16.42 15.30 14.11 13.52 13.02 12.62 12.53 13.03 18.30 14.43 10.79 6.94 8.51 9.08 10.17 9.78 11.50
25.32 25.07 25.09 25.49 25.97 25.89 25.78 25.34 25.51 26.58 28.73 28.88 28.90 29.01 28.95 28.33 26.23 24.93 25.52 26.41 29.91 27.91 23.74 29.09 29.95 30.50 17.19 15.29 14.43 13.96 13.32 12.99 12.95 9.00 8.79 7.13 6.57 6.17 8.66 9.00 9.01 9.54 10.07 10.98
24.44 26.69 25.91 25.38 24.87 24.83 24.75 24.99 24.31 24.67 24.65 24.67 25.97 26.93 27.40 26.81 27.00 26.06 25.94 27.27 27.99 26.58 22.49 25.26 25.36 21.03 16.89 15.15 14.24 14.00 13.40 13.29 13.80 11.72 11.66 9.30 8.04 8.64 9.65 9.97 9.96 10.59 10.63 10.13
19.42 25.98 23.80 22.28 23.37 23.82 24.98 25.46 24.37 23.68 24.96 24.11 23.33 24.35 25.92 26.93 26.69 26.48 27.65 26.63 26.07 23.59 22.79 22.84 22.77 20.27 15.31 14.64 14.46 14.05 14.12 13.43 14.59 11.25 10.59 8.87 8.87 8.07 9.67 10.48 10.73 11.19 11.62 12.63

GFSNGP_sfc_wetblb_033.txt.gz
Wetbulb
29.45 30.50 30.47 30.28 30.41 29.68 26.23 27.71 25.15 27.24 27.00 32.29 35.35 36.86 38.42 39.86 41.97 39.63 38.10 37.63 36.61 36.11 37.39 38.96 38.80 39.36 39.80 39.50 38.99 39.42 39.59 40.24 40.95 43.40 43.88 42.97 41.72 41.22 41.31 41.32 40.23 39.94 39.07 38.31
23.84 30.55 30.38 28.79 30.63 30.81 30.80 30.94 29.78 30.44 30.46 38.26 39.29 38.34 40.20 40.97 38.58 36.90 36.27 36.15 36.05 36.05 37.10 37.72 37.63 38.20 38.67 38.50 37.93 37.98 37.57 37.02 37.99 38.66 39.18 38.71 38.58 38.46 38.30 38.17 38.17 38.29 37.59 37.88
20.29 28.65 28.90 25.55 29.12 30.57 31.49 32.09 32.45 28.51 33.73 36.92 36.77 38.75 40.16 39.58 36.84 34.83 35.09 35.95 36.27 35.34 36.61 37.17 37.14 37.76 37.48 37.36 37.99 37.45 36.86 36.95 37.36 37.46 37.04 37.26 37.47 37.13 36.68 36.77 37.57 37.43 37.85 38.30
21.58 25.71 19.02 29.84 34.30 34.28 32.58 33.68 34.27 34.40 35.68 37.03 37.41 39.19 40.55 37.03 35.45 34.34 35.34 35.83 35.56 36.14 36.92 37.45 37.65 37.17 37.29 37.77 37.64 37.35 37.10 37.07 37.22 36.79 36.22 36.17 35.81 35.57 35.84 35.91 35.47 35.38 35.66 35.93
21.61 22.74 27.18 31.06 33.09 32.81 32.35 34.59 36.23 35.20 36.89 37.46 39.14 39.38 37.70 36.94 35.87 35.31 35.70 36.74 37.12 37.58 37.39 37.29 36.74 36.68 36.82 36.27 36.16 35.64 35.16 35.69 35.99 35.71 34.75 34.43 33.73 33.80 34.26 33.57 33.20 32.54 32.84 32.62
28.67 23.55 20.60 30.95 38.04 39.86 39.19 33.40 39.50 37.00 37.23 37.79 38.56 35.18 37.22 36.54 36.13 35.99 37.17 37.50 37.34 37.18 37.37 36.91 36.05 35.27 35.25 34.95 35.51 34.61 35.03 35.49 35.45 35.04 34.10 32.56 32.65 32.30 33.16 33.12 32.21 33.09 32.05 32.01
29.51 27.00 27.68 34.12 38.78 40.81 32.81 33.78 38.78 39.27 39.26 38.20 36.85 38.00 37.31 36.64 36.21 37.25 37.70 36.44 37.31 37.44 37.18 36.77 37.04 36.59 34.92 34.51 32.60 35.34 35.58 35.27 35.11 35.12 33.84 32.89 32.24 32.34 32.00 31.62 31.29 30.03 29.81 30.07
30.16 27.33 23.48 37.19 37.71 36.13 40.27 39.15 39.63 38.76 38.27 37.86 37.77 36.17 36.07 36.64 35.80 36.71 36.01 35.37 35.24 35.66 36.24 36.88 36.99 35.82 34.28 33.60 34.62 34.56 34.35 33.83 33.76 33.75 34.56 33.46 31.67 30.40 29.03 28.12 26.39 25.32 25.14 25.22
30.03 29.48 35.34 37.84 40.05 41.10 40.76 39.57 38.90 37.67 38.01 38.26 37.20 35.88 36.38 35.89 35.75 36.39 36.00 35.96 35.23 33.38 33.32 35.10 35.36 34.71 31.70 30.93 31.36 30.78 29.50 27.53 26.83 26.46 26.32 26.35 25.88 25.44 25.56 25.52 25.05 24.80 24.79 23.57
33.21 35.30 36.29 38.73 40.67 39.80 39.55 38.70 38.54 38.49 38.57 38.33 37.02 36.14 35.98 35.84 36.04 36.24 34.52 33.38 33.21 32.19 29.99 29.10 30.05 31.24 31.09 30.74 30.15 27.26 25.53 25.07 25.30 25.07 24.41 24.84 25.94 25.73 24.94 24.24 24.03 24.12 23.50 22.30
33.22 35.71 37.13 37.75 39.63 39.99 40.21 38.90 38.42 38.51 38.18 38.08 37.17 35.66 35.74 36.09 36.67 36.02 34.70 31.97 30.94 29.99 29.61 29.31 29.29 28.11 28.03 27.42 27.05 25.45 24.62 24.51 24.24 23.83 23.60 23.91 24.38 24.57 24.70 23.48 24.80 23.57 22.95 23.33
32.66 36.11 36.99 37.68 39.63 40.07 39.15 38.72 39.32 38.04 36.53 36.78 37.10 35.88 34.86 34.35 35.25 34.32 32.22 31.46 30.26 29.71 28.61 28.87 28.46 26.77 25.95 26.41 26.16 25.25 24.31 24.38 24.69 24.57 25.01 25.54 26.08 26.23 31.67 31.19 30.84 29.70 28.29 26.48
37.83 38.21 39.13 40.40 39.92 38.82 36.84 36.98 37.48 37.22 36.59 36.10 35.57 34.57 33.09 31.02 31.41 34.20 32.36 31.69 30.55 29.73 29.96 29.26 27.82 25.57 26.08 25.93 25.71 24.96 24.04 24.06 25.55 24.32 23.71 23.69 23.32 23.29 22.89 24.60 28.75 28.87 28.54 28.10
37.03 36.95 36.95 38.03 36.90 36.41 36.36 36.62 37.32 35.75 35.51 35.54 35.09 32.40 31.53 30.20 31.30 30.48 30.96 31.91 31.47 30.25 29.48 28.27 26.77 24.86 25.25 25.41 25.32 24.03 24.55 26.76 23.26 22.47 22.09 21.71 21.59 21.04 20.97 20.52 19.64 20.07 22.98 25.94
34.94 35.27 35.99 35.33 34.95 35.69 37.35 34.90 33.79 33.56 32.99 32.46 32.07 30.96 29.60 28.23 28.88 29.50 30.70 31.50 30.43 29.33 28.21 27.14 25.52 23.83 24.53 25.03 25.14 24.12 23.69 22.67 21.97 21.65 21.31 21.81 20.98 20.26 19.88 19.24 18.76 18.58 19.55 21.58
32.47 32.41 32.54 32.48 32.29 32.73 34.08 35.11 32.94 33.18 32.38 31.48 30.17 29.40 28.98 28.69 28.80 30.56 30.47 30.03 28.39 27.18 26.89 26.16 25.57 24.74 24.85 25.13 23.62 22.83 23.74 25.24 23.18 21.81 21.24 20.21 20.14 19.75 19.00 18.25 17.86 17.76 18.00 18.15
29.22 28.85 27.28 28.57 31.01 31.41 32.04 34.46 35.83 34.94 33.01 31.02 30.06 29.53 28.28 28.77 29.66 28.64 28.87 29.83 29.35 28.04 27.12 26.64 25.80 25.61 25.37 24.26 23.20 23.00 23.53 24.54 24.06 20.56 20.08 19.79 19.52 19.01 18.32 17.59 17.37 17.42 17.48 18.94
30.62 31.40 32.57 33.45 33.36 32.69 33.37 34.53 35.34 35.22 32.94 32.31 30.04 28.89 29.37 29.02 28.82 27.85 27.84 28.51 27.55 26.06 26.33 26.39 25.76 25.22 24.71 24.03 23.53 22.59 21.94 20.96 20.19 19.47 19.26 19.26 18.94 18.44 17.90 17.56 17.39 16.88 17.38 18.16
32.15 33.54 35.07 35.05 35.31 35.64 33.66 34.96 36.84 36.79 34.20 32.02 30.77 29.64 29.97 29.84 29.11 27.90 27.39 27.20 26.14 24.64 24.46 25.12 28.76 26.26 24.09 24.67 23.64 21.38 20.19 19.31 19.13 18.67 18.82 20.69 18.22 17.63 17.29 17.01 16.94 17.11 17.19 17.37
31.22 33.48 34.09 34.18 35.46 36.46 34.59 34.18 34.25 33.67 32.64 31.66 30.65 29.26 28.23 28.43 27.45 26.30 26.67 26.37 27.20 27.03 25.12 25.92 27.25 24.57 23.71 26.13 25.36 20.34 19.59 19.20 18.55 17.99 17.87 17.45 17.04 16.79 16.82 17.73 18.30 17.40 16.89 16.91
29.88 31.17 31.39 31.75 32.20 33.96 35.20 33.58 32.42 32.57 31.66 31.22 30.05 28.99 28.60 27.11 26.54 25.53 24.59 24.37 24.66 26.90 24.89 28.86 24.77 23.53 24.27 25.73 22.16 19.75 19.11 18.20 17.91 17.28 16.92 16.68 16.37 16.07 15.93 15.92 16.22 16.60 16.59 16.37
29.24 29.33 29.79 30.14 29.77 30.15 33.00 34.08 32.30 30.39 30.28 29.78 29.62 28.49 26.99 25.28 24.87 24.86 26.40 26.78 24.85 29.63 27.05 25.56 24.21 25.31 25.01 26.84 19.75 18.90 17.73 17.13 16.87 16.35 15.68 15.67 15.53 15.42 15.51 15.80 15.62 15.84 15.33 14.77
28.64 28.67 28.60 28.48 28.19 28.43 30.43 31.57 33.19 31.92 30.80 30.30 29.51 28.52 28.02 26.88 26.30 24.98 23.44 25.37 25.85 28.81 25.82 24.21 26.22 28.96 29.83 19.75 19.17 18.11 17.15 16.29 15.52 15.37 15.72 15.54 15.54 15.44 15.63 14.88 14.29 14.71 14.14 13.86
26.64 27.52 27.39 27.48 28.08 27.48 26.19 26.68 26.76 30.15 31.70 31.59 31.30 30.70 28.72 26.53 26.35 27.14 27.03 28.54 28.68 29.64 24.58 25.58 28.51 30.42 28.85 19.08 17.82 16.79 16.18 15.34 14.63 14.53 15.00 18.70 15.76 15.44 13.52 13.18 12.96 13.60 13.26 14.02
25.05 25.43 23.71 23.41 24.47 24.93 24.82 24.70 24.75 25.49 27.64 29.17 29.66 29.67 29.49 29.44 28.83 26.46 26.96 27.64 29.86 28.93 24.84 29.75 30.69 31.08 19.79 18.20 17.17 16.51 15.65 14.67 14.52 13.69 13.43 13.26 13.33 12.54 12.51 12.60 12.48 12.83 13.32 14.34
22.95 24.05 24.10 23.35 23.08 22.70 23.81 24.99 23.84 24.00 24.29 24.32 25.79 28.07 28.58 28.65 28.42 27.60 27.18 28.11 28.80 28.01 24.15 26.95 27.25 23.72 19.68 17.97 16.99 16.14 15.30 14.75 16.42 15.84 14.85 13.69 12.73 12.08 12.46 12.93 12.89 13.15 13.80 13.98
16.72 23.95 21.07 19.65 21.02 20.91 21.31 26.42 23.70 23.04 24.19 23.58 23.03 23.83 26.72 27.54 27.46 26.29 27.99 27.94 28.29 25.29 23.67 24.99 25.98 23.03 18.92 17.89 16.89 16.20 15.74 15.82 17.01 14.64 14.50 12.50 12.14 12.01 12.61 12.81 12.92 13.35 13.74 14.37

GFSNGP_sfc_wetblb_036.txt.gz
Wetbulb
33.20 33.86 34.00 33.78 33.58 33.64 31.11 34.07 30.93 33.58 33.20 38.27 40.83 42.73 43.64 45.28 45.93 44.32 42.70 41.67 41.17 40.80 41.53 40.39 40.59 41.91 42.17 42.61 42.61 42.08 42.11 42.29 43.42 45.09 45.63 45.38 44.68 44.50 43.76 43.04 42.71 41.77 40.48 39.57
31.03 33.04 33.36 31.47 34.06 34.57 34.31 34.64 34.29 35.18 34.55 41.93 43.92 44.03 43.50 44.56 43.69 42.18 40.53 40.19 40.09 39.87 39.46 38.73 38.96 39.08 39.19 40.27 40.61 41.80 40.85 39.54 41.16 42.36 42.43 41.13 41.96 41.49 41.31 41.10 41.07 39.42 38.90 38.88
29.03 31.93 32.06 29.54 33.14 34.23 35.15 36.25 35.96 31.94 37.85 42.12 41.04 41.85 42.49 44.03 42.30 40.37 39.47 39.20 39.02 38.85 38.24 38.23 37.86 38.07 37.76 39.40 40.33 40.14 39.47 38.51 39.28 39.78 39.13 38.28 38.46 38.38 37.99 38.10 38.54 38.48 38.66 39.02
30.18 30.80 24.35 34.50 38.24 38.07 36.46 37.63 38.50 38.84 40.08 41.50 42.08 43.02 43.98 42.80 42.20 40.08 39.09 39.26 39.09 38.33 37.77 37.91 37.74 37.83 38.34 38.32 38.30 37.87 37.74 37.63 38.17 38.34 36.80 36.49 36.25 35.83 35.24 35.42 35.73 35.90 35.65 37.29
29.38 28.96 32.98 35.28 35.45 35.89 35.99 37.68 40.08 38.66 40.81 42.16 42.86 43.60 43.10 41.84 40.70 40.35 40.21 40.20 38.88 38.11 38.14 37.27 36.30 37.54 37.04 36.89 36.59 36.26 36.05 36.36 36.86 36.51 35.52 35.12 34.38 34.08 34.46 33.52 33.11 32.71 33.37 33.41
30.58 25.02 25.01 35.66 41.27 42.16 41.89 35.68 42.65 41.47 41.34 42.13 42.64 40.02 43.85 41.68 40.66 40.46 40.62 40.68 39.30 38.75 38.32 36.50 36.63 37.51 36.44 35.82 35.80 34.87 35.31 35.50 35.76 35.95 34.77 33.32 33.33 32.65 33.67 33.45 32.52 33.42 32.23 32.18
31.34 27.84 32.70 39.77 42.55 43.87 34.26 37.26 42.98 43.20 43.70 42.91 41.51 43.77 43.54 41.70 40.43 41.39 41.10 40.33 39.72 39.60 38.52 38.03 38.08 37.75 35.57 35.32 33.37 35.77 36.48 36.19 35.94 35.68 34.86 34.10 33.36 34.11 33.83 33.38 32.70 32.09 31.96 31.99
32.31 28.78 25.69 41.26 41.04 37.58 42.55 43.39 43.08 42.62 43.06 42.31 43.03 41.42 41.56 41.42 40.51 40.31 39.74 39.54 39.43 39.72 38.73 38.95 38.74 38.02 35.84 34.60 35.43 35.70 35.83 35.23 35.07 35.71 35.96 35.33 34.36 33.54 33.25 32.80 31.36 30.15 29.80 30.01
35.00 34.59 40.97 42.98 43.43 45.18 44.51 43.30 43.28 42.97 42.87 42.47 41.85 41.08 41.32 40.96 40.82 40.73 40.27 39.82 39.97 39.81 38.19 37.64 37.66 38.08 34.64 33.36 34.03 33.74 34.12 32.53 33.25 32.87 32.38 32.83 32.41 31.73 31.35 31.53 30.75 29.74 28.97 28.59
36.90 40.79 41.06 42.56 44.19 43.45 43.45 43.58 43.54 43.49 42.93 42.58 42.06 42.18 41.70 41.72 41.10 40.51 40.06 39.08 39.28 38.55 38.45 36.62 36.40 36.88 36.35 35.49 35.95 33.96 32.08 31.49 31.78 31.52 31.14 31.54 31.41 31.56 31.33 30.89 30.06 29.01 28.16 27.39
38.32 41.04 42.03 43.19 44.63 44.84 44.24 44.21 44.04 44.56 42.83 42.45 42.16 42.10 42.36 42.02 41.36 40.85 39.74 37.73 38.20 38.24 36.81 36.57 36.08 35.83 35.67 34.55 33.55 32.29 31.58 31.03 30.64 30.53 30.43 30.10 30.12 30.49 29.70 29.55 29.68 28.65 27.79 28.05
37.32 42.99 43.27 43.14 44.70 44.08 43.35 42.03 41.96 42.03 42.28 41.93 42.15 42.68 41.94 42.13 42.44 40.56 38.05 36.49 34.43 37.03 35.28 34.68 35.66 34.22 32.91 32.62 32.89 31.92 30.55 30.33 30.60 30.49 30.88 31.28 31.32 31.16 31.96 31.52 30.68 29.69 28.37 28.83
41.52 43.22 43.86 45.05 43.68 42.91 40.23 40.59 41.12 41.40 42.41 41.25 41.45 42.11 41.08 41.14 41.28 40.28 37.92 35.75 34.56 33.67 33.64 32.97 32.85 32.15 31.68 31.68 31.88 31.04 30.55 30.32 29.98 29.50 30.16 30.00 29.48 29.34 28.03 28.53 29.16 29.00 28.36 28.06
42.07 41.48 40.64 41.44 41.87 39.63 39.51 40.23 40.80 40.75 41.04 40.72 41.01 40.11 39.64 38.90 38.65 38.93 37.54 35.50 34.70 33.15 31.69 31.26 31.89 31.10 31.34 30.89 30.84 30.35 30.12 29.22 29.78 29.33 29.24 28.52 27.72 26.98 26.97 25.97 25.22 25.62 25.00 26.42
38.97 38.32 38.08 38.26 38.24 38.36 38.38 39.47 38.53 38.89 39.52 38.44 38.56 38.32 37.15 36.20 36.50 37.14 38.18 36.74 33.39 31.46 30.03 29.62 29.98 29.76 30.20 30.22 29.53 29.53 29.70 29.36 29.36 28.79 27.98 27.51 26.59 25.68 25.48 24.60 24.48 24.38 24.59 24.70
36.30 35.94 36.50 36.24 36.37 36.69 36.58 37.42 37.64 37.91 37.28 35.98 36.43 36.21 36.39 36.87 37.15 36.85 36.12 33.88 31.91 28.64 28.24 27.86 27.30 29.90 30.05 29.49 29.11 28.88 28.81 27.73 27.78 27.68 26.95 25.42 24.91 24.63 24.56 24.19 23.70 23.66 23.29 23.14
34.25 34.39 33.64 33.97 35.98 36.13 35.93 37.11 37.54 38.13 38.54 36.77 36.28 36.61 35.41 34.41 34.50 34.37 33.59 33.05 31.78 30.23 29.28 28.00 27.45 29.01 29.26 29.16 28.42 28.19 28.36 27.99 27.15 25.86 25.35 24.87 24.88 24.68 24.16 23.52 23.13 22.93 22.74 22.95
34.44 34.62 34.77 34.86 34.98 34.97 36.19 37.27 37.20 38.39 38.09 37.78 35.95 35.13 34.41 33.18 33.27 32.71 30.09 30.09 28.78 27.81 28.35 27.88 27.75 28.78 28.50 27.95 27.93 28.08 28.02 27.26 25.56 24.81 24.70 23.98 23.95 23.75 23.45 22.78 22.50 21.94 22.40 22.43
34.77 34.48 35.16 34.95 35.35 35.81 36.45 35.81 35.84 36.66 38.73 37.22 33.55 31.87 32.43 32.60 32.53 30.41 29.41 29.51 28.45 27.36 27.64 27.12 29.78 29.10 27.84 27.53 27.87 27.18 26.61 25.10 23.91 23.83 24.23 24.17 23.46 22.79 22.77 22.41 22.10 21.95 21.80 21.34
33.28 33.70 33.86 33.77 34.90 34.63 35.46 35.10 34.03 34.74 34.19 33.53 32.90 31.59 30.84 30.96 30.28 28.63 28.87 28.72 29.23 29.81 27.67 27.55 29.59 28.25 27.60 28.28 28.44 26.40 25.43 24.53 23.63 23.59 23.03 22.62 22.39 22.19 22.38 20.90 21.41 21.47 21.29 20.99
31.84 32.44 32.55 32.47 32.29 33.23 34.35 35.45 33.84 32.69 33.07 32.62 32.02 31.96 31.11 30.74 30.49 28.83 26.77 26.38 26.64 28.99 28.07 29.80 28.87 27.69 27.42 28.99 27.52 25.17 24.52 23.95 23.21 22.98 22.42 22.56 21.78 21.91 21.51 21.29 21.05 20.55 20.35 20.19
31.10 31.03 31.08 31.08 30.83 31.38 32.34 34.29 34.96 33.27 31.29 30.92 30.96 30.57 29.34 27.86 27.67 27.30 27.77 28.38 26.93 30.81 28.84 29.50 28.40 28.12 27.90 29.57 24.65 23.93 23.42 23.24 23.03 22.01 21.71 21.56 21.49 21.36 20.96 20.78 20.35 21.08 20.76 21.12
30.16 30.26 30.24 29.61 29.29 29.76 30.76 30.00 30.10 32.94 32.72 31.42 30.67 29.99 29.76 29.26 28.27 26.67 25.47 28.28 27.97 29.92 28.66 28.49 28.56 29.52 30.27 26.24 23.69 23.20 22.76 22.40 22.13 22.12 21.72 21.68 21.31 21.04 20.84 21.56 21.42 21.23 21.16 20.99
28.67 29.06 28.58 28.59 29.53 29.36 28.15 28.47 28.07 28.94 31.32 32.23 32.17 32.24 31.16 28.74 27.93 29.52 29.69 30.55 29.64 30.48 27.90 28.08 29.66 30.77 31.15 23.89 23.14 22.59 22.40 22.18 21.78 21.56 21.14 21.21 20.90 21.09 21.37 20.76 20.34 20.91 20.49 20.32
27.10 27.76 27.55 26.74 25.81 24.91 25.49 27.82 28.30 28.31 27.89 29.03 30.85 30.90 30.78 31.06 30.39 29.49 28.78 28.83 30.32 30.88 28.20 29.74 31.08 31.35 27.44 23.32 22.26 21.88 21.84 21.34 21.29 21.29 20.90 21.41 21.30 20.95 20.85 20.34 20.00 20.26 20.45 21.15
25.45 25.84 25.95 25.12 25.20 24.18 24.06 26.62 27.35 27.59 27.82 26.80 27.68 29.07 30.35 29.68 29.85 28.93 29.12 29.78 29.81 30.46 26.85 28.85 29.99 30.50 24.57 22.84 22.20 21.73 21.40 20.97 21.32 22.04 20.85 20.55 20.84 20.32 20.04 19.97 19.93 19.79 20.12 20.75
23.74 25.05 25.08 24.08 23.77 23.25 24.58 26.38 25.80 25.83 26.93 26.31 25.96 27.07 27.62 29.46 28.63 27.91 28.80 28.96 29.35 29.25 27.43 27.96 29.76 28.35 25.01 23.03 22.04 21.51 21.16 21.15 21.48 21.02 21.60 21.16 20.31 20.13 19.88 19.51 19.37 19.77 20.05 20.08

GFSNGP_sfc_wetblb_039.txt.gz
Wetbulb
35.41 36.18 36.12 35.32 35.04 36.02 33.21 35.02 32.89 36.18 36.10 39.70 42.10 43.20 45.53 46.06 47.33 46.33 45.23 44.01 43.33 42.92 43.30 42.48 41.72 40.94 40.67 41.31 42.53 43.65 43.36 43.04 43.62 45.10 45.05 45.06 44.96 44.60 44.36 44.23 43.57 43.61 42.00 41.11
32.45 35.37 35.11 32.82 35.46 36.33 35.72 35.79 35.70 36.59 36.21 42.95 44.32 45.59 44.58 45.43 45.97 44.70 43.47 42.76 42.44 42.23 40.95 39.56 38.98 38.76 39.26 39.92 40.63 41.92 41.61 41.26 42.22 42.79 42.26 41.60 41.81 41.76 41.47 41.11 41.36 41.45 40.72 40.15
30.19 33.91 33.20 29.69 34.19 35.51 36.49 38.01 37.51 33.40 38.96 43.27 42.43 42.91 43.66 44.62 45.18 43.42 42.27 41.81 41.32 40.61 39.14 38.52 37.97 38.30 38.17 39.04 40.20 39.73 39.43 39.49 40.08 40.15 39.19 38.92 39.03 38.17 38.14 38.58 38.88 38.65 39.34 39.66
31.22 31.98 24.80 36.12 40.29 39.81 37.58 38.72 39.83 40.17 41.57 43.04 43.26 44.67 45.11 45.82 45.38 43.18 42.09 41.58 41.16 39.63 38.38 38.11 38.18 38.08 38.28 38.40 38.13 38.05 38.22 38.74 38.97 38.62 37.87 37.54 36.96 36.24 35.95 35.69 35.29 35.02 34.35 34.69
29.55 30.05 34.22 36.68 38.05 37.24 36.81 37.76 41.44 40.09 41.45 42.82 44.59 44.53 44.89 44.73 44.66 43.92 43.16 42.49 40.66 39.54 38.74 37.57 37.20 37.95 37.74 37.15 36.86 36.46 35.99 36.02 37.18 36.98 35.99 35.54 34.90 34.80 34.88 33.78 33.18 32.75 33.33 32.89
31.22 26.65 26.06 36.83 42.14 43.33 42.97 36.26 43.53 42.92 42.58 43.51 44.17 40.16 43.66 43.67 43.12 42.88 42.96 42.46 40.31 40.04 38.46 37.57 37.70 38.16 36.98 36.25 35.92 35.29 35.77 36.06 36.43 35.23 35.20 33.86 33.93 33.23 34.47 34.08 32.94 33.55 31.47 32.18
30.72 28.82 32.88 40.76 44.18 45.25 34.74 36.97 44.39 44.69 44.72 44.43 42.71 44.13 45.19 44.11 43.26 43.72 43.41 42.27 41.45 41.12 39.21 38.51 38.78 38.30 36.23 35.86 34.18 36.36 36.83 36.89 36.63 36.33 35.77 35.17 34.30 34.00 33.71 33.25 32.47 32.23 32.19 32.38
32.46 29.16 26.44 42.78 43.30 38.74 43.37 45.56 45.89 44.78 44.30 43.65 44.37 43.84 43.78 43.42 42.63 42.76 42.20 41.59 42.13 41.19 40.22 39.51 39.52 38.55 36.64 35.46 36.54 37.18 37.05 36.75 36.63 36.91 36.89 36.56 35.12 34.49 34.59 34.05 32.03 31.12 30.95 30.98
36.04 35.27 42.30 44.19 44.52 46.39 46.09 44.86 45.26 45.55 44.05 43.26 43.19 43.19 43.33 42.89 42.81 42.77 42.77 42.46 42.59 42.05 40.54 40.41 40.15 39.61 37.05 36.14 37.16 37.35 36.16 36.05 35.51 34.74 34.58 34.61 33.56 32.87 32.22 32.60 31.53 30.16 29.36 29.15
37.49 40.86 41.98 43.50 45.87 45.85 45.65 45.41 45.54 45.30 44.88 44.01 42.82 44.10 43.45 43.42 43.16 42.90 42.91 42.23 42.48 42.02 40.22 39.05 40.15 39.41 39.05 37.95 38.52 37.06 34.13 33.06 33.06 32.55 32.54 32.65 32.43 32.49 31.86 31.34 30.13 29.02 28.01 27.56
38.65 41.85 43.15 44.12 45.96 46.18 45.24 45.83 45.42 45.83 45.37 44.54 44.42 44.02 44.04 43.49 43.61 43.64 43.01 42.41 42.03 41.35 41.34 40.04 39.70 39.65 39.45 38.28 35.92 34.02 32.98 32.44 32.04 31.99 31.78 31.03 31.35 31.28 30.10 29.53 29.57 28.56 27.84 27.71
37.35 43.90 43.62 44.55 46.59 46.88 45.67 45.24 43.82 43.07 43.82 44.96 44.07 43.81 44.43 44.10 44.80 44.29 42.95 41.26 40.00 40.35 39.56 38.82 38.92 38.48 37.75 36.20 35.38 33.42 31.55 31.36 31.74 31.78 31.85 31.98 31.77 30.50 32.15 31.50 30.89 30.23 29.85 28.91
43.77 46.14 46.23 46.48 46.62 45.73 44.23 43.83 43.13 42.48 42.85 43.16 44.38 43.63 44.10 43.63 44.73 44.90 42.97 40.05 37.69 37.70 38.09 37.18 37.12 36.47 35.80 34.63 34.73 33.41 31.85 31.37 30.72 30.47 30.98 30.87 30.09 29.75 28.30 28.44 29.39 29.00 28.52 28.13
45.99 45.23 43.15 43.61 43.13 42.41 41.77 41.79 42.19 42.31 42.51 43.09 43.42 43.37 43.04 42.55 43.35 43.27 41.39 40.25 38.25 37.63 36.60 34.61 34.03 33.31 34.48 33.89 32.89 32.16 31.87 32.48 30.79 30.49 30.56 29.79 28.53 27.61 27.35 26.21 25.48 25.88 26.14 25.87
43.02 42.19 41.07 40.82 40.45 40.58 40.84 40.66 39.94 40.61 41.77 42.17 41.84 41.46 40.95 40.31 40.47 41.20 42.52 40.97 38.15 36.29 34.47 32.63 31.68 31.04 33.12 32.84 31.30 31.09 30.64 29.86 30.49 29.72 28.71 28.67 27.47 26.56 25.95 25.02 24.66 24.71 25.06 26.08
40.01 39.43 39.33 38.83 38.71 39.34 39.37 39.52 39.09 39.78 40.89 40.69 39.96 39.55 40.38 40.39 40.58 40.87 41.39 40.07 34.99 32.87 31.89 30.47 29.23 29.51 30.45 31.46 30.94 30.90 30.54 29.96 29.66 28.02 27.01 26.14 25.34 24.98 24.77 24.37 23.96 23.95 23.96 23.84
37.50 36.79 36.89 36.68 37.60 38.41 38.00 38.79 39.08 39.12 39.59 40.12 40.33 38.92 37.45 37.75 38.46 38.63 38.62 38.15 36.16 34.75 31.45 29.75 28.29 28.91 29.34 30.77 30.83 30.11 29.42 28.59 28.92 26.75 25.97 25.44 25.15 24.78 24.54 23.60 23.41 23.58 23.36 24.24
37.81 37.69 37.60 36.86 36.12 35.95 35.88 37.61 38.80 38.52 38.42 40.53 40.52 38.57 36.48 35.85 35.81 36.58 36.46 35.74 33.80 30.80 29.19 29.16 28.63 28.52 28.53 29.77 30.16 29.54 29.13 28.48 27.04 25.66 25.51 24.50 24.47 24.31 23.50 23.17 23.15 22.74 22.98 23.71
37.42 36.37 36.00 35.39 35.47 35.20 36.12 36.30 36.00 36.34 37.68 38.48 38.94 36.53 36.16 35.44 34.64 34.14 32.79 31.08 30.09 28.38 28.02 28.70 31.09 29.24 27.80 28.77 29.48 28.94 28.41 27.02 25.21 24.81 24.64 25.18 24.36 23.35 22.89 22.82 22.85 22.86 22.64 22.42
35.76 35.67 35.39 35.55 35.78 34.60 34.19 35.98 35.38 33.70 34.80 34.44 35.25 34.04 32.76 32.98 31.64 30.42 30.29 29.84 30.51 31.18 29.15 29.14 29.88 29.37 28.58 29.28 30.35 28.16 27.31 25.92 24.63 24.23 23.74 23.87 23.36 22.75 22.63 22.64 21.99 22.40 22.19 22.20
34.25 34.44 34.14 33.95 33.43 34.33 34.43 36.33 36.01 34.18 33.68 33.57 33.00 32.56 31.71 32.52 31.53 30.47 28.84 28.36 29.16 31.32 29.44 31.21 30.55 30.15 29.05 29.07 29.63 27.19 26.17 25.34 24.35 23.60 23.17 23.40 22.84 22.36 22.17 22.17 22.09 21.89 21.51 21.41
32.97 32.74 32.76 32.52 32.56 32.58 32.61 32.39 32.83 34.53 34.11 31.98 31.69 31.43 31.06 30.28 29.24 28.84 29.63 30.08 28.29 32.62 31.28 30.86 31.02 30.48 28.43 30.91 28.16 26.20 25.41 24.75 24.25 23.53 22.53 22.28 21.85 21.88 21.62 21.42 21.03 21.98 22.11 22.03
31.82 31.66 31.93 31.22 30.39 30.86 32.09 31.38 30.94 30.56 32.09 33.36 32.16 31.35 30.23 30.94 30.23 28.17 26.95 30.04 29.72 31.59 29.37 30.26 30.75 31.39 30.88 29.20 25.66 24.98 24.44 23.83 23.52 22.83 22.51 22.01 21.97 21.63 21.08 21.56 22.77 22.71 22.28 22.15
30.22 30.38 29.87 30.10 29.96 28.93 27.64 29.67 29.96 30.01 30.01 31.14 32.85 32.48 31.73 30.65 30.54 31.32 31.90 32.06 31.54 32.18 29.35 30.31 31.19 31.15 31.61 27.04 24.83 23.99 23.81 23.50 23.12 22.71 21.97 23.39 21.26 21.16 21.72 22.18 21.65 22.01 21.67 21.56
28.44 28.81 28.81 27.54 27.09 25.89 25.81 26.48 29.45 29.99 29.49 29.55 29.82 31.44 31.73 31.56 30.27 30.73 30.60 30.02 31.84 31.86 29.71 32.17 31.99 31.56 29.90 25.55 24.46 23.39 22.86 22.63 22.44 22.55 21.58 22.18 22.34 22.03 22.23 21.91 20.98 21.25 21.33 21.45
26.99 27.06 26.72 26.40 25.79 25.60 25.77 26.54 26.60 28.03 28.49 27.87 28.93 28.95 29.49 31.09 30.45 29.98 30.04 30.45 30.32 31.71 29.03 29.76 30.57 30.50 28.74 25.79 23.75 23.04 22.73 22.01 22.39 22.10 22.50 22.55 22.03 21.91 21.84 21.40 20.74 20.75 20.85 21.08
26.15 26.11 26.39 26.05 25.55 25.09 25.89 26.98 26.41 26.05 27.16 27.27 26.93 29.16 28.50 28.96 29.93 29.44 29.24 29.70 30.01 30.57 28.91 29.57 30.75 31.29 27.68 24.47 23.41 23.00 22.39 21.96 22.87 22.68 23.45 23.01 22.28 22.00 21.31 21.12 20.99 20.47 20.29 20.40

GFSNGP_sfc_wetblb_042.txt.gz
Wetbulb
32.98 35.28 34.54 33.57 33.80 34.82 30.14 32.35 27.15 31.96 32.17 35.56 37.74 39.52 42.31 43.20 44.61 44.46 43.20 42.25 41.26 40.07 38.79 38.41 39.42 39.48 39.96 40.11 41.05 41.50 40.08 40.15 40.47 41.29 40.71 40.47 40.46 40.38 40.55 41.05 40.62 39.70 38.65 38.53
27.26 34.43 33.39 30.10 33.68 34.30 35.01 34.89 33.75 34.15 32.93 38.25 39.29 40.56 41.39 42.09 43.70 43.30 41.99 41.41 40.89 39.90 38.27 38.56 38.10 37.99 38.36 39.25 39.79 40.64 39.99 39.67 41.01 39.93 40.32 39.75 39.95 39.87 38.56 39.16 39.73 40.41 40.15 39.90
23.95 32.39 30.99 25.99 31.62 33.19 34.39 35.60 35.27 30.63 35.20 39.38 39.73 41.46 41.20 40.92 43.24 42.09 40.78 40.57 39.29 37.35 36.76 37.59 37.41 37.86 37.63 38.54 39.42 39.18 38.80 39.08 39.30 38.97 37.72 37.62 37.53 37.05 36.96 36.59 36.59 36.43 37.70 38.60
23.05 26.45 17.73 33.37 37.80 37.84 35.43 36.97 37.25 37.77 38.45 40.13 40.86 41.57 42.06 43.17 42.10 40.69 40.63 40.30 38.46 36.64 36.15 37.06 37.45 37.82 38.10 38.08 37.52 37.29 37.33 37.32 37.72 37.28 36.48 36.47 36.16 35.61 35.12 35.02 34.52 34.26 33.91 34.59
27.05 23.53 30.24 33.54 36.09 35.83 34.56 35.04 39.18 37.59 38.70 39.00 40.35 40.88 39.75 42.98 42.39 40.94 40.33 38.76 37.17 37.02 36.23 36.75 36.71 37.83 37.46 36.90 36.70 36.34 35.65 35.24 35.82 35.45 35.36 35.21 34.60 33.97 34.23 33.42 32.81 32.42 32.68 32.60
31.08 23.78 21.10 35.32 38.56 40.55 40.11 34.01 41.18 40.34 39.24 39.22 40.32 35.22 38.27 40.73 41.44 40.61 40.25 38.85 37.47 36.97 37.39 36.80 37.14 37.46 36.66 35.94 35.86 35.25 35.79 35.62 35.71 35.77 35.08 33.67 33.82 33.20 33.73 32.73 32.09 32.33 31.71 32.34
30.18 27.58 29.10 38.50 40.60 42.19 31.86 33.96 41.11 41.16 41.47 41.64 39.73 40.56 41.60 41.80 41.42 41.27 40.66 38.83 38.67 37.66 37.80 37.41 38.35 37.55 35.91 35.59 34.02 36.39 37.09 36.85 36.38 36.22 34.74 34.20 33.73 33.22 32.97 32.02 29.79 23.25 28.31 30.65
30.98 28.14 22.61 41.37 40.75 36.07 39.80 42.41 42.14 41.81 41.68 41.77 41.70 42.17 41.37 41.41 40.90 40.79 39.89 39.67 39.48 38.15 38.14 38.56 39.24 38.06 36.19 35.26 36.70 36.97 36.95 36.57 36.50 36.53 36.62 34.99 32.72 31.53 27.35 27.12 25.30 24.85 25.02 24.69
31.76 31.28 38.72 40.62 40.19 42.25 42.59 41.95 42.08 41.74 41.58 42.26 42.21 41.79 41.79 40.80 40.35 40.33 40.07 39.70 40.36 40.28 38.89 38.45 39.05 38.63 36.28 35.89 36.66 35.92 33.71 32.64 32.28 31.92 31.69 31.45 28.00 26.35 25.26 25.98 24.78 23.69 23.89 22.21
34.23 36.56 37.98 40.36 42.49 42.50 41.46 41.74 42.55 43.00 42.34 42.29 41.83 42.67 41.82 41.45 40.63 40.38 40.57 39.98 40.18 39.42 37.48 36.57 37.32 37.02 35.50 34.60 34.91 34.22 29.15 27.60 27.54 27.42 27.10 26.76 26.56 25.53 24.36 23.68 22.86 23.13 22.75 21.83
34.55 37.53 38.84 40.56 41.84 42.64 42.74 42.76 42.75 42.87 42.27 41.65 41.45 41.74 42.27 42.04 41.56 41.11 40.85 40.39 40.68 39.61 37.91 37.04 37.03 36.43 35.43 35.33 33.39 29.15 27.54 26.78 26.72 26.94 25.83 25.30 26.78 26.77 24.11 24.24 25.56 22.28 22.20 22.28
32.34 39.02 38.69 39.82 42.49 43.96 42.52 42.40 41.16 39.66 39.43 41.01 41.91 41.32 41.97 41.29 43.02 42.19 40.57 40.06 40.43 39.84 39.89 39.20 38.02 37.64 34.86 33.32 30.62 28.39 26.39 25.74 25.12 25.01 25.83 25.69 25.04 24.67 31.91 30.89 30.93 30.59 30.31 26.94
38.67 42.32 42.03 42.64 43.09 42.50 42.11 41.25 40.30 38.83 39.28 39.06 40.54 41.35 41.06 41.07 41.91 43.67 40.86 39.41 39.22 39.46 38.72 38.19 37.46 36.24 35.37 32.33 30.72 28.72 25.54 25.28 25.36 27.03 25.27 24.79 24.72 24.07 22.86 25.93 29.94 29.38 28.68 28.38
42.42 42.34 40.08 40.25 39.13 39.60 39.14 39.11 39.73 39.06 39.35 39.35 39.68 40.63 40.39 40.25 41.04 41.91 41.14 39.65 38.08 38.22 37.69 36.58 35.81 34.62 33.57 32.38 29.27 27.74 26.55 31.74 24.87 24.53 23.89 23.66 23.43 22.74 22.03 21.43 20.30 20.36 26.40 25.75
39.62 38.72 37.72 38.14 38.04 37.82 38.10 38.37 37.21 37.27 38.09 38.38 39.05 38.55 38.72 38.12 38.39 39.87 40.94 39.68 37.12 36.27 36.16 34.76 33.25 32.44 32.69 31.85 28.36 26.77 25.58 24.86 24.35 23.57 23.28 24.00 22.83 22.31 21.83 21.54 20.86 20.13 20.63 24.33
37.80 37.41 36.80 36.53 36.50 37.02 36.49 36.59 36.03 36.60 37.13 37.22 37.09 36.87 37.25 37.49 37.74 38.59 39.47 38.13 34.94 33.82 33.92 32.43 30.88 30.82 31.33 30.69 28.65 27.09 26.52 29.41 27.24 23.16 23.20 22.72 22.30 21.79 21.46 21.10 20.17 19.40 19.59 19.66
34.89 32.33 30.64 30.12 34.19 34.72 34.57 35.79 36.44 36.78 36.73 36.30 36.86 37.51 35.71 35.36 37.10 37.33 37.82 36.31 34.25 32.75 30.75 30.51 29.79 29.74 29.77 29.52 28.82 27.87 25.69 25.93 28.67 23.01 22.05 21.99 21.91 21.89 21.73 20.03 19.29 19.35 19.41 22.15
35.99 36.00 35.58 34.99 33.98 33.40 34.76 37.01 37.28 37.25 35.10 35.62 36.09 37.68 34.75 33.61 33.96 35.10 35.90 34.78 32.62 29.75 28.52 29.63 28.97 28.84 29.09 29.17 28.91 27.63 26.00 25.10 24.17 22.38 22.33 22.51 22.01 22.54 21.16 20.55 19.83 19.40 19.29 21.81
36.35 35.33 35.08 35.48 35.33 35.14 35.30 35.83 35.86 35.66 35.41 35.25 33.22 34.40 33.94 33.21 33.38 34.00 33.59 32.05 29.79 28.41 27.84 28.64 31.35 29.80 28.29 29.37 28.94 27.35 25.88 24.58 23.64 22.35 22.31 24.24 22.43 21.45 20.41 20.04 19.82 19.90 19.50 20.61
34.95 34.84 35.00 34.08 34.14 32.96 32.46 34.59 35.82 35.03 34.63 33.94 33.31 32.68 30.88 31.22 31.09 30.75 30.09 29.45 30.12 30.61 29.33 28.39 30.01 27.80 28.14 30.34 31.82 26.82 25.82 24.51 22.57 21.77 21.67 21.08 21.42 21.12 20.42 22.29 21.06 20.42 19.75 20.34
33.05 33.37 32.64 32.23 31.39 32.35 31.90 31.58 32.04 34.07 34.20 32.87 31.94 31.42 30.07 30.69 31.43 29.79 28.31 27.78 29.39 30.92 29.06 31.28 28.77 29.20 29.57 30.50 31.04 26.05 25.01 22.90 22.19 21.16 21.15 21.45 20.66 20.81 20.20 19.76 20.40 20.64 20.46 19.97
31.48 31.08 31.09 30.61 30.33 30.51 30.46 30.18 29.93 29.70 31.69 33.03 32.47 31.46 30.01 29.53 28.82 28.21 28.90 28.89 29.01 32.80 29.61 29.70 30.28 31.57 30.58 32.46 29.07 25.22 24.16 23.10 22.38 21.29 20.49 20.58 20.72 20.03 19.48 19.37 19.20 18.85 19.12 17.43
31.00 30.94 30.73 29.12 28.31 28.97 30.25 29.68 29.56 29.05 28.60 28.77 30.52 31.51 31.30 30.80 29.72 27.65 26.37 28.90 28.67 32.02 30.47 30.52 32.08 33.61 33.93 30.55 27.35 24.56 23.68 22.52 21.87 21.50 21.43 20.89 20.58 19.85 17.28 15.03 17.25 19.07 15.95 15.81
29.90 30.19 29.68 28.56 27.22 26.21 24.42 25.09 25.87 28.34 27.74 27.91 27.58 27.92 29.49 30.22 30.23 30.64 30.81 32.14 32.99 32.23 30.10 30.81 32.73 34.35 34.06 28.49 25.86 23.35 22.69 22.24 20.85 20.18 20.63 23.79 19.72 17.38 15.96 15.94 16.81 18.04 16.47 18.92
27.77 28.15 27.48 24.22 23.25 22.67 22.90 23.56 24.77 25.22 26.57 26.48 26.67 26.68 27.32 27.14 29.22 29.88 29.87 29.90 31.88 31.93 29.01 32.78 33.77 33.95 30.84 26.80 25.06 22.91 21.90 20.95 20.57 20.40 19.79 20.37 20.09 19.98 18.97 18.64 18.53 16.65 15.47 15.81
25.91 25.16 24.59 24.01 22.38 22.22 22.45 23.93 23.78 24.63 25.49 24.93 25.18 25.52 25.15 26.04 26.43 27.52 28.98 30.26 29.84 31.53 26.35 28.29 30.99 31.28 28.82 26.30 23.80 22.17 21.54 21.29 22.23 21.76 21.44 21.66 21.80 20.71 19.58 18.88 16.63 15.84 14.60 14.46
23.00 25.97 22.38 21.79 21.87 21.82 22.21 23.79 23.14 22.48 24.38 24.23 24.58 26.18 25.73 25.12 25.23 29.14 28.57 28.62 29.23 29.21 27.53 27.99 28.79 30.74 27.82 26.94 24.57 22.36 21.69 21.15 22.48 21.66 22.06 20.87 19.44 18.26 18.73 18.36 17.30 16.38 15.65 16.26

GFSNGP_sfc_wetblb_045.txt.gz
Wetbulb
31.11 34.57 33.41 32.69 32.67 34.30 31.61 32.29 28.46 32.02 29.56 33.52 36.90 37.21 38.81 42.07 42.76 42.30 41.37 40.86 40.43 38.42 36.89 36.48 36.84 38.43 39.54 39.83 40.72 41.06 39.30 39.66 40.27 39.92 38.81 38.75 38.74 38.59 38.83 39.46 40.20 40.40 39.28 39.70
23.49 32.36 32.43 29.24 32.79 33.36 34.17 33.91 32.15 32.36 31.57 38.05 38.31 39.53 40.49 41.04 42.28 41.96 41.00 40.34 39.27 37.94 37.13 36.44 36.78 37.41 38.51 39.11 39.23 40.32 39.32 39.21 40.14 39.50 38.78 38.38 38.65 38.59 38.60 38.64 38.95 38.61 38.57 39.06
20.29 30.80 29.08 24.29 30.09 32.05 33.07 35.14 35.23 30.23 35.48 37.27 38.67 39.28 39.88 40.25 42.07 41.41 40.24 39.69 38.02 36.68 35.96 36.55 36.30 37.89 37.50 38.07 38.96 38.84 38.45 38.25 38.24 37.96 37.33 37.12 37.21 36.78 36.54 36.29 36.28 35.77 36.67 37.79
21.48 25.10 16.81 30.02 35.46 35.73 34.08 35.14 36.34 36.30 36.81 38.22 39.69 40.82 40.61 41.20 41.53 40.01 39.69 38.76 37.03 35.84 35.14 35.58 37.65 37.91 38.08 37.99 37.35 36.91 36.59 36.81 37.06 37.01 36.50 36.44 36.11 35.62 35.43 35.26 34.26 34.12 34.22 35.04
22.21 24.82 27.26 31.69 34.81 34.88 32.65 32.62 37.22 36.64 37.31 38.35 40.12 39.49 37.35 41.98 41.88 40.05 39.55 37.91 36.40 35.61 34.91 36.47 37.13 37.85 37.40 36.86 36.73 36.22 35.44 35.47 35.84 36.14 35.57 35.41 34.69 34.32 34.13 32.73 31.87 32.00 32.77 33.14
29.33 23.17 21.01 33.57 35.93 38.53 38.95 31.22 39.26 39.13 38.07 37.57 38.83 32.97 36.13 40.11 40.27 38.76 38.07 37.39 35.81 35.12 35.42 36.53 36.76 37.63 36.63 36.13 35.90 35.27 35.29 35.40 36.02 36.01 35.24 33.86 33.58 32.69 33.17 32.85 32.02 32.24 31.34 25.95
28.46 26.24 28.14 35.45 38.40 40.07 30.77 32.67 40.02 39.41 38.95 38.29 37.28 38.23 40.33 40.26 39.63 39.29 38.22 37.24 36.69 35.66 35.37 36.23 36.07 37.12 35.68 35.61 34.20 36.47 36.69 36.25 35.91 35.57 34.64 34.05 33.48 33.45 32.16 25.82 22.81 26.70 29.44 30.44
27.74 26.71 21.37 39.48 39.14 34.97 38.98 40.09 39.94 40.50 40.57 40.71 40.90 40.57 39.84 40.03 39.44 39.30 37.73 37.83 37.15 36.06 37.25 37.96 37.90 37.28 35.81 35.21 36.68 36.98 37.00 36.70 36.34 34.53 34.47 33.57 31.99 30.62 25.86 24.60 23.64 23.39 23.25 22.81
29.52 28.77 35.95 39.95 39.23 40.75 41.88 41.38 39.94 39.70 40.35 41.34 41.07 41.17 41.16 40.20 39.72 39.40 38.74 38.45 38.34 37.18 37.70 38.27 38.67 37.77 35.68 35.99 36.80 36.67 33.93 32.78 32.50 32.81 32.65 31.68 29.35 27.95 24.57 23.86 22.97 22.47 23.12 21.06
32.61 34.15 36.21 38.53 40.65 40.88 41.07 40.86 42.19 41.89 41.35 41.78 41.35 41.94 41.86 41.58 40.45 39.71 39.55 39.03 39.30 38.10 37.12 37.02 38.36 38.25 36.82 36.09 35.00 33.25 31.14 28.21 25.92 25.17 25.06 24.77 24.62 24.74 22.97 22.16 21.56 22.20 21.96 20.95
32.56 35.26 37.44 38.69 40.06 41.04 41.17 41.14 41.00 41.31 41.05 40.81 41.21 41.24 41.25 41.51 41.66 41.18 40.41 40.15 40.37 39.39 38.23 37.38 37.12 36.31 35.24 34.59 33.40 31.49 26.29 25.23 25.13 25.48 23.78 24.74 26.12 23.36 23.65 23.21 23.92 21.53 21.64 21.74
31.64 36.83 36.80 37.61 40.48 41.66 40.69 40.81 40.80 39.89 39.37 39.74 40.72 40.75 40.73 40.63 42.00 41.76 41.02 40.33 39.57 40.30 39.36 38.59 38.35 37.23 35.09 35.36 32.27 27.23 25.30 24.83 24.16 23.35 23.10 24.27 24.53 24.19 31.54 30.88 31.28 30.98 30.66 26.29
37.12 40.35 39.66 39.94 40.34 41.30 40.46 39.61 39.45 38.78 37.93 37.41 38.18 39.57 39.76 39.69 40.30 42.27 40.13 39.81 39.90 39.71 40.06 39.54 38.80 37.85 37.28 36.02 31.69 27.62 25.20 24.14 24.31 26.19 24.19 23.55 23.94 23.52 22.51 25.82 30.63 30.06 29.27 28.59
41.60 41.01 39.10 39.23 38.02 37.79 38.44 38.28 39.43 37.64 37.97 38.06 37.97 38.56 38.89 38.91 39.34 40.48 39.92 39.86 39.28 38.89 38.60 39.21 38.31 37.06 36.69 33.77 30.01 27.72 25.69 30.67 24.43 24.02 23.46 23.08 23.50 22.57 21.54 21.02 20.26 20.61 26.72 27.34
37.63 38.08 38.59 37.53 36.80 36.74 37.25 37.41 36.33 36.36 36.63 36.97 37.14 36.98 37.24 37.11 37.51 38.69 40.44 39.06 37.77 37.11 36.27 35.93 35.91 35.07 34.06 32.89 30.46 29.00 27.64 26.51 24.56 23.31 22.73 23.57 22.05 21.68 21.64 21.40 20.97 20.53 20.95 24.08
38.42 36.84 35.82 35.62 36.00 36.11 35.79 34.92 33.89 34.77 35.72 35.67 35.51 35.83 35.80 35.92 36.35 37.28 38.96 37.71 35.52 34.68 33.78 34.22 33.41 34.13 32.89 32.15 29.87 28.59 27.90 29.59 27.42 23.41 23.04 21.83 21.32 21.30 20.65 20.98 20.92 20.38 20.06 20.01
34.87 32.21 31.13 30.25 33.79 33.19 32.80 34.31 34.82 35.02 35.36 34.49 34.02 35.00 35.70 34.64 34.38 34.82 36.22 38.56 37.65 36.01 34.02 32.63 31.92 30.95 30.97 30.72 29.67 28.80 28.20 28.87 30.35 23.70 22.83 22.31 21.60 21.15 21.01 20.53 19.97 19.91 19.75 22.08
34.79 35.04 34.98 35.27 33.84 33.50 35.03 36.32 36.64 36.34 34.85 33.96 33.20 33.16 34.25 33.13 32.59 32.85 33.57 34.89 34.24 32.74 31.76 31.04 29.85 29.84 29.99 29.69 29.44 28.60 27.97 27.44 27.23 24.57 23.84 22.73 21.95 21.72 21.02 20.62 20.42 19.73 19.82 21.54
36.40 35.05 34.58 35.63 35.76 35.32 35.03 35.23 35.60 35.83 35.29 34.83 33.97 32.48 31.43 31.48 31.34 31.49 31.76 32.18 32.12 31.42 31.04 29.75 32.18 30.90 29.09 29.77 29.94 28.19 27.24 26.25 25.79 24.07 23.61 24.89 23.36 21.39 20.38 20.20 20.16 20.35 20.04 20.56
34.88 34.75 34.36 32.92 32.66 31.83 31.32 32.00 32.51 33.61 32.52 32.39 32.88 32.39 31.45 31.46 30.33 29.23 29.43 30.66 31.46 31.63 30.39 28.10 30.64 29.24 28.69 30.31 32.01 27.62 26.99 26.08 25.22 24.04 23.13 22.37 21.82 21.08 20.59 22.60 21.03 20.88 19.87 20.05
33.45 33.44 32.75 31.88 31.09 31.11 30.31 29.30 28.59 28.31 31.11 32.50 32.43 31.60 30.17 30.33 29.22 28.61 28.79 28.32 30.15 31.28 30.74 30.69 28.51 28.01 28.39 30.51 31.49 29.03 27.73 25.98 24.35 23.20 22.74 23.05 21.65 21.52 20.17 19.84 20.92 20.69 20.27 19.78
31.51 31.50 30.78 29.70 29.06 28.91 29.29 28.98 28.21 27.66 27.44 28.17 29.27 31.89 31.54 30.67 29.76 28.74 29.08 27.72 28.92 32.79 29.44 28.93 28.37 29.99 29.54 32.97 31.43 28.15 27.36 26.37 24.28 22.84 21.82 21.55 21.14 20.59 20.17 19.78 19.64 19.16 18.81 18.01
30.40 30.59 29.64 28.12 26.94 26.67 27.07 25.77 26.88 27.73 26.60 25.58 26.63 27.89 29.19 30.49 31.03 28.81 28.49 30.04 28.28 30.80 29.42 29.10 30.51 32.44 33.12 32.27 29.49 27.63 26.48 25.20 23.42 22.85 22.32 21.78 21.53 21.28 20.27 19.44 18.90 18.92 18.30 18.42
29.99 29.87 29.25 29.02 27.05 24.16 23.11 23.88 24.66 26.93 26.74 27.02 25.86 25.43 27.35 27.91 28.35 28.52 30.66 31.83 32.61 33.07 31.12 30.13 32.55 34.44 35.25 29.67 27.93 26.63 25.61 24.44 22.77 21.92 21.43 24.61 20.76 20.22 19.49 19.47 19.73 19.40 19.81 20.95
28.92 28.93 28.54 25.67 25.06 23.78 22.08 22.07 22.80 23.09 25.37 25.77 25.90 25.75 24.26 24.54 27.46 28.42 29.42 29.89 31.28 31.64 30.66 32.46 33.65 34.47 32.50 28.22 27.21 26.09 25.02 23.92 21.48 20.28 20.49 21.13 21.24 20.64 19.98 19.20 19.61 20.35 19.85 18.66
26.41 25.81 25.21 24.42 22.84 22.43 22.04 23.28 22.99 23.24 24.20 23.55 24.31 25.31 25.75 25.06 24.60 27.76 27.65 28.90 29.10 30.65 28.46 27.52 30.73 31.53 28.31 26.82 25.88 25.13 24.08 22.40 23.15 23.35 21.88 21.34 21.65 21.64 21.20 20.77 20.06 19.48 18.61 17.79
25.20 26.97 23.94 23.07 22.90 22.11 21.52 23.10 22.88 21.96 23.53 22.93 22.85 24.71 24.42 24.12 23.69 25.43 28.57 26.77 25.18 25.99 28.12 28.41 29.37 30.83 26.79 26.56 25.13 24.41 23.75 22.23 23.42 22.01 22.14 21.08 20.39 20.23 19.72 19.27 18.64 18.43 17.45 17.45

GFSNGP_sfc_wetblb_048.txt.gz
Wetbulb
29.30 32.83 31.85 30.87 32.17 34.93 33.29 34.46 29.94 33.33 30.79 34.44 36.66 37.95 39.05 40.61 41.88 42.19 41.30 40.49 39.88 37.94 36.58 36.02 36.29 37.13 37.78 39.18 40.38 40.93 38.72 39.26 39.27 39.36 38.27 38.33 37.86 38.37 38.22 37.94 37.89 38.18 37.68 37.73
22.43 30.73 31.53 29.36 31.57 33.77 35.44 35.64 33.57 31.45 31.04 36.99 38.96 38.36 39.21 40.50 41.30 41.05 40.42 40.15 39.33 37.95 36.61 35.90 35.74 36.03 38.58 39.08 39.16 40.17 39.32 39.22 39.43 38.98 38.79 38.59 38.33 38.34 37.93 37.64 37.91 38.41 38.15 37.85
18.35 29.03 28.24 24.28 29.34 31.07 33.06 35.10 34.99 29.46 35.48 35.92 36.18 38.21 39.93 40.61 41.42 41.42 40.31 39.24 37.88 36.84 35.93 35.52 35.36 37.19 37.77 38.17 39.05 38.69 38.04 38.07 38.06 38.00 37.36 37.29 37.34 36.89 36.25 35.77 36.06 35.87 36.27 37.69
19.39 24.20 15.72 29.62 33.68 34.38 33.40 34.71 36.49 35.79 36.11 38.30 38.78 39.41 40.57 41.15 41.72 41.16 40.16 38.76 37.22 35.87 35.05 35.37 36.58 37.45 37.61 38.12 37.52 37.07 36.91 36.80 37.45 37.25 36.63 36.68 36.24 35.49 34.73 34.45 34.11 34.27 34.31 34.94
20.39 19.40 26.77 31.11 33.44 32.74 30.72 31.29 36.04 35.91 36.82 37.08 38.40 39.23 35.87 40.51 42.20 41.05 39.37 37.93 36.49 35.62 34.81 35.85 36.76 38.00 37.59 36.98 36.80 36.31 35.62 35.80 36.45 36.64 35.93 35.55 34.47 33.64 33.24 32.44 32.49 32.49 33.18 33.37
27.49 22.84 19.93 29.95 35.74 37.53 37.14 29.38 38.28 37.07 36.70 36.42 37.67 34.03 35.43 40.76 40.27 38.87 37.99 37.04 35.57 35.00 35.06 35.77 37.23 37.68 36.76 36.06 35.86 35.16 35.42 35.78 36.44 36.35 35.37 33.82 33.26 32.41 33.01 32.39 32.01 28.91 23.67 21.00
25.79 24.81 27.21 33.45 35.93 39.02 28.08 30.18 39.23 37.06 36.93 36.16 36.39 36.06 38.63 39.49 38.59 38.22 37.58 36.34 35.93 35.34 34.77 35.17 35.89 37.27 35.79 35.61 34.36 36.04 36.25 36.38 36.06 35.59 34.24 33.82 33.05 32.74 29.42 27.88 28.94 29.16 29.89 30.14
27.62 25.21 20.68 36.14 37.29 33.21 37.04 38.78 39.45 38.56 37.68 37.93 39.89 39.21 38.60 38.93 38.01 37.52 36.48 36.29 35.67 34.75 35.45 36.06 36.10 36.65 35.51 34.16 36.53 36.82 36.67 36.22 35.20 34.62 34.25 33.75 31.38 29.83 25.56 22.62 22.47 22.88 23.11 22.43
29.38 29.16 35.06 36.98 38.33 40.43 41.04 40.53 39.68 39.41 39.76 40.92 40.07 39.48 39.53 39.13 38.50 37.56 36.84 36.88 36.54 35.78 36.02 36.55 36.41 35.46 35.27 35.67 36.75 36.57 36.10 35.64 32.24 31.53 31.58 30.21 27.01 26.11 26.28 24.81 22.22 21.91 23.18 20.83
31.14 33.65 34.92 37.65 38.92 40.18 40.64 40.53 41.56 40.41 41.08 42.03 41.37 41.84 41.21 41.13 40.22 39.19 38.24 37.59 37.51 36.86 36.33 36.74 37.29 36.30 35.01 36.41 36.73 34.25 31.89 30.62 29.97 28.80 27.53 26.03 25.65 24.53 22.78 21.94 21.18 22.16 21.80 20.96
31.19 33.57 35.45 37.44 38.81 40.72 40.47 40.40 40.23 40.34 40.27 40.71 41.29 40.90 41.25 41.00 41.11 40.98 40.10 39.58 38.96 37.96 37.58 37.27 37.99 36.72 35.48 35.36 34.27 31.79 30.10 27.69 24.26 24.19 24.39 22.60 23.57 22.30 23.30 22.22 22.57 21.41 21.34 21.40
31.58 36.04 36.02 36.90 38.63 40.53 39.90 39.58 39.99 40.13 39.25 39.27 39.61 39.72 40.13 40.56 41.34 41.45 40.77 40.55 39.63 39.02 38.98 38.74 38.47 37.82 35.87 35.33 34.20 32.00 27.29 24.69 23.86 23.26 22.25 23.93 25.04 24.45 30.86 30.59 31.74 31.16 30.18 25.45
35.53 38.82 40.10 38.67 38.91 39.85 40.00 39.77 38.76 38.53 38.04 36.88 36.98 38.37 37.48 38.75 39.52 41.63 40.02 39.60 39.39 39.79 40.16 39.59 38.50 38.31 37.84 36.28 34.42 31.41 27.25 24.79 24.29 25.44 22.32 22.83 23.54 23.23 22.72 25.89 31.83 31.24 30.68 30.08
38.79 38.84 38.56 39.49 38.05 38.32 38.33 37.94 39.47 37.47 37.23 37.15 36.72 37.28 37.16 37.49 37.71 38.87 39.39 39.88 39.57 39.07 39.11 39.07 38.77 38.30 38.61 37.14 33.78 30.36 27.32 30.89 25.31 24.89 23.74 23.38 23.72 23.62 22.63 21.06 20.32 20.35 26.71 29.52
36.47 38.28 38.10 38.25 35.95 36.22 36.83 36.95 35.74 35.52 35.78 36.36 36.37 35.55 35.58 35.41 35.80 36.92 38.28 38.89 38.11 37.81 38.16 37.90 37.52 37.50 38.13 36.46 32.45 31.01 28.98 28.77 27.61 25.36 24.52 25.19 23.96 22.67 21.03 20.62 19.91 19.63 19.89 24.07
35.59 36.85 38.08 37.18 36.55 36.21 35.65 35.09 34.09 34.12 34.42 34.23 33.94 34.22 34.75 34.96 34.69 35.39 36.36 36.98 35.03 35.25 34.85 35.24 35.50 37.16 36.27 34.64 32.12 30.66 29.34 30.54 29.43 26.27 24.71 24.08 22.37 21.70 20.92 20.04 19.50 18.97 19.21 19.43
32.76 33.64 34.32 33.14 34.31 34.40 33.69 34.37 34.46 34.35 34.28 33.50 32.88 32.75 32.52 33.86 33.85 33.59 34.15 35.70 35.85 36.83 36.18 35.25 34.62 32.24 32.38 32.80 32.01 30.81 28.75 29.68 31.61 26.31 25.20 24.27 22.68 22.13 21.46 20.58 19.25 18.95 19.27 21.80
36.96 35.67 35.41 35.65 34.19 34.17 35.58 36.51 36.00 35.97 34.98 35.20 34.79 31.87 31.26 31.84 31.98 32.07 32.24 32.41 33.29 32.83 33.21 34.12 33.15 31.53 30.81 31.51 31.57 30.61 29.38 28.79 29.69 26.02 25.21 24.28 22.80 22.27 21.40 21.13 20.40 19.29 19.30 21.11
36.45 35.33 35.35 35.94 36.10 35.82 35.16 35.20 35.21 35.61 34.67 34.06 33.41 32.39 32.46 31.01 29.55 29.57 29.46 30.20 30.38 30.54 32.79 32.55 33.43 32.09 30.21 30.53 30.96 29.11 28.40 27.62 27.17 25.38 24.83 26.28 24.68 22.18 21.22 20.92 20.15 19.53 19.57 20.44
34.54 35.19 34.37 32.31 32.52 31.96 30.92 29.81 30.91 31.59 31.91 32.36 32.14 31.76 31.53 30.73 29.99 29.62 28.67 27.67 29.05 31.94 32.13 31.66 31.54 30.32 29.35 30.14 32.80 28.64 27.71 27.24 26.87 26.97 24.56 23.73 23.35 22.81 21.96 23.27 20.94 20.63 20.28 20.27
32.38 32.63 32.70 31.42 30.38 30.35 29.39 28.67 28.17 27.23 28.86 30.02 30.67 31.63 31.59 31.69 30.92 29.30 28.18 26.49 29.04 30.79 31.67 31.74 29.81 29.03 28.55 30.24 31.91 28.30 28.72 28.52 27.87 26.53 25.37 25.40 23.20 23.33 22.21 21.23 21.67 21.13 20.76 20.04
32.55 31.74 31.15 30.17 29.16 28.88 28.47 27.95 27.88 27.21 26.31 26.15 27.13 26.96 29.07 30.01 30.81 30.47 30.26 28.19 28.83 31.90 30.37 28.75 29.28 29.65 28.49 31.97 29.43 29.75 29.02 28.09 27.48 26.70 25.39 24.40 23.13 22.57 22.02 20.78 20.45 19.91 19.86 19.04
31.19 30.91 30.10 28.35 26.48 25.46 25.37 24.53 26.22 26.97 26.20 24.60 24.47 25.21 26.50 27.30 28.35 28.92 28.67 30.73 31.45 31.60 30.95 29.09 29.95 31.35 32.28 31.28 30.30 29.48 28.37 27.63 26.87 26.22 25.22 23.68 23.11 21.95 20.93 20.41 19.92 20.01 19.46 19.32
30.95 30.81 29.62 29.58 28.44 24.27 22.29 22.59 24.22 26.01 25.98 26.13 24.49 23.03 23.45 24.93 23.45 26.61 27.20 30.48 31.89 32.11 31.78 31.12 31.44 33.00 33.31 31.24 29.40 28.49 27.84 27.18 26.40 25.65 25.00 26.28 21.50 21.12 21.29 21.13 21.08 21.47 20.53 21.31
29.75 28.60 27.67 27.74 25.69 25.04 23.74 21.95 21.30 21.77 24.28 24.15 24.91 25.74 24.48 23.20 25.64 24.50 28.20 28.36 30.29 30.71 30.28 32.36 33.52 33.77 32.38 29.51 28.66 27.68 26.81 26.26 25.59 24.54 23.28 22.52 22.53 21.79 21.33 20.21 18.85 18.85 19.38 19.07
27.83 26.43 25.85 25.92 24.64 23.46 22.34 23.05 22.74 22.34 23.69 22.48 23.21 24.82 25.09 24.60 23.49 23.22 24.07 28.55 27.69 29.54 28.60 26.92 29.41 30.77 29.07 27.91 26.79 25.69 25.50 25.45 26.42 26.52 23.58 22.05 21.43 20.92 20.06 19.49 19.17 19.83 19.43 18.93
28.07 29.32 25.75 23.53 23.24 22.56 21.75 22.14 22.54 21.61 23.04 22.11 22.25 23.80 23.15 23.22 22.45 23.23 26.11 23.40 26.90 26.58 28.04 27.39 26.03 29.60 27.88 27.18 25.48 24.38 23.93 24.28 25.24 22.20 23.23 21.72 20.76 20.68 20.44 19.89 19.05 18.14 17.14 16.49

GFSNGP_sfc_wetblb_051.txt.gz
Wetbulb
28.98 31.34 31.03 30.53 31.72 34.99 34.05 34.50 30.39 32.95 30.96 35.01 35.62 35.78 36.44 37.92 40.52 41.17 40.46 39.83 39.34 38.62 37.63 37.01 36.57 37.48 37.54 38.00 39.09 40.61 38.79 37.84 37.66 38.36 38.36 38.16 38.66 39.19 38.56 37.11 37.09 36.83 37.06 38.51
22.99 29.29 30.92 29.33 31.07 32.93 34.48 35.07 34.82 34.75 32.54 38.01 39.27 35.98 36.59 38.84 40.83 41.73 40.96 40.95 39.76 38.44 37.24 36.08 36.10 35.96 37.58 38.15 39.28 40.24 39.58 39.27 39.36 39.10 39.08 38.53 38.54 38.15 37.96 37.52 37.84 38.20 38.29 37.74
17.65 27.36 27.40 24.02 28.80 30.06 32.15 34.92 35.46 32.43 36.72 36.49 36.83 36.78 38.90 39.63 41.17 41.14 41.29 40.84 39.33 38.25 37.14 36.05 35.17 36.39 36.86 38.08 39.30 38.83 38.26 38.29 38.30 38.13 37.66 37.57 37.48 36.91 36.15 35.89 36.38 36.16 36.77 37.85
16.95 23.59 13.91 27.66 31.87 33.44 31.96 34.18 36.10 36.10 35.70 37.52 37.63 38.67 38.93 39.88 40.36 40.49 40.66 39.52 38.15 36.88 35.94 35.86 36.42 36.93 37.18 37.55 37.78 37.55 37.15 37.20 37.69 37.50 36.93 36.94 36.32 35.24 34.56 34.61 34.37 34.60 34.64 34.22
18.75 17.59 24.65 28.91 31.33 31.46 30.09 30.89 34.62 35.45 37.50 36.94 37.31 36.96 37.10 39.53 40.98 41.82 41.26 38.43 37.14 36.50 35.79 35.76 35.92 36.36 36.10 36.98 36.93 36.60 36.05 36.21 36.86 37.03 36.28 35.75 34.34 33.45 33.33 33.14 32.94 32.65 32.61 30.35
24.90 21.72 18.27 28.04 34.99 35.96 34.87 27.62 36.43 35.79 35.34 34.97 35.73 32.36 35.04 39.43 40.13 39.40 38.62 37.70 36.27 35.14 35.09 35.35 35.69 36.31 36.39 36.25 36.22 35.52 35.75 36.16 36.73 36.87 35.70 33.97 33.27 32.73 33.03 32.84 31.25 27.15 23.47 20.13
28.43 25.76 26.86 32.39 34.30 37.34 25.70 28.61 38.04 37.83 36.15 35.34 35.19 36.43 37.71 39.49 38.13 37.77 37.09 36.19 35.80 35.41 35.16 35.47 36.18 36.58 36.17 35.92 34.61 36.17 36.54 36.66 36.43 35.75 34.31 33.67 32.82 32.74 31.73 30.21 29.77 27.07 25.64 22.86
27.88 27.03 21.38 34.60 35.69 31.61 35.06 37.97 38.89 38.75 36.47 36.41 37.61 38.00 38.06 38.19 36.85 36.56 35.76 36.03 35.49 34.73 35.16 35.89 36.53 36.26 35.44 35.01 36.11 36.42 36.34 36.00 35.19 34.65 34.72 33.67 31.77 29.05 25.31 23.55 23.29 23.59 22.97 22.50
28.51 29.03 35.27 34.97 37.43 39.32 40.01 39.59 38.98 38.83 38.94 39.24 39.21 38.40 38.38 37.63 36.88 36.47 36.07 35.95 35.91 35.47 35.24 35.53 36.03 35.98 35.20 34.57 35.27 35.58 35.38 34.67 32.12 33.70 33.40 32.03 28.13 25.53 24.74 23.20 22.05 21.87 23.11 21.05
30.21 32.81 33.85 35.93 37.60 39.37 39.96 40.16 40.25 41.00 40.56 40.40 39.95 39.37 39.23 39.05 38.48 37.69 37.29 36.24 36.15 35.82 35.24 35.21 35.82 35.53 35.55 35.47 35.97 35.86 34.73 31.93 30.51 29.50 30.15 27.59 28.51 27.00 24.46 22.67 21.14 21.90 21.78 21.11
30.27 33.47 34.14 36.31 37.51 38.49 40.51 40.88 40.32 39.61 39.86 40.11 41.81 40.98 42.03 41.54 40.83 40.45 39.50 38.94 37.78 37.00 36.78 36.80 37.27 35.99 35.17 35.21 34.53 32.26 31.10 30.31 29.39 28.84 29.42 24.09 23.62 22.64 23.28 21.50 22.42 21.53 21.24 21.33
30.40 35.28 33.13 34.73 36.91 38.75 39.23 39.70 40.14 39.72 38.52 38.30 40.16 40.96 39.57 40.24 40.74 40.54 39.90 39.97 38.93 38.76 38.73 38.46 38.03 37.29 36.41 35.46 34.30 31.88 30.28 29.18 26.16 23.81 23.44 23.25 23.65 24.07 30.09 29.88 32.70 32.34 30.07 25.21
32.15 36.48 35.85 37.34 39.40 38.55 38.35 39.42 39.48 39.45 39.19 37.91 36.52 38.01 36.70 37.91 38.57 40.79 39.58 39.19 39.34 38.95 39.68 39.76 38.72 38.15 38.07 36.68 35.39 32.96 31.20 27.44 25.14 26.51 23.07 23.18 24.48 24.30 23.02 26.22 32.89 32.25 31.90 31.73
31.88 32.02 31.62 38.08 36.76 38.54 38.85 37.85 39.64 36.98 36.89 36.97 36.68 36.63 35.97 36.07 35.82 37.31 38.20 39.14 39.19 38.90 39.10 39.15 38.85 38.58 39.08 37.47 35.69 34.19 31.89 33.02 25.81 25.42 23.44 23.20 24.15 23.60 23.01 22.44 21.86 21.71 28.00 30.69
30.28 32.94 34.73 36.67 37.94 37.16 36.72 36.21 35.40 35.12 35.07 35.46 35.55 35.39 35.37 34.68 34.66 35.29 36.30 37.10 37.53 37.36 37.87 38.01 37.31 37.70 39.76 38.10 36.01 34.95 32.04 30.50 29.19 27.46 26.07 24.93 24.03 23.71 22.73 21.39 20.06 19.57 19.62 23.75
34.20 33.49 35.19 36.44 37.62 37.47 36.75 35.16 33.59 33.93 34.32 33.42 32.98 33.18 33.21 33.39 34.46 34.97 34.68 34.95 34.88 34.56 35.00 36.26 36.45 37.71 38.68 37.78 36.12 34.76 32.90 32.50 30.84 27.59 26.79 26.62 25.22 23.32 21.56 20.26 19.64 18.89 18.85 18.81
32.23 32.65 33.64 32.67 35.51 35.69 35.13 35.33 34.65 34.01 33.70 33.07 32.47 32.16 31.31 31.72 32.61 33.19 33.76 33.67 34.51 34.94 35.08 34.09 36.12 35.08 34.71 34.50 33.98 34.05 31.22 30.72 32.51 27.28 26.53 26.57 25.78 24.39 23.16 20.83 20.36 19.77 19.67 21.53
37.04 35.64 34.45 35.28 34.75 34.98 35.65 35.64 35.49 34.96 33.64 33.72 34.40 33.50 32.07 30.61 29.55 29.86 30.41 30.66 31.20 31.86 32.60 33.24 33.32 33.54 33.22 33.08 33.20 32.31 31.09 30.80 31.42 28.01 26.97 25.64 24.96 24.48 23.26 21.98 21.17 20.53 20.27 21.26
36.08 34.18 33.73 33.95 34.90 35.86 35.38 34.48 34.42 34.65 34.06 33.52 33.23 32.18 32.02 31.27 30.38 29.15 28.11 28.15 28.96 29.26 31.27 32.08 34.13 33.21 30.78 31.49 32.23 30.93 30.85 30.33 30.60 29.60 27.81 29.29 26.91 23.84 23.13 22.37 21.71 21.16 20.56 21.13
34.52 34.68 34.33 33.36 32.03 31.25 29.37 29.15 30.37 29.90 31.05 31.56 31.65 31.21 31.50 31.16 30.46 29.42 29.31 28.18 27.58 28.72 29.38 29.61 31.65 31.39 30.57 30.88 34.21 29.76 29.25 29.44 29.85 28.78 26.71 26.46 26.68 24.29 23.23 24.32 22.43 22.16 21.48 21.35
32.15 32.23 32.39 31.39 30.26 30.36 29.95 29.15 28.46 27.59 27.64 28.38 29.19 29.73 29.83 31.17 31.00 28.84 27.96 28.43 27.75 28.56 31.36 32.47 30.10 29.77 29.45 30.04 32.63 28.34 29.46 29.57 28.85 27.88 27.88 28.80 26.23 25.85 23.80 22.97 23.12 22.48 22.01 21.31
32.28 31.23 30.54 29.92 28.72 28.24 27.13 26.63 28.20 27.50 26.45 26.06 26.41 26.79 26.28 25.90 27.99 29.17 29.98 28.00 29.43 33.52 31.53 29.32 29.01 30.51 29.26 31.94 30.07 27.95 28.99 29.28 29.18 28.75 27.73 27.63 26.71 25.99 24.86 22.82 21.71 21.27 21.04 20.68
31.59 31.48 31.12 30.26 28.31 27.28 26.01 24.98 26.48 27.32 26.71 25.32 24.81 24.54 24.62 24.92 26.27 27.27 27.25 28.50 29.67 31.68 31.81 31.16 31.97 32.45 32.54 29.41 28.97 29.71 29.47 28.77 28.22 27.71 27.46 27.21 27.14 26.37 25.02 23.13 21.66 22.29 21.75 21.30
30.36 31.26 30.38 30.32 28.88 27.92 24.19 23.81 24.31 25.68 25.99 26.24 25.09 23.45 22.63 21.97 21.80 25.95 25.30 29.31 29.84 30.82 30.49 31.61 32.61 33.35 33.77 30.83 29.19 28.34 28.67 28.56 28.15 27.74 27.44 28.75 26.17 24.86 23.14 22.30 22.68 22.71 21.43 21.56
30.21 29.93 28.37 27.41 27.17 26.15 25.74 24.09 23.58 22.73 23.96 24.16 24.47 25.33 23.55 21.94 22.05 23.15 24.11 27.68 29.04 29.24 29.29 30.86 32.55 33.36 31.69 30.81 29.90 28.39 27.11 26.83 27.08 26.73 26.12 26.23 25.71 24.10 22.73 21.69 21.12 20.23 19.22 18.11
29.00 29.36 28.92 26.83 26.64 24.94 23.40 23.00 23.41 23.23 23.43 22.34 22.59 23.81 23.64 23.29 22.39 22.66 22.65 26.72 26.84 27.52 27.23 28.44 24.68 29.43 29.57 28.96 28.40 27.76 26.47 25.10 26.90 27.61 26.08 25.58 24.43 22.38 21.43 20.54 19.49 19.30 19.03 18.78
28.82 30.75 28.23 27.01 24.64 23.49 22.98 22.46 23.04 23.21 23.37 22.20 21.68 23.07 22.48 22.92 21.97 22.67 24.80 20.94 23.38 26.25 26.66 27.63 25.10 25.93 28.18 25.05 27.32 26.23 24.41 23.79 25.56 24.09 23.96 22.79 21.08 20.71 20.42 19.60 19.48 18.63 17.89 16.78

GFSNGP_sfc_wetblb_054.txt.gz
Wetbulb
28.33 29.88 31.33 31.21 32.10 34.82 33.68 33.74 29.89 32.41 32.48 35.98 38.09 38.94 35.32 36.50 38.16 39.76 40.14 39.45 39.01 38.55 38.15 37.34 36.88 37.37 37.75 37.84 38.49 38.58 38.33 37.59 37.07 37.55 37.56 37.93 39.30 39.07 37.83 36.82 36.33 38.11 38.30 38.52
25.37 29.31 30.18 28.86 30.50 31.89 34.00 34.91 35.46 35.41 34.16 40.79 37.29 36.06 35.12 36.63 38.34 39.71 40.52 41.17 39.39 38.59 37.91 36.90 35.89 36.13 36.88 37.61 38.50 39.83 40.05 39.61 39.69 39.36 39.25 38.87 38.71 38.34 37.99 37.79 38.15 38.60 38.12 37.80
17.74 26.40 26.76 23.18 28.43 30.13 31.00 34.20 34.58 31.01 35.85 37.04 38.52 38.93 37.89 37.00 38.44 40.50 41.68 41.54 40.28 38.70 37.66 36.48 35.73 35.74 36.04 37.07 38.43 38.78 38.63 38.60 38.57 38.39 37.97 37.84 37.56 36.94 36.29 36.23 36.71 36.55 37.03 37.34
16.88 21.88 12.77 26.53 30.58 32.42 31.17 32.58 34.89 35.63 37.09 37.48 38.37 39.46 38.57 38.72 38.76 38.90 40.60 40.71 39.58 38.17 36.91 36.48 35.96 36.18 36.75 37.27 36.91 37.81 37.46 37.67 37.97 37.72 37.28 37.09 36.27 35.29 34.97 35.19 34.88 34.78 33.61 31.06
18.03 17.13 23.88 26.65 30.48 30.34 29.55 30.02 32.95 33.59 35.99 37.48 37.00 35.91 36.08 38.65 39.41 40.45 40.81 40.25 38.95 37.62 36.20 35.69 35.67 36.82 36.55 35.98 36.24 37.03 36.43 36.92 37.36 37.33 36.63 35.95 34.56 33.76 33.93 33.60 33.21 32.33 30.18 25.99
24.10 17.66 16.76 26.26 33.22 35.19 34.05 26.52 35.20 35.89 35.43 34.51 34.03 30.31 36.54 38.16 39.39 39.53 39.68 38.37 36.93 35.82 35.20 35.41 35.17 36.34 35.69 35.61 36.16 35.85 36.13 36.53 37.16 37.21 36.12 34.36 33.56 32.88 33.29 33.00 31.54 28.71 23.96 21.67
25.76 25.51 26.54 31.82 33.77 35.33 25.20 27.14 36.74 37.47 37.81 35.05 32.80 35.50 36.67 38.20 37.46 37.41 36.77 36.18 35.65 35.58 35.15 35.19 35.86 36.22 35.29 35.62 34.99 36.58 36.83 36.82 36.85 36.36 34.83 33.74 32.98 32.88 31.91 29.16 24.13 20.56 20.86 20.75
25.87 25.53 20.17 33.47 34.08 30.11 34.59 36.93 38.26 38.62 38.06 36.01 35.91 36.59 36.65 37.31 36.26 36.00 35.27 35.37 34.88 34.72 35.01 35.83 36.53 35.95 35.30 35.02 35.87 36.63 36.63 36.34 35.66 34.86 34.84 33.63 32.06 29.81 29.00 27.86 27.06 26.34 23.28 22.79
27.63 27.28 34.00 33.20 36.14 37.73 38.44 38.47 38.86 38.33 39.17 36.99 37.83 37.29 37.67 36.86 35.98 35.63 35.48 34.91 35.17 34.74 34.89 35.70 36.77 36.29 34.61 34.76 35.17 36.00 35.71 34.95 34.16 33.97 33.52 32.35 29.31 27.40 25.21 23.11 22.95 22.61 23.35 21.30
29.38 31.47 32.42 34.33 35.39 35.54 37.18 38.37 40.15 40.73 41.72 40.27 38.85 38.41 38.27 37.89 37.04 36.36 35.90 35.37 35.60 35.13 34.83 34.65 35.18 35.30 35.45 35.11 35.27 35.11 34.55 33.50 32.57 32.40 32.09 30.59 28.02 26.70 25.55 24.11 21.87 22.28 22.31 21.34
29.65 32.47 34.12 34.05 34.98 35.35 35.50 38.35 38.70 40.18 39.93 40.15 40.85 40.20 40.38 39.69 38.96 38.46 38.24 37.66 37.06 36.61 36.17 36.24 36.18 35.84 35.71 35.33 35.03 33.34 33.15 32.37 30.71 31.77 32.47 28.26 27.60 26.24 26.08 22.99 23.18 22.25 21.56 21.48
26.65 32.91 30.89 31.91 33.87 33.58 37.20 37.74 38.83 38.98 38.77 38.21 39.74 41.40 41.61 40.69 40.50 39.85 38.80 39.08 38.28 38.30 38.32 38.11 37.63 36.93 35.92 35.55 35.14 33.56 31.48 30.46 30.19 29.28 27.73 26.24 23.81 22.98 30.05 30.25 31.31 31.78 31.03 25.05
27.30 30.65 30.49 31.18 33.37 34.30 36.12 36.82 38.67 38.41 38.80 37.95 36.59 38.74 38.83 38.38 38.68 40.59 39.12 38.36 38.05 38.14 38.87 39.61 38.88 38.22 37.68 36.55 35.81 33.78 32.76 30.92 30.12 30.02 24.79 23.51 23.40 23.58 22.97 26.84 33.47 33.42 32.78 32.42
33.06 28.72 28.24 30.63 31.16 34.96 36.08 37.52 39.05 36.18 35.97 36.40 35.76 36.15 35.80 35.56 35.25 36.26 37.12 38.41 38.41 38.12 38.13 38.67 38.96 38.89 39.29 37.73 36.18 34.93 33.57 34.87 30.02 28.25 24.85 23.52 24.17 24.44 23.96 23.32 22.93 23.50 29.80 31.80
31.65 31.12 31.85 34.25 34.99 35.57 36.97 36.88 36.35 34.96 34.37 34.36 34.55 34.45 34.54 34.31 34.10 34.57 35.02 35.20 35.71 36.29 36.63 37.15 37.32 37.54 38.74 37.97 36.26 35.65 34.33 33.48 31.47 27.88 26.58 26.05 25.37 24.86 24.26 23.13 22.16 21.13 20.14 24.07
34.84 36.10 35.57 34.52 34.89 35.61 36.37 36.67 36.04 35.05 34.40 33.80 32.71 32.33 32.15 31.86 32.14 33.12 34.23 33.78 33.59 34.05 34.30 34.78 35.69 37.51 37.90 37.47 35.78 35.66 35.42 35.25 33.74 29.31 27.42 27.07 25.94 25.32 24.81 24.05 22.50 20.89 20.41 19.95
31.54 31.86 33.77 32.21 32.87 34.06 35.67 36.12 36.02 35.81 34.61 33.55 32.67 31.85 30.99 31.07 31.66 31.43 31.56 31.86 31.84 32.69 33.61 33.10 33.49 33.99 34.93 36.58 36.09 35.47 34.88 34.24 35.54 30.22 28.60 27.59 26.86 25.79 25.72 24.51 23.53 22.45 21.44 22.11
35.81 35.38 33.85 33.49 31.53 33.60 34.97 34.66 35.12 35.52 34.01 33.36 33.10 32.21 32.06 31.61 29.79 28.68 28.82 28.56 29.33 29.84 30.78 31.58 32.37 32.70 33.18 33.60 34.16 34.72 33.51 32.13 33.25 30.89 29.07 27.37 27.19 26.22 24.99 24.34 23.61 22.52 21.86 22.05
33.92 34.47 33.81 33.73 33.11 33.35 32.91 32.29 33.31 33.73 33.45 33.36 33.16 32.21 31.83 30.80 29.41 28.14 29.62 28.13 27.95 28.07 29.01 28.52 33.38 33.01 30.81 31.65 32.91 32.25 32.19 30.96 31.40 30.95 29.11 29.88 29.68 27.77 26.38 24.66 23.56 22.92 22.10 21.95
32.18 33.02 33.69 33.53 32.21 30.72 29.35 28.87 28.86 28.72 29.07 30.49 31.38 32.07 31.93 31.90 30.77 29.38 28.71 28.35 27.98 28.37 30.56 29.58 29.31 29.49 30.25 31.53 34.66 30.64 30.74 30.75 30.67 30.80 29.83 29.89 29.60 28.51 26.38 26.79 23.91 23.03 22.39 22.26
31.18 31.39 30.93 31.01 30.28 30.08 28.04 27.87 28.09 27.67 27.58 27.92 27.97 27.41 27.60 29.34 29.98 29.99 29.54 27.07 27.40 30.70 32.16 30.79 28.77 29.49 29.64 29.58 31.06 29.42 28.80 29.11 29.85 29.84 28.64 29.14 28.48 28.38 26.91 25.82 25.07 23.98 22.87 21.88
30.80 30.93 28.81 29.13 29.09 27.64 27.62 26.73 28.40 28.15 27.19 26.73 26.65 26.51 26.33 25.47 25.88 27.95 29.90 29.10 29.20 31.50 31.77 29.32 28.69 31.35 31.00 32.42 29.58 28.31 27.33 29.56 29.74 29.39 28.44 28.90 28.39 28.15 26.94 26.32 25.28 24.63 22.82 21.63
30.00 31.02 31.30 30.15 28.72 28.58 27.87 25.56 25.78 26.15 26.19 26.70 26.13 25.66 25.04 24.88 24.75 27.02 24.12 25.35 28.71 29.76 30.27 29.97 32.77 33.87 34.04 30.24 28.78 28.20 28.17 27.60 28.19 28.82 28.65 28.49 28.63 28.12 27.50 26.07 25.11 24.96 24.14 22.80
29.25 30.67 31.14 31.00 29.49 28.37 27.19 27.11 25.59 25.61 25.68 26.49 26.42 26.04 24.91 23.87 22.35 25.38 23.42 28.61 29.38 29.80 29.43 30.24 31.90 34.07 34.52 28.28 25.27 27.59 28.67 28.40 26.50 26.79 27.70 29.78 27.66 27.17 26.59 25.88 25.93 24.86 23.12 23.62
29.26 29.80 30.19 28.84 27.97 27.60 27.71 26.16 24.52 25.13 24.60 24.21 24.40 25.45 24.84 24.11 23.52 22.93 22.71 24.44 28.32 28.16 28.20 29.71 30.81 31.57 30.39 30.62 30.14 29.26 28.35 27.20 25.24 25.55 25.64 26.68 26.77 26.10 25.92 25.21 24.42 22.65 22.15 21.11
28.32 29.43 30.07 30.21 29.50 27.59 26.88 24.56 23.43 24.18 23.85 23.46 23.23 23.78 23.69 23.79 23.19 22.72 21.89 25.30 25.31 27.19 26.62 27.38 28.20 28.60 29.18 28.96 28.92 28.46 27.72 27.23 26.52 26.38 25.59 25.01 25.43 25.69 24.96 23.50 21.33 21.05 20.65 18.80
25.91 30.44 29.81 28.83 28.89 27.15 24.31 23.45 22.68 23.08 24.91 23.75 22.14 23.39 23.07 22.64 22.35 22.77 24.50 21.23 20.94 25.25 25.95 26.50 26.72 26.94 27.65 27.92 27.52 26.98 26.01 24.25 25.04 22.34 23.09 22.39 22.38 21.69 22.22 20.74 19.90 19.63 18.28 17.55

GFSNGP_sfc_wetblb_057.txt.gz
Wetbulb
29.40 30.91 32.67 32.24 32.50 34.57 33.13 33.81 30.02 32.76 32.08 36.81 38.69 38.61 39.64 38.90 39.01 39.73 40.91 40.99 41.54 41.51 40.97 40.50 39.69 39.81 39.85 39.80 39.93 40.20 39.69 39.31 39.12 39.31 39.44 40.33 39.98 39.32 38.95 38.81 39.26 39.44 39.08 39.01
24.08 29.93 30.74 29.48 30.82 32.22 34.07 34.50 34.60 34.74 33.72 40.40 41.97 40.29 40.21 39.23 37.56 39.14 40.89 42.04 42.05 41.63 40.53 39.65 39.34 39.13 39.03 39.39 39.97 40.36 39.98 39.79 40.23 40.07 40.13 40.09 39.61 39.04 38.82 38.73 38.81 38.93 38.37 38.43
21.11 27.08 27.17 24.20 29.16 30.48 31.86 33.84 35.01 31.44 36.05 39.54 38.32 39.13 40.40 41.19 40.30 38.42 40.92 42.37 41.82 41.37 41.14 40.28 39.07 38.95 38.21 38.92 39.63 39.88 40.13 40.12 39.71 39.42 38.86 38.62 38.26 37.63 37.28 37.38 37.89 37.63 37.40 37.33
18.51 23.17 15.20 27.73 30.84 32.31 31.69 33.03 34.57 35.51 37.36 38.50 38.63 40.03 40.35 40.67 40.29 39.69 40.57 41.59 42.14 41.42 40.23 39.57 38.54 38.02 38.57 38.79 38.64 38.87 38.73 38.88 38.84 38.59 38.00 37.55 36.85 36.19 36.20 36.49 35.98 35.48 34.36 34.66
20.13 18.59 24.00 27.38 31.18 30.50 29.52 31.00 33.50 33.44 35.92 36.69 37.02 36.39 37.26 40.59 40.13 40.07 40.85 43.01 43.52 42.11 40.40 38.76 38.08 38.18 38.08 37.67 37.83 37.89 37.78 38.01 38.19 38.06 37.29 36.44 35.33 34.93 35.17 34.98 34.26 32.89 31.43 31.17
24.27 18.63 17.84 26.38 33.33 35.23 34.33 27.43 35.87 35.38 36.08 36.44 35.80 31.90 37.15 39.36 39.43 39.88 40.37 40.91 40.24 39.16 37.70 37.53 37.16 37.75 37.13 36.59 36.76 36.77 37.41 37.80 38.05 37.89 36.95 35.37 34.70 33.91 34.52 34.18 32.79 31.13 28.97 27.51
24.98 22.56 26.19 31.41 33.89 35.33 25.70 28.12 36.51 38.10 38.44 37.35 33.87 35.98 37.44 38.49 39.05 38.73 38.43 37.89 37.12 37.52 37.30 37.22 37.07 37.17 36.25 36.10 35.47 37.45 37.95 37.62 37.54 37.34 35.94 34.69 34.00 33.85 33.26 31.97 29.97 28.09 28.47 26.91
26.50 24.12 20.66 33.23 34.15 30.94 33.59 36.93 37.92 38.29 38.76 38.56 37.63 36.68 38.29 37.98 37.29 36.92 36.29 36.10 36.22 36.28 36.17 36.50 37.16 36.92 36.09 35.95 37.43 37.70 37.27 36.88 36.59 35.83 35.55 34.35 33.26 31.96 31.33 29.81 28.44 28.53 28.24 27.72
27.70 27.34 33.12 33.75 33.86 34.88 35.48 34.60 36.31 36.83 38.86 40.62 38.95 38.66 38.80 38.13 37.11 36.52 36.08 35.57 36.01 36.14 35.61 36.20 37.00 37.36 36.12 36.65 36.62 36.91 36.52 35.89 35.00 34.82 34.18 33.52 31.58 30.10 28.70 27.24 26.83 26.76 27.08 26.10
30.03 31.51 31.58 33.54 34.93 33.80 32.06 31.82 35.77 38.34 38.94 40.38 39.11 39.90 39.51 39.01 37.91 36.68 36.12 35.60 35.89 35.60 35.12 35.29 36.64 36.97 37.08 36.39 36.44 36.19 35.59 34.62 34.15 33.43 32.63 31.72 30.86 29.49 27.60 26.15 25.56 25.81 25.78 25.50
28.77 31.20 31.33 32.83 32.37 32.14 32.58 33.03 36.12 37.82 37.71 38.88 39.92 40.56 40.65 39.95 39.22 38.47 37.55 37.07 36.85 36.48 36.39 36.05 36.28 36.46 36.50 36.13 35.93 34.97 35.05 33.98 33.41 33.31 33.39 30.99 29.93 28.38 28.03 27.87 27.57 26.20 25.80 25.75
24.99 29.42 29.87 29.73 32.15 33.01 31.20 31.28 35.79 34.69 35.20 38.37 39.27 39.93 41.01 40.88 40.87 39.83 38.83 38.65 37.92 38.08 38.24 38.11 37.28 36.97 36.60 36.56 36.07 34.93 33.93 33.38 32.82 32.76 32.38 31.35 29.22 28.54 32.55 32.47 32.23 32.63 31.34 27.25
28.20 31.37 32.34 32.42 32.27 32.04 30.13 33.51 35.00 35.38 35.71 37.03 38.22 38.90 39.34 39.88 40.40 40.88 39.45 38.83 38.30 38.33 38.98 39.48 38.67 37.95 37.59 36.98 36.46 35.13 34.15 33.18 32.92 32.41 31.05 30.51 28.23 27.07 26.10 27.93 33.24 33.45 33.67 33.89
34.45 33.29 30.58 32.18 33.05 35.52 35.41 35.38 36.52 36.35 36.78 36.09 36.83 36.33 36.19 36.17 36.18 37.11 37.97 38.66 38.78 38.48 38.48 38.91 39.01 38.84 39.20 37.77 36.62 35.79 35.17 35.71 33.24 33.46 31.22 29.40 27.77 26.61 26.10 25.82 25.56 27.76 32.80 33.19
33.54 34.19 33.50 36.01 36.56 35.70 36.47 35.83 34.47 35.11 35.45 35.70 34.87 35.30 35.20 34.79 34.59 34.87 35.21 35.16 35.21 36.42 37.07 37.61 37.82 38.49 39.57 38.73 37.07 36.27 35.01 34.25 33.81 32.64 31.09 30.07 27.97 26.62 26.41 26.10 25.76 25.74 24.38 27.00
33.57 33.84 34.21 33.89 34.25 33.75 34.30 34.61 34.84 36.19 36.16 35.69 34.65 34.08 34.05 32.82 32.77 33.08 33.82 34.01 33.48 33.86 34.54 35.10 35.66 37.79 38.08 38.16 36.70 36.33 35.99 35.68 35.40 31.97 30.07 29.20 27.11 26.55 26.21 25.99 25.59 25.31 24.58 24.31
29.99 29.74 31.67 32.12 31.64 30.60 32.25 34.94 35.63 36.05 35.86 35.21 34.78 34.08 32.53 31.94 32.20 31.12 30.83 30.84 30.88 31.65 32.43 33.12 33.88 34.35 35.46 36.66 36.13 35.55 35.47 35.38 36.73 32.45 30.62 29.52 28.05 26.59 26.49 26.41 26.26 25.92 25.68 25.71
33.34 33.51 33.52 33.63 31.54 31.03 32.83 33.99 33.38 33.11 32.86 32.65 32.63 32.98 31.93 31.04 30.38 30.07 28.72 28.62 29.41 30.02 29.39 29.19 30.91 32.63 33.48 34.49 35.20 35.04 34.89 34.86 35.47 34.05 31.48 30.13 29.35 28.76 27.84 26.76 25.80 24.94 24.83 24.56
33.00 32.76 32.56 32.67 33.30 31.32 31.15 30.33 30.40 31.75 32.10 32.65 32.80 32.63 32.76 31.43 30.23 29.60 28.68 29.07 28.81 28.06 28.30 29.05 32.24 32.08 31.91 32.67 34.03 33.03 33.99 32.96 32.57 33.38 31.64 31.82 30.78 28.89 27.98 27.61 27.10 26.91 25.93 24.45
31.79 31.96 32.38 31.52 32.50 30.96 29.42 28.28 28.69 29.00 28.73 28.80 30.31 30.93 30.80 31.02 31.18 30.88 29.86 26.93 28.09 29.90 32.37 31.15 30.67 30.63 30.46 31.64 34.74 32.38 32.42 31.73 31.24 31.56 30.46 30.07 30.11 30.01 29.09 29.49 28.20 27.40 26.52 25.73
28.76 29.23 30.32 30.27 29.34 30.29 29.29 27.23 26.81 27.98 28.06 27.49 27.29 27.13 27.05 27.50 27.79 28.78 29.98 29.15 29.06 30.67 31.94 31.97 31.05 30.01 30.17 31.57 31.35 31.01 30.42 30.65 30.19 31.12 30.58 31.48 30.46 30.74 29.16 28.35 28.29 26.98 26.09 25.48
26.94 27.65 27.83 29.47 29.75 29.15 29.68 28.31 26.74 27.51 27.58 27.45 27.25 26.51 26.58 25.85 25.84 27.42 29.38 27.30 28.22 30.62 30.64 30.52 30.64 32.60 32.24 33.57 30.06 30.20 29.59 29.43 29.84 30.38 29.99 29.66 29.50 29.30 28.94 28.04 27.33 27.37 26.42 25.98
27.48 27.10 30.47 29.54 29.69 29.43 29.46 28.56 26.14 26.41 26.32 26.70 27.01 26.78 25.87 25.69 24.96 26.35 24.04 26.22 28.51 29.55 29.65 29.34 31.62 33.47 33.84 30.22 27.18 25.69 26.17 28.77 29.04 29.41 29.33 29.09 29.47 29.03 28.95 28.35 27.98 27.45 26.55 26.06
26.05 29.87 30.26 31.13 28.80 28.52 27.75 28.37 27.45 26.84 26.50 26.39 26.59 26.93 26.18 25.38 25.18 26.23 25.28 26.72 29.14 29.15 28.99 29.96 30.99 32.69 32.80 30.66 29.46 28.26 24.85 26.85 29.08 28.69 28.37 30.06 28.17 28.16 28.16 27.99 28.03 27.12 27.01 27.84
23.46 24.20 27.28 28.45 28.09 28.16 28.40 27.62 26.22 25.25 25.80 26.05 25.84 25.65 26.11 25.83 24.97 25.06 24.51 25.11 27.49 27.71 27.36 29.04 30.40 30.58 29.39 29.92 30.15 29.81 29.18 28.64 28.11 26.65 26.62 26.42 26.29 26.14 26.26 26.35 26.87 26.84 26.24 25.63
22.20 23.57 25.42 27.06 29.03 29.34 28.71 27.50 25.78 25.34 24.87 24.48 24.89 24.59 24.86 24.22 24.05 24.42 23.81 25.63 24.97 26.73 26.35 27.04 27.85 27.99 27.72 28.16 28.70 28.20 27.82 27.53 27.77 27.23 26.68 25.73 25.35 25.27 24.88 24.80 25.31 26.46 25.66 23.89
20.26 26.92 24.59 27.99 26.59 27.78 27.48 27.05 25.05 24.13 25.10 25.12 24.61 24.99 24.19 23.23 22.81 23.47 24.35 22.19 22.26 23.20 24.22 25.21 26.13 26.90 26.87 27.18 27.40 26.92 25.68 24.73 25.23 23.60 23.44 23.85 24.04 23.99 23.62 24.09 24.21 22.67 21.78 21.00

GFSNGP_sfc_wetblb_060.txt.gz
Wetbulb
33.95 35.52 36.07 35.60 36.16 37.47 35.41 36.35 32.44 35.31 36.59 40.29 43.17 44.15 45.19 46.60 46.20 45.44 45.46 47.13 48.46 48.79 49.16 48.79 47.66 46.96 46.93 46.71 45.68 45.47 44.65 43.98 43.28 44.07 43.98 43.42 42.87 43.02 43.10 43.20 42.90 42.12 41.04 40.89
30.59 33.21 33.89 32.46 35.58 36.94 37.47 37.81 37.35 37.56 36.44 43.00 44.70 45.58 44.79 45.38 45.75 45.56 45.83 46.17 47.69 48.70 49.00 48.35 47.82 46.94 46.24 45.75 45.11 45.00 44.41 43.75 44.05 43.30 43.25 42.91 42.54 41.16 40.45 40.51 40.30 40.28 40.15 39.94
29.49 31.05 31.45 28.63 32.98 34.82 36.01 38.20 38.16 34.10 38.97 43.26 42.03 42.50 43.65 44.61 45.15 44.98 46.32 47.45 47.50 48.09 48.49 48.59 48.18 47.26 45.66 45.28 45.32 44.19 44.00 43.84 43.23 42.80 41.66 41.13 40.59 39.41 38.98 39.10 39.44 38.77 38.75 39.38
29.82 29.86 23.89 31.79 36.16 36.56 35.58 36.90 38.74 39.15 40.24 41.89 42.94 44.23 44.59 45.54 44.98 45.51 46.62 47.04 47.40 48.59 48.90 49.24 48.57 46.31 45.52 44.50 43.51 43.26 43.18 43.00 42.70 41.41 40.17 39.63 38.40 37.66 37.66 37.99 37.75 37.36 37.38 38.57
29.12 28.39 31.42 33.73 35.77 35.80 34.95 36.20 39.49 39.60 41.61 43.34 44.28 43.57 44.47 45.24 44.55 44.75 46.74 48.54 47.65 49.04 49.47 48.96 46.26 44.75 43.57 42.43 42.32 41.68 41.53 41.77 41.45 40.43 39.07 37.88 36.80 36.52 36.67 36.50 35.71 35.62 35.82 35.86
30.27 24.98 23.59 33.55 38.39 40.23 39.43 32.76 40.30 40.84 40.74 41.84 42.67 38.42 42.56 44.31 44.14 44.59 46.01 46.49 46.22 47.39 47.89 46.59 45.30 44.37 42.70 41.60 41.20 40.40 40.92 41.02 41.05 40.26 38.63 37.16 36.44 35.33 36.03 35.55 34.19 34.51 33.39 34.07
30.53 28.25 31.49 37.21 38.68 39.87 30.42 32.79 39.07 40.05 40.52 41.01 40.26 42.74 45.10 44.40 44.06 43.98 43.21 43.76 43.78 44.76 44.88 45.12 43.59 42.89 41.59 41.10 39.60 41.09 41.35 40.94 40.08 39.37 38.10 36.52 35.57 35.18 34.97 34.20 33.54 33.52 32.86 32.37
31.21 28.31 25.17 38.85 38.89 34.45 35.84 37.67 37.36 37.52 38.87 39.28 41.48 43.32 44.14 43.77 43.28 42.27 42.13 41.10 41.78 42.72 42.30 42.17 42.42 42.08 40.88 39.76 40.80 40.58 40.49 39.54 38.82 38.31 37.14 35.91 34.66 33.71 33.58 32.84 32.56 32.40 32.12 32.25
33.41 33.48 37.16 38.45 38.31 38.41 36.40 34.95 35.82 35.39 37.55 39.48 39.03 41.91 44.09 43.43 43.30 42.41 41.04 40.54 41.39 42.09 41.05 41.27 41.53 41.89 40.29 40.54 40.09 39.85 38.53 37.77 37.46 36.69 35.81 35.09 33.96 32.83 31.84 32.38 32.98 31.65 30.74 31.03
34.61 35.24 34.37 36.45 38.71 37.61 38.06 36.11 36.53 36.52 37.88 38.86 37.11 38.93 42.39 44.24 43.74 42.45 41.08 40.38 40.49 40.59 40.42 39.81 40.42 40.58 41.04 40.49 40.15 38.63 38.26 37.44 36.42 35.26 34.32 34.05 33.79 32.84 32.73 31.44 31.18 30.93 30.44 30.07
32.37 35.03 35.29 37.03 38.48 36.98 36.62 36.97 36.10 36.98 37.99 37.32 37.57 37.37 40.42 43.26 43.56 42.26 41.25 41.06 40.70 40.54 40.30 40.09 40.12 39.69 40.25 39.73 39.31 38.12 37.77 36.50 35.11 34.67 34.86 33.20 32.98 32.77 33.07 32.80 32.52 30.72 30.57 30.79
28.97 33.86 32.08 33.31 35.91 36.98 35.86 35.77 36.55 36.61 36.70 38.13 38.70 38.13 40.24 42.87 43.94 42.79 42.11 40.17 39.61 40.10 40.17 39.69 38.54 38.68 38.39 38.63 37.75 36.99 36.04 35.63 35.25 34.75 35.27 33.66 32.45 32.83 34.37 33.54 33.52 33.53 33.12 31.46
31.71 34.90 34.00 35.21 36.05 36.86 34.85 35.65 36.76 36.40 36.92 36.81 38.41 39.43 40.87 42.49 44.37 44.38 42.92 41.63 41.66 41.97 42.36 42.24 40.94 39.66 38.49 37.73 37.00 36.14 35.38 35.75 35.75 35.35 34.49 33.43 32.27 32.43 30.35 32.42 34.88 34.64 34.35 34.24
35.82 34.47 32.14 33.99 32.89 35.52 36.73 37.03 37.54 36.80 36.66 37.06 38.52 39.66 40.25 40.97 41.71 41.09 40.95 41.90 42.86 42.90 42.81 42.80 42.42 41.73 41.01 38.21 37.17 36.39 35.94 36.86 35.28 35.47 34.98 34.41 34.00 33.02 31.85 31.05 29.29 30.39 33.99 34.57
34.97 34.89 34.07 34.91 35.29 35.54 35.67 35.38 34.23 34.84 36.46 37.88 39.96 38.52 38.67 38.76 39.26 38.76 38.44 38.80 38.63 39.26 41.09 41.76 41.59 42.26 43.20 40.61 37.71 36.80 36.12 35.46 35.33 35.70 35.77 35.66 34.17 32.11 30.69 29.38 28.48 28.96 29.23 31.88
34.18 33.98 33.97 33.41 33.67 33.82 32.75 33.16 33.72 34.96 36.06 37.42 38.28 37.69 35.97 35.39 35.62 35.97 37.47 37.70 36.98 38.55 38.76 38.51 39.54 41.55 42.24 41.83 39.82 38.56 37.42 36.65 36.36 34.20 33.08 32.54 31.26 30.47 30.39 29.87 29.14 29.00 28.52 27.95
29.99 29.58 31.32 30.74 31.84 31.63 30.91 32.11 33.74 33.65 33.87 34.50 34.19 34.60 34.20 33.35 33.67 34.29 34.77 34.60 34.51 34.95 35.02 34.83 35.83 37.13 38.15 40.46 40.54 39.58 39.20 38.39 37.45 34.72 32.74 32.29 30.95 29.40 29.06 27.77 27.36 27.43 27.90 29.44
33.27 32.62 32.52 32.00 31.60 30.98 30.65 31.95 31.82 31.22 31.69 32.86 33.67 33.65 33.27 32.38 31.72 31.63 31.79 32.26 33.22 33.05 32.42 32.64 33.15 35.16 36.04 37.23 38.83 38.45 37.55 36.85 36.38 35.67 33.74 31.94 31.29 30.38 29.34 28.36 28.60 27.39 26.92 26.83
34.16 32.69 32.57 31.95 31.89 31.30 30.77 30.95 29.75 30.65 31.56 31.00 31.52 32.32 32.63 32.62 32.27 32.33 32.60 31.56 31.34 31.33 32.26 33.01 32.91 33.21 34.46 35.27 36.60 37.25 36.19 35.48 34.81 35.08 33.56 33.49 32.44 31.11 29.76 29.07 29.24 29.25 28.56 27.78
31.93 32.53 32.74 32.97 32.92 32.31 30.93 31.40 28.55 29.49 30.85 30.20 29.66 29.80 29.68 30.22 30.49 31.28 31.78 30.15 30.34 31.04 33.03 33.07 32.42 31.57 31.86 32.95 34.69 35.25 35.09 34.24 33.40 33.28 32.81 32.13 31.94 31.47 30.72 30.82 30.11 30.09 29.04 28.86
29.22 29.76 30.23 31.62 31.75 32.50 32.12 30.79 29.03 28.14 29.51 29.84 28.43 28.04 27.80 28.54 28.69 29.36 30.67 30.36 29.22 30.94 31.60 32.05 32.35 32.67 33.32 33.46 32.99 33.63 33.86 33.39 32.65 32.73 32.62 33.20 32.35 32.30 32.09 31.67 31.29 30.45 30.04 29.57
28.53 28.48 28.62 30.19 31.24 31.24 32.64 32.16 30.16 27.81 28.23 28.39 28.73 28.43 27.83 27.64 27.62 28.95 29.12 27.91 29.51 30.66 30.97 30.49 30.91 32.85 34.07 34.02 33.12 32.92 33.15 32.46 31.57 31.70 31.77 31.62 31.49 31.62 31.93 31.65 31.11 31.11 30.45 29.82
28.95 28.57 29.27 30.97 31.27 31.48 32.22 31.48 30.41 27.94 27.67 27.57 27.43 27.68 28.30 28.27 27.52 27.38 26.22 28.40 29.51 29.90 29.96 30.13 32.01 33.38 34.24 32.18 31.56 32.19 32.09 31.78 31.91 31.97 31.35 31.13 30.91 31.00 31.23 31.18 30.95 30.79 30.37 30.09
27.44 27.16 27.86 30.36 31.65 31.21 29.82 31.13 30.15 29.35 28.45 28.25 27.81 27.86 27.38 26.99 27.56 29.18 28.29 28.00 28.80 29.38 29.21 30.03 31.16 31.98 31.84 31.71 31.55 30.54 30.36 31.26 31.51 31.46 30.63 30.74 30.54 30.72 30.31 30.24 30.03 30.48 30.25 29.98
25.29 25.23 26.17 26.58 27.61 28.40 30.77 31.47 29.77 28.45 27.34 27.35 28.19 27.65 28.11 28.00 26.60 27.64 27.27 27.00 27.81 28.27 28.26 28.91 29.93 29.91 29.48 29.81 30.23 30.32 30.32 30.13 29.97 29.86 30.06 30.09 30.06 30.01 30.00 29.81 29.56 29.63 29.70 29.52
24.45 25.39 26.27 27.14 28.28 28.78 30.10 30.96 29.13 29.29 27.77 26.82 26.73 27.40 26.82 26.95 26.30 26.87 26.32 26.85 26.65 27.27 27.03 27.68 28.18 28.32 27.97 28.37 29.02 28.84 28.71 28.71 28.58 28.67 29.21 29.22 29.29 29.06 29.03 28.86 28.78 28.73 29.31 29.63
25.02 27.34 26.36 27.38 28.62 29.45 29.85 30.12 28.81 28.40 29.02 26.98 25.71 27.23 27.16 25.86 25.24 25.83 25.50 24.77 25.03 25.76 26.27 26.59 26.72 26.84 27.27 27.50 27.41 27.42 27.09 27.14 27.04 27.38 28.03 28.25 28.15 28.22 27.99 27.79 27.90 28.08 27.95 25.72

GFSNGP_sfc_wetblb_063.txt.gz
Wetbulb
36.06 37.60 38.11 37.49 37.78 38.87 36.26 37.47 33.74 36.50 37.11 41.20 43.71 44.79 45.77 46.83 46.87 46.93 47.36 48.16 48.58 50.07 50.84 51.09 50.54 50.27 49.90 49.30 48.53 48.00 46.77 46.14 45.77 46.13 45.79 45.59 45.24 45.25 45.05 44.68 44.58 43.96 42.69 42.11
33.26 35.38 35.55 33.86 37.11 38.27 38.60 38.83 38.61 38.69 37.94 44.68 45.98 45.92 45.05 45.32 46.03 46.07 46.50 47.39 48.63 49.22 50.80 51.11 50.75 49.83 49.44 49.14 48.19 47.86 46.89 46.21 46.24 45.30 44.70 44.04 43.69 43.09 42.42 42.23 41.78 41.52 41.08 40.93
31.36 33.46 33.09 29.94 34.65 36.37 37.41 39.22 38.69 34.82 40.08 43.24 42.25 43.41 44.98 45.84 46.39 46.01 46.89 47.93 48.08 49.49 49.93 51.27 51.37 50.92 49.33 48.64 48.41 46.86 46.52 46.26 45.43 44.76 43.88 43.24 42.94 42.00 40.68 40.11 40.11 39.61 39.63 39.87
31.30 31.72 24.66 33.14 38.32 37.80 36.53 38.07 39.55 39.45 40.99 42.96 43.75 45.43 46.30 47.62 45.52 44.93 45.65 46.35 48.60 49.26 50.22 51.26 52.01 51.52 50.46 48.93 47.37 46.18 45.49 45.21 44.74 43.91 42.61 41.85 41.01 39.57 38.93 39.08 38.77 38.29 38.51 39.36
30.36 29.89 33.65 34.80 36.71 36.92 36.11 35.36 40.91 39.82 40.97 42.44 44.15 44.96 44.92 47.75 47.43 45.52 45.72 46.66 47.82 50.31 49.58 51.19 51.08 51.05 48.71 46.72 46.06 45.06 44.25 44.19 43.81 42.99 41.53 40.43 39.22 38.25 37.86 37.40 36.76 36.37 37.20 37.79
31.80 26.69 24.96 35.08 38.95 41.48 40.81 32.54 39.57 40.02 39.76 40.41 41.86 38.01 42.03 46.41 47.00 46.11 46.48 46.45 47.35 48.29 48.89 49.65 50.78 49.51 46.52 45.01 44.41 43.13 43.55 43.50 43.37 42.47 41.05 39.34 38.14 36.29 36.71 36.25 34.46 35.07 34.10 34.97
31.00 28.78 32.75 37.75 39.84 41.27 30.39 32.30 38.52 38.91 38.29 38.22 37.48 40.18 42.47 46.28 46.98 46.84 45.97 45.57 44.94 46.55 47.27 48.20 49.20 47.35 45.38 44.68 42.98 43.81 43.55 43.14 42.37 41.50 40.25 38.96 36.85 36.06 35.66 34.44 33.63 34.04 33.52 33.46
31.24 28.30 26.01 39.12 39.93 34.56 36.66 38.51 38.06 38.28 37.85 36.96 38.51 40.46 41.45 42.41 45.81 46.48 45.31 44.63 44.33 44.78 45.11 46.12 45.88 45.18 44.33 43.44 43.97 43.34 42.83 41.77 40.83 40.34 39.30 37.55 35.82 34.56 34.24 33.29 32.57 32.77 32.92 32.41
34.66 34.25 38.97 39.29 39.37 39.75 39.08 37.75 37.93 37.38 37.93 37.49 37.57 38.78 39.70 40.28 43.02 46.53 45.43 44.23 43.70 44.01 43.48 43.61 44.05 44.50 43.49 43.59 42.87 41.93 40.94 40.12 39.67 39.04 37.99 36.58 34.91 33.73 32.94 33.09 32.96 33.71 31.77 31.02
35.67 37.38 38.15 38.39 40.38 39.85 39.74 37.95 38.45 38.57 37.70 37.78 37.38 38.47 38.49 39.83 41.10 45.34 45.94 44.09 43.60 42.71 42.36 42.17 43.17 43.52 44.07 43.33 42.25 41.16 39.73 39.24 38.41 36.90 36.01 35.26 34.48 33.82 32.86 32.25 32.96 33.15 30.66 30.04
33.58 36.84 37.34 39.29 40.30 39.52 38.23 38.65 38.62 39.21 38.77 38.32 38.57 38.23 38.64 39.11 40.19 43.76 45.73 43.93 42.67 42.65 42.63 42.60 42.61 42.31 42.74 42.11 41.23 39.58 39.03 37.96 36.56 36.41 35.86 33.73 33.50 33.16 33.01 34.77 35.32 32.56 31.32 31.07
30.99 35.66 34.56 35.45 38.06 38.16 36.40 36.44 37.67 36.52 36.23 37.47 37.40 37.40 38.95 39.31 40.70 43.37 45.52 43.21 41.68 40.89 41.43 41.63 41.56 40.70 40.28 40.62 39.22 38.50 37.70 37.33 35.90 34.76 35.44 33.56 32.66 32.49 36.55 37.06 36.12 35.96 35.22 32.60
33.40 36.52 35.82 36.25 37.06 37.36 35.77 35.82 36.49 36.27 36.60 35.84 36.78 37.24 37.78 39.21 40.60 43.32 45.30 44.46 40.94 40.42 41.07 42.79 42.25 40.54 40.51 40.06 39.26 37.65 36.16 35.16 35.12 35.10 34.76 33.48 32.89 32.56 32.56 34.52 35.73 34.44 34.79 34.90
37.84 36.18 33.62 35.23 33.58 36.00 35.93 36.17 37.18 36.50 37.14 37.47 37.85 38.68 39.15 40.07 41.17 41.81 42.95 44.76 44.91 43.73 43.49 44.32 43.72 42.94 42.86 40.25 38.15 37.26 36.63 37.16 35.32 35.21 35.12 34.45 33.81 33.32 33.99 31.18 29.81 30.91 35.06 35.27
36.58 36.88 35.07 35.44 35.23 34.84 35.68 35.38 33.53 33.66 34.61 35.28 37.27 38.25 39.31 38.84 38.85 39.62 40.53 40.47 40.22 40.19 41.14 43.16 43.24 43.36 44.84 41.84 38.66 37.53 36.46 35.96 36.00 35.55 35.20 35.22 34.23 33.86 34.17 31.76 30.55 29.94 30.52 33.08
34.36 33.95 33.32 32.45 33.00 33.30 32.99 32.58 31.22 32.14 33.42 34.08 34.55 35.52 35.86 36.29 36.85 36.20 36.70 37.64 37.06 38.35 40.76 40.22 40.25 42.10 43.44 42.92 40.02 38.62 37.53 37.01 37.01 35.18 34.89 34.66 34.27 33.33 31.95 31.36 30.93 30.26 28.98 28.77
30.91 29.77 31.01 30.33 30.89 31.12 31.84 32.45 31.94 32.17 31.99 32.19 31.55 32.19 32.54 34.05 34.19 34.37 34.66 34.79 34.67 35.27 36.84 35.78 35.97 36.16 38.10 40.15 41.25 39.49 38.35 37.52 37.91 35.49 34.40 34.04 33.33 31.90 31.26 30.37 29.59 28.71 28.55 28.77
35.01 34.66 34.25 33.13 31.51 31.02 31.77 32.62 32.48 32.43 31.00 30.99 31.72 31.99 31.76 32.78 33.00 32.95 32.94 33.16 32.34 33.86 33.14 33.26 33.76 33.65 35.93 37.17 38.73 39.54 38.67 37.57 37.02 35.78 34.16 32.99 32.79 32.27 31.21 30.53 30.20 30.10 30.23 28.75
34.23 33.22 33.40 33.07 33.25 32.51 31.76 31.71 31.37 31.73 30.22 31.17 31.22 30.79 31.79 32.48 32.21 32.44 33.01 32.53 32.29 32.40 33.18 33.78 33.44 33.04 33.57 35.06 35.87 37.64 36.57 35.74 35.00 35.22 34.33 34.49 33.32 32.14 30.87 30.42 29.68 29.71 30.06 29.24
31.53 31.83 31.80 31.52 32.35 32.66 32.40 33.32 32.83 32.46 32.29 31.08 30.71 29.94 30.03 30.84 31.09 30.40 31.10 31.08 31.17 31.22 32.62 32.92 32.88 32.52 31.84 32.63 34.01 36.26 35.47 34.57 33.86 33.62 33.15 32.83 32.49 32.11 31.22 31.39 30.59 30.66 30.78 30.61
30.11 30.19 29.84 30.05 30.04 32.23 33.79 34.13 33.13 31.80 31.67 30.38 29.11 28.63 28.95 29.55 30.02 29.08 29.49 30.66 29.75 30.64 31.60 31.93 31.65 32.38 33.66 34.03 34.03 32.67 33.38 33.47 32.83 32.65 32.55 33.21 32.57 32.71 32.12 31.87 31.57 31.24 31.09 30.95
29.96 29.48 28.78 29.09 29.46 30.46 33.48 33.45 33.37 32.51 31.27 28.89 28.97 28.85 28.77 28.83 29.23 28.83 30.28 28.74 29.95 30.67 30.95 30.74 30.76 32.51 34.02 34.22 33.45 32.93 33.24 32.90 32.76 32.40 32.12 32.12 31.94 31.76 31.71 31.73 31.33 31.52 31.48 31.15
30.10 30.00 29.61 28.69 28.81 29.87 31.86 32.09 32.26 32.62 30.98 29.19 28.58 28.22 28.25 29.65 29.82 26.96 27.41 29.41 29.45 30.21 30.08 30.48 31.70 32.61 33.26 32.42 31.18 31.96 32.26 31.80 32.32 32.66 32.09 31.67 31.33 31.21 31.11 31.68 31.57 31.27 31.26 30.95
29.33 28.55 27.73 28.49 28.27 28.56 28.20 30.38 31.31 32.61 31.24 30.66 30.05 29.61 28.33 27.48 29.17 30.09 30.03 29.33 29.16 29.58 29.24 29.81 31.19 31.51 31.70 31.35 31.60 31.04 30.54 30.94 31.31 31.23 30.86 30.75 30.82 30.73 30.75 30.47 30.03 30.17 29.60 29.71
27.99 26.89 26.42 26.88 27.47 28.56 29.57 30.53 30.78 31.80 30.72 29.53 29.06 29.67 29.40 29.40 27.99 29.07 28.52 28.25 28.54 28.60 28.48 29.03 29.68 29.97 29.50 29.62 30.29 30.13 30.07 30.17 30.18 30.44 30.15 30.66 29.90 29.51 29.35 28.98 28.91 29.02 29.35 29.11
27.64 27.60 27.72 27.72 27.86 28.33 29.43 30.03 29.17 30.98 31.31 28.92 28.96 28.34 28.59 28.59 27.90 27.31 27.64 27.73 27.58 27.70 27.48 27.69 27.97 28.31 28.34 28.49 28.91 28.66 28.57 28.61 28.67 28.98 29.15 29.48 28.50 28.51 28.40 28.37 28.27 28.41 28.52 29.30
28.14 29.17 28.68 29.38 29.44 28.51 27.84 28.10 28.45 29.42 31.15 30.34 28.19 28.87 28.40 27.69 26.65 26.74 26.88 26.09 25.83 26.23 26.64 26.93 26.83 26.89 27.25 27.40 27.27 27.38 27.06 27.09 27.31 26.95 27.44 27.39 27.69 27.94 27.43 27.80 27.77 27.77 27.90 26.82

GFSNGP_sfc_wetblb_066.txt.gz
Wetbulb
33.74 36.14 36.08 35.16 35.53 36.63 32.94 34.91 28.63 32.50 33.57 36.57 39.03 39.57 39.95 41.11 42.38 43.09 43.22 43.65 43.64 44.26 45.45 45.43 45.46 45.82 45.89 45.29 44.84 44.32 43.55 42.97 42.59 42.74 42.66 43.04 42.90 42.64 43.03 42.41 42.03 41.64 40.70 41.09
26.42 33.80 33.55 29.82 34.71 35.72 36.40 36.84 37.14 37.09 35.35 40.18 41.58 40.67 41.26 41.62 43.02 43.05 43.29 44.18 44.87 44.50 45.95 46.38 45.84 45.68 45.96 45.17 44.40 44.39 43.23 42.87 43.37 42.74 42.05 41.29 40.95 40.70 40.10 40.08 39.95 39.94 40.78 40.70
27.25 30.91 29.75 24.76 31.62 33.97 35.08 36.21 35.44 32.36 35.57 38.74 39.86 41.92 41.83 41.80 42.25 40.80 41.52 42.73 43.25 43.73 44.11 45.95 46.32 46.87 45.42 45.22 44.77 43.77 43.22 43.52 43.04 42.35 41.41 40.90 42.02 41.55 38.46 37.53 39.62 39.40 39.46 39.62
23.55 25.39 17.06 29.71 35.28 36.11 34.80 36.89 36.66 36.26 38.46 39.72 40.33 41.35 41.65 42.30 41.86 41.33 41.61 42.21 42.58 43.27 44.00 44.89 46.99 46.65 46.11 45.58 43.96 43.07 42.76 42.67 42.39 41.59 40.53 40.21 40.87 39.86 37.76 39.06 38.65 38.25 38.28 38.65
24.28 23.54 28.92 32.13 34.30 34.30 33.41 34.40 37.54 36.72 38.05 39.05 39.86 39.44 40.17 42.41 42.17 42.51 41.83 42.47 42.43 43.21 43.28 43.37 45.05 46.35 45.57 44.06 43.17 42.41 41.97 41.68 41.56 40.84 39.55 39.11 39.22 37.06 37.37 37.66 37.20 36.72 37.36 37.17
26.64 21.51 19.75 31.68 35.93 38.67 37.10 29.90 36.23 36.38 35.45 35.34 36.11 31.96 35.35 39.68 41.19 43.12 43.21 42.73 42.17 41.90 42.80 43.11 43.50 45.22 44.35 42.78 42.04 41.04 41.57 41.41 41.16 40.23 39.16 39.08 38.55 36.08 36.95 36.77 34.85 35.15 33.80 33.84
26.56 23.51 28.41 35.00 37.52 38.63 26.36 26.96 35.46 35.72 34.84 33.94 31.39 33.38 36.48 39.38 39.63 40.76 43.77 42.32 42.31 41.37 41.51 42.53 43.69 43.38 42.16 41.24 39.63 41.37 41.89 41.25 40.24 39.44 39.38 38.44 35.34 35.43 35.86 34.73 33.81 33.26 32.88 32.61
27.64 24.41 19.63 36.14 36.45 30.90 31.89 35.24 35.44 34.95 34.77 33.96 34.61 35.40 36.54 38.12 37.85 38.70 39.97 42.62 41.31 40.27 41.22 41.67 42.11 42.21 41.08 40.22 41.57 41.77 40.85 39.86 38.93 38.52 39.31 37.96 35.64 34.65 34.40 33.49 32.55 32.53 31.81 30.28
31.02 29.73 35.08 34.90 35.69 36.09 35.75 33.63 34.13 33.92 35.01 35.09 34.33 34.66 36.67 36.96 37.28 37.90 38.50 42.39 41.24 39.88 40.48 40.26 40.67 40.98 40.26 40.38 40.32 39.77 38.82 37.76 37.75 38.91 37.82 36.65 35.01 34.17 33.25 33.07 32.23 31.84 31.33 28.65
32.00 33.06 34.77 34.84 36.60 36.85 35.78 34.51 35.54 36.22 36.05 35.87 34.89 35.93 36.23 37.25 37.73 37.70 38.63 39.72 41.39 39.74 39.16 38.92 39.72 40.35 40.59 40.18 39.85 38.70 37.13 36.38 37.99 37.31 36.27 35.53 34.66 34.16 33.21 32.22 31.97 32.13 30.35 27.74
30.02 31.99 32.92 35.36 34.84 34.89 35.22 35.73 35.42 36.11 35.52 35.64 35.62 35.25 35.72 35.73 36.42 37.65 38.64 39.35 41.35 39.99 41.00 39.93 39.48 39.46 39.53 39.50 38.83 37.49 36.73 35.90 36.59 36.34 36.42 34.02 33.86 33.45 32.93 33.77 34.35 32.83 30.57 28.95
26.26 31.49 30.87 32.37 34.96 35.64 34.17 34.49 35.20 35.10 35.00 36.08 35.83 35.17 35.95 35.73 36.80 36.84 37.82 39.27 40.76 40.84 40.23 41.13 41.02 39.75 38.69 39.01 38.44 38.18 36.75 36.09 35.92 35.16 35.32 33.49 32.51 32.44 36.61 36.29 37.49 38.11 36.85 31.97
29.35 32.61 33.78 34.50 34.93 35.22 34.13 34.58 35.54 35.32 34.88 34.09 35.46 36.18 36.93 37.32 38.04 39.69 39.42 39.84 41.94 40.66 40.96 41.28 41.12 40.37 40.36 39.84 38.98 37.97 36.92 36.24 35.68 34.61 34.16 32.57 31.95 31.66 31.08 34.21 37.99 37.02 36.50 35.43
34.09 33.18 31.40 33.04 31.23 33.47 33.91 34.96 35.72 35.20 34.98 34.75 35.24 36.00 35.83 36.18 37.87 38.28 38.64 38.85 39.53 39.67 40.76 42.02 42.73 41.86 41.08 39.00 38.30 38.05 37.60 37.53 35.14 34.83 34.59 33.54 32.74 32.34 32.63 32.06 30.61 31.45 35.46 34.79
32.00 32.34 31.49 31.51 31.25 31.63 32.45 32.48 32.13 31.85 32.59 32.85 33.82 33.46 34.35 33.36 33.27 34.70 37.14 37.73 37.71 38.07 38.77 39.47 40.99 42.18 42.74 39.66 37.27 36.24 36.49 36.27 36.01 35.63 34.81 34.89 33.72 32.76 32.54 32.43 29.51 28.72 28.94 32.99
31.54 30.99 30.69 29.67 29.55 29.66 29.48 29.61 30.67 30.84 31.57 31.97 31.85 31.66 31.87 32.09 32.52 33.57 35.57 36.56 35.13 35.22 36.31 36.84 37.18 38.58 39.44 41.10 38.62 37.75 37.26 37.04 37.19 35.18 34.65 34.59 33.59 32.85 32.57 32.47 30.95 29.47 27.94 29.05
24.31 25.02 27.48 25.97 28.66 28.71 28.78 29.30 30.57 31.59 31.70 31.31 31.20 29.80 30.08 30.55 32.24 32.44 32.99 34.34 33.90 33.54 35.05 34.07 33.66 33.91 35.13 36.04 39.14 38.52 37.92 37.19 38.05 35.52 34.72 34.62 34.26 33.32 33.12 32.44 31.54 30.96 30.65 29.61
30.91 30.90 30.38 29.97 28.19 28.99 29.87 30.38 30.36 31.71 30.83 31.18 30.46 28.94 29.29 29.25 29.01 30.06 30.72 32.21 32.25 33.09 32.97 32.35 32.81 32.87 32.71 34.05 34.65 37.90 38.35 37.23 36.99 35.92 34.76 34.06 34.06 33.72 32.82 32.06 31.80 31.05 30.12 29.20
30.59 29.79 29.66 30.06 29.45 29.14 29.09 28.99 29.89 32.13 32.12 31.84 29.39 26.80 27.35 27.79 29.42 30.90 30.13 30.44 30.72 31.93 33.35 33.62 33.64 32.60 31.44 32.41 34.40 35.84 36.44 36.06 35.54 35.61 34.55 35.13 34.35 32.91 32.22 31.77 31.50 31.29 31.29 31.03
29.30 29.78 29.82 29.29 29.99 29.19 28.02 29.45 31.28 32.46 33.15 32.67 31.67 28.92 27.47 26.87 27.34 27.70 27.94 28.36 29.87 31.09 32.74 32.72 31.87 31.73 31.77 32.56 34.27 33.73 35.12 34.28 33.96 33.94 33.69 33.53 33.08 32.69 31.89 32.20 31.18 30.78 30.37 30.61
24.51 24.70 26.13 26.85 27.06 28.41 28.80 29.12 30.09 31.00 32.21 32.88 31.28 28.21 27.62 27.69 27.60 27.00 25.78 27.36 29.78 29.66 30.50 31.96 30.93 31.01 31.79 33.61 34.14 31.45 31.97 32.39 32.44 32.49 32.62 33.39 32.50 32.06 31.67 31.36 31.37 31.03 30.83 30.72
24.36 23.97 23.79 24.04 25.60 26.72 27.27 27.73 28.75 29.97 30.51 30.70 30.71 28.51 27.86 27.00 27.59 28.07 28.31 28.24 28.78 30.74 30.03 29.81 30.32 31.52 32.84 34.95 31.85 31.06 31.07 31.02 31.11 31.25 31.10 31.39 31.53 31.43 31.39 31.21 30.85 30.94 30.51 30.07
24.64 24.96 23.59 22.73 23.41 24.76 25.89 26.17 27.42 28.32 29.46 30.60 30.59 29.06 28.06 28.07 28.68 27.66 26.12 28.47 27.82 28.88 29.54 29.43 31.11 32.73 33.41 31.54 30.53 30.44 30.58 30.02 30.19 30.45 30.35 30.26 30.15 30.00 29.84 29.52 27.54 25.35 25.57 29.72
24.29 25.04 23.69 22.93 21.63 21.19 22.27 25.61 25.71 27.95 29.36 31.48 31.05 30.53 29.23 27.07 27.52 30.10 30.06 30.67 30.18 28.87 28.84 28.83 30.44 31.76 32.22 30.07 30.28 29.89 29.41 29.50 29.81 29.72 29.40 30.77 28.94 28.62 24.73 26.47 28.66 28.92 28.45 28.98
23.37 22.47 18.76 20.07 20.53 23.10 23.52 25.15 24.97 25.43 27.62 30.03 30.47 29.86 29.46 29.16 27.49 27.99 28.07 28.10 29.06 28.49 27.51 29.00 29.88 30.30 28.73 28.72 29.13 28.95 28.72 28.79 28.99 28.81 28.60 28.96 28.46 28.28 27.73 27.52 27.46 27.53 27.56 27.56
23.88 25.11 24.13 23.61 22.91 24.13 25.30 25.08 24.61 25.02 26.41 28.31 29.94 29.23 28.76 28.63 28.12 28.05 26.98 27.75 27.64 27.79 25.92 25.97 26.28 26.48 26.81 27.63 27.85 27.65 27.47 27.47 27.58 27.58 27.62 27.44 27.07 26.88 26.90 26.78 26.67 26.79 26.87 27.29
22.85 28.26 24.09 23.46 25.01 25.19 25.60 25.82 23.12 24.00 26.13 28.02 28.19 28.51 28.25 27.84 27.29 27.26 26.73 25.61 25.57 25.55 25.27 25.36 25.20 25.53 25.16 25.16 25.54 25.51 25.38 25.89 26.43 25.94 26.03 26.28 26.44 26.50 26.33 26.39 26.36 26.45 26.47 26.12

GFSNGP_sfc_wetblb_069.txt.gz
Wetbulb
32.45 34.55 34.31 33.74 34.34 35.71 31.42 33.04 27.47 31.70 31.63 34.85 35.76 36.81 37.78 39.27 41.37 41.89 41.25 41.73 41.65 41.07 41.72 42.96 43.39 44.40 44.61 44.20 43.58 43.48 43.20 42.74 42.42 42.42 42.16 41.88 41.76 41.64 41.57 41.44 41.10 40.54 39.93 40.18
26.21 33.13 32.61 29.73 33.15 33.76 35.08 35.35 35.03 34.42 33.83 37.03 37.97 39.56 40.37 40.19 40.54 39.70 40.13 40.92 41.33 41.56 41.58 42.62 43.42 44.11 44.64 44.08 43.33 43.17 42.49 42.17 42.33 41.67 41.28 40.72 40.30 39.74 39.57 39.34 38.78 38.87 38.91 40.34
22.24 29.02 27.60 23.40 29.62 32.28 33.23 34.55 34.88 31.65 34.45 37.71 38.08 39.95 39.45 39.16 40.40 40.22 40.39 40.82 40.88 40.83 40.70 40.91 42.44 45.28 44.64 44.56 43.82 42.82 42.19 42.24 42.01 41.26 40.52 39.90 39.85 38.92 37.56 36.60 36.85 36.88 38.05 39.79
20.40 24.18 15.20 28.07 32.79 34.27 34.19 35.03 35.12 35.17 36.10 37.35 37.13 37.60 39.66 39.07 37.80 39.23 41.01 40.91 40.98 40.83 41.19 41.42 41.37 44.30 45.82 44.85 43.86 42.84 41.90 41.96 41.79 40.93 39.94 39.48 38.91 38.16 39.28 35.67 35.62 35.52 37.21 38.85
22.35 20.86 26.56 30.06 32.61 32.41 32.10 31.09 34.98 34.28 34.68 35.55 35.80 36.58 36.58 38.32 39.44 38.50 39.24 41.05 41.47 41.11 40.81 40.88 41.36 42.25 44.47 43.85 43.05 42.39 41.81 41.54 41.26 40.62 39.25 38.25 37.47 37.15 37.93 34.97 35.50 36.96 37.90 37.56
24.66 19.53 19.64 29.38 34.22 37.55 36.16 28.37 34.29 34.56 32.91 32.71 33.49 30.04 33.54 35.79 37.57 38.07 38.17 38.98 40.75 41.16 40.66 40.26 41.18 42.07 43.24 43.28 42.33 41.72 41.72 41.02 40.68 40.18 39.02 37.14 36.78 37.53 36.15 35.95 35.73 36.12 34.20 34.77
24.53 20.83 26.08 33.24 35.88 36.95 24.06 24.57 33.56 33.61 32.97 32.15 29.76 30.96 33.61 35.39 36.81 37.20 37.57 37.90 39.61 40.52 39.46 40.35 40.98 41.87 41.21 40.45 40.16 40.72 41.40 40.90 39.94 39.13 37.78 36.63 36.55 36.79 35.09 34.91 34.72 33.82 33.50 33.40
25.35 22.72 19.88 33.81 34.69 29.68 30.77 32.78 34.16 34.18 33.50 32.66 33.21 33.62 34.07 36.05 36.59 37.25 36.77 37.43 38.22 39.76 39.49 40.57 40.66 40.84 40.05 39.75 40.50 40.93 40.45 39.45 38.48 37.96 38.42 37.08 36.83 35.25 34.99 34.46 33.66 33.17 32.71 31.61
27.89 27.16 33.01 34.16 32.55 33.05 33.37 32.16 32.35 32.19 33.59 33.94 33.43 33.72 34.80 35.01 35.57 36.35 36.95 37.64 38.46 38.28 39.08 39.39 39.58 39.58 39.17 39.42 39.79 39.41 38.47 37.90 37.39 37.18 37.28 37.32 35.92 34.98 33.99 33.90 33.00 32.23 31.59 30.58
31.14 31.49 32.03 32.01 33.11 33.76 33.60 32.68 33.18 33.51 33.27 33.74 33.49 35.23 35.10 35.57 35.85 36.15 36.65 36.49 37.70 37.74 38.59 38.08 38.86 39.16 39.13 39.36 39.29 38.16 36.67 35.82 36.04 35.84 36.53 36.10 35.44 35.03 34.09 33.08 32.50 32.20 31.54 30.46
28.25 29.00 30.28 31.64 32.53 32.84 33.64 34.29 34.25 34.91 34.79 35.15 35.27 34.77 35.20 35.34 36.25 36.83 37.35 37.18 37.50 37.80 38.64 41.08 40.57 39.89 39.50 38.95 38.30 36.74 35.93 35.33 34.85 36.00 37.09 34.93 34.84 34.42 33.93 34.72 35.00 32.98 32.78 31.78
25.86 29.86 29.08 29.84 32.29 33.51 32.09 32.73 33.94 34.05 34.25 34.72 34.76 34.32 34.70 34.74 36.08 37.84 38.27 39.08 38.85 38.37 40.41 41.76 41.52 40.57 40.37 39.59 38.81 37.99 36.97 36.34 36.54 36.29 36.49 34.67 33.62 33.15 37.63 36.98 37.83 38.08 37.26 33.54
28.81 31.21 31.89 32.15 33.11 32.25 31.81 32.28 33.53 33.38 33.13 32.72 34.12 33.92 34.91 34.38 35.24 37.03 35.61 38.04 37.70 37.76 38.68 40.04 41.44 41.08 40.65 40.15 39.63 38.52 37.56 36.84 36.43 35.69 34.79 33.41 32.55 32.26 31.53 34.67 37.76 38.09 38.42 37.73
32.42 30.78 29.76 30.87 28.81 30.74 30.98 32.03 32.98 31.99 31.70 33.13 33.36 33.83 33.24 32.91 33.88 32.94 33.08 34.62 35.88 36.85 37.44 38.50 39.19 40.76 42.44 41.13 39.59 38.63 38.13 38.40 35.77 35.55 34.99 33.84 32.91 32.56 32.76 32.04 32.04 33.63 37.56 36.54
29.33 29.88 29.34 29.29 28.97 29.04 29.81 29.43 29.04 28.79 29.36 30.31 32.68 32.47 32.27 31.00 30.26 30.85 32.96 33.96 34.85 35.98 36.43 37.15 37.77 38.89 40.12 41.03 39.02 38.26 37.36 36.25 36.75 36.12 34.92 34.90 33.52 32.91 32.80 32.53 31.83 30.35 29.82 33.98
29.52 29.09 29.01 28.27 28.47 28.74 28.59 28.00 27.10 27.89 28.63 29.71 31.00 31.54 31.58 30.54 29.49 30.15 31.65 32.92 32.24 32.10 33.73 34.49 34.56 36.93 36.36 36.91 38.59 38.18 37.57 37.46 37.61 35.52 34.60 34.55 33.62 32.88 32.49 32.39 32.02 30.50 29.32 29.65
21.53 24.05 25.99 24.87 26.64 27.07 27.48 28.53 28.20 28.59 29.15 29.43 30.30 31.18 31.13 30.14 29.58 29.38 29.92 31.29 31.74 30.95 32.02 32.79 33.52 34.01 34.25 34.14 34.41 36.43 37.88 37.36 38.44 36.10 34.67 34.54 34.24 33.24 33.15 32.89 32.65 32.16 31.52 30.64
28.54 28.02 27.52 27.31 24.71 25.67 26.88 27.86 28.16 28.10 27.79 29.34 31.71 31.18 30.50 28.28 27.15 27.47 29.10 30.71 29.98 30.16 31.44 32.61 32.26 33.63 33.61 34.01 34.41 35.01 35.51 37.40 36.99 36.45 34.80 34.13 34.20 34.22 33.68 33.29 33.11 32.70 32.30 30.94
28.57 27.81 27.69 27.59 27.42 26.88 25.79 25.09 25.69 26.93 28.20 29.59 30.05 30.94 31.35 29.53 27.57 27.74 26.76 27.54 27.57 27.40 30.91 31.92 32.71 32.13 31.87 32.52 33.83 33.74 33.01 34.58 35.55 35.74 35.20 35.74 34.98 34.03 33.44 33.10 32.82 32.60 32.25 31.12
28.07 28.17 27.95 27.22 27.64 26.91 25.93 26.95 27.14 27.12 28.40 29.83 30.47 30.48 29.95 28.85 28.29 27.75 27.60 25.25 26.20 27.25 32.09 31.42 31.33 30.22 30.31 31.24 34.14 33.60 32.30 32.44 33.48 34.19 33.84 33.87 33.82 33.62 32.92 33.24 32.32 31.97 31.57 31.51
24.22 23.21 23.95 24.97 25.12 26.40 26.61 26.18 25.77 25.35 26.42 28.72 28.92 28.80 29.51 30.61 29.08 28.53 26.63 25.87 27.57 28.56 29.69 30.67 28.71 29.07 29.85 32.23 33.82 32.33 31.42 31.52 31.75 32.06 32.67 33.83 32.99 32.54 32.03 31.82 31.78 31.39 31.13 30.89
22.02 20.80 21.98 22.08 22.83 24.26 25.01 24.25 24.33 24.71 25.44 26.38 26.97 28.67 29.69 28.86 27.96 27.69 28.93 28.70 28.87 30.77 28.43 28.00 27.39 29.88 32.19 34.25 31.31 30.70 30.66 31.38 31.56 31.57 31.28 31.52 31.67 31.67 31.60 31.38 30.79 30.84 30.45 30.23
23.67 23.28 23.38 21.51 22.52 23.24 23.27 23.32 23.66 24.37 24.92 25.66 26.09 28.80 29.62 29.87 29.46 27.15 25.81 28.63 28.93 29.16 28.07 27.67 30.17 31.98 32.68 29.15 28.34 29.98 30.05 30.17 30.41 30.84 30.85 30.64 30.78 30.67 30.28 30.05 29.85 29.79 29.69 29.56
22.08 22.64 22.02 23.42 19.05 17.56 18.24 22.67 22.35 24.79 24.67 26.48 27.17 29.13 30.05 29.18 27.54 28.75 29.74 31.08 30.11 29.81 28.83 28.62 29.81 31.13 31.41 28.74 29.10 29.04 28.89 28.99 29.36 29.52 29.65 31.08 29.35 28.80 28.40 28.58 28.71 28.91 28.32 29.13
21.56 19.31 17.79 19.00 20.35 22.21 21.79 22.46 22.02 23.68 23.30 24.94 27.38 29.07 29.34 29.74 27.89 26.14 26.53 27.92 28.92 28.81 27.69 28.73 29.57 29.52 27.56 27.83 28.19 28.08 27.94 28.03 28.71 28.14 28.19 28.48 28.14 27.80 27.58 27.39 27.27 27.36 27.31 27.26
22.01 23.78 24.57 24.64 24.23 24.61 24.07 22.93 22.67 23.73 23.28 23.27 25.97 27.16 29.43 28.43 27.54 27.58 26.45 27.79 27.42 27.83 25.94 25.90 26.17 26.06 25.63 26.09 26.92 26.82 26.81 26.85 26.57 26.72 26.89 26.69 26.62 26.62 26.61 26.56 26.54 26.55 26.53 26.81
20.22 27.13 23.81 23.83 24.67 23.68 23.98 24.13 22.09 23.36 23.98 23.13 24.19 26.81 27.20 27.58 26.67 27.96 27.76 25.85 25.42 25.57 25.44 25.29 24.95 25.35 24.75 23.55 24.41 24.73 24.41 24.36 26.44 25.57 24.97 24.82 24.94 25.65 25.73 25.67 25.73 25.95 26.15 25.82

GFSNGP_sfc_wetblb_072.txt.gz
Wetbulb
30.76 32.58 33.23 32.37 33.10 34.33 29.46 30.58 25.94 30.41 30.95 33.06 34.88 36.15 37.49 39.17 39.78 39.60 39.54 39.92 39.79 39.31 38.97 39.60 41.32 42.67 43.79 43.67 43.81 43.47 43.11 42.87 42.88 42.83 42.48 42.24 41.95 41.75 41.56 41.35 41.16 40.38 39.52 39.22
24.93 31.59 30.90 29.29 31.54 32.99 34.09 33.59 32.97 33.18 32.78 35.45 36.54 38.71 38.54 38.49 39.63 39.23 39.41 39.93 40.51 40.43 40.33 40.32 39.80 41.24 43.29 43.68 43.14 42.84 42.45 42.34 42.46 41.74 41.16 40.80 40.24 39.67 39.26 38.81 38.47 38.44 38.14 38.45
21.34 27.51 27.63 24.50 28.26 30.90 32.31 33.73 34.46 31.44 34.67 37.03 36.66 38.43 38.26 36.36 36.91 37.05 37.99 39.05 39.70 40.19 39.95 39.89 40.22 40.79 41.27 43.73 43.42 42.22 42.05 41.94 41.60 40.98 40.34 39.54 39.23 38.44 37.40 36.59 36.28 36.30 36.57 37.45
18.80 23.47 15.00 27.45 32.28 33.18 33.03 33.28 33.78 34.55 35.24 35.53 34.51 35.99 36.21 35.91 34.62 34.99 36.55 36.72 37.61 38.60 40.16 41.15 40.27 40.50 41.14 43.38 42.73 42.38 41.58 41.65 41.33 40.50 39.63 38.89 38.16 37.20 35.87 35.03 34.99 34.78 35.28 36.17
21.20 18.96 24.68 28.46 31.14 31.01 30.76 29.57 32.57 31.97 32.10 32.54 33.55 36.13 33.92 34.47 34.72 35.06 35.17 35.86 36.56 36.70 38.89 40.38 40.09 40.56 40.58 41.76 42.15 41.58 41.58 41.46 41.27 40.38 38.88 38.01 37.08 36.13 35.65 34.93 33.93 34.22 35.26 35.67
24.15 19.87 19.52 28.07 32.56 35.24 34.59 26.30 31.09 31.98 30.71 30.81 32.08 27.73 31.55 34.05 34.77 35.78 36.36 37.06 36.92 37.05 38.16 39.38 40.40 40.14 40.39 40.98 40.99 41.24 42.05 41.66 40.97 40.21 39.33 37.62 36.58 35.27 35.09 37.07 34.97 35.52 33.95 35.12
23.94 20.23 25.19 31.86 33.80 35.37 23.41 24.80 31.56 31.97 31.65 31.01 29.26 30.39 32.39 33.69 35.44 36.38 36.58 36.57 37.70 36.75 36.38 38.44 39.97 39.55 39.44 39.71 39.58 41.69 41.04 40.53 39.77 39.36 38.50 37.41 35.63 34.69 34.65 36.44 35.40 34.58 34.22 34.08
24.62 23.75 21.06 32.46 33.17 29.13 29.92 31.41 32.35 31.94 32.18 32.23 32.82 33.20 33.78 34.68 34.62 35.19 35.34 36.23 36.79 36.42 36.77 37.84 39.16 38.71 38.29 38.36 39.99 40.28 40.50 39.80 38.56 37.47 38.24 37.28 35.45 34.23 35.77 35.40 34.58 34.13 33.85 33.38
27.08 27.19 30.80 30.72 31.03 31.78 32.40 31.51 31.28 31.05 32.60 32.74 32.52 32.73 33.75 34.44 34.64 34.98 36.16 36.23 36.22 35.71 35.99 37.11 38.16 38.08 37.45 38.49 39.11 39.07 38.09 37.44 36.56 36.35 36.73 36.30 35.12 35.00 34.97 35.02 34.29 33.46 32.76 32.34
29.67 30.08 29.07 30.71 31.81 32.52 32.34 31.26 32.28 32.62 32.69 32.81 31.97 33.71 34.93 35.33 34.45 35.23 36.33 37.29 37.88 35.53 35.10 35.88 38.37 38.82 38.04 38.69 38.78 37.66 36.48 35.51 35.08 35.23 35.10 34.54 35.60 35.73 34.91 33.99 33.51 33.12 32.30 31.75
26.28 27.61 29.22 30.39 30.78 31.33 31.86 32.44 32.50 33.17 33.26 33.21 33.33 33.58 34.10 34.62 34.72 35.24 35.66 37.27 38.83 38.43 36.29 37.28 39.57 41.75 40.29 39.68 39.10 36.67 35.66 34.62 34.23 34.98 36.59 34.70 35.73 35.32 34.83 35.72 35.79 33.77 33.39 33.29
26.20 28.70 28.21 28.87 31.46 32.26 30.27 30.53 32.13 31.91 31.99 32.71 32.68 33.28 33.76 33.59 34.92 34.94 35.18 35.91 34.50 37.41 37.54 36.66 37.89 40.34 41.49 40.36 39.27 38.62 37.33 36.49 36.68 36.78 37.35 35.66 34.63 34.23 38.46 38.01 38.41 38.79 38.12 35.52
28.31 29.33 30.77 30.84 32.18 30.49 29.56 30.69 31.73 31.33 31.00 29.97 31.58 32.89 32.82 32.21 33.15 34.87 33.56 33.47 33.21 33.51 34.56 35.89 36.67 38.21 40.36 41.30 39.73 39.00 38.21 37.51 37.07 36.72 36.00 34.70 33.81 33.29 32.51 35.17 39.00 38.70 39.03 38.81
30.40 30.10 28.34 29.48 27.40 29.11 28.45 30.23 31.14 30.46 30.41 30.02 30.51 31.33 31.64 31.87 32.23 31.52 30.66 31.47 32.84 33.51 34.14 34.97 35.90 36.75 39.68 40.54 40.34 39.42 39.16 39.57 36.91 36.71 36.10 35.15 33.86 33.41 33.36 32.80 32.24 32.90 37.58 38.70
27.78 28.54 28.17 28.00 27.47 28.10 28.67 28.22 27.41 26.81 27.30 28.19 29.45 29.56 30.33 30.78 30.42 30.76 31.21 31.18 31.63 32.57 33.30 33.94 33.72 34.21 37.10 37.72 37.99 39.26 38.76 37.93 37.90 37.09 35.78 35.89 34.13 33.42 33.14 32.90 32.68 32.81 32.21 36.09
27.97 27.22 27.03 26.28 26.66 26.31 26.09 26.26 25.14 25.81 26.91 27.47 27.98 29.06 29.52 30.55 31.14 31.08 31.13 31.13 29.38 28.66 30.97 31.29 31.61 32.80 34.94 34.87 34.98 36.12 38.42 38.57 38.36 36.45 34.99 34.83 33.82 33.08 32.68 32.61 32.47 32.23 31.69 32.22
20.70 22.27 24.46 22.37 24.87 24.50 24.87 25.70 25.72 25.94 26.36 26.52 26.95 28.10 29.08 29.05 29.46 29.41 29.47 29.63 29.17 30.36 30.51 30.09 30.90 33.12 34.37 34.57 34.13 34.06 35.12 37.56 39.07 36.74 34.95 34.42 34.28 33.28 33.23 32.92 32.69 32.64 32.60 32.62
26.50 27.07 25.88 25.04 23.21 24.18 25.51 26.51 26.34 25.84 24.59 25.47 26.55 27.18 27.78 27.91 27.97 28.85 28.03 29.04 28.40 28.90 28.45 28.42 31.82 33.55 33.40 33.33 33.32 33.49 33.65 34.64 36.67 36.96 35.26 34.08 34.09 34.18 33.65 33.20 33.17 33.10 33.17 33.05
27.12 26.74 26.30 27.07 26.07 25.23 24.43 23.23 23.18 23.78 24.10 24.55 24.61 25.51 27.33 28.35 29.37 30.84 30.51 27.94 26.15 25.92 27.47 28.47 32.76 32.48 30.39 31.34 33.09 32.93 31.69 31.56 32.80 34.73 35.44 36.07 35.21 34.32 33.75 33.48 33.34 33.38 33.32 32.06
26.80 26.79 26.64 25.93 26.45 25.67 24.59 25.13 24.92 24.53 25.12 25.12 25.20 26.01 26.56 27.42 28.19 29.26 29.28 27.35 26.69 27.62 27.74 30.54 31.16 29.99 29.50 29.46 32.25 32.20 32.03 30.76 31.53 32.78 33.93 34.34 34.61 34.20 33.73 34.13 33.35 33.02 32.47 32.17
22.21 21.72 22.50 23.86 24.23 25.33 25.40 24.76 23.79 22.81 24.45 24.45 24.46 25.01 25.57 26.83 29.16 29.71 28.75 26.75 28.01 28.71 29.00 30.86 28.76 27.09 27.05 29.98 31.73 32.32 31.11 30.76 30.95 31.31 31.95 32.99 33.52 33.69 33.20 32.85 32.53 32.04 31.88 31.56
18.71 17.92 18.26 19.91 21.74 22.94 24.61 23.84 22.85 23.09 23.08 23.57 24.35 24.78 24.99 27.12 28.60 29.08 29.45 28.56 29.67 31.91 30.68 28.68 27.40 28.69 29.50 33.15 31.40 29.24 29.80 30.09 31.06 31.30 31.29 31.61 31.74 31.85 31.90 31.83 31.44 31.44 30.88 30.59
20.73 20.10 21.16 19.73 20.86 21.83 22.71 22.35 22.83 22.74 22.88 23.14 23.12 23.90 24.07 27.18 28.83 27.76 26.49 28.53 30.60 30.27 30.19 28.79 29.58 31.90 32.23 29.98 27.65 27.57 29.15 29.93 30.33 30.77 30.76 30.56 30.85 30.86 30.59 30.67 30.42 30.33 29.23 28.51
20.59 21.47 20.16 21.08 16.81 16.50 17.34 22.24 20.94 22.96 22.89 23.96 24.23 25.12 24.22 27.13 28.18 28.48 29.46 30.86 30.63 29.85 29.62 28.71 29.89 31.53 30.72 24.70 25.89 27.93 28.43 28.59 28.96 29.13 29.00 31.05 29.13 28.71 28.72 28.81 28.81 29.02 28.75 29.74
20.13 18.01 15.19 17.85 18.81 21.80 21.80 23.02 21.33 21.19 22.15 23.32 24.24 23.77 23.82 25.35 27.09 28.55 27.67 28.08 29.20 28.77 27.38 28.01 29.88 29.46 25.67 26.63 26.72 27.29 26.93 27.14 27.88 27.09 27.85 28.19 27.36 27.58 27.52 27.61 27.56 27.52 27.45 27.41
20.74 22.69 23.18 22.87 23.21 23.41 23.30 22.82 22.01 22.93 23.26 22.86 23.98 24.02 24.10 25.49 26.69 28.25 25.98 27.88 27.67 27.56 25.67 26.14 26.52 26.77 25.62 25.53 26.02 25.94 25.68 25.54 25.88 26.55 26.47 26.39 26.37 25.84 26.31 26.47 26.44 26.52 26.50 26.61
19.31 25.41 22.65 21.58 22.71 22.13 22.16 22.70 23.75 23.18 24.87 24.55 23.30 23.89 23.96 25.28 25.42 28.29 28.65 26.00 25.81 25.42 25.60 25.25 24.97 25.24 25.07 24.59 24.52 24.31 24.71 24.33 26.16 24.89 24.63 24.45 24.23 24.50 24.99 24.99 25.18 25.53 25.73 25.49

GFSNGP_sfc_wetblb_075.txt.gz
Wetbulb
29.75 31.65 31.81 31.08 31.40 32.77 27.68 29.05 25.55 28.67 29.05 31.99 33.52 34.86 36.51 37.29 38.51 38.97 38.96 38.98 38.99 38.53 38.51 38.70 38.99 39.79 40.83 42.30 43.32 43.31 43.07 42.81 43.06 42.60 42.35 42.27 42.04 41.60 41.38 41.07 40.71 40.23 39.18 38.71
24.01 29.39 29.13 29.37 30.41 32.65 33.01 31.96 31.31 31.69 30.64 34.87 36.08 37.54 37.33 37.67 37.87 36.49 36.54 37.19 37.38 37.62 38.10 38.76 38.83 39.38 40.11 40.55 42.30 43.05 42.36 42.55 42.76 42.00 41.40 40.90 40.25 39.70 39.33 38.90 38.48 38.19 37.76 37.98
21.01 26.48 26.92 23.33 26.80 30.05 31.54 33.29 33.45 29.68 33.57 35.95 36.10 37.34 35.12 33.16 33.50 33.33 34.52 35.32 35.26 35.61 36.01 37.28 39.05 40.14 39.58 40.54 41.51 42.32 41.93 42.01 41.87 41.26 40.45 39.72 39.29 38.44 37.50 36.76 36.30 36.22 36.15 36.71
18.02 23.13 15.66 26.50 30.17 31.97 31.76 31.98 32.54 33.53 33.56 34.43 34.59 35.38 33.07 32.77 30.85 32.56 34.22 34.80 35.05 35.16 35.88 36.61 38.80 40.08 40.76 40.96 40.89 41.68 41.26 41.38 41.29 40.46 39.59 38.71 37.90 37.19 35.91 35.01 35.15 34.69 34.79 35.38
19.30 18.04 24.27 26.82 30.25 31.12 30.01 29.16 31.13 31.25 30.79 31.07 32.29 33.26 31.47 33.01 33.41 33.44 34.51 35.18 35.85 36.10 36.25 36.68 37.72 39.47 39.92 40.29 40.46 40.44 40.84 41.18 40.98 40.10 38.79 37.78 36.85 35.99 34.83 34.20 33.66 33.70 34.41 34.32
24.23 19.44 18.98 26.33 31.30 34.12 33.61 25.44 30.76 31.29 30.19 29.89 31.20 28.77 30.78 32.25 33.49 34.73 35.66 35.95 36.14 36.64 36.44 35.68 36.61 37.56 38.03 38.94 38.94 39.29 40.42 40.97 40.67 40.09 39.25 37.76 36.62 35.09 34.56 34.46 34.23 33.09 33.99 33.34
24.15 19.81 24.85 29.60 32.91 33.98 23.23 24.80 30.65 31.00 30.54 30.02 28.59 29.95 31.58 33.34 34.60 35.49 35.56 35.54 36.13 35.74 35.37 36.21 36.84 36.63 36.99 37.51 37.32 39.37 40.35 40.38 39.59 39.38 38.83 37.94 35.64 34.00 34.12 34.02 34.11 35.26 34.76 34.36
25.11 24.88 20.35 31.21 32.22 27.80 29.03 30.16 31.51 31.11 30.91 30.77 31.52 32.34 32.95 33.48 33.49 34.01 33.94 34.83 35.24 34.33 35.53 36.53 36.72 36.23 36.36 36.68 38.63 38.90 39.01 38.83 38.42 37.71 38.29 36.82 34.98 34.52 32.87 33.46 34.88 35.15 34.88 34.60
26.85 26.36 29.31 29.74 29.80 30.80 31.45 30.94 30.21 29.60 30.73 31.24 31.19 31.18 32.35 33.16 33.42 33.37 33.86 35.16 36.43 37.03 35.79 35.88 35.70 35.79 35.97 38.35 37.79 37.98 37.42 37.06 36.40 35.87 35.83 35.20 34.43 33.46 33.00 33.60 35.17 34.31 33.48 33.45
28.63 27.81 27.70 29.13 30.42 31.17 31.46 30.36 31.13 31.44 31.61 31.93 30.66 31.90 32.38 32.84 33.31 33.87 34.85 35.37 36.43 37.00 35.71 37.23 36.72 37.39 38.85 40.33 38.24 37.11 36.36 35.44 34.59 34.27 34.01 33.62 33.37 34.35 34.85 35.00 34.38 33.78 32.97 32.81
26.10 26.09 26.91 29.65 29.57 29.94 30.88 31.32 30.98 31.81 31.61 31.82 31.62 31.05 31.42 31.62 32.53 33.15 34.05 34.22 35.67 33.88 33.60 35.62 35.99 35.91 37.75 39.89 40.31 38.21 36.24 34.64 33.77 33.83 35.36 33.80 34.18 35.19 35.56 36.66 36.86 34.47 34.10 34.06
26.01 28.36 27.98 27.77 30.56 31.45 28.92 28.60 30.20 29.60 29.91 30.54 30.16 30.32 30.89 30.42 31.56 32.84 32.58 34.00 32.02 32.53 32.68 33.76 34.58 35.30 36.51 38.26 40.02 38.84 37.35 37.28 36.83 36.43 37.17 36.03 35.35 35.00 39.05 38.63 39.28 39.38 38.55 36.19
27.90 28.43 29.55 29.62 30.75 29.53 27.64 28.38 29.84 29.67 29.42 28.67 29.39 29.67 30.05 29.88 30.21 32.59 32.76 32.13 31.36 30.34 30.98 32.75 34.23 35.14 36.64 37.61 38.66 39.07 38.61 38.58 37.47 36.65 36.56 35.45 34.50 34.14 33.62 35.20 39.52 39.13 39.37 39.54
28.09 29.16 27.28 28.15 26.15 28.12 26.55 28.43 29.46 28.14 28.49 28.52 28.53 29.07 29.43 29.36 30.33 30.13 30.40 32.08 32.15 31.21 30.26 30.63 32.15 33.79 35.60 35.45 36.09 35.92 37.52 39.91 38.07 37.20 37.20 36.43 34.97 34.47 34.27 33.45 32.88 34.26 38.48 38.88
26.81 27.03 26.65 26.62 26.19 26.12 26.36 26.89 25.52 25.28 25.59 26.15 27.29 27.41 28.06 28.22 28.62 29.12 30.45 31.27 31.36 30.78 30.19 29.81 30.34 31.18 33.29 34.32 34.10 33.72 34.74 37.08 38.72 38.18 36.93 37.19 35.22 34.25 33.94 33.44 33.24 33.45 32.51 36.15
27.54 26.12 25.42 23.96 24.76 24.92 24.45 24.35 23.28 24.29 24.90 25.12 25.22 25.92 26.94 27.85 28.25 29.01 30.03 30.49 28.88 29.07 30.65 30.35 30.22 30.46 31.01 33.18 33.91 33.90 33.93 35.44 37.77 37.31 35.77 35.17 34.52 33.66 33.17 32.99 32.87 32.92 32.55 33.09
20.52 20.86 23.04 20.98 23.67 23.20 23.89 24.20 24.29 24.75 25.00 24.87 24.83 25.35 25.48 25.90 26.79 27.16 27.92 28.94 29.24 30.22 29.70 29.59 29.95 30.58 30.42 33.03 33.50 33.06 33.24 33.92 35.76 36.47 35.44 34.69 34.53 33.54 33.53 33.11 32.84 32.82 33.17 33.97
25.54 25.85 24.67 24.12 22.07 23.27 24.41 25.65 25.73 25.07 23.63 23.85 24.37 23.90 22.58 22.63 23.53 25.65 27.15 28.72 29.63 29.36 28.44 28.62 29.42 29.79 30.67 33.44 32.21 31.92 32.24 32.49 33.07 33.76 35.44 34.59 34.22 34.40 33.72 33.27 33.14 33.00 33.29 33.56
25.31 25.60 25.26 26.30 24.79 24.10 23.32 22.18 22.52 23.24 22.93 22.68 21.93 21.51 22.47 23.45 24.54 25.93 26.96 27.26 28.49 28.03 28.60 27.80 29.66 30.12 31.66 31.50 31.31 30.30 31.03 30.64 31.30 31.71 32.36 34.82 35.29 34.72 33.95 33.58 33.29 33.35 33.52 32.90
25.83 25.51 25.32 24.06 25.03 24.09 23.26 23.98 23.45 23.17 23.88 23.02 22.80 22.25 22.38 23.53 24.82 25.13 26.51 27.72 28.69 29.19 30.07 29.14 28.06 29.58 30.20 29.63 30.95 29.55 29.74 30.14 30.73 30.96 31.55 32.21 33.54 34.28 34.14 34.41 33.61 33.33 33.14 33.03
21.87 20.64 22.17 23.20 22.84 24.10 24.02 23.07 22.48 22.38 24.00 23.30 22.80 22.73 23.48 24.46 24.62 25.01 26.16 26.90 29.09 29.38 30.07 31.14 30.68 29.25 28.18 29.24 29.56 29.75 30.45 30.49 29.43 29.45 30.26 30.29 32.04 33.56 33.66 33.51 33.29 32.76 32.61 32.47
17.78 16.71 16.09 17.24 19.77 21.40 22.90 22.73 22.36 22.54 22.51 22.83 23.19 23.33 23.36 23.05 23.85 24.44 27.41 28.23 29.25 31.91 30.89 30.24 28.87 29.62 29.63 31.51 30.81 30.56 28.56 27.64 28.31 29.28 30.16 30.68 30.93 31.83 32.52 32.50 31.97 31.98 31.67 31.68
20.08 19.04 19.95 18.97 20.15 19.95 19.18 20.36 20.91 21.50 21.69 21.65 21.86 23.03 22.97 23.58 23.62 23.45 24.50 27.72 29.60 30.44 30.56 29.68 30.39 31.57 32.05 31.26 28.26 26.90 25.92 27.08 27.90 29.10 29.12 29.25 28.43 31.36 31.60 31.75 31.63 31.39 30.51 29.37
19.46 20.93 19.99 19.13 13.71 15.15 16.73 20.66 19.90 22.39 21.85 22.19 22.40 23.23 23.86 21.84 22.10 24.48 25.93 29.92 30.61 29.89 29.70 28.81 29.33 31.16 31.07 26.75 25.88 25.77 25.25 26.62 27.09 27.46 27.92 30.60 27.72 29.05 28.96 29.12 28.94 29.12 29.03 29.34
18.99 17.52 13.58 16.84 18.20 20.68 20.60 21.37 19.74 20.41 21.02 22.15 23.11 23.59 22.61 23.06 22.01 24.36 24.30 28.48 29.82 29.13 27.40 28.30 29.02 29.53 26.67 25.64 26.19 26.38 25.78 26.14 26.82 25.05 25.69 25.96 26.97 27.68 27.77 27.78 27.83 27.88 27.87 27.83
19.15 20.51 21.29 21.24 21.42 21.98 22.19 21.35 20.66 21.99 22.33 22.74 24.10 25.02 24.78 23.35 22.51 25.15 24.30 27.03 26.87 27.93 26.37 25.75 25.75 26.63 25.75 25.72 25.82 24.98 25.28 25.45 24.69 25.19 24.95 25.59 25.58 25.86 25.78 25.87 25.76 26.86 26.60 26.89
16.83 24.04 20.39 20.14 21.53 21.34 21.62 23.04 24.14 22.75 23.79 23.22 23.06 24.48 24.43 23.94 23.11 24.76 25.77 24.99 25.34 26.13 25.67 25.81 25.65 25.55 26.23 25.07 23.89 23.87 24.41 23.46 25.54 24.47 24.11 24.14 24.25 23.93 23.74 24.12 23.68 24.80 24.57 24.93

GFSNGP_sfc_wetblb_078.txt.gz
Wetbulb
28.16 30.26 31.32 30.90 31.22 31.07 27.14 27.81 24.01 27.79 28.50 31.48 32.74 34.19 35.43 35.45 37.28 36.29 35.70 35.30 35.20 34.77 34.78 35.80 37.08 38.95 39.90 40.02 40.27 41.62 42.21 41.99 42.42 42.42 42.06 42.01 42.08 41.78 41.46 41.01 40.52 40.09 39.17 38.62
23.59 28.51 28.90 29.42 30.58 30.57 31.23 30.39 29.89 29.13 28.01 33.11 33.55 35.45 35.76 34.84 34.38 33.78 34.01 34.52 34.83 34.87 34.77 34.59 35.15 37.03 39.04 39.50 39.76 40.52 40.86 41.68 42.38 42.02 41.43 41.04 40.64 39.88 39.51 38.99 38.34 38.02 37.66 37.72
20.29 25.70 26.38 23.09 26.07 29.37 30.55 30.78 31.02 28.23 32.05 35.02 34.55 36.46 34.06 31.55 32.15 32.46 32.92 33.85 34.28 34.46 34.46 34.90 35.41 36.98 37.70 39.36 40.24 39.76 40.35 41.06 41.73 41.40 40.73 40.03 39.49 38.50 37.71 37.02 36.51 36.44 36.27 36.67
17.91 23.05 14.92 25.94 29.49 30.40 30.66 30.89 31.64 31.96 32.21 32.50 33.87 32.57 31.94 31.64 30.84 31.80 33.16 33.93 34.44 34.72 35.60 36.10 36.68 37.06 38.24 39.11 39.63 39.78 40.16 40.65 41.19 40.73 40.07 39.15 38.07 37.37 36.08 35.13 35.43 34.89 34.99 35.40
19.09 17.16 23.70 25.81 28.91 29.41 28.25 28.41 31.11 30.63 29.62 30.66 32.10 31.09 29.84 31.90 32.30 31.96 33.10 34.14 34.64 35.12 35.63 35.84 35.45 36.55 36.75 37.54 38.72 39.12 39.57 39.81 40.30 40.27 39.12 37.92 37.16 36.21 34.95 34.33 33.72 33.80 34.27 34.22
23.88 18.89 17.68 24.85 30.58 33.29 32.65 24.72 29.78 30.87 29.54 29.25 31.77 28.23 30.11 31.69 33.09 33.80 34.12 34.49 34.43 34.99 35.81 35.42 36.65 36.54 36.04 36.91 37.73 38.19 39.41 40.22 40.16 39.83 39.53 38.28 37.66 35.56 34.31 33.89 34.03 32.78 33.97 33.69
27.00 19.38 24.16 28.38 32.18 33.06 22.40 24.15 29.37 30.11 30.04 29.29 28.15 29.16 30.64 32.81 33.24 34.00 34.07 34.02 34.76 34.37 33.96 35.18 36.29 35.67 35.19 36.19 36.49 38.93 39.12 39.47 39.30 39.04 39.16 39.07 35.97 34.21 33.79 33.71 33.14 32.46 34.05 34.74
26.12 24.41 18.82 29.31 31.27 25.98 28.45 29.13 30.45 30.03 29.87 29.72 30.08 31.49 31.80 32.35 32.54 33.13 32.96 33.51 34.07 33.64 34.47 35.73 36.26 34.92 35.39 35.37 37.99 38.54 38.18 37.88 37.74 37.65 37.79 37.07 35.25 33.95 32.91 33.80 34.74 34.74 35.63 35.33
26.24 25.63 28.90 28.31 28.57 29.57 30.68 30.43 28.92 28.95 29.72 30.17 30.04 29.56 31.17 31.67 31.87 32.19 32.48 32.83 33.61 33.01 34.12 34.02 34.94 34.99 34.51 35.67 37.94 39.53 36.99 36.37 35.95 35.88 35.42 34.92 34.13 35.56 33.84 34.50 35.28 35.15 34.33 34.21
28.11 26.98 27.02 28.13 29.17 29.85 29.69 29.31 30.05 30.18 30.29 30.54 28.92 30.08 29.60 30.59 30.99 30.94 31.79 33.11 32.64 33.32 31.35 31.74 33.39 33.87 34.42 35.78 37.03 38.15 38.60 38.12 35.42 33.84 33.93 33.83 35.81 35.90 35.85 35.18 35.17 34.58 33.70 33.51
26.92 26.75 26.32 29.49 29.93 29.77 30.32 29.69 29.68 30.10 30.11 29.87 29.08 28.35 29.06 29.23 29.50 29.94 30.51 31.27 32.14 30.42 30.36 30.52 31.62 33.00 34.96 36.13 36.30 36.02 38.48 38.41 36.71 35.57 35.05 33.08 32.30 34.94 35.82 37.16 37.50 35.42 34.83 34.66
26.48 28.77 28.07 27.69 29.57 31.26 28.21 27.29 28.58 28.23 28.29 28.43 28.35 28.41 29.06 28.63 29.31 29.52 29.51 30.49 29.99 29.88 30.48 30.19 30.31 31.14 33.18 35.71 36.38 35.52 35.24 37.39 38.61 37.34 36.91 35.87 35.12 35.21 39.23 39.07 39.92 40.12 39.07 36.87
27.92 27.36 28.39 28.79 30.15 29.06 26.66 27.30 27.11 28.02 27.81 26.57 27.85 27.94 27.95 27.91 28.69 31.62 30.25 29.38 29.28 29.57 30.46 30.38 29.88 30.04 31.49 33.86 34.11 33.35 33.10 34.02 36.70 37.87 36.94 35.84 34.67 34.48 34.34 35.97 39.98 39.64 39.94 39.57
27.77 28.02 25.90 27.48 25.62 27.25 25.99 27.07 28.36 26.97 26.67 26.34 26.54 26.84 26.99 27.01 28.01 28.04 28.41 29.31 29.42 29.50 29.61 30.13 29.94 29.88 31.18 32.20 31.88 32.17 32.76 34.57 34.44 37.29 37.60 37.09 35.42 35.06 35.08 34.44 33.85 34.60 39.15 39.50
25.66 26.04 25.11 26.41 25.28 24.11 24.90 25.31 24.34 23.91 24.35 24.40 25.18 25.32 25.20 24.84 25.02 25.89 27.98 28.95 29.39 29.18 29.26 29.64 29.59 29.96 31.91 30.74 30.06 30.22 32.34 32.79 33.62 34.85 37.55 37.91 36.04 34.79 34.73 34.31 34.12 34.15 32.83 36.76
27.30 25.08 24.39 23.10 22.75 23.37 22.06 22.55 21.78 22.88 23.81 24.13 23.85 23.71 23.76 24.18 24.53 25.14 26.42 27.71 26.77 27.13 28.74 29.33 29.55 30.57 31.19 30.68 29.71 29.79 32.33 33.85 34.42 33.93 34.68 35.50 35.24 34.31 33.67 33.55 33.44 33.46 33.00 33.52
20.24 20.26 21.95 20.39 22.81 22.10 22.64 23.19 23.03 23.36 24.07 24.19 24.05 23.99 23.60 23.70 23.57 23.29 23.94 25.38 26.66 27.40 28.32 29.85 29.89 30.75 30.07 29.95 29.04 30.24 32.01 31.75 33.20 33.13 32.96 34.18 34.66 34.15 33.76 33.22 33.08 33.17 33.60 34.40
24.57 25.06 24.32 23.73 20.94 22.50 23.57 24.57 24.68 24.21 23.22 24.36 24.07 22.87 20.74 19.64 19.83 21.69 23.33 24.69 25.26 26.26 28.70 30.54 30.73 29.50 29.18 29.05 29.71 32.04 30.92 30.60 30.48 31.47 32.17 32.45 33.49 34.35 33.95 33.28 32.88 32.85 33.42 33.63
24.63 25.22 24.87 25.52 23.85 23.38 22.26 20.83 21.00 22.10 22.45 22.45 21.81 21.14 20.89 20.63 21.30 21.61 23.20 23.41 23.48 24.85 26.80 30.43 31.32 30.69 28.71 28.89 31.22 31.32 29.58 29.00 28.37 29.46 31.15 32.49 32.28 32.72 33.86 33.54 33.23 33.25 33.57 33.10
25.30 25.34 25.24 23.66 24.20 23.07 21.99 22.63 22.24 21.42 22.24 22.09 22.47 21.59 21.23 21.72 22.95 23.14 23.46 22.65 24.24 26.36 29.94 28.86 28.86 29.05 28.96 29.74 32.01 30.13 28.15 28.37 28.91 29.60 30.85 31.04 31.22 31.60 32.92 34.30 33.81 33.41 33.37 33.16
21.98 20.74 22.02 23.87 23.05 23.58 23.30 22.27 21.22 20.58 22.69 22.66 21.90 21.74 22.23 23.37 23.49 23.31 21.64 22.79 25.65 27.07 29.17 30.86 29.12 29.62 29.84 30.04 30.14 28.88 27.86 27.86 29.19 29.24 28.21 28.47 29.66 30.43 31.39 33.20 33.53 33.22 33.05 32.87
17.36 16.17 16.16 16.64 18.34 19.97 22.12 22.01 21.50 21.53 21.16 21.44 22.21 22.26 22.13 21.94 23.41 23.69 24.42 23.43 26.40 30.49 29.68 29.14 28.94 29.85 30.12 32.12 30.66 29.86 29.52 28.27 27.17 27.63 27.23 28.12 29.38 30.00 30.22 31.84 32.49 32.66 32.41 32.45
19.38 18.05 18.97 17.48 18.95 19.13 18.00 19.18 20.58 20.83 20.67 20.68 20.98 21.58 21.51 22.41 23.15 22.24 22.31 24.55 25.17 28.20 29.41 28.83 29.47 31.16 31.25 30.39 27.79 27.01 26.06 25.37 26.09 26.97 27.69 28.38 29.09 29.90 30.22 31.51 32.23 32.33 32.08 31.66
17.51 18.20 16.82 18.49 12.46 13.28 15.36 19.31 18.76 21.12 20.58 21.60 21.81 22.25 21.16 21.26 22.67 23.06 24.61 27.38 29.20 29.21 28.72 29.83 29.33 30.64 30.68 27.16 25.68 24.98 25.39 25.68 25.80 26.19 27.35 30.07 28.88 27.99 24.88 23.54 25.32 26.86 28.11 30.22
15.87 13.82 11.61 13.54 16.21 19.61 19.11 20.28 19.41 19.51 20.25 21.17 22.04 23.36 23.71 23.90 23.10 24.75 23.92 23.49 27.28 27.72 27.15 28.94 29.78 29.18 25.58 25.02 25.37 25.44 25.36 25.28 25.68 24.49 25.19 25.63 25.28 23.52 22.91 22.83 24.63 25.85 26.81 27.71
17.37 18.51 19.40 19.43 19.54 20.30 21.15 21.36 20.73 21.66 22.15 22.24 23.15 23.29 23.89 25.13 24.13 24.13 22.57 24.28 23.57 25.87 27.54 25.84 25.77 25.25 24.47 24.43 24.56 24.76 24.96 24.70 24.48 23.41 24.31 24.06 23.66 23.36 22.54 23.79 25.06 25.81 25.57 27.05
14.35 21.74 18.28 18.22 19.22 19.43 19.90 21.42 20.11 19.69 21.77 21.55 20.55 22.29 24.47 23.68 22.21 23.24 23.95 21.60 21.65 23.93 25.24 25.77 25.64 25.51 25.62 25.74 24.71 24.33 24.42 23.24 24.18 23.23 23.16 22.95 22.29 21.87 22.52 23.81 24.09 24.35 25.12 25.57

GFSNGP_sfc_wetblb_081.txt.gz
Wetbulb
27.80 29.26 32.22 32.00 32.38 32.25 28.89 28.77 26.38 28.58 29.23 31.99 34.01 35.86 36.27 37.24 37.16 35.89 35.08 35.12 35.58 35.85 36.19 36.65 37.30 38.23 39.26 40.64 41.59 41.97 42.26 43.02 44.08 45.15 45.30 45.42 45.37 45.21 44.68 44.44 44.03 43.61 42.81 42.41
24.39 28.56 28.96 30.22 31.25 32.12 32.69 31.42 31.00 29.48 30.47 34.99 35.10 36.56 36.55 34.86 34.66 33.45 33.89 34.78 35.55 35.96 36.17 36.11 36.31 37.08 38.00 39.08 40.20 41.34 41.45 41.92 43.16 44.13 44.52 44.33 44.15 43.45 43.10 42.70 42.19 42.02 41.92 41.71
21.73 25.79 26.89 24.13 26.23 29.88 32.04 32.52 31.86 29.62 32.52 35.67 35.65 36.50 34.07 31.95 32.54 32.88 33.76 34.70 35.02 35.29 35.73 36.27 36.87 37.53 37.37 38.60 40.00 40.28 40.90 41.72 42.31 42.88 43.25 43.19 42.98 42.24 41.84 41.48 40.93 41.10 40.78 40.82
19.77 23.94 16.69 26.82 29.87 31.23 31.09 31.97 32.80 32.94 31.57 32.99 35.42 32.97 31.93 32.81 32.72 33.04 34.03 34.50 34.97 35.50 36.01 36.81 37.47 37.52 38.14 38.57 38.86 39.57 40.32 41.00 41.85 42.30 42.37 42.63 41.78 41.40 40.78 40.23 40.36 39.94 39.67 39.91
20.49 18.64 23.99 26.67 29.70 30.42 29.42 29.36 32.56 30.77 30.70 32.08 32.70 33.00 31.79 33.36 33.74 33.89 34.40 34.98 35.36 35.83 36.00 36.37 36.39 37.14 37.04 37.65 38.44 38.93 39.74 40.35 40.89 41.48 41.43 41.33 40.73 40.44 39.84 39.05 38.74 38.50 38.42 38.40
24.27 19.66 18.84 26.17 30.72 33.56 32.97 25.32 31.30 31.95 30.98 32.09 33.66 30.17 31.69 33.12 33.88 34.22 34.63 35.05 34.92 35.47 35.77 35.68 36.87 36.78 36.31 37.11 37.33 37.78 39.28 39.90 40.30 40.81 40.87 40.69 41.37 39.21 38.44 38.20 37.50 37.58 36.35 36.53
25.42 20.50 24.83 29.21 31.65 33.26 24.22 25.44 30.83 31.37 31.22 30.80 29.96 31.28 31.96 33.17 33.59 34.42 34.50 34.50 35.67 34.96 34.52 35.41 36.45 36.01 35.86 36.38 36.24 37.74 39.37 39.63 39.59 40.13 40.06 40.35 39.65 38.35 37.89 37.52 37.12 35.68 35.67 35.56
24.43 21.51 18.50 29.78 31.62 27.31 29.56 30.34 31.40 31.41 31.41 31.18 31.57 31.90 32.23 32.44 32.54 32.93 32.98 33.37 34.02 33.33 33.72 35.20 34.98 34.97 34.29 33.84 36.11 37.17 37.98 38.93 38.77 39.13 39.04 39.37 38.70 37.38 36.81 37.00 36.35 35.50 35.86 36.56
26.34 26.03 29.24 29.77 30.12 30.56 31.09 30.98 31.00 30.74 31.42 31.59 30.92 31.34 30.97 31.25 31.25 31.75 32.03 32.43 33.52 32.38 32.90 32.75 33.20 33.50 32.21 33.92 35.62 36.04 36.42 37.55 39.23 38.14 37.49 37.47 37.15 37.23 36.30 36.68 36.39 35.80 35.84 35.99
28.35 27.35 28.79 29.75 30.36 30.97 31.05 30.77 31.56 31.70 31.58 31.45 30.22 30.46 29.49 29.65 30.34 30.59 31.19 31.46 32.38 31.87 30.87 30.41 31.61 31.74 32.15 33.55 35.20 35.29 35.54 36.45 37.59 38.43 38.32 36.71 36.77 37.28 36.72 35.99 35.91 35.75 34.95 35.25
27.22 28.24 27.36 29.40 30.36 30.74 30.91 30.94 30.72 31.15 31.33 30.68 30.21 28.45 28.45 28.69 29.19 29.62 30.34 31.10 31.75 31.19 30.23 30.29 31.03 31.00 31.82 32.76 33.41 33.88 33.84 33.85 35.30 37.39 37.88 37.12 35.37 36.35 36.86 38.02 38.34 36.41 36.19 36.40
27.03 28.90 28.54 28.19 29.64 31.31 29.18 28.09 29.03 29.05 28.37 28.86 28.81 28.26 28.59 27.81 28.78 29.42 29.59 30.55 29.82 29.73 29.81 30.32 30.79 30.98 31.56 32.29 32.45 32.64 31.32 32.17 32.79 34.68 36.51 37.54 36.42 35.69 39.08 39.42 40.03 40.56 39.84 38.20
27.87 27.30 28.44 28.87 30.25 29.68 27.87 27.84 28.26 28.40 27.86 26.84 27.31 27.49 27.51 26.89 27.69 30.18 29.09 28.61 28.83 29.05 29.72 29.74 29.80 30.27 31.62 31.91 32.18 31.92 30.67 30.97 32.05 32.77 33.10 35.79 36.24 34.77 34.50 36.63 40.35 40.30 40.54 39.97
28.28 29.15 26.54 28.53 27.17 28.84 26.90 26.82 28.00 26.53 26.24 25.88 25.92 26.52 26.11 25.46 26.12 25.54 25.72 27.19 28.27 28.57 28.88 29.41 29.72 29.89 31.57 31.61 31.15 30.93 30.60 32.07 31.67 32.43 33.47 34.24 35.97 35.34 35.16 34.79 34.27 35.85 39.91 40.34
26.37 26.00 25.29 27.14 25.74 25.04 24.92 24.62 23.61 23.45 23.68 24.31 25.06 24.87 24.60 23.69 23.55 24.26 25.40 26.32 27.01 27.46 27.96 28.65 28.91 29.51 31.45 31.36 30.80 30.11 29.78 30.14 31.43 32.57 32.99 34.35 34.43 35.67 35.25 34.87 34.64 35.49 33.61 37.93
26.78 25.73 24.95 24.19 23.39 23.03 22.26 22.48 22.04 22.61 23.24 23.54 23.75 24.11 24.13 23.58 23.60 24.09 24.60 24.99 24.65 24.94 26.71 27.33 28.04 30.07 31.37 31.12 30.38 29.95 29.73 30.91 32.61 31.10 30.96 31.92 33.43 33.80 34.50 34.02 33.86 32.97 33.12 34.62
20.87 20.59 21.93 20.10 22.30 21.31 23.02 23.15 22.81 22.82 23.27 23.42 23.77 24.53 24.08 23.81 23.36 22.59 22.81 23.28 24.76 25.39 26.57 27.43 27.82 30.29 30.66 30.57 29.39 29.53 29.94 30.38 32.62 30.62 29.21 30.07 31.83 32.41 33.68 33.86 33.02 32.94 32.98 34.71
24.33 24.34 23.56 23.26 20.97 22.50 23.30 24.22 24.15 23.53 22.41 23.25 23.58 22.74 21.13 20.60 20.50 21.55 22.45 23.43 23.70 24.53 25.84 27.16 28.63 30.19 30.54 30.88 30.26 30.00 29.45 30.42 31.14 29.41 29.17 29.71 30.76 31.80 32.06 33.22 33.27 32.67 33.25 33.78
23.45 23.99 24.20 24.94 23.51 23.01 22.19 20.77 20.67 21.44 21.33 20.98 20.46 20.15 20.70 21.17 21.27 21.55 22.57 21.88 22.46 22.24 24.70 26.60 29.73 30.82 29.31 29.90 30.51 29.99 29.82 30.13 28.96 28.12 27.84 29.42 30.50 31.09 31.69 31.60 33.06 33.34 33.47 33.11
24.67 24.47 24.70 23.57 24.06 22.84 21.69 22.04 21.57 20.86 21.61 21.37 21.57 20.90 20.66 21.11 22.36 22.49 22.79 22.30 23.78 24.77 25.94 26.66 28.21 29.65 29.45 29.48 30.60 30.36 29.65 28.39 27.74 28.11 28.66 29.52 30.72 30.57 30.58 32.05 32.29 33.17 33.28 33.19
20.16 18.89 20.63 22.37 21.72 22.86 22.71 21.86 20.91 20.36 22.17 22.60 21.88 21.44 21.73 22.67 22.41 22.64 21.62 21.90 25.46 26.88 27.39 29.02 29.12 28.59 28.88 29.33 29.51 29.18 28.52 28.14 27.72 27.70 28.47 28.66 28.03 27.90 29.11 30.18 31.12 32.43 32.92 32.98
15.58 14.51 13.03 15.17 17.28 18.91 21.01 20.80 20.59 20.86 21.01 21.30 21.67 21.66 21.66 21.47 22.29 22.47 24.15 23.49 25.74 29.00 28.63 28.74 28.91 29.64 30.07 31.98 30.56 29.76 29.73 28.85 27.62 27.12 26.73 27.19 27.49 27.49 28.55 29.99 30.58 31.81 32.75 32.89
16.51 16.10 16.09 14.87 16.62 16.88 16.37 17.42 18.83 19.69 19.95 20.38 20.47 21.07 21.35 22.12 22.29 21.32 21.00 24.57 26.77 27.58 28.06 28.55 29.76 30.69 31.78 30.59 28.54 27.22 26.71 26.09 25.58 25.79 26.37 27.21 27.89 28.30 28.92 29.67 30.97 31.92 32.31 32.29
14.80 14.99 14.16 15.40 10.22 10.86 14.30 18.40 17.83 20.58 20.27 20.52 20.80 21.74 22.09 22.45 22.58 23.74 24.35 26.88 27.94 27.19 26.59 27.39 28.41 30.63 31.45 27.30 25.46 24.86 25.24 25.64 25.79 25.94 26.69 28.18 28.14 28.98 28.14 28.26 28.78 29.70 30.54 32.20
13.26 10.97 9.70 10.93 15.04 18.05 18.04 18.84 18.98 19.50 20.20 20.84 21.49 22.26 22.89 24.21 23.42 24.41 24.64 24.56 26.00 25.57 24.31 27.61 29.35 30.79 26.97 25.29 24.10 24.40 25.34 25.21 25.60 26.08 25.06 25.33 26.07 26.28 26.47 26.94 27.69 28.06 27.75 28.94
15.76 16.74 17.61 17.29 16.76 17.36 17.46 18.01 18.03 18.14 18.12 18.22 18.32 19.24 20.67 23.52 23.65 22.95 23.10 23.75 22.83 24.18 22.66 24.78 26.29 26.55 25.89 25.66 25.48 24.84 24.79 24.62 24.77 23.76 24.28 23.95 24.31 24.50 24.56 24.93 25.82 26.51 27.03 27.54
11.71 19.16 15.14 15.24 15.98 15.89 16.57 18.40 16.20 15.06 17.09 16.10 16.34 19.86 21.19 20.97 20.84 21.53 22.27 20.28 20.66 21.63 24.06 25.32 26.14 26.19 26.11 25.89 24.87 24.43 24.12 23.22 23.93 24.29 23.18 22.88 22.63 22.28 22.63 22.99 23.18 24.62 25.08 25.59

GFSNGP_sfc_wetblb_084.txt.gz
Wetbulb
33.16 34.00 35.80 35.66 36.08 37.11 34.56 34.69 33.69 33.89 35.15 38.09 40.05 41.24 41.52 41.99 40.99 40.04 39.86 40.30 40.45 40.57 41.24 41.87 42.27 42.87 43.11 43.56 43.95 44.44 45.42 46.86 47.19 48.19 49.21 50.42 50.52 50.57 50.02 49.83 49.56 49.61 48.69 48.27
32.15 34.19 35.24 33.61 35.92 36.78 36.69 35.92 36.12 36.21 35.48 41.41 41.34 42.25 41.35 40.61 39.28 38.50 38.82 39.46 39.97 40.46 40.59 40.82 41.25 41.51 42.26 42.68 42.96 43.60 43.82 45.06 46.31 47.06 47.77 48.45 49.45 49.62 49.12 48.40 48.07 47.95 47.28 46.89
30.32 31.83 32.79 31.20 32.42 34.55 36.19 37.39 36.83 35.01 36.97 40.09 39.32 40.48 39.86 38.39 38.20 37.76 38.12 38.75 39.35 39.74 40.13 40.64 41.01 41.32 41.20 42.01 43.10 43.10 43.50 44.72 45.10 45.49 45.87 46.88 47.97 47.78 47.57 47.66 47.27 46.46 46.62 46.49
31.48 31.90 26.16 32.20 35.55 35.44 34.35 36.15 37.55 37.57 37.09 39.31 40.81 39.37 38.12 38.90 38.76 38.17 38.23 38.65 39.17 39.74 39.99 40.79 41.34 41.63 41.74 42.21 42.38 42.47 43.25 44.02 44.61 44.28 44.34 45.75 46.36 46.60 46.94 46.95 46.00 45.70 45.47 45.48
31.54 30.41 30.51 31.65 34.26 34.79 34.21 33.93 37.26 36.91 36.42 38.00 37.75 37.77 35.75 37.64 38.15 38.05 38.20 38.72 38.98 39.71 39.72 40.24 40.75 40.72 40.64 41.24 41.74 41.70 41.53 42.15 43.09 43.49 43.27 44.40 45.09 45.87 46.85 45.79 45.26 44.90 45.34 44.45
31.88 27.67 25.74 32.69 36.17 38.31 38.16 31.78 36.87 37.06 36.88 37.09 37.55 36.39 40.14 37.73 37.63 37.91 38.46 38.82 38.39 39.10 39.22 39.55 39.93 39.26 39.29 39.80 39.54 39.78 40.09 40.78 42.26 42.94 42.89 43.12 44.36 44.90 45.51 44.90 44.21 44.41 42.22 43.67
31.84 29.55 31.90 35.57 36.66 37.89 30.04 31.90 36.94 37.62 37.59 37.29 37.14 37.35 36.48 37.06 37.11 37.57 37.52 37.68 38.52 38.57 37.58 38.58 38.27 37.94 37.17 37.20 37.13 38.06 39.32 40.34 41.10 42.57 42.83 43.08 43.59 44.17 43.13 43.09 42.50 41.81 40.64 39.67
30.98 28.13 25.21 36.18 36.40 33.42 35.84 35.74 37.11 36.94 37.20 36.35 36.33 36.01 35.78 35.65 35.10 35.16 35.41 35.51 36.37 35.89 35.94 37.33 36.60 36.15 34.96 35.14 37.25 38.09 38.01 38.70 39.73 41.38 41.97 41.77 42.39 43.03 41.36 41.83 40.97 39.92 39.19 38.77
33.24 33.40 35.28 36.35 36.54 36.74 36.59 36.84 36.69 37.10 36.35 36.04 35.06 34.91 34.27 33.55 33.85 34.37 34.67 35.10 35.83 35.41 35.19 36.26 35.72 35.31 33.81 35.07 36.19 36.38 36.84 36.47 37.33 38.51 40.16 42.02 40.61 41.21 39.53 39.94 39.94 38.92 37.24 38.03
33.69 34.42 35.88 36.32 36.04 36.39 36.51 36.43 36.45 36.45 35.83 35.27 34.01 33.78 32.80 33.11 33.50 33.75 34.30 34.15 34.98 34.61 33.94 34.12 35.48 35.45 35.39 35.65 35.93 35.36 35.37 35.81 36.19 36.44 37.00 39.60 39.68 38.98 38.46 37.42 37.30 37.35 35.83 36.28
34.66 36.10 34.58 35.77 36.57 36.87 35.68 35.48 34.88 34.81 34.72 33.96 33.41 32.68 32.56 32.55 32.71 33.11 33.25 33.49 34.02 33.73 33.32 33.48 34.95 34.91 35.64 35.44 35.34 34.22 34.70 34.58 34.81 35.06 34.64 35.61 37.24 38.02 37.61 38.83 38.80 37.53 37.25 37.30
34.64 35.85 36.28 35.66 35.86 36.61 35.14 33.82 33.35 32.91 32.53 32.97 32.62 32.19 32.42 32.06 32.84 31.99 31.57 32.66 32.26 32.12 32.37 33.13 34.04 34.20 34.93 35.40 34.84 33.92 33.33 34.04 34.24 34.05 34.57 33.56 33.82 35.79 39.89 39.95 40.53 40.88 40.90 39.35
36.15 34.72 34.39 34.80 35.37 35.51 34.21 32.84 32.74 32.61 32.62 31.22 32.07 31.76 31.60 31.00 31.24 31.66 31.59 30.76 30.48 30.53 31.21 31.90 32.51 33.16 34.53 35.05 34.93 33.79 32.90 33.15 33.55 33.53 33.81 33.29 32.14 32.52 33.99 37.50 39.93 40.53 40.48 40.76
34.71 34.97 33.03 33.87 34.06 34.55 33.55 32.08 31.85 31.30 31.12 30.80 30.73 30.87 30.25 29.77 30.29 29.80 29.46 30.21 30.38 30.38 30.46 31.34 31.77 31.99 33.91 34.09 33.64 32.99 32.77 32.73 32.05 32.41 32.73 32.51 31.97 32.34 33.82 34.41 34.35 35.56 39.93 40.46
34.16 33.72 31.81 33.32 32.24 31.39 30.86 29.88 29.22 29.12 29.67 29.34 30.00 29.54 29.69 28.86 29.05 29.61 30.50 30.54 29.95 29.45 29.65 30.74 30.88 31.47 33.39 33.31 32.51 31.91 30.96 30.27 30.50 31.54 32.75 32.87 32.16 31.28 32.82 33.46 34.45 34.92 35.48 37.17
31.21 31.02 30.75 30.34 30.14 29.74 29.09 28.96 27.85 28.93 28.97 28.95 28.58 28.86 29.18 29.16 28.95 29.09 29.63 29.83 27.83 27.71 29.82 30.04 30.16 31.73 32.66 32.92 32.65 32.41 31.61 31.22 31.09 31.61 31.98 31.06 30.18 29.79 30.09 31.12 33.21 34.02 33.95 34.32
28.31 27.13 28.02 27.53 28.22 28.73 28.41 29.51 28.95 28.42 28.35 28.12 28.38 28.93 28.32 27.98 27.67 27.64 28.50 29.28 29.02 28.27 29.24 29.62 29.83 31.77 32.12 32.67 32.22 31.81 30.48 30.09 31.02 31.71 31.51 30.82 29.64 29.29 30.03 30.42 31.27 33.03 33.68 34.51
30.80 30.35 30.12 29.60 28.44 28.05 28.69 28.95 28.75 28.35 27.56 28.19 27.81 26.75 25.91 25.38 25.19 25.78 26.61 27.41 27.18 27.32 28.62 30.17 30.85 31.19 31.88 32.57 32.03 30.65 29.69 28.57 28.93 29.95 31.26 29.87 28.71 28.89 29.77 31.25 31.46 31.89 33.36 33.93
29.79 29.57 29.24 28.99 28.82 28.09 27.61 27.08 27.08 27.50 26.71 26.21 25.46 24.96 25.91 25.92 26.23 26.26 26.42 25.56 25.35 25.43 28.01 30.93 30.90 30.35 30.98 31.46 31.00 30.12 28.96 29.63 30.11 30.53 30.52 29.80 28.92 29.33 29.95 31.03 31.21 31.84 32.37 33.17
28.94 28.90 28.42 27.81 27.88 27.10 26.50 27.65 27.46 26.53 27.18 26.87 26.25 25.51 25.28 26.07 26.55 26.21 26.41 25.13 26.37 27.46 28.93 29.10 29.93 29.82 30.60 30.91 30.62 29.70 29.58 29.69 29.31 29.10 29.02 29.16 29.47 30.03 31.26 30.86 30.62 31.01 31.72 32.75
25.46 23.87 23.94 24.13 24.26 25.21 25.53 25.55 24.69 24.19 25.21 25.39 24.43 24.16 24.43 25.28 25.82 25.76 24.38 24.19 27.07 28.66 28.93 29.54 29.91 30.46 30.80 30.08 30.02 29.57 29.65 29.62 29.46 29.52 29.32 29.28 29.31 29.53 29.34 29.49 29.26 30.04 31.33 32.46
23.33 22.29 20.19 20.99 22.31 23.44 24.27 23.46 23.51 23.47 23.47 23.51 23.82 23.79 23.39 23.42 24.46 24.79 25.74 24.93 27.07 28.77 28.94 28.92 29.45 30.33 30.44 31.22 30.96 31.41 30.75 29.53 28.82 28.62 28.10 28.06 27.83 28.02 28.32 28.60 29.47 30.94 31.83 32.24
22.74 22.08 21.66 20.57 20.83 20.78 21.13 22.01 21.84 21.72 21.63 21.96 21.86 21.98 22.24 23.07 23.92 22.62 21.86 26.22 27.31 28.05 28.16 28.37 29.20 29.86 30.69 30.10 30.84 30.05 28.19 27.19 26.60 26.88 27.31 27.72 28.02 28.29 28.74 29.56 30.70 31.61 31.73 32.20
20.94 20.91 20.58 20.44 19.40 20.03 18.98 20.12 20.30 21.00 21.55 21.40 22.18 23.11 22.36 21.56 22.56 25.14 26.11 26.99 27.28 27.01 27.11 27.65 28.01 29.07 30.23 30.83 28.82 27.48 26.71 26.28 26.58 26.90 27.25 28.43 28.05 28.43 29.36 30.32 30.54 31.58 31.51 31.93
19.25 18.81 19.27 18.87 18.77 19.03 18.70 19.21 19.66 20.13 19.16 19.87 20.24 20.85 21.57 22.94 22.23 24.31 24.58 24.13 25.40 25.42 24.75 26.85 27.94 29.01 29.15 28.24 27.36 26.66 26.26 26.31 26.41 27.28 26.43 26.46 26.70 27.46 28.45 29.06 29.50 30.56 30.63 31.11
19.79 20.25 20.12 18.57 18.33 18.33 18.48 19.27 18.34 18.22 18.56 17.99 18.99 20.56 22.20 23.06 22.84 22.85 22.90 23.75 23.60 24.59 24.17 25.24 26.51 27.83 28.12 27.22 26.87 26.84 26.20 26.01 25.28 25.72 25.31 25.23 25.36 25.51 25.96 26.33 27.45 28.45 29.27 30.20
18.61 20.22 18.69 18.40 18.65 17.96 18.45 19.02 17.12 16.78 18.04 17.41 17.81 21.68 21.11 21.16 21.62 21.60 22.52 22.09 22.86 23.67 24.74 25.62 27.07 27.38 27.29 26.92 25.96 25.43 24.88 24.14 23.96 24.32 24.30 23.95 23.90 23.85 23.99 24.73 25.61 26.33 27.56 28.29

GFSNGP_sfc_wetblb_087.txt.gz
Wetbulb
36.07 36.80 37.75 37.10 37.21 38.09 35.91 37.30 34.03 35.76 36.88 39.53 41.73 42.32 43.14 43.26 42.75 42.02 41.59 41.62 41.64 41.83 42.46 43.11 43.04 43.42 44.02 44.48 44.83 45.01 45.17 45.76 46.54 47.73 48.76 49.24 50.59 51.33 51.40 50.78 50.98 51.60 51.21 50.29
35.19 36.98 37.40 34.71 37.29 38.50 38.26 38.28 37.69 38.15 37.08 43.42 44.57 44.37 43.07 42.77 41.76 41.19 41.05 41.51 41.74 41.99 41.89 41.88 42.18 42.22 43.09 43.19 43.79 44.70 44.60 44.98 46.25 46.83 47.17 47.85 48.60 49.97 50.61 49.95 49.62 49.29 48.92 48.77
32.00 35.30 35.01 32.31 33.97 36.15 37.69 39.18 38.27 35.91 38.94 42.19 41.19 42.01 42.35 41.72 41.24 40.74 40.71 40.92 41.06 41.39 41.41 41.74 41.73 42.25 41.74 42.48 43.78 43.69 43.76 44.77 45.28 45.75 45.55 46.16 47.28 48.02 48.93 49.56 49.59 48.38 48.34 47.87
33.08 33.99 27.39 33.62 38.10 37.50 35.89 38.07 39.86 39.81 39.91 41.53 42.66 43.27 41.65 42.03 41.47 40.70 40.69 40.63 40.77 40.81 40.90 41.36 42.10 42.24 41.78 42.42 43.00 42.92 42.90 43.14 43.79 44.02 44.21 45.00 45.71 46.65 47.51 48.69 48.90 48.26 47.61 47.43
32.19 31.77 32.99 33.54 36.05 36.53 35.70 35.95 39.37 39.12 39.10 40.26 40.17 40.14 39.39 40.35 40.35 39.93 39.87 40.30 40.36 41.11 40.84 41.03 41.43 41.32 40.09 40.86 41.42 40.93 41.36 41.30 41.96 42.65 42.77 43.79 44.15 44.98 46.18 46.86 47.38 47.24 47.22 46.70
34.17 29.02 27.07 34.61 37.94 40.27 39.70 32.86 39.26 39.76 39.52 39.35 39.54 37.55 38.15 39.66 39.74 39.87 40.30 40.37 39.70 40.16 40.29 40.09 40.73 39.89 38.82 38.96 38.44 38.54 38.58 39.20 40.92 41.59 41.98 41.81 42.73 42.87 43.67 44.97 45.37 46.10 44.79 45.32
33.27 31.04 33.78 37.88 38.94 40.02 30.64 32.47 39.60 40.33 40.22 39.81 38.91 38.29 38.63 39.15 39.24 39.39 38.73 38.42 38.41 38.65 37.73 38.09 39.23 37.44 36.48 36.84 36.44 38.23 38.73 38.88 39.29 40.41 40.86 41.44 41.70 42.37 42.67 43.06 43.56 43.56 43.40 42.84
32.74 29.66 26.96 39.68 38.26 34.44 37.32 38.63 39.99 39.57 39.94 39.13 39.25 38.43 37.89 37.83 37.19 36.71 36.47 36.90 37.35 36.65 36.95 37.80 38.23 36.26 35.22 34.97 37.06 37.26 37.42 37.33 37.86 38.43 39.23 39.80 40.60 41.24 41.90 41.38 41.18 41.75 41.56 41.33
34.51 34.82 38.55 40.22 39.75 39.94 39.68 39.33 39.24 39.56 39.30 38.68 37.74 37.51 37.13 35.85 35.71 35.93 36.05 36.26 36.88 36.25 36.01 36.81 37.29 36.63 34.55 35.69 36.59 36.29 36.01 35.92 36.82 37.27 37.44 38.30 38.02 39.02 39.09 40.03 39.20 40.13 40.07 39.70
35.53 38.75 38.74 39.81 40.17 39.82 39.69 39.28 39.24 39.13 38.75 37.76 36.79 36.69 35.43 35.09 35.12 35.13 35.55 35.32 35.82 35.04 34.30 34.60 36.01 36.14 36.03 36.36 36.53 35.62 34.76 35.08 35.85 35.41 35.92 36.19 36.92 37.85 37.16 38.01 37.63 37.49 37.20 36.78
36.68 39.49 38.58 39.27 40.11 40.34 38.60 38.32 37.62 37.46 36.97 36.00 35.46 34.90 34.70 34.17 34.32 34.58 34.66 34.66 34.52 33.61 33.43 33.56 34.68 34.91 36.02 36.12 35.96 34.34 34.33 34.45 34.79 35.46 35.16 35.05 35.45 35.08 35.16 36.56 38.54 37.58 37.70 37.76
34.97 40.02 39.43 38.85 39.26 40.12 38.09 36.68 36.72 35.65 34.94 35.24 34.64 33.79 34.12 33.45 34.20 33.99 33.22 33.33 32.83 33.10 32.42 32.79 33.34 33.81 34.71 35.76 35.51 34.37 33.33 33.98 34.45 34.66 34.76 34.64 34.66 34.73 36.36 36.22 37.43 39.64 40.58 40.37
39.33 38.68 37.95 37.57 37.98 38.42 37.74 36.29 35.70 34.90 34.88 33.52 34.04 33.66 33.17 32.34 33.02 33.56 32.91 32.34 31.72 31.65 32.15 32.06 32.43 32.77 34.14 34.93 35.03 33.81 33.23 33.62 34.02 33.83 33.47 33.02 32.72 31.22 30.15 33.47 36.11 36.79 39.34 40.40
38.21 37.49 35.37 36.08 36.30 37.02 36.48 35.66 34.50 34.22 33.73 32.98 32.63 32.77 32.11 31.41 31.87 31.40 31.13 31.99 32.29 31.82 31.39 31.72 31.62 31.85 34.03 34.78 34.04 33.24 33.24 33.42 31.47 30.65 30.87 31.48 32.00 31.18 30.86 30.33 30.10 31.88 36.48 38.39
36.95 37.48 34.65 36.53 35.83 35.16 34.33 33.17 31.17 30.96 31.88 31.85 32.41 31.25 30.99 29.88 29.73 30.34 31.49 31.72 31.51 30.96 30.95 31.31 31.07 31.68 34.18 34.21 32.92 32.43 32.48 32.75 32.03 30.85 30.67 31.02 31.48 31.83 30.64 29.62 29.67 30.76 32.07 34.92
35.58 33.80 33.28 32.58 32.69 32.33 31.66 31.23 29.88 30.35 31.45 31.38 30.78 30.54 30.63 30.66 30.20 30.33 30.84 31.14 29.41 28.59 29.98 29.97 30.13 32.06 33.59 33.30 32.44 32.62 32.87 33.37 32.33 30.37 30.21 30.95 31.26 30.99 30.01 28.61 28.97 29.90 30.47 31.64
29.58 28.94 30.24 30.28 30.32 31.26 30.71 31.32 30.95 30.34 30.32 29.97 30.14 30.64 30.39 29.58 29.27 28.93 29.85 30.87 30.28 29.69 29.82 29.70 29.73 31.74 32.58 32.77 32.00 32.34 32.48 31.11 31.34 29.94 29.25 29.68 30.58 30.68 29.79 28.53 28.21 29.16 30.00 31.61
33.62 32.68 32.58 31.93 30.91 29.69 30.07 30.68 30.61 30.20 29.20 29.92 29.77 28.69 27.55 26.76 26.31 27.21 28.17 28.92 28.41 28.18 28.97 30.02 30.94 31.29 31.83 32.10 32.20 32.39 30.80 29.39 29.06 28.90 29.57 29.76 29.81 30.48 28.58 28.04 28.24 28.83 30.58 31.01
32.25 30.76 30.69 30.35 30.26 29.29 28.73 27.83 28.00 28.54 28.15 27.85 27.01 26.11 26.90 26.93 26.97 27.23 28.11 27.22 26.48 26.06 28.26 30.53 30.76 30.18 30.25 31.03 31.58 31.54 30.06 29.26 29.07 29.37 29.82 30.27 29.71 29.59 28.74 28.10 28.75 30.00 31.01 30.42
30.11 30.39 29.78 28.91 28.88 28.03 26.94 27.74 27.60 26.79 27.43 27.10 26.58 25.90 25.53 26.02 26.39 26.04 26.26 25.38 26.29 27.28 29.46 29.26 29.53 29.46 29.86 30.72 32.65 31.54 30.25 29.05 28.74 29.08 29.37 29.11 29.05 28.99 29.25 29.98 30.13 30.51 29.65 29.39
26.91 25.94 25.71 25.47 25.36 26.45 26.56 26.21 25.19 24.44 24.99 25.20 23.86 23.24 23.05 23.66 24.45 24.97 24.08 23.42 25.96 28.22 28.61 29.19 28.75 29.36 30.52 31.47 31.24 30.34 29.92 29.44 29.41 29.62 29.51 29.03 29.20 29.11 29.03 28.86 28.81 28.91 28.23 28.65
26.12 24.04 21.44 22.89 24.03 24.64 24.86 24.06 23.81 23.04 22.57 22.59 22.79 22.47 21.99 21.73 22.78 23.31 24.82 24.36 26.81 28.41 27.66 28.19 28.30 29.13 29.86 31.25 30.63 30.36 30.21 30.22 30.44 28.80 27.75 27.55 27.42 27.31 27.45 27.95 28.14 28.33 28.88 29.87
24.71 24.19 23.21 22.05 22.02 21.75 22.37 22.80 21.96 21.61 21.13 21.51 20.67 20.96 20.98 21.56 22.57 21.53 20.81 25.52 26.12 26.77 26.49 26.67 27.83 28.94 29.38 28.54 28.65 28.89 29.96 28.49 27.45 26.91 26.89 27.24 27.27 27.48 27.92 28.31 28.84 29.62 30.19 30.87
23.68 22.73 22.29 21.97 20.92 21.27 19.97 20.87 20.55 21.33 21.47 20.83 21.75 21.54 20.75 20.28 21.89 24.23 25.10 25.51 25.81 25.36 25.38 25.60 26.85 28.69 29.66 28.97 30.04 28.90 27.88 27.11 26.61 26.87 26.85 27.76 27.57 27.31 27.52 28.15 29.09 30.62 30.97 31.32
21.71 20.77 20.66 20.11 20.67 20.75 20.01 20.57 20.72 21.41 20.40 21.09 21.77 22.37 22.89 24.26 22.63 22.90 23.37 23.00 24.68 24.65 24.10 26.51 27.86 28.46 27.99 28.60 28.00 27.31 27.01 26.88 26.67 26.71 26.20 25.69 25.79 25.97 26.82 27.69 28.16 28.91 30.17 30.39
21.75 21.83 21.43 19.95 19.69 19.90 20.08 20.65 19.82 20.18 19.95 19.43 20.41 21.85 23.47 23.39 23.14 22.63 22.94 23.56 23.30 24.43 24.31 25.49 26.56 27.77 27.77 27.38 27.07 26.54 26.06 25.78 25.07 24.52 25.66 24.93 24.89 24.77 25.12 25.43 26.37 27.30 28.06 29.22
20.49 21.40 20.48 20.41 20.58 19.89 19.94 20.27 18.99 18.29 19.63 19.06 18.46 22.55 22.05 21.98 22.01 22.42 22.99 22.35 22.93 23.54 24.02 25.32 26.92 27.71 27.10 26.66 25.78 25.32 24.67 23.88 23.84 23.60 23.22 23.55 23.27 23.45 23.61 24.20 25.37 26.04 26.64 27.26

GFSNGP_sfc_wetblb_090.txt.gz
Wetbulb
32.94 34.91 35.60 34.59 34.86 35.45 32.15 32.78 27.33 31.78 32.46 35.26 37.08 37.37 37.62 38.01 38.78 38.60 38.45 38.47 38.66 38.30 38.12 38.82 39.24 39.77 40.52 40.64 41.29 41.74 41.73 41.86 42.55 43.74 44.36 44.97 45.54 46.63 48.32 48.04 47.83 48.46 49.28 48.88
27.13 34.61 34.53 30.91 33.91 35.46 35.72 35.60 34.77 35.03 33.22 40.49 41.84 39.67 38.51 37.77 38.77 38.19 38.28 38.75 39.12 39.07 38.80 38.46 38.20 38.59 39.93 39.88 40.28 41.42 41.06 41.69 43.05 43.35 43.57 43.48 44.01 44.64 45.30 46.81 46.76 46.46 46.24 46.52
25.93 32.41 31.06 25.89 30.35 32.46 34.71 36.11 34.97 31.41 34.19 38.43 38.61 40.32 39.26 37.81 38.64 37.72 37.85 38.47 38.23 37.54 37.52 37.54 37.65 39.17 38.23 39.11 40.19 40.38 40.37 41.06 41.65 42.18 42.18 42.43 43.03 43.37 43.80 44.14 45.62 45.15 44.85 45.08
24.50 27.33 19.25 29.48 35.08 35.59 34.16 36.50 37.10 37.19 37.13 38.63 38.53 38.17 37.88 38.15 37.10 37.35 37.92 37.49 36.98 36.78 36.96 37.03 38.01 38.47 37.92 38.53 38.99 38.93 39.12 39.56 40.13 40.18 40.26 41.09 41.42 41.61 42.00 42.94 43.26 44.17 44.02 44.10
23.30 22.84 28.59 30.59 33.55 33.34 31.86 32.19 36.79 35.85 37.00 37.80 37.73 36.65 34.22 37.60 37.49 35.99 35.22 36.23 36.63 36.65 36.79 36.28 36.37 36.78 35.85 36.50 36.76 36.59 37.01 36.88 38.20 38.82 38.64 39.28 40.09 41.21 42.12 42.45 43.37 44.39 44.55 43.87
28.32 22.80 20.50 30.08 34.90 37.36 35.97 27.03 36.02 37.10 36.77 36.59 36.12 31.44 31.06 36.65 37.06 36.29 36.01 36.57 35.86 35.84 36.33 35.36 35.10 34.24 33.38 34.00 33.99 34.26 35.42 35.85 36.60 37.35 37.74 38.39 39.99 40.10 40.92 41.62 42.17 43.50 43.61 43.61
27.01 23.63 28.36 34.20 36.15 36.84 24.14 26.79 36.17 36.42 36.38 35.40 33.52 32.64 34.76 36.73 36.45 35.94 34.82 34.24 34.26 33.93 32.91 33.44 34.59 33.63 32.17 32.72 32.00 34.29 34.95 35.24 35.31 35.57 35.32 35.77 36.34 37.79 39.98 40.62 41.39 41.62 42.01 42.14
26.57 22.18 19.88 35.91 34.30 29.78 32.94 34.04 35.59 35.23 35.49 35.17 35.58 35.96 35.72 34.93 33.45 33.23 32.96 33.55 33.56 32.16 32.46 33.63 34.20 33.06 31.38 30.83 33.18 33.67 33.62 33.58 33.06 33.03 34.24 34.75 32.98 34.27 35.91 38.72 39.00 40.22 40.64 41.46
29.36 29.29 35.05 35.73 35.01 35.57 36.10 35.43 34.46 34.88 35.42 35.64 34.69 34.07 34.10 33.27 31.67 32.04 32.35 32.38 32.83 31.29 31.13 31.51 32.14 31.82 30.25 30.75 32.19 32.32 31.57 31.13 31.29 32.27 32.53 32.60 31.03 30.97 32.94 35.77 35.70 36.33 37.80 38.62
31.32 33.06 33.81 35.44 35.80 35.79 35.27 34.53 35.86 35.75 35.51 34.81 32.48 33.20 31.93 32.09 31.62 31.25 31.52 31.12 31.42 30.63 29.51 29.12 30.26 30.71 30.22 31.22 32.34 31.52 30.00 29.79 30.39 30.15 31.01 30.81 31.67 31.88 31.27 31.33 32.80 34.11 35.14 35.65
31.66 34.78 33.94 35.39 35.85 36.53 35.76 35.59 35.09 34.98 33.83 32.79 31.97 31.68 31.11 30.55 30.76 30.61 30.70 30.91 30.70 29.23 28.83 29.18 29.32 29.16 29.83 30.99 31.11 29.95 29.73 29.58 29.65 30.62 29.90 29.82 30.38 30.50 30.87 31.10 32.37 32.56 32.93 35.51
29.21 34.87 34.06 33.34 34.77 36.95 34.86 33.98 34.08 32.23 31.49 31.87 30.89 30.62 30.59 29.10 29.69 29.64 29.14 29.72 28.87 28.75 28.23 28.27 28.74 28.86 29.67 30.70 30.49 29.72 29.46 29.80 30.13 30.35 29.85 29.83 29.58 30.17 34.74 35.38 35.88 35.70 35.67 35.49
34.44 34.55 34.02 34.37 35.12 35.23 34.53 34.03 33.06 31.27 30.96 29.90 30.64 29.71 29.16 28.33 28.75 31.40 29.19 28.48 27.88 27.61 27.79 27.34 27.77 28.52 29.79 30.61 30.82 30.24 28.68 29.35 29.75 30.96 29.09 28.20 28.27 27.59 27.60 31.08 34.56 34.74 34.80 35.23
34.24 34.28 31.89 33.20 32.27 33.62 33.34 33.15 33.19 30.63 30.29 29.69 29.02 29.01 28.57 27.65 28.23 27.52 26.96 27.74 27.86 27.32 27.01 27.48 28.16 28.40 30.29 30.56 30.34 29.35 28.88 33.02 29.54 27.94 27.77 29.67 29.14 28.74 29.17 28.99 28.35 28.90 32.35 33.69
33.70 33.07 32.32 33.64 33.75 32.75 31.74 30.56 27.37 27.01 27.50 27.76 28.51 27.44 27.21 26.15 25.74 26.12 27.19 27.58 27.58 26.96 27.13 27.19 27.52 28.17 29.94 30.23 29.70 28.49 28.33 27.92 28.60 31.21 30.99 30.48 29.68 28.11 29.48 29.60 28.53 28.35 29.04 31.07
32.76 30.89 30.72 30.09 30.32 29.73 27.83 26.28 24.88 25.54 26.63 26.58 26.14 26.10 26.45 26.08 25.67 25.92 26.28 26.53 25.24 25.35 26.64 27.26 27.37 28.53 29.55 29.51 29.04 28.99 28.49 32.19 32.82 31.32 30.20 29.27 28.74 27.94 28.01 29.16 28.94 27.91 27.79 28.17
25.46 24.22 25.92 25.84 26.96 27.17 25.90 27.05 26.30 25.46 25.59 24.88 25.04 26.03 25.41 24.58 24.29 24.52 25.34 26.43 26.08 26.57 26.81 26.63 26.54 28.52 29.22 29.35 28.79 28.95 28.97 29.55 32.43 30.55 29.06 28.27 26.53 26.27 27.21 28.37 28.18 27.19 27.54 29.29
30.03 29.60 28.94 28.47 25.32 25.83 25.89 25.74 25.50 24.84 23.29 25.20 25.35 23.76 21.38 20.54 20.70 22.50 23.86 24.87 25.32 25.53 26.00 26.69 28.47 29.73 29.41 29.20 29.37 30.03 29.90 30.75 29.92 28.79 29.11 28.10 27.71 28.19 28.18 28.56 27.88 27.06 27.55 29.05
28.24 26.87 27.03 27.02 26.70 25.47 24.03 21.76 20.77 21.68 21.07 21.02 20.07 18.27 19.52 19.55 19.59 21.57 22.57 22.41 22.48 22.22 24.12 27.61 29.47 28.53 27.73 29.08 30.54 30.14 29.89 30.15 29.36 29.21 29.07 29.60 27.84 27.23 26.46 26.36 26.29 26.29 26.64 28.00
26.57 26.56 26.31 25.64 25.31 23.93 22.77 23.05 23.10 22.39 22.78 22.12 21.14 20.19 19.58 20.02 20.84 20.86 21.32 20.75 21.86 23.77 26.07 25.83 26.95 26.28 27.24 28.41 30.69 30.65 30.75 29.30 28.35 28.05 27.97 27.87 27.76 27.36 27.40 28.33 27.95 27.79 28.39 27.99
23.11 23.12 23.25 23.77 23.05 23.65 23.30 22.25 21.44 20.16 20.50 20.66 19.95 19.34 19.32 19.95 20.36 20.32 19.39 19.58 22.43 24.63 26.70 26.83 25.80 26.42 26.59 28.33 29.48 28.88 28.36 28.19 27.56 27.40 27.69 28.29 27.19 25.83 25.71 26.62 26.29 26.39 26.74 27.37
21.54 18.80 16.97 18.72 20.88 21.19 21.34 21.39 20.25 19.74 19.23 19.59 19.78 19.22 19.18 18.43 19.14 19.36 21.12 20.26 23.17 27.18 25.86 25.44 25.60 27.08 28.10 30.14 28.51 27.58 26.48 26.27 27.05 28.30 26.25 25.24 24.53 24.48 24.79 25.11 25.83 26.77 27.37 27.77
21.54 21.61 19.55 18.70 18.41 16.98 18.11 19.97 18.80 18.85 18.43 16.62 16.67 17.70 17.08 18.13 18.62 17.80 17.71 21.92 24.13 24.97 24.96 25.01 26.74 28.53 30.14 28.73 27.64 27.70 27.89 27.56 26.62 26.09 25.62 23.84 24.38 25.35 25.18 25.08 25.78 26.49 26.67 27.31
21.14 20.90 19.11 17.92 15.05 14.80 14.75 16.63 16.50 18.89 17.36 17.70 18.05 17.56 16.16 16.41 18.85 17.97 20.95 24.27 25.01 24.90 24.34 24.50 26.23 28.72 29.84 26.53 26.75 26.71 26.19 25.80 25.73 24.97 25.41 26.87 25.24 24.14 24.06 24.39 25.03 26.41 27.07 28.09
20.11 17.40 15.59 14.48 15.72 16.98 16.79 17.64 16.07 15.67 16.01 17.26 17.41 17.75 17.71 18.82 16.81 19.59 21.25 22.07 24.35 24.14 23.53 25.40 27.24 27.96 26.55 26.53 26.00 25.69 25.59 25.32 25.44 25.45 23.50 23.69 22.97 22.76 23.14 23.74 24.01 24.76 26.54 26.79
19.75 20.37 19.71 18.21 17.12 16.74 17.08 17.11 16.21 16.49 16.39 16.04 17.12 18.10 19.72 18.88 18.91 19.47 19.22 22.17 22.29 23.52 21.59 22.33 23.11 25.28 26.77 25.73 25.71 24.77 24.32 23.54 23.05 22.62 22.98 22.08 22.13 21.16 21.74 22.09 22.63 23.89 24.79 25.87
17.26 21.23 17.59 17.23 18.07 17.49 17.47 17.33 16.01 14.52 16.80 16.16 15.93 18.51 18.78 18.94 18.55 19.95 21.16 19.34 20.42 19.73 20.38 21.22 22.70 24.25 26.93 25.74 24.52 24.03 23.63 23.09 22.98 22.36 20.43 20.01 20.03 20.01 20.12 20.23 21.60 23.51 24.19 24.66

GFSNGP_sfc_wetblb_093.txt.gz
Wetbulb
31.23 33.44 33.38 32.11 31.67 33.53 30.64 30.39 25.64 29.45 30.19 32.95 34.68 34.29 34.38 35.34 36.51 36.90 36.86 37.07 36.92 36.43 36.33 36.37 37.37 38.41 39.26 39.37 39.82 40.30 40.34 40.79 41.33 42.17 42.78 43.08 43.29 43.80 44.61 45.29 46.60 46.93 46.95 47.93
25.54 32.84 32.48 28.61 30.84 32.70 33.73 33.71 32.53 32.28 31.45 36.64 36.34 35.74 35.04 35.11 36.34 35.91 36.27 36.82 36.83 36.88 36.64 36.30 36.22 37.24 38.18 38.17 38.61 39.60 39.25 39.57 40.69 41.10 41.47 41.49 41.97 42.41 42.88 43.43 44.07 45.19 45.36 45.38
23.31 30.65 29.14 24.79 27.98 30.15 32.44 33.95 33.12 29.55 32.60 36.68 36.59 37.83 35.96 35.51 36.34 35.79 36.14 36.28 35.65 34.91 35.31 35.56 35.84 37.51 36.33 36.73 38.08 38.31 37.90 38.88 39.09 39.30 39.21 39.72 40.71 41.05 41.03 41.14 41.83 42.20 43.10 43.82
20.32 25.62 17.60 28.98 33.06 33.87 32.24 34.83 35.03 35.15 35.57 36.13 36.33 35.24 34.93 35.15 34.95 35.13 35.69 35.45 35.36 35.00 35.27 35.51 36.02 36.64 35.75 36.34 36.50 35.73 36.37 36.11 36.99 37.49 37.54 38.19 38.59 38.90 39.14 41.22 41.52 42.02 42.26 44.23
20.76 19.13 26.15 28.77 31.95 31.61 30.15 30.27 34.34 34.40 35.67 35.41 35.56 34.00 32.52 35.54 35.46 33.96 34.21 34.77 35.25 34.86 35.05 34.55 34.04 34.34 33.49 33.67 34.19 33.93 34.92 34.45 35.23 35.53 35.54 36.40 36.64 36.82 38.06 39.93 40.78 41.57 42.72 43.26
25.36 20.99 19.67 28.71 33.04 35.74 34.36 25.56 34.10 35.65 35.35 34.91 34.63 29.45 31.05 34.57 35.55 34.64 34.47 34.95 34.46 33.75 33.62 32.30 31.95 32.43 31.99 31.91 32.43 32.17 33.98 34.16 34.76 34.79 34.41 34.50 34.20 34.76 35.90 37.30 39.23 40.93 41.57 42.54
25.02 21.43 26.61 32.47 34.89 35.61 23.15 25.76 34.56 34.80 34.81 35.03 32.83 32.77 34.15 35.50 34.98 34.94 34.21 33.72 34.43 32.88 31.77 32.00 32.73 32.95 31.77 30.86 30.04 32.24 33.56 33.38 33.46 33.43 32.44 32.79 32.93 32.63 33.52 33.80 36.12 36.31 38.29 39.54
24.23 20.87 18.11 34.61 33.34 29.28 31.91 33.01 35.11 34.55 34.02 33.27 33.57 34.10 34.33 34.40 33.63 33.16 32.44 32.79 32.85 30.78 30.85 31.84 32.41 31.79 31.18 29.91 32.14 32.42 31.96 31.66 31.11 30.61 31.43 33.04 30.42 30.78 30.64 31.51 32.49 32.62 35.36 36.58
27.17 26.92 33.20 34.55 34.38 34.40 34.92 34.33 34.08 34.41 34.00 34.94 34.16 33.67 33.97 32.83 31.63 30.94 30.63 30.56 30.93 29.67 29.58 29.56 29.65 29.45 28.11 28.79 29.64 30.09 29.63 29.52 29.34 29.74 29.94 30.17 28.49 28.64 28.72 30.64 30.60 30.97 31.85 33.30
29.87 30.13 32.63 34.26 34.85 35.13 34.92 34.50 34.53 34.50 34.37 34.10 32.34 31.43 30.30 31.11 30.33 29.72 29.80 29.58 29.95 29.07 27.91 27.38 28.02 28.52 27.87 28.22 29.36 28.99 27.95 27.92 28.34 27.89 28.81 28.91 29.58 29.81 28.40 28.68 28.73 29.84 29.84 29.53
29.28 31.98 32.34 34.21 33.91 34.89 34.47 34.57 34.05 34.00 33.49 32.40 31.18 29.79 28.97 28.80 28.87 28.83 28.87 29.19 29.11 27.66 26.85 26.93 27.40 27.14 27.37 28.15 28.15 27.47 27.39 27.93 28.12 28.82 27.99 27.94 28.50 28.61 29.07 29.47 30.11 31.05 31.61 31.54
28.56 33.27 33.00 32.42 34.16 35.17 33.53 33.25 33.67 32.44 30.82 30.76 30.10 29.15 28.60 27.70 27.81 27.63 27.32 27.90 27.24 27.20 26.34 26.56 26.78 26.81 27.34 28.06 27.70 26.92 27.28 27.86 28.61 28.49 28.59 28.29 27.78 27.81 32.30 33.69 34.82 35.30 35.48 33.65
33.23 33.38 33.05 33.42 34.55 34.83 33.93 33.24 32.40 31.55 30.29 28.20 28.18 27.84 26.24 26.41 26.81 30.21 27.10 26.57 26.03 25.77 25.59 25.29 25.71 26.23 27.40 28.21 28.27 27.53 26.57 27.52 28.43 30.42 28.43 27.44 26.38 25.24 25.24 28.64 32.84 33.54 34.29 33.89
33.01 33.22 30.51 32.35 31.73 33.19 32.76 32.32 33.66 30.04 28.55 27.94 27.08 27.42 26.38 25.71 26.09 25.56 25.15 25.94 25.71 25.35 25.35 25.46 26.12 26.06 27.48 28.75 28.01 27.01 26.98 30.71 28.88 27.70 27.32 26.75 26.31 26.50 27.84 26.48 25.79 27.33 31.37 32.42
31.97 31.25 32.69 32.68 32.04 31.35 30.58 29.72 27.18 25.95 26.02 26.10 25.89 24.67 24.43 23.48 23.11 23.38 24.90 25.23 25.22 24.88 24.97 25.23 25.90 26.47 28.26 28.38 27.64 26.95 26.88 27.33 27.51 26.93 28.04 31.14 30.26 29.08 28.69 26.95 26.98 27.67 28.46 29.43
29.90 30.09 30.30 30.40 30.31 29.03 27.14 26.11 24.54 24.50 25.11 25.00 23.98 24.03 24.12 23.75 23.38 23.64 24.18 24.18 23.45 23.47 24.91 25.31 25.54 26.85 27.85 28.96 28.44 27.70 27.63 30.12 30.74 29.43 29.51 29.85 29.08 28.11 27.61 26.00 25.74 27.00 27.79 28.15
24.47 24.37 25.38 23.88 26.12 26.02 25.44 25.27 24.70 24.61 24.48 23.59 23.97 24.14 23.35 22.75 22.37 22.16 22.66 23.63 23.64 23.66 24.33 24.94 25.26 27.43 28.58 28.44 26.87 26.65 26.75 27.81 30.84 30.31 30.84 29.40 28.72 27.72 27.34 26.65 25.72 26.81 27.74 28.54
28.86 27.96 27.93 27.28 25.13 24.87 25.01 24.89 24.53 23.90 22.79 23.78 23.59 22.41 19.49 17.61 16.60 18.72 20.19 21.20 21.55 22.24 23.68 24.50 25.99 27.43 27.13 26.92 27.01 27.84 28.38 28.23 28.23 28.41 29.67 29.41 28.38 28.38 27.87 27.52 27.73 27.17 27.03 27.33
27.74 26.39 26.05 26.06 25.82 24.84 23.52 21.91 21.36 21.37 20.76 20.57 19.98 18.93 17.08 15.52 16.73 17.75 19.54 19.12 19.40 18.65 21.29 24.13 27.59 26.26 24.95 26.45 27.78 27.43 28.02 28.02 27.93 29.24 29.16 29.12 28.21 28.04 27.71 26.91 25.72 25.74 25.96 26.46
25.81 26.03 25.54 24.42 24.54 23.33 22.04 22.37 21.99 21.33 21.14 20.87 20.07 19.67 18.21 17.98 19.22 18.87 19.23 18.00 18.97 19.98 23.72 24.77 25.45 24.22 24.70 25.11 28.16 27.21 26.85 26.00 25.71 26.33 27.26 27.41 27.30 27.07 27.72 28.55 27.56 27.05 27.39 28.14
22.47 23.14 23.92 24.01 23.29 23.61 22.75 21.68 20.58 19.44 20.68 21.03 19.79 18.97 18.38 18.69 18.03 18.28 17.10 17.80 20.79 22.40 25.40 25.44 24.29 24.19 24.90 27.45 29.27 27.88 26.48 25.89 25.54 25.67 26.12 26.87 27.74 26.66 25.78 25.12 24.97 25.35 25.58 26.39
19.99 19.50 19.53 20.22 21.59 21.31 21.32 21.12 20.15 19.91 19.79 19.90 19.34 18.78 18.49 17.17 17.58 17.43 19.65 18.68 21.20 26.01 24.89 24.23 24.30 26.13 27.45 30.41 27.73 26.31 25.92 26.47 26.41 26.77 26.43 25.79 25.18 24.32 23.62 24.00 24.37 25.05 25.62 25.66
21.24 21.06 20.73 20.41 20.31 19.20 18.87 19.74 19.19 19.27 19.11 18.10 17.44 17.57 16.78 16.95 16.97 16.15 16.98 20.26 23.06 24.47 24.68 23.90 26.08 27.87 29.16 26.85 25.54 25.46 25.68 25.05 25.06 25.30 25.26 24.88 24.85 24.64 24.28 23.08 23.21 24.09 24.04 24.93
21.84 21.31 19.61 19.73 18.15 18.10 16.73 17.17 17.25 19.13 18.41 18.65 18.35 17.89 15.26 13.43 16.53 16.04 18.18 22.52 24.14 25.08 23.86 23.91 25.60 27.68 28.88 25.25 25.07 24.88 24.43 23.91 23.44 23.96 24.40 24.38 22.85 23.83 22.11 22.59 22.49 23.51 23.48 24.41
20.92 18.40 18.10 17.87 18.52 18.68 18.05 18.26 16.81 16.55 16.89 17.55 17.57 17.63 16.22 17.01 14.89 17.70 16.33 18.77 22.55 22.73 21.16 22.86 25.39 25.78 23.17 24.36 25.02 24.24 23.65 23.34 23.26 22.85 21.83 21.51 20.72 20.85 20.73 21.29 21.15 21.70 23.30 23.15
19.52 20.00 20.61 20.18 19.31 18.58 18.45 18.17 17.41 17.59 17.79 16.31 17.04 17.51 17.06 18.21 17.38 17.62 16.74 20.42 18.69 21.88 18.46 18.79 19.74 21.90 22.39 23.57 25.11 24.01 23.49 23.13 22.43 21.70 21.47 19.80 19.62 19.26 19.44 19.42 19.48 20.25 21.91 23.26
19.24 22.12 18.92 18.57 18.83 18.48 18.12 18.12 17.48 16.30 17.30 16.47 16.06 17.60 17.82 17.22 16.30 18.32 19.40 17.08 18.50 18.01 17.28 17.58 18.36 20.15 21.94 24.59 23.32 23.28 22.84 22.72 22.88 22.19 20.48 19.41 18.79 18.32 18.13 18.19 19.06 21.14 22.59 22.51

GFSNGP_sfc_wetblb_096.txt.gz
Wetbulb
29.54 31.60 31.80 30.60 29.47 31.36 29.31 28.57 24.34 28.54 28.97 32.15 33.54 33.19 33.70 34.24 34.97 35.58 35.05 35.29 35.20 34.92 34.60 34.82 35.50 36.74 37.55 37.45 38.19 39.00 38.89 38.89 39.06 39.73 40.29 40.76 41.30 41.88 42.54 42.75 43.06 43.97 44.75 45.36
24.27 31.41 30.72 29.69 29.82 30.94 31.89 32.15 30.95 30.73 29.36 34.87 34.32 33.09 32.88 33.53 34.69 34.62 34.86 35.22 35.20 35.28 35.13 34.75 34.73 35.94 35.82 35.78 36.82 37.62 37.18 37.42 37.98 38.27 38.73 38.75 39.16 39.77 40.31 40.60 40.93 41.63 42.02 42.91
21.04 28.02 28.71 24.77 27.78 28.72 30.87 32.39 31.69 28.31 31.91 34.67 33.53 35.02 34.41 33.81 34.96 34.63 34.59 34.68 34.08 33.57 34.01 33.82 34.01 36.02 34.27 34.58 36.20 34.98 35.80 35.81 35.88 36.20 36.16 36.68 37.66 38.13 38.12 37.99 38.66 38.78 39.88 41.05
20.43 24.17 15.54 28.16 31.81 32.64 30.91 33.23 33.52 33.86 34.27 34.99 35.40 33.36 33.31 34.39 34.11 34.34 34.48 34.23 34.02 33.78 33.99 34.08 33.78 34.42 33.86 34.08 33.76 33.66 33.48 34.33 34.36 34.53 34.33 34.77 35.26 34.95 35.40 36.80 37.55 38.48 38.93 40.11
19.73 18.35 25.17 27.46 31.01 31.16 29.96 30.35 33.68 33.81 34.21 34.07 33.79 32.61 30.93 34.20 34.71 34.06 33.79 33.99 34.20 33.69 33.50 32.85 32.16 32.99 32.11 32.06 32.00 32.02 31.89 32.99 33.11 33.20 32.70 32.71 32.86 33.00 33.61 34.48 35.16 36.64 38.32 38.68
23.76 19.89 18.65 27.24 31.92 34.77 32.88 24.13 33.81 34.78 34.74 33.98 33.62 29.32 31.77 34.50 34.92 34.24 33.87 34.15 33.41 32.71 32.37 31.22 31.03 31.71 31.08 30.96 30.67 30.43 31.34 32.22 33.01 32.67 32.11 31.29 31.35 31.79 32.62 32.72 33.85 35.40 36.71 36.27
24.38 21.45 25.88 31.24 33.79 34.32 22.11 24.38 34.18 34.97 34.87 34.06 32.10 33.27 34.05 34.51 34.05 34.24 33.33 32.59 32.91 31.19 30.31 30.29 30.45 30.47 29.81 29.75 28.89 30.90 31.76 31.95 31.62 31.57 30.46 30.09 29.90 30.72 30.18 30.53 31.12 31.06 32.68 33.00
23.29 20.67 18.07 33.34 32.58 27.93 30.35 31.97 34.38 33.97 34.00 33.68 33.38 33.06 33.27 33.09 32.46 32.27 31.58 31.77 31.74 30.01 29.75 30.06 30.17 29.08 28.55 28.20 30.07 29.79 29.98 29.82 29.25 29.18 30.02 30.87 28.28 27.97 28.13 27.85 28.51 28.92 29.47 30.60
26.26 25.79 31.55 33.43 32.67 33.52 33.59 33.29 33.45 33.56 33.44 34.02 33.09 32.47 33.02 32.58 30.39 30.14 29.64 29.62 29.66 28.60 28.48 28.52 28.25 27.50 26.55 27.61 27.95 27.61 27.10 27.54 28.81 29.55 29.34 28.08 26.74 26.76 26.88 27.54 27.87 28.10 28.96 28.99
29.12 28.38 30.91 33.55 33.67 34.17 34.23 33.93 34.01 33.82 33.69 33.72 32.34 31.83 30.13 30.07 29.30 28.61 28.40 28.22 28.51 27.80 26.66 25.92 26.26 26.34 26.13 26.51 26.84 26.14 25.16 25.74 26.94 26.90 28.24 28.16 27.98 28.18 27.45 26.87 26.55 28.42 28.46 28.16
27.94 30.85 31.43 33.13 33.39 34.37 34.08 34.11 33.54 33.48 33.02 32.11 31.27 29.16 28.01 28.03 27.73 27.41 27.03 27.51 27.53 26.41 25.99 25.72 25.97 25.73 25.88 26.36 25.98 24.83 24.91 25.59 26.06 27.19 27.03 27.20 27.30 27.42 28.27 28.04 28.56 28.67 29.73 30.16
29.96 32.46 32.08 31.57 32.84 34.40 33.16 32.91 33.20 31.99 30.74 30.66 30.12 29.05 28.17 26.90 26.72 26.45 25.98 26.54 25.65 25.81 25.34 25.01 25.34 25.44 26.12 26.75 26.12 25.07 25.58 26.24 26.49 27.35 27.48 28.01 27.85 27.49 31.88 33.11 33.58 33.93 34.12 33.14
34.00 32.64 33.13 32.70 33.45 33.36 33.27 32.86 32.29 31.19 30.49 28.98 27.94 27.48 26.07 26.00 26.13 28.62 25.10 24.53 23.96 24.08 24.22 23.89 24.01 24.18 25.64 26.44 26.65 25.67 24.76 25.77 26.40 27.74 27.20 27.24 27.53 25.66 24.79 28.18 32.11 32.65 32.94 33.79
32.95 32.60 29.68 31.57 31.90 33.40 32.81 32.06 33.41 29.30 28.13 27.48 26.83 25.65 24.84 24.26 24.67 23.77 23.66 24.50 24.36 23.81 23.51 23.61 23.75 23.96 25.75 26.54 26.06 25.57 25.64 29.25 26.90 26.42 26.40 27.44 27.88 26.46 26.65 27.39 26.56 26.53 30.46 31.70
31.85 31.85 32.61 32.24 31.16 30.10 29.79 29.12 26.61 25.42 25.28 25.25 25.16 24.24 24.37 23.26 23.34 23.63 24.00 25.01 24.78 23.91 23.42 23.74 23.60 24.13 26.17 26.39 26.94 26.69 26.21 26.16 26.64 27.09 27.54 28.71 29.18 29.35 28.60 28.39 27.71 26.94 26.56 28.95
30.08 30.59 30.97 30.59 29.52 28.67 27.27 25.72 24.21 24.09 24.74 24.24 23.83 24.06 24.05 23.89 23.42 23.19 23.26 23.41 21.84 21.07 22.51 22.60 23.67 24.67 26.09 27.21 26.40 25.25 25.37 28.20 29.07 28.07 27.92 28.35 28.59 29.06 28.95 28.00 26.95 26.12 25.36 26.23
25.58 25.40 26.06 25.91 27.76 26.04 25.20 24.97 24.78 25.23 24.37 23.52 23.63 24.09 23.04 22.43 21.69 20.58 20.53 21.22 21.91 21.58 22.45 23.41 23.67 25.46 27.14 26.12 24.85 25.38 25.83 26.40 29.49 27.12 26.72 27.11 27.92 28.10 28.50 26.83 26.71 26.44 26.66 28.48
30.54 29.71 28.97 28.43 26.28 24.31 24.49 25.00 24.68 24.32 23.60 24.10 23.47 21.56 19.16 17.98 16.51 18.64 19.79 20.47 20.64 20.52 21.96 22.96 24.07 26.69 25.33 25.01 25.27 26.26 25.21 25.97 26.50 25.88 26.14 27.55 27.99 28.26 27.37 27.27 27.11 26.79 26.99 27.80
28.95 27.89 27.21 27.26 25.90 25.20 24.17 23.06 22.95 22.82 22.67 22.16 20.85 18.48 18.04 17.14 17.59 18.17 19.42 18.77 18.67 17.47 19.30 21.38 26.32 25.03 23.73 24.90 26.59 25.45 24.82 26.00 25.64 24.95 25.10 26.88 26.19 26.42 26.37 26.61 26.74 26.97 26.86 26.20
26.04 26.01 25.64 24.54 25.08 23.81 22.51 22.63 22.33 21.66 21.04 21.17 20.72 19.67 18.40 18.29 18.96 18.58 18.59 17.72 18.47 18.47 21.09 23.48 24.80 23.33 23.52 23.86 27.44 28.00 27.21 25.76 25.57 25.38 25.67 26.34 26.55 26.37 26.97 27.67 27.06 25.93 24.90 25.19
24.21 24.68 24.29 24.20 23.11 23.61 23.24 22.33 21.48 20.12 21.09 21.36 20.10 18.88 18.36 18.76 17.86 18.15 17.06 17.44 20.13 21.12 24.70 24.94 23.64 23.24 23.69 26.92 29.24 24.38 23.63 24.21 24.48 24.40 24.40 24.94 25.39 24.77 25.14 24.74 24.63 24.46 24.53 24.91
21.66 21.08 20.85 22.04 21.89 21.20 21.28 21.19 21.05 20.58 20.33 20.15 19.49 18.96 18.53 17.41 18.02 17.46 19.49 18.46 20.34 25.23 24.35 23.86 22.81 25.41 27.44 29.83 23.66 23.21 23.72 23.93 23.39 23.36 23.35 24.07 24.00 23.88 24.12 24.18 23.93 23.22 23.18 23.28
21.87 21.56 21.25 21.08 20.92 19.82 19.50 19.80 19.60 20.08 19.40 18.71 18.21 18.49 17.96 17.53 17.59 15.98 16.54 19.77 21.77 22.74 23.98 21.54 25.08 27.05 28.34 24.66 22.98 23.32 22.77 22.46 22.02 21.99 22.57 22.69 22.51 21.63 21.96 22.57 22.28 22.48 21.78 22.53
21.14 21.54 20.55 19.59 17.26 17.55 18.13 19.23 18.71 19.87 18.94 19.27 18.78 19.20 17.55 15.18 16.46 17.53 18.76 21.61 23.10 23.48 22.64 21.98 23.76 26.41 27.45 21.89 22.00 22.93 22.11 21.61 21.90 21.57 21.96 23.25 21.01 20.01 20.00 20.12 19.74 20.25 20.07 20.96
20.04 19.67 19.11 17.48 17.47 18.54 19.41 19.34 18.10 17.00 17.30 17.91 18.45 18.59 17.68 18.56 17.28 17.38 16.34 17.72 21.34 21.28 19.86 21.51 23.34 23.91 20.69 20.75 20.93 22.96 22.20 21.97 22.40 22.65 20.83 19.98 18.60 18.38 18.40 18.71 18.90 19.18 20.52 20.71
20.52 20.20 19.61 18.80 19.32 19.80 19.59 18.40 17.83 18.45 17.81 16.68 17.43 18.21 18.37 19.05 18.71 17.42 16.54 19.36 17.18 19.77 17.29 17.00 16.71 18.08 18.80 19.77 22.32 21.90 21.73 21.52 21.23 21.03 21.33 19.16 18.39 17.90 18.00 17.99 18.15 18.57 19.22 20.67
16.20 22.47 18.70 18.17 19.36 19.09 18.98 18.17 17.04 17.30 18.49 17.20 16.27 17.79 18.27 18.02 16.89 17.72 18.63 15.96 15.67 16.11 15.49 15.58 15.51 16.61 17.74 18.73 19.72 21.01 20.99 20.32 20.85 20.87 19.78 18.93 18.40 17.96 18.22 18.47 18.94 19.77 20.71 21.40

GFSNGP_sfc_wetblb_099.txt.gz
Wetbulb
28.55 29.85 29.94 29.90 30.04 29.09 27.93 27.33 22.88 27.15 27.41 30.93 32.98 33.30 33.96 34.87 34.48 34.18 34.17 34.21 34.39 33.93 33.28 33.32 34.50 35.55 35.11 36.21 37.24 37.70 37.93 37.15 36.82 37.39 38.09 38.15 38.51 39.48 40.33 40.52 40.55 41.27 41.56 41.77
23.97 30.55 29.85 28.55 30.10 29.41 30.74 30.50 28.90 28.93 28.86 34.17 33.46 32.94 32.39 32.90 33.65 33.75 34.08 34.52 34.26 33.79 33.90 33.20 33.11 34.41 33.76 33.76 35.26 34.78 35.31 34.91 35.45 35.38 35.54 35.64 36.23 36.80 37.26 37.72 38.56 39.35 39.53 40.02
20.92 26.58 27.64 24.37 27.68 29.05 30.58 31.80 31.10 27.91 31.40 33.72 33.53 34.26 33.75 33.04 33.76 34.03 34.36 34.40 33.23 32.64 32.84 32.65 32.55 34.02 32.55 32.56 33.09 32.63 32.44 33.80 33.51 33.52 33.29 33.61 34.24 34.43 33.79 34.40 35.61 35.94 37.25 38.35
20.91 22.95 13.46 26.80 30.45 31.39 30.48 32.52 33.38 32.86 33.47 34.61 34.43 33.40 33.42 33.93 33.63 33.93 33.94 33.48 33.42 32.72 32.66 32.43 32.17 32.80 32.31 32.36 31.18 31.34 31.10 31.66 32.63 32.30 31.84 32.04 31.81 31.56 31.55 32.78 33.20 34.18 34.88 36.51
18.93 17.38 24.22 26.33 29.50 29.99 29.47 29.43 33.74 33.37 33.06 32.61 32.52 31.62 31.39 33.97 34.14 33.45 32.17 32.90 33.30 32.79 32.38 31.09 30.19 31.15 30.95 31.02 30.60 30.36 30.28 30.38 31.39 31.66 30.99 30.81 30.35 29.84 30.39 31.67 31.19 32.04 34.23 34.90
23.27 19.14 17.56 25.26 31.02 34.09 31.74 23.76 32.35 34.31 33.99 32.22 32.32 28.05 31.33 33.52 34.32 33.85 33.74 33.42 32.39 31.53 30.83 29.46 29.38 29.45 29.60 29.43 29.25 28.97 29.81 30.27 30.87 30.93 30.22 29.41 29.22 28.94 30.04 29.89 31.07 31.84 32.20 32.29
24.31 21.22 25.38 29.67 33.01 33.13 21.74 24.35 33.09 34.25 34.19 33.05 31.37 32.73 33.19 33.89 33.67 34.02 32.34 30.02 31.02 29.58 28.80 28.73 28.54 28.24 27.42 27.23 27.04 28.86 29.18 28.99 29.14 29.31 28.90 28.48 28.05 28.17 27.75 27.49 28.09 27.92 29.17 29.60
22.50 20.03 18.24 32.70 31.80 27.51 30.43 30.90 33.35 33.20 33.81 33.87 33.32 33.13 33.44 33.41 32.40 30.91 29.07 29.33 29.03 28.18 28.14 28.31 28.24 27.01 25.79 25.24 27.51 27.49 27.03 26.81 26.62 26.74 27.46 28.12 25.84 25.91 25.97 25.78 25.95 26.45 27.08 28.38
26.02 25.65 31.05 32.38 32.17 33.03 32.95 33.30 33.23 32.82 33.24 33.79 32.94 32.38 32.97 32.26 29.77 28.77 28.19 28.26 28.11 26.94 26.75 26.60 26.06 25.08 24.21 25.54 26.16 25.73 25.12 24.90 25.24 26.10 26.93 27.22 25.89 25.45 25.85 25.91 25.71 26.44 27.77 27.78
28.06 29.27 29.76 32.19 33.20 34.16 33.64 33.23 33.89 33.60 33.73 33.35 32.16 32.20 30.82 29.41 28.20 27.40 26.93 26.51 26.54 25.97 25.22 24.79 25.34 24.90 24.16 24.65 25.01 24.22 22.98 22.94 23.50 23.26 26.24 26.63 26.88 27.10 26.44 26.23 25.20 27.57 27.60 27.38
27.11 29.78 30.25 32.19 32.53 33.80 33.96 33.72 32.96 32.77 32.73 32.65 31.51 29.38 28.24 27.60 26.91 26.30 26.16 26.13 26.05 24.64 24.46 24.35 24.63 24.08 24.26 24.69 24.28 23.67 23.37 23.80 23.83 24.97 24.39 25.22 26.31 26.40 27.08 27.72 27.36 27.26 28.62 28.65
29.94 32.56 32.21 31.75 32.84 33.73 33.09 32.80 33.06 31.71 30.20 30.33 30.31 28.95 27.96 26.19 25.59 25.10 24.73 24.07 23.62 24.14 23.82 23.35 23.23 23.56 24.29 25.11 24.53 23.62 24.42 24.85 25.02 26.01 25.70 26.17 26.04 26.45 31.58 33.20 34.64 34.46 34.03 32.31
35.57 32.86 31.81 32.60 32.63 31.52 33.33 32.97 32.29 31.09 30.15 28.30 27.27 27.38 26.36 25.25 25.28 26.72 23.50 23.30 22.93 23.00 23.38 22.71 22.81 23.52 24.55 25.36 25.45 24.84 24.27 25.52 26.00 26.79 25.82 25.30 25.48 25.52 25.24 28.74 32.61 32.91 32.88 32.97
32.93 32.04 30.58 31.08 32.76 32.60 32.05 32.22 33.77 28.92 28.18 27.32 26.30 25.26 24.80 24.07 23.84 23.09 22.76 23.69 24.00 23.58 23.04 22.83 22.92 23.11 24.35 25.18 25.30 24.88 25.23 28.02 25.55 25.28 25.31 25.80 26.05 26.31 26.51 25.76 25.83 26.80 31.40 31.66
31.64 32.00 32.31 32.00 31.65 30.38 29.49 27.86 25.77 24.26 24.02 24.20 24.68 24.49 24.14 22.94 23.03 23.55 23.50 24.12 23.59 22.67 22.30 22.62 22.50 22.74 24.44 24.83 26.11 25.60 24.66 24.56 25.58 26.63 27.20 28.25 27.45 27.00 27.38 27.58 27.39 27.56 27.66 29.38
29.70 29.50 28.75 29.88 29.25 28.12 27.44 25.44 23.95 23.24 23.45 23.26 23.67 23.52 23.62 23.35 23.27 23.21 22.61 22.07 21.04 20.41 21.90 21.86 22.85 23.56 24.66 25.41 25.66 23.89 24.32 26.84 27.31 26.71 26.92 25.87 25.65 26.06 26.36 26.66 27.48 27.67 26.11 26.22
24.00 24.82 25.87 25.60 27.95 26.71 26.15 24.96 24.55 24.19 24.14 23.13 23.12 23.47 22.74 22.39 22.09 20.86 20.66 20.51 21.28 20.88 21.79 22.99 23.01 24.48 25.32 25.96 23.43 23.49 23.94 24.64 27.76 25.63 24.77 24.81 24.58 25.00 26.42 26.80 27.08 26.07 26.29 27.62
29.27 30.08 30.37 29.75 28.07 26.04 24.93 25.31 25.45 24.45 22.60 23.58 23.31 21.22 18.96 19.14 19.43 19.70 19.48 20.19 19.74 20.05 22.11 22.60 23.20 24.77 25.72 24.40 24.23 24.37 24.46 24.74 25.59 25.84 25.78 24.82 24.61 25.72 26.11 26.43 26.49 26.25 26.12 27.27
27.97 27.82 27.41 28.94 27.48 25.95 25.28 24.09 23.35 22.98 22.29 21.15 19.88 18.08 19.62 19.87 19.55 18.39 19.43 18.56 18.74 18.00 19.26 20.72 24.78 25.36 23.28 24.21 26.16 24.88 24.91 24.99 25.31 24.47 24.99 25.97 24.40 24.72 25.56 26.13 26.49 26.96 27.10 27.09
25.24 25.56 25.95 25.00 25.60 24.60 23.13 22.96 22.24 21.42 21.40 21.16 20.83 20.08 19.07 19.12 19.20 18.73 18.77 17.67 18.59 19.02 20.75 22.50 24.59 23.29 23.06 23.34 26.44 26.83 23.22 23.78 23.40 23.20 24.03 24.22 22.78 23.60 24.90 25.11 24.96 24.92 24.16 24.26
19.84 21.66 23.41 24.14 23.47 24.06 23.70 22.72 21.56 20.09 20.93 21.30 20.46 19.70 19.33 19.41 18.32 18.54 17.16 17.60 20.29 21.23 22.99 24.52 23.78 23.09 22.91 25.30 28.01 24.30 20.75 23.11 22.71 22.22 21.80 21.82 22.05 22.87 23.39 23.84 24.42 24.30 23.98 23.49
18.80 17.57 17.91 20.67 21.36 21.17 21.43 21.38 21.17 20.85 20.55 20.76 20.44 19.53 18.42 17.88 18.58 18.35 19.60 18.61 20.33 24.38 23.22 23.01 22.14 23.49 26.06 28.89 24.04 21.21 22.98 23.11 22.16 21.79 21.28 20.93 21.38 20.64 20.69 20.86 21.28 22.38 21.93 21.46
19.71 18.88 18.80 19.88 19.98 19.12 19.36 19.69 19.40 20.44 20.14 19.88 19.13 18.62 18.23 18.22 18.39 16.74 16.61 19.69 21.45 22.54 23.47 21.35 23.60 25.98 27.34 25.58 21.28 20.71 21.30 20.80 20.79 20.95 20.77 20.99 21.12 20.71 19.74 18.76 19.51 19.88 19.21 19.64
19.74 19.67 17.22 16.04 14.32 14.95 14.70 16.87 19.29 20.48 20.44 20.22 19.34 19.57 18.62 16.85 17.35 18.68 19.61 21.63 22.65 22.87 22.11 21.26 22.85 25.17 26.09 20.43 20.11 20.21 19.56 18.71 19.72 20.04 20.85 22.58 20.45 19.05 18.19 18.28 17.87 18.32 18.40 18.86
19.39 16.93 15.09 14.55 15.27 16.83 16.55 18.24 17.13 16.56 17.86 19.17 19.11 19.26 19.12 19.23 17.80 17.31 17.13 18.41 20.84 21.30 18.88 21.15 22.82 22.17 18.07 17.31 17.91 19.38 17.69 17.45 20.17 20.95 19.04 19.82 18.93 18.24 18.37 18.39 18.07 18.20 19.36 18.94
19.05 20.23 19.88 18.58 18.15 17.44 18.43 17.99 17.43 18.33 17.83 16.92 18.17 18.58 18.83 19.22 19.29 18.98 17.25 19.23 18.36 19.56 16.36 16.79 15.34 16.84 16.30 16.13 18.11 18.12 18.84 18.90 18.80 18.18 20.00 18.57 18.59 18.64 18.63 18.69 18.65 18.69 18.67 18.94
15.89 22.25 17.09 16.87 17.91 18.17 18.54 18.32 16.86 17.09 19.76 18.20 17.08 17.93 18.65 18.97 17.65 18.72 18.85 16.64 16.47 15.59 15.45 15.16 13.98 14.76 16.22 16.81 16.25 16.15 16.71 17.58 18.93 19.05 17.72 16.36 17.68 18.27 18.68 18.73 18.77 19.00 19.44 19.78

GFSNGP_sfc_wetblb_102.txt.gz
Wetbulb
28.01 29.15 29.12 29.18 29.27 29.05 27.23 26.68 23.47 25.32 27.11 30.66 32.61 33.69 34.37 34.99 34.06 33.09 32.99 33.29 33.46 33.12 32.62 32.71 33.52 34.13 34.53 34.46 35.11 35.65 35.98 35.28 33.74 35.06 35.29 35.08 35.24 35.53 35.90 36.21 36.84 38.02 38.50 38.88
22.90 29.54 28.69 27.93 29.01 28.92 28.35 30.26 28.73 28.34 28.39 33.14 31.72 31.57 32.12 32.80 32.71 32.92 33.27 33.79 33.54 32.78 32.10 31.99 31.74 32.80 32.48 31.82 32.13 32.20 31.88 32.76 33.60 33.47 33.29 32.39 33.07 33.65 33.45 33.77 34.16 35.02 34.98 36.24
21.10 25.50 26.34 23.58 26.21 28.18 29.59 30.68 30.44 27.23 30.77 32.79 32.15 33.34 33.34 32.54 32.81 33.18 33.63 34.08 33.29 31.87 32.32 31.77 31.35 32.46 31.10 30.86 30.81 30.54 30.10 30.90 31.43 31.45 31.19 31.12 31.25 30.96 30.48 30.77 32.32 32.17 32.89 34.10
20.46 22.90 12.95 25.79 29.26 30.36 30.08 31.06 32.39 31.63 33.03 34.16 33.89 33.52 33.80 33.66 32.99 33.12 34.17 33.63 32.93 32.25 31.95 31.41 30.97 31.18 30.95 30.95 29.66 29.76 29.49 29.51 30.33 30.60 30.28 30.54 30.22 29.56 28.99 29.72 30.33 30.34 31.11 32.54
18.10 16.34 24.06 25.36 27.77 29.04 28.36 28.51 31.97 32.58 32.51 32.13 31.91 30.71 31.76 34.28 34.11 33.92 33.53 33.13 32.81 32.20 31.29 29.53 28.73 29.20 29.70 29.64 29.28 29.10 28.90 28.56 29.04 29.23 28.84 28.87 28.33 28.17 28.37 29.03 28.76 28.94 30.66 31.04
22.14 18.26 16.51 23.23 29.45 32.81 31.04 22.88 30.03 33.99 33.37 31.79 31.44 28.19 31.32 33.20 33.79 33.27 33.28 32.86 31.71 30.41 29.77 28.62 28.21 28.45 28.26 27.73 27.46 27.14 27.64 27.88 28.35 28.38 27.62 26.60 26.29 26.09 26.72 27.81 28.26 29.00 29.14 29.63
23.59 20.55 24.77 29.05 32.02 32.97 20.64 23.61 31.11 33.47 33.72 31.89 30.87 32.69 33.18 33.33 32.92 33.06 32.35 30.33 30.42 28.50 27.96 27.71 27.42 26.92 25.99 25.97 24.99 27.06 27.75 27.05 26.63 26.31 25.26 25.57 25.28 25.81 25.48 26.43 26.97 25.80 27.08 27.45
21.82 20.02 17.90 31.66 30.66 27.31 30.30 29.41 32.62 32.72 33.16 33.06 32.64 32.22 31.94 32.58 32.12 30.89 29.60 28.83 27.92 26.98 26.60 26.80 26.34 24.84 24.05 23.10 24.95 25.31 25.03 25.43 24.82 24.44 25.37 26.65 23.57 23.54 23.83 23.59 23.76 24.81 25.27 26.41
25.41 25.09 30.54 31.33 32.32 32.88 31.98 32.84 32.66 32.74 33.84 34.42 33.44 32.04 32.49 31.47 29.49 28.16 27.26 27.11 26.69 25.74 25.15 24.88 24.46 23.52 22.30 22.94 23.62 23.65 23.13 22.89 23.07 23.91 24.81 25.04 23.57 24.07 24.32 24.57 23.74 24.52 26.63 26.44
27.27 28.60 29.30 30.63 32.03 32.54 33.25 32.61 32.73 33.28 33.69 33.24 32.19 31.86 31.23 29.29 27.73 26.82 26.26 25.60 25.47 24.30 22.99 22.32 22.50 22.73 22.27 23.14 23.64 23.41 22.28 22.06 22.69 22.34 24.28 24.03 24.75 25.59 24.66 24.45 24.13 26.18 26.89 26.87
25.87 30.23 30.02 32.67 31.78 32.91 33.13 33.18 33.23 32.42 32.76 32.90 32.06 30.53 29.17 28.06 26.78 26.22 26.29 25.91 24.90 23.59 23.73 22.90 23.26 23.42 23.87 24.57 24.04 23.39 22.85 23.19 23.20 24.28 23.02 23.87 24.99 24.73 26.19 26.42 26.73 28.40 28.98 29.44
28.58 33.27 31.19 32.50 31.88 32.64 31.79 32.84 32.94 32.46 30.18 29.40 30.53 29.27 28.10 26.50 26.05 25.53 25.08 24.48 24.19 24.65 24.66 24.48 24.42 24.16 24.16 24.52 24.19 22.99 23.96 24.62 24.48 25.26 24.50 24.94 24.76 25.08 29.87 31.16 32.75 33.33 33.82 32.96
33.31 30.91 31.66 32.94 32.57 33.12 32.74 32.50 32.71 31.93 30.79 29.27 28.06 28.09 26.16 24.82 25.12 27.91 23.66 23.09 22.93 23.35 23.91 23.05 22.67 23.09 23.99 24.32 24.71 24.42 23.71 24.52 25.13 25.48 24.67 24.31 25.00 25.14 24.53 27.95 31.53 32.07 32.69 33.45
32.32 29.59 29.68 30.70 32.01 32.85 32.53 32.46 34.55 29.89 28.74 27.88 26.18 25.43 24.61 23.90 23.74 22.38 21.82 22.66 23.53 22.95 22.52 22.25 21.71 21.76 23.35 23.83 24.87 24.48 24.23 26.46 24.07 23.85 24.46 25.70 25.90 26.67 25.77 24.80 24.89 26.25 30.62 31.77
30.50 30.54 31.43 30.81 30.38 30.14 29.13 28.22 26.83 26.00 24.46 23.72 24.02 23.82 23.61 22.46 21.91 22.39 22.71 23.38 23.08 21.95 21.88 21.19 20.67 21.50 23.75 23.68 25.10 24.51 23.64 23.18 24.77 25.97 25.38 26.49 25.95 24.93 24.94 24.72 25.18 26.34 27.16 29.43
29.41 28.57 29.10 28.92 29.90 28.42 27.66 26.38 25.60 23.87 23.96 23.62 23.40 23.18 22.96 22.74 22.34 22.46 21.73 21.25 20.28 20.11 21.49 20.63 21.90 23.23 24.05 24.11 25.08 23.23 22.38 25.91 26.84 25.97 25.71 24.88 24.96 24.50 23.86 24.55 25.19 25.71 26.92 26.74
22.62 24.46 26.12 25.22 27.36 26.62 26.62 25.15 25.93 24.75 23.91 23.37 23.54 23.93 23.29 22.38 21.72 20.54 20.15 20.83 21.47 20.93 20.82 22.19 22.52 24.17 24.76 26.03 23.46 22.95 22.78 23.83 27.29 24.29 24.46 25.33 25.27 24.08 23.98 24.35 24.92 25.41 26.21 27.61
27.62 28.88 29.10 28.88 26.45 26.44 25.74 25.63 24.85 24.22 23.16 23.93 23.77 22.47 20.19 19.51 19.17 19.70 20.45 20.59 20.05 19.63 21.82 23.01 23.19 24.64 26.09 24.86 24.06 24.11 24.54 24.14 24.48 24.22 24.91 24.87 24.54 25.28 24.36 23.68 24.19 25.05 26.17 27.68
27.80 28.50 28.83 29.19 28.26 26.69 24.63 22.63 21.95 21.81 21.49 21.37 20.51 19.81 20.14 19.89 19.61 19.93 20.13 18.33 17.52 17.23 19.00 20.68 24.25 25.78 24.24 24.51 25.80 25.08 23.52 23.90 24.09 23.01 24.17 24.98 23.66 23.54 22.29 23.07 24.14 23.73 24.49 24.79
26.26 26.06 25.93 24.39 25.34 24.39 23.07 22.71 21.70 20.58 20.76 20.54 20.03 19.31 18.46 19.15 20.40 19.20 18.25 16.62 18.03 19.08 20.52 21.59 24.15 24.09 23.96 23.28 26.22 24.73 25.60 23.23 23.17 22.84 23.14 23.38 22.03 21.33 22.14 22.55 22.26 22.18 22.78 23.50
20.12 21.07 23.01 24.20 23.72 23.59 23.09 21.46 20.29 19.36 20.02 20.28 19.37 18.93 19.50 19.96 19.11 18.93 16.80 17.55 20.61 21.58 22.07 24.76 23.00 23.62 23.00 24.69 26.70 24.00 21.21 22.36 23.01 22.74 21.77 21.31 20.91 20.79 21.00 20.57 20.54 20.42 20.83 21.45
18.26 17.23 16.22 18.57 20.59 20.82 20.85 20.22 19.77 19.34 18.86 19.17 19.56 19.80 19.30 18.44 18.32 18.08 19.42 18.95 21.07 24.08 23.60 22.57 23.39 24.00 25.11 27.89 23.84 20.63 19.28 19.94 21.06 21.39 20.63 20.73 20.67 20.53 20.31 19.73 18.77 18.59 19.29 19.33
20.34 19.54 18.81 18.69 19.15 17.33 17.05 18.67 18.32 18.61 18.41 17.43 18.06 18.56 18.39 18.23 19.22 17.49 16.70 19.92 21.03 22.49 23.19 22.65 23.82 26.05 26.83 22.11 19.79 18.68 18.93 19.05 19.60 19.63 19.75 20.06 20.86 20.53 19.92 18.40 18.36 18.69 17.59 17.83
21.38 20.71 19.64 17.37 14.05 12.61 14.16 14.83 14.56 17.62 16.80 17.88 17.36 17.97 16.32 15.36 17.53 18.64 19.39 22.49 23.20 22.27 22.41 21.95 23.24 25.32 25.57 16.62 16.11 15.34 16.56 17.98 18.71 18.22 19.34 21.77 19.12 20.06 18.50 18.28 18.04 18.37 17.76 17.69
21.50 20.24 17.52 15.93 16.97 18.34 16.99 15.32 13.36 13.16 14.52 16.41 16.62 16.91 16.26 16.68 16.71 16.50 16.40 18.61 21.22 21.25 19.72 21.60 22.98 22.43 17.60 15.14 13.47 13.84 16.26 16.94 17.64 20.02 18.12 17.55 18.41 17.90 18.02 18.34 18.27 18.39 19.70 19.07
20.35 21.42 21.28 20.12 20.67 19.45 17.85 17.09 16.69 16.25 16.17 15.84 17.04 17.58 17.63 17.48 17.44 19.97 17.30 19.13 18.30 19.32 17.30 17.47 16.54 16.96 15.23 13.97 14.78 15.51 14.59 15.78 16.25 16.74 18.67 17.65 17.16 16.94 17.98 18.29 18.58 18.86 18.88 18.99
17.52 23.68 18.43 17.83 18.73 18.16 17.86 17.64 15.79 16.03 19.34 17.29 16.69 17.59 18.35 17.98 18.07 19.15 19.93 17.43 16.47 16.42 16.70 16.30 15.03 14.68 15.11 14.31 14.60 14.09 14.49 15.13 16.82 17.29 17.82 15.71 15.84 16.56 17.53 18.00 18.99 19.90 20.82 21.23

GFSNGP_sfc_wetblb_105.txt.gz
Wetbulb
28.50 29.93 30.09 29.91 29.90 29.03 27.10 27.86 25.69 26.85 27.69 31.45 33.52 35.58 37.13 38.12 37.58 35.70 35.09 35.39 35.45 35.54 35.36 34.86 35.87 35.75 35.51 35.51 35.49 35.48 35.66 35.28 34.62 35.20 35.50 34.90 34.84 35.12 35.12 35.45 36.25 36.20 36.11 36.52
23.10 29.34 29.28 27.45 29.00 28.98 29.63 29.36 28.66 28.66 29.23 34.30 35.20 35.36 34.93 35.57 34.78 34.04 34.47 35.15 35.52 35.36 34.80 34.20 33.85 34.49 33.80 33.19 33.26 33.40 32.90 33.16 33.98 33.93 34.03 33.83 33.85 33.46 33.47 33.60 34.42 34.26 34.36 34.68
21.64 25.94 25.85 22.50 26.09 27.83 29.39 30.04 30.56 28.20 32.12 34.24 33.84 33.93 34.90 34.74 34.12 34.30 34.67 35.24 35.02 34.91 34.61 34.08 33.76 34.13 33.31 33.03 32.76 32.36 31.93 32.00 32.00 32.13 31.84 32.12 32.27 32.02 31.42 31.66 32.96 32.94 32.98 33.49
21.29 23.23 14.23 25.86 30.17 31.03 30.03 31.49 32.55 32.62 33.36 34.73 35.28 35.77 35.59 35.41 34.86 34.39 35.04 35.48 34.90 34.36 34.05 33.56 33.26 33.07 32.86 32.70 31.62 31.40 31.01 30.60 30.91 30.86 30.56 30.98 30.91 30.52 30.76 31.30 31.42 31.75 32.25 32.92
19.05 17.84 24.26 24.84 28.74 29.61 28.08 29.23 31.69 32.24 33.26 34.62 34.13 33.95 34.56 35.67 35.23 35.51 35.34 35.43 34.93 34.58 33.55 31.97 31.03 31.36 31.32 30.66 30.46 30.35 29.95 29.45 29.72 29.89 29.47 29.58 29.29 29.31 29.78 29.88 30.29 30.25 31.20 31.70
22.16 18.25 17.40 24.07 29.46 33.56 32.00 24.12 30.15 32.96 33.40 33.48 33.15 31.18 33.73 34.76 35.30 34.89 34.75 34.45 33.86 32.68 31.45 30.43 30.04 29.83 29.61 28.95 28.63 28.65 29.30 29.47 29.53 29.42 29.04 28.35 28.56 28.40 29.20 29.11 28.99 30.14 29.71 30.87
23.95 20.89 24.93 29.18 31.65 32.09 22.87 25.59 31.95 34.05 34.59 32.82 32.22 34.70 34.54 34.24 34.05 34.18 33.79 32.56 32.10 30.79 29.96 29.51 29.11 28.71 28.12 27.28 26.98 28.26 28.81 28.52 28.28 28.32 27.32 27.29 27.50 27.46 27.42 27.36 27.81 27.58 28.39 29.83
22.10 20.75 18.30 31.53 31.22 27.99 31.28 30.09 32.64 33.43 34.05 33.89 33.52 33.98 33.52 33.34 33.08 32.38 31.20 30.82 29.66 28.86 28.62 28.45 28.21 27.06 26.20 25.12 26.66 26.46 26.61 26.84 26.61 26.62 26.62 27.46 26.06 26.55 26.82 26.19 26.15 26.26 26.66 27.89
25.25 25.59 30.96 31.50 32.97 32.87 32.41 33.40 33.94 33.52 34.35 34.74 34.30 33.34 33.47 32.84 32.06 30.42 29.42 28.48 28.09 27.64 26.97 26.47 26.02 25.31 24.71 25.18 25.34 25.48 25.03 24.99 25.47 25.99 26.44 26.86 26.28 25.94 26.01 26.58 25.97 26.19 27.09 27.71
27.33 29.02 30.05 30.73 31.57 32.57 32.77 33.32 34.00 34.76 35.03 34.09 33.71 33.52 32.72 32.05 29.95 28.20 27.57 27.18 27.27 26.35 25.28 24.79 24.50 24.79 24.64 25.27 25.73 25.28 24.63 24.73 25.75 25.48 27.64 26.54 27.02 27.19 26.35 26.05 25.84 26.56 27.34 28.26
25.68 29.86 31.08 32.22 30.98 32.74 33.07 32.71 32.79 33.64 34.20 33.97 33.49 32.05 31.96 30.15 28.63 27.72 27.25 26.91 26.11 25.04 24.77 23.97 24.45 24.90 25.47 25.65 25.25 24.78 24.83 25.20 25.45 25.85 25.41 25.70 26.42 26.28 26.93 28.16 28.66 28.16 29.01 29.79
28.53 31.99 31.24 31.01 32.38 32.48 32.75 33.61 33.58 32.58 31.83 32.51 32.93 32.32 30.40 28.52 27.39 26.23 25.80 25.17 25.08 25.29 24.90 24.68 24.74 24.59 24.89 25.56 25.26 24.54 24.86 25.38 24.98 25.86 25.55 25.48 25.52 25.78 29.83 30.70 31.71 31.61 32.06 31.34
33.30 31.15 31.63 32.05 32.05 32.49 32.95 34.37 33.11 32.59 32.44 30.74 29.76 29.19 28.11 25.59 25.61 27.84 24.29 24.12 23.98 24.19 24.30 23.44 23.21 23.59 24.52 25.17 25.45 25.22 24.72 24.59 25.25 25.29 24.76 24.74 25.46 25.37 24.87 27.85 30.04 30.32 31.11 31.73
31.74 29.18 29.42 30.29 30.98 31.60 31.69 32.13 34.27 30.77 30.32 29.28 27.52 26.83 25.95 24.82 26.38 23.37 22.95 23.70 23.99 23.11 22.27 22.46 22.24 22.40 24.09 24.88 24.91 24.76 24.73 26.01 24.68 24.37 24.75 25.84 25.79 26.16 24.46 24.13 23.98 25.17 28.98 30.06
31.29 30.63 31.25 30.45 29.13 29.66 30.01 29.66 28.45 27.64 25.91 24.85 25.05 24.70 24.48 23.68 23.24 23.37 23.66 24.27 23.73 22.46 22.31 21.83 21.72 22.62 24.62 24.37 24.55 24.84 24.41 23.65 24.68 25.64 26.26 26.96 25.79 25.29 25.38 24.77 24.41 24.33 25.75 28.08
29.93 28.91 27.80 27.22 28.30 28.65 28.40 27.56 27.17 26.02 24.52 23.61 23.64 23.77 23.62 23.18 22.71 22.78 22.73 22.21 21.04 20.85 22.01 21.94 22.55 23.45 24.34 24.36 24.58 24.82 23.50 25.24 26.59 26.13 25.74 24.47 25.23 25.45 24.78 24.00 24.00 24.35 24.61 25.30
24.10 24.97 26.10 25.22 27.98 27.94 27.74 27.61 27.23 25.85 24.35 23.65 23.51 23.24 22.70 22.10 21.56 20.77 20.43 21.13 21.69 21.59 22.03 22.46 22.57 24.15 24.75 25.31 24.93 23.72 23.47 24.20 26.90 24.76 24.62 24.37 24.65 24.01 24.61 24.39 22.87 22.92 23.79 26.50
27.54 28.39 28.21 28.42 26.70 28.14 27.60 27.17 26.74 25.27 23.69 24.13 23.34 22.07 19.50 18.05 17.86 19.52 20.12 21.00 20.94 20.65 22.05 23.30 23.48 24.53 25.82 25.77 24.65 24.44 24.83 24.84 24.87 24.46 24.51 23.86 24.06 24.60 23.49 22.71 22.14 22.42 23.24 24.57
27.33 28.08 27.99 28.56 28.60 28.23 26.63 24.71 23.88 22.53 21.87 21.50 20.06 18.29 17.13 15.95 16.68 18.53 20.06 19.12 18.67 18.24 19.62 21.46 24.33 25.22 24.73 25.08 25.81 24.98 24.39 24.21 24.12 23.65 24.05 24.65 23.40 23.43 21.97 21.83 22.00 21.99 22.09 21.88
27.34 26.92 27.10 26.67 27.77 26.90 24.90 23.95 22.84 21.31 21.04 20.77 19.45 18.19 17.44 17.89 19.38 19.44 18.91 17.45 18.60 19.89 21.36 22.06 24.29 24.32 23.91 23.94 25.79 25.22 26.06 23.21 22.46 22.89 23.37 23.43 21.62 21.36 21.88 22.12 22.07 21.63 21.20 21.02
24.38 22.94 23.99 25.62 25.74 25.51 24.98 23.01 21.76 20.48 20.57 20.10 18.96 18.37 18.49 19.00 18.82 18.47 16.41 17.12 20.17 21.58 22.14 24.59 23.48 23.31 23.92 24.76 26.35 24.94 22.08 20.35 20.17 21.41 20.86 20.55 20.34 20.16 20.90 21.15 21.18 20.79 20.34 20.02
19.81 19.42 20.09 20.85 22.69 22.73 22.42 21.63 21.03 20.35 19.44 18.95 18.86 18.86 18.48 17.55 17.55 16.75 18.34 17.94 19.85 23.94 23.60 22.96 23.07 24.26 25.21 27.60 22.93 20.69 19.35 19.38 19.39 19.35 19.45 19.41 19.43 19.38 19.98 20.03 19.93 19.98 19.75 19.86
21.86 20.71 20.17 20.25 20.96 20.36 19.64 20.17 19.68 19.47 18.52 16.79 17.28 18.01 17.49 17.51 17.38 16.19 16.12 18.91 21.00 22.15 23.40 22.97 24.14 25.82 26.74 21.54 19.21 17.78 16.99 16.90 17.56 18.01 18.50 18.66 19.40 19.35 18.85 19.39 19.98 20.42 19.34 19.11
21.94 21.88 19.19 18.43 16.39 16.20 17.01 17.93 17.37 18.38 17.56 17.58 17.06 17.57 16.02 14.44 14.73 16.08 18.64 22.18 24.06 22.92 21.87 22.46 23.03 25.21 25.64 18.41 16.80 15.39 14.99 15.47 16.44 16.68 17.33 20.94 17.61 17.97 18.49 18.70 18.98 19.75 19.78 19.45
22.91 20.81 17.97 17.23 17.77 20.05 19.65 18.76 16.80 15.20 16.09 16.77 16.50 17.07 16.37 16.45 16.04 14.36 14.82 18.24 21.58 21.57 19.64 21.74 23.10 22.54 18.46 16.69 14.79 14.25 14.67 15.24 15.38 17.96 16.52 15.89 16.84 17.13 17.61 18.09 18.71 19.90 21.63 21.84
23.21 23.52 22.83 21.50 22.19 21.39 20.32 18.56 18.48 17.92 17.22 16.20 16.64 17.61 17.23 17.47 16.96 17.95 16.39 19.10 17.42 18.82 17.61 17.28 17.04 17.42 16.71 15.11 15.51 16.34 15.02 14.14 15.13 14.81 17.00 16.33 16.92 16.38 17.00 17.67 18.46 19.42 20.44 21.37
23.56 26.40 20.34 19.51 20.42 20.08 19.52 19.47 18.16 17.80 19.97 17.60 16.33 16.88 17.68 17.45 16.56 17.14 19.97 17.05 15.40 14.47 15.94 16.65 16.07 15.50 15.88 15.43 15.70 14.38 14.27 14.25 15.94 16.60 16.43 14.76 15.10 15.58 16.97 17.73 18.40 19.46 20.69 22.12

GFSNGP_sfc_wetblb_108.txt.gz
Wetbulb
35.37 36.26 36.02 34.76 34.23 34.88 32.64 33.63 30.25 34.09 33.46 38.48 40.39 41.67 42.51 43.14 43.09 42.59 41.96 41.36 41.40 41.43 41.55 40.84 40.82 40.12 38.81 38.33 38.09 38.05 37.64 37.19 36.62 37.58 37.64 37.46 37.05 36.75 36.59 36.81 36.94 37.10 36.78 37.20
30.21 35.52 34.85 31.45 33.87 34.41 34.47 34.56 34.25 34.62 34.09 41.67 43.02 43.32 43.07 42.81 42.72 41.75 40.89 40.95 41.31 41.38 40.74 40.00 39.20 39.51 38.22 37.70 37.54 37.75 36.88 36.15 36.24 36.10 35.68 35.41 35.04 34.67 34.77 34.38 34.68 35.64 35.72 35.48
28.81 33.21 32.39 29.06 32.94 33.53 34.13 35.61 35.36 31.66 37.66 41.92 39.72 39.77 41.49 42.84 42.90 42.13 41.68 41.76 41.42 41.27 40.94 40.47 39.31 38.79 37.89 37.62 37.56 36.94 35.98 35.11 34.55 34.54 34.38 34.46 34.83 34.72 34.40 34.24 34.80 34.65 34.85 35.09
29.90 31.34 24.13 32.03 36.56 36.42 34.86 36.57 37.79 38.10 39.31 40.58 41.49 42.48 42.99 43.93 43.66 42.74 42.27 41.91 42.11 42.14 41.03 40.33 38.95 37.98 37.74 37.18 36.21 35.42 34.90 34.02 34.04 33.84 33.54 33.98 33.88 33.68 33.77 34.02 33.65 33.65 33.82 34.28
28.47 26.97 32.00 32.67 33.88 34.13 33.37 34.79 38.34 38.28 39.82 40.53 41.13 40.21 41.90 43.31 43.53 43.96 43.95 43.53 43.48 42.86 41.38 38.97 37.49 37.09 36.39 35.34 34.71 34.08 33.40 33.30 33.31 33.18 32.67 32.74 32.44 32.53 32.82 32.69 32.59 32.72 33.14 33.08
29.35 24.84 24.28 31.71 36.02 38.65 37.84 31.61 37.57 37.59 38.73 39.17 39.28 36.95 41.46 42.81 42.66 41.92 42.15 42.51 41.12 40.50 38.42 37.22 36.30 35.70 34.49 33.79 33.19 32.60 32.29 32.47 32.87 32.74 32.04 31.50 31.65 31.44 31.97 32.14 31.80 32.38 32.21 33.16
28.72 26.12 31.64 38.12 38.07 38.48 29.37 32.83 38.12 39.44 40.67 40.10 38.69 42.36 41.01 40.73 40.15 41.53 41.12 39.93 39.41 37.74 36.74 36.33 35.21 34.33 33.33 32.68 31.85 31.94 32.17 32.02 31.97 31.92 31.20 31.19 31.39 31.66 31.36 31.17 31.18 31.42 31.70 32.86
29.64 27.00 24.94 38.13 36.23 33.45 38.52 38.50 39.11 40.07 40.94 40.24 41.59 41.45 40.10 40.01 39.82 39.01 37.73 36.72 36.71 35.72 34.62 34.27 33.83 32.99 31.97 30.83 31.34 31.00 30.98 30.52 30.56 30.82 30.70 30.72 30.78 31.15 31.24 30.98 30.47 30.62 30.77 31.59
33.44 33.64 38.92 39.23 41.17 40.95 39.40 39.03 39.86 39.89 41.37 41.20 40.86 40.68 40.81 39.07 38.50 37.99 36.83 35.51 34.65 33.97 32.75 32.21 31.44 30.93 29.93 30.56 30.17 30.02 29.80 29.63 29.93 30.42 30.56 31.15 30.17 30.04 30.11 30.40 29.89 29.46 29.72 29.96
31.74 37.87 37.33 39.35 40.13 39.87 40.20 39.07 40.38 40.51 39.85 40.54 39.52 41.29 40.39 39.35 38.16 35.99 34.12 32.90 32.62 32.02 31.08 29.86 29.61 29.22 29.36 29.33 29.58 28.75 28.45 28.82 29.54 29.42 29.92 30.38 30.25 30.08 29.22 29.40 28.86 28.61 28.86 28.73
33.66 36.92 38.36 39.34 40.07 40.38 39.64 39.22 38.68 39.68 39.18 39.16 39.38 39.51 39.88 39.19 37.29 35.29 33.54 32.10 31.51 30.47 29.92 29.09 28.88 28.53 28.67 28.40 28.28 27.55 27.88 28.32 28.63 28.76 28.94 28.60 28.90 29.12 28.84 29.98 29.66 28.69 29.15 29.24
33.28 39.44 38.92 39.75 40.31 39.42 38.71 38.99 39.64 38.79 38.67 38.80 38.70 38.85 38.30 37.86 36.87 34.22 32.15 31.01 30.11 29.84 29.23 28.78 28.32 27.95 27.96 28.52 28.18 27.44 27.14 28.15 27.88 28.09 28.29 27.99 28.20 28.71 31.07 30.82 31.48 31.07 31.20 30.52
38.67 41.36 39.73 40.52 39.45 39.36 37.71 37.97 37.60 37.38 38.24 38.11 37.72 38.21 36.86 35.28 33.73 32.49 31.29 30.27 29.83 29.25 29.30 28.35 27.39 27.06 27.98 27.91 27.73 27.03 26.66 26.98 27.58 27.50 27.47 27.58 27.35 27.04 26.00 28.66 29.98 30.21 30.28 30.54
40.39 38.76 36.28 36.66 37.77 37.73 36.28 36.35 36.88 36.80 36.78 36.85 37.01 35.54 34.22 32.46 31.96 30.91 29.95 30.13 29.46 28.54 27.32 27.00 26.65 26.37 27.48 27.37 27.01 26.90 27.28 27.26 26.66 26.76 27.34 27.58 27.25 27.19 26.35 25.13 24.82 26.57 29.82 29.73
38.02 37.89 38.56 37.15 34.45 34.78 35.25 34.79 34.12 34.82 34.15 32.24 33.23 32.77 31.85 30.78 30.62 29.74 29.52 28.59 28.03 26.96 26.57 26.07 25.63 25.90 27.00 26.96 26.34 26.74 26.72 26.29 26.66 27.22 27.61 27.71 27.68 26.64 26.62 26.06 25.74 25.99 27.43 28.40
35.82 35.36 34.57 33.23 33.18 32.91 33.06 33.42 32.83 33.76 32.31 31.53 31.00 30.60 30.94 31.14 30.06 28.66 27.99 27.54 25.77 25.72 26.46 25.54 25.46 26.60 26.89 26.55 26.76 26.90 26.33 26.16 26.87 27.18 27.17 26.76 26.11 25.51 25.54 25.30 25.38 25.36 24.96 25.16
31.39 32.04 32.09 30.66 32.63 33.00 32.72 33.54 33.48 34.16 31.83 30.89 30.90 30.32 29.02 28.17 27.42 26.60 26.26 26.25 25.96 25.59 25.79 25.70 25.81 26.77 26.52 26.94 26.65 26.01 25.93 26.29 27.38 27.14 25.92 25.85 25.38 24.60 25.02 25.22 24.41 24.33 24.17 25.66
35.43 35.43 33.25 32.67 32.13 32.37 32.65 32.26 32.03 32.01 30.29 30.68 29.73 28.09 26.82 25.65 26.51 25.82 25.58 25.30 24.74 24.49 25.14 26.24 26.65 26.20 26.94 27.22 26.57 26.53 26.40 26.30 26.24 25.46 25.79 25.03 24.78 25.54 24.77 24.14 23.66 23.41 23.84 24.65
31.65 31.79 32.73 32.34 32.23 32.17 32.22 31.64 30.96 30.48 28.75 28.17 26.98 26.20 26.35 25.71 24.88 24.74 24.68 23.47 23.06 23.07 25.32 25.62 24.87 26.29 26.51 26.58 26.53 26.88 26.45 26.04 25.75 25.24 25.13 25.87 24.86 24.63 23.66 23.32 23.14 23.13 23.47 23.40
31.31 31.66 31.92 31.30 31.48 31.31 31.21 30.69 30.16 28.25 28.03 27.28 26.94 25.27 23.87 23.71 24.30 23.90 23.68 22.89 24.62 25.82 25.45 25.05 25.30 26.21 25.85 25.74 26.27 27.25 26.57 25.38 24.13 23.65 23.82 24.09 23.55 22.74 22.75 23.20 23.20 22.93 23.17 22.84
29.55 29.93 29.75 29.78 30.00 30.20 30.03 29.76 28.07 27.06 26.23 26.51 25.24 25.17 24.89 24.67 24.27 23.86 22.01 22.17 24.75 25.13 25.52 24.77 25.67 25.51 25.67 25.91 27.14 27.04 25.03 23.07 22.13 22.22 22.27 22.00 21.77 21.75 21.84 22.24 22.41 22.33 22.31 22.21
29.44 27.42 26.56 27.66 28.01 28.85 28.26 27.60 27.08 26.40 25.13 24.55 24.24 24.12 23.16 22.81 22.89 22.74 23.89 24.18 25.36 25.45 25.64 25.47 25.53 25.10 26.23 27.76 26.05 24.02 22.42 21.11 20.84 21.30 21.20 21.39 20.91 20.69 20.95 21.62 21.22 22.19 22.59 23.03
29.05 28.19 27.79 26.64 27.00 27.97 26.77 25.97 25.47 25.29 24.37 23.89 23.28 22.93 23.05 24.19 24.19 22.50 21.69 24.42 24.70 24.72 25.44 25.63 24.98 25.61 26.33 25.81 23.66 21.70 20.19 19.40 19.58 19.98 20.45 20.60 20.43 20.87 20.76 20.72 21.62 22.25 22.47 22.67
29.37 28.22 27.68 26.75 24.08 24.05 24.05 24.76 24.29 23.87 24.25 23.83 23.25 23.29 23.49 22.22 22.55 23.93 25.13 25.07 24.94 25.21 25.13 24.81 24.79 25.00 25.59 23.61 21.32 19.74 18.82 19.11 19.25 19.45 19.67 21.17 20.77 20.48 20.61 20.95 20.99 21.31 22.18 22.55
29.21 29.09 26.83 24.32 23.58 25.09 25.67 25.84 23.23 22.58 22.17 22.13 22.59 22.44 22.53 23.77 24.42 24.89 23.52 23.29 24.38 24.66 23.96 23.08 23.27 23.29 22.30 20.97 19.87 18.92 18.81 19.29 19.03 19.78 20.68 19.65 19.74 19.93 20.41 20.87 21.01 21.61 23.30 23.25
28.33 27.83 27.43 26.41 27.05 27.33 25.81 24.17 23.61 23.03 22.49 21.62 22.09 22.29 22.49 22.61 22.47 23.05 21.93 22.65 22.25 22.93 22.86 22.19 21.16 20.99 20.86 19.86 19.29 19.36 19.32 18.68 18.54 18.36 19.25 19.61 19.59 19.50 19.73 20.23 20.80 21.56 22.18 22.90
29.63 30.34 26.71 25.48 25.29 25.75 25.28 24.46 23.24 23.23 24.31 23.25 23.23 22.53 22.39 21.87 21.77 22.59 22.49 21.73 22.48 21.79 21.09 20.60 20.48 19.70 19.41 19.45 19.31 18.96 18.41 18.37 18.47 18.78 19.58 19.56 18.71 18.83 19.31 20.10 21.02 21.37 22.41 23.41

GFSNGP_sfc_wetblb_111.txt.gz
Wetbulb
37.03 37.65 37.08 35.73 35.50 36.36 34.32 35.05 30.89 34.02 34.76 38.70 41.41 42.78 44.19 45.43 44.73 43.96 43.86 44.46 44.71 43.97 44.18 43.35 42.28 41.60 40.58 39.79 39.40 39.11 38.26 37.86 37.15 37.32 37.07 36.76 36.12 35.89 35.97 35.77 35.87 36.10 36.12 36.43
31.78 36.25 36.69 33.55 35.97 36.49 36.03 35.97 35.58 36.34 35.57 42.04 43.45 44.22 44.04 44.85 44.99 44.03 44.30 44.74 44.21 44.12 43.92 43.00 42.17 41.29 40.14 39.32 38.81 38.93 38.13 37.11 37.00 36.42 36.02 35.74 35.66 35.42 35.49 35.40 35.47 35.47 35.20 35.25
29.31 35.77 34.70 30.95 35.52 35.89 35.91 37.52 36.91 32.73 37.99 42.28 41.77 42.33 43.15 44.57 45.41 44.76 45.11 45.21 44.19 44.04 44.01 43.55 42.67 41.25 39.85 39.08 38.68 37.79 37.02 36.53 35.72 35.35 34.95 35.01 35.18 34.97 34.69 34.45 34.79 34.30 34.35 34.57
29.99 32.89 25.29 34.67 38.94 37.67 36.59 38.01 39.35 38.95 40.00 41.66 42.32 44.19 45.30 46.27 45.76 45.93 46.07 45.71 45.14 45.00 44.58 43.93 42.45 40.24 39.68 38.68 37.58 36.62 36.15 35.55 35.14 34.61 34.13 34.43 34.22 33.84 33.77 33.78 33.34 33.26 33.62 33.93
29.01 29.67 33.64 35.61 34.90 35.43 34.40 35.48 40.59 39.54 40.73 41.54 42.75 43.50 42.45 45.86 46.42 46.44 47.01 46.90 46.19 46.23 45.18 43.65 40.98 39.63 38.44 37.20 36.36 35.77 34.99 34.36 34.24 34.02 33.17 33.06 32.49 32.48 32.73 32.54 32.52 32.80 33.23 33.16
32.53 25.70 24.76 34.40 38.77 40.63 39.65 31.38 41.02 40.43 39.92 40.62 41.32 36.16 40.60 44.82 45.99 45.98 45.88 45.66 45.14 44.86 43.22 41.35 39.57 38.53 36.62 35.94 35.09 34.31 33.80 33.29 33.69 33.53 32.55 31.72 31.75 31.71 32.40 32.49 32.23 32.85 32.50 33.59
30.00 27.61 31.68 39.80 39.94 41.01 29.43 33.41 40.41 41.51 41.18 40.97 39.64 41.79 44.03 43.70 43.26 44.24 44.43 43.73 43.80 42.52 40.07 39.40 38.20 36.54 34.83 34.69 33.33 33.20 32.90 32.73 32.46 32.29 31.55 31.64 31.66 32.13 31.91 31.79 31.93 32.04 32.27 33.19
30.81 28.20 25.14 40.60 38.55 34.07 39.69 41.56 41.04 41.75 41.82 40.94 42.14 43.24 44.27 43.64 42.91 41.95 41.49 41.33 40.91 39.59 37.93 36.80 35.87 34.46 33.63 32.40 32.50 32.11 31.92 31.28 31.10 31.41 31.58 31.49 31.35 31.62 31.74 31.39 30.67 30.72 30.89 31.26
35.37 34.79 41.68 41.85 41.87 43.28 42.90 41.11 41.49 41.32 42.07 42.11 41.34 41.66 43.07 43.13 42.50 41.79 40.96 39.45 38.97 37.89 36.07 35.39 34.37 33.17 31.58 32.11 31.48 31.01 30.56 30.09 30.46 30.96 31.06 31.27 30.59 29.94 29.96 30.46 29.88 29.46 29.15 29.45
35.72 38.93 40.29 41.78 42.72 42.90 42.68 41.47 42.19 42.29 42.04 41.68 40.58 41.79 41.88 42.60 42.45 41.17 40.08 37.87 36.74 35.85 34.40 33.14 32.71 31.62 31.35 31.10 30.77 29.70 28.99 29.47 30.05 29.68 29.97 30.50 30.53 30.18 29.47 28.96 28.74 28.13 28.08 28.42
35.87 39.10 40.85 41.90 43.02 43.78 43.73 43.07 41.60 41.95 41.56 41.08 41.11 41.02 41.57 41.74 41.85 40.69 38.14 36.53 35.35 34.50 33.73 32.88 31.92 31.04 31.27 30.64 30.06 28.81 28.96 29.14 29.37 29.66 29.31 29.37 29.57 29.56 29.30 30.10 29.97 28.48 28.84 28.79
34.31 40.91 40.87 41.63 42.52 41.87 40.91 40.71 41.94 41.03 39.95 40.94 41.22 40.21 41.59 41.05 41.82 39.79 36.74 34.98 33.45 33.07 32.34 31.55 30.64 30.37 30.30 30.17 29.59 28.57 27.73 28.53 28.86 28.29 28.77 28.80 28.62 28.87 31.97 31.94 32.08 31.70 31.44 30.52
40.08 43.22 42.27 43.09 41.87 42.81 40.92 41.24 41.49 39.17 39.03 38.70 40.46 40.73 40.92 40.28 39.74 38.39 36.11 33.96 32.79 31.96 31.65 31.19 30.04 29.17 29.81 29.92 29.03 27.98 27.19 27.76 28.13 28.26 28.04 27.45 27.70 27.60 26.33 29.52 31.12 31.13 31.15 31.13
43.79 42.89 40.25 41.48 39.40 41.21 41.37 40.04 39.39 38.21 38.12 38.73 39.54 39.74 39.23 37.89 36.29 34.71 33.23 33.09 32.63 31.44 30.39 29.84 28.92 28.52 29.79 29.48 28.30 27.55 27.57 28.82 27.66 27.30 27.42 27.68 27.80 27.58 27.60 26.17 25.29 26.39 29.96 29.93
41.18 41.87 40.80 41.23 38.78 38.10 38.82 37.96 35.67 35.18 36.63 36.25 37.35 36.88 35.97 34.20 33.48 32.88 32.85 31.40 30.21 29.59 28.74 28.47 27.86 28.04 29.38 28.70 27.40 26.96 27.31 27.35 27.25 27.36 28.01 28.44 28.28 27.61 26.82 26.34 26.13 25.82 26.66 28.06
39.39 39.71 39.51 37.56 37.20 37.29 36.40 34.90 33.69 34.75 36.45 35.55 34.22 34.11 34.20 34.50 33.51 31.62 30.44 29.76 27.69 26.79 27.85 27.75 27.32 28.56 28.85 28.06 27.15 27.38 27.57 27.85 27.43 26.91 27.37 27.52 26.92 26.19 25.57 25.36 25.44 25.48 24.86 25.10
33.43 32.91 34.39 34.18 34.30 35.07 34.82 35.66 35.61 35.74 35.29 33.70 33.47 33.34 32.11 31.38 30.17 28.98 28.58 28.91 28.41 28.18 28.32 27.75 27.41 28.85 28.20 27.65 27.24 27.30 26.99 26.84 27.81 27.54 26.54 26.58 26.20 25.41 25.27 25.49 25.05 24.45 24.50 25.75
39.17 38.64 37.07 36.31 34.09 34.20 34.73 34.54 34.09 34.35 33.64 33.13 32.46 30.95 29.44 28.33 28.14 28.01 27.78 27.55 26.99 26.45 26.98 27.76 28.32 28.15 27.42 27.63 27.77 27.22 26.79 26.49 26.57 26.42 26.49 26.09 25.77 26.16 25.84 25.00 24.48 23.70 23.91 24.89
38.32 36.63 35.55 34.22 34.75 33.90 33.86 33.66 33.56 33.07 31.64 30.79 29.36 28.34 28.84 28.46 28.52 27.60 27.29 25.44 24.75 24.38 26.38 27.83 27.84 26.52 27.04 27.76 27.28 26.87 26.53 26.35 26.16 26.27 25.71 25.81 25.41 25.17 24.71 23.98 23.40 23.50 23.71 23.65
35.00 34.40 34.44 34.69 34.09 33.47 33.06 33.27 33.73 32.19 31.35 30.24 29.68 28.35 27.03 27.03 26.87 25.98 25.57 24.31 25.93 27.31 27.90 26.81 26.09 26.05 26.84 27.13 26.98 26.52 26.59 25.86 25.32 24.68 23.84 24.18 24.38 23.65 23.59 23.74 23.48 23.34 23.24 23.03
31.63 32.23 32.24 32.25 32.29 32.61 32.75 33.27 31.62 30.22 29.67 29.58 28.31 27.72 27.15 26.98 26.28 25.68 23.96 23.26 26.22 27.24 26.63 26.80 25.77 26.59 26.69 26.72 26.71 26.71 26.35 25.37 24.10 22.73 22.61 22.79 22.69 22.44 22.37 22.56 22.71 22.53 22.29 22.47
32.90 30.98 30.00 30.74 31.22 31.49 31.67 31.50 30.67 29.96 28.41 27.60 27.41 27.71 26.23 25.17 24.92 24.72 25.80 25.81 27.44 27.80 26.41 26.27 26.59 26.78 26.43 27.23 27.52 26.12 25.25 23.55 22.32 21.82 21.55 21.86 21.82 21.34 21.12 21.78 21.60 21.73 22.01 22.42
32.85 31.74 31.36 30.45 30.13 30.66 30.61 29.60 28.83 28.30 27.12 26.79 25.99 25.70 25.17 25.59 25.50 23.69 22.26 25.35 26.23 26.74 26.24 26.47 27.11 26.86 26.81 26.90 26.29 24.91 23.17 21.60 20.70 20.84 20.97 21.34 21.23 21.07 21.37 21.15 21.26 21.98 21.99 22.32
32.45 31.83 31.16 31.15 30.18 28.21 27.68 28.51 27.52 26.90 27.13 27.38 26.75 26.67 26.03 24.83 25.21 26.95 28.01 27.53 27.12 26.70 25.88 26.68 26.53 26.62 26.71 26.00 24.72 22.70 21.51 20.81 20.68 20.69 20.74 21.88 21.59 21.44 20.72 21.09 20.71 21.19 21.83 22.39
31.45 31.39 30.20 28.54 27.49 28.17 28.73 29.04 26.97 26.08 25.48 25.46 25.53 25.41 26.03 27.21 26.60 26.72 25.66 25.37 27.07 26.35 25.70 26.80 26.68 26.00 24.67 23.81 22.43 21.38 20.75 20.65 20.77 20.75 20.85 21.03 20.13 20.33 20.26 20.84 20.95 21.10 22.74 23.15
31.65 31.25 31.24 30.19 30.14 29.26 28.42 27.25 26.52 26.63 25.07 24.11 24.51 24.57 24.56 24.94 25.11 25.52 24.47 25.02 24.39 25.80 24.76 24.16 23.69 23.50 22.34 22.03 21.38 20.64 20.58 20.58 20.30 19.74 20.08 20.16 20.19 20.06 19.85 20.08 20.72 21.20 21.83 22.46
32.06 33.13 30.96 29.30 28.71 28.49 27.90 27.74 26.80 27.05 27.12 25.36 25.42 24.97 24.36 23.94 23.85 24.35 23.98 23.35 23.02 23.18 23.23 23.12 22.55 22.48 21.81 20.96 20.53 20.48 20.30 19.85 20.25 19.48 19.97 20.20 19.91 19.68 19.81 20.20 20.60 21.00 21.72 22.42

GFSNGP_sfc_wetblb_114.txt.gz
Wetbulb
33.82 35.58 34.86 33.51 33.25 33.74 31.20 31.97 27.80 30.50 30.92 35.27 37.34 37.84 39.56 41.06 41.33 40.82 40.92 41.29 41.12 40.85 39.86 38.44 37.75 37.33 36.47 35.43 35.24 35.01 34.30 33.38 32.34 32.39 32.42 32.05 31.80 32.13 33.45 33.83 33.57 33.46 33.98 34.15
27.00 33.87 33.72 30.90 33.34 33.85 33.83 33.91 33.54 33.87 32.84 39.38 39.99 38.97 38.14 38.96 39.90 41.26 41.26 41.72 42.02 41.75 40.50 39.58 37.66 37.25 36.84 35.68 34.75 35.02 33.40 32.46 32.84 32.05 31.62 30.94 30.83 30.68 30.92 30.90 30.85 31.19 30.97 31.18
24.39 31.47 30.96 26.33 31.52 33.06 33.80 34.15 33.47 29.83 34.96 37.72 36.77 39.00 38.83 39.53 40.68 41.13 41.60 42.20 42.11 40.64 40.12 39.48 38.44 37.81 35.92 35.45 35.16 33.82 32.87 32.83 32.19 31.62 31.08 30.72 30.76 30.33 29.56 28.66 29.02 28.82 29.27 30.13
25.42 27.00 17.71 31.05 34.29 34.86 33.45 35.85 36.11 36.30 36.87 37.29 37.76 38.73 40.14 40.59 40.06 40.77 42.10 42.69 42.42 40.56 40.34 39.90 38.20 36.71 36.06 35.61 33.77 33.10 32.36 32.02 31.88 31.23 30.42 30.43 29.71 28.93 28.07 28.23 27.88 28.30 28.81 29.41
21.82 22.11 29.32 32.35 32.81 31.71 30.40 31.27 36.54 35.45 36.20 37.34 36.87 37.50 36.28 41.24 41.48 41.03 40.76 41.81 41.82 40.99 40.26 38.36 36.63 36.16 35.82 35.08 34.18 33.52 32.58 31.41 31.24 30.80 29.68 29.17 28.03 27.40 27.63 27.63 27.59 27.94 29.47 29.05
25.83 21.78 20.04 29.27 34.56 37.52 35.85 25.29 36.36 37.24 35.87 35.44 37.09 29.85 33.00 38.83 40.44 40.92 41.43 40.94 40.42 39.87 39.01 36.60 34.67 34.24 33.21 32.25 31.40 30.77 30.71 31.21 31.70 31.60 30.52 29.27 28.73 27.97 28.93 28.99 29.10 30.28 30.11 30.20
28.00 25.51 27.95 35.23 36.40 37.43 22.64 27.16 36.04 36.91 36.80 36.34 34.58 35.82 38.21 40.02 39.38 39.41 40.03 39.41 39.69 37.91 36.05 34.88 33.24 32.68 31.15 30.66 29.15 29.89 30.30 29.99 29.70 29.23 28.17 28.38 28.08 28.58 29.02 29.07 29.55 29.18 29.18 29.07
27.27 23.81 21.21 36.79 35.00 30.02 33.69 34.55 36.96 37.57 37.60 37.05 37.21 38.31 38.95 39.56 39.19 39.06 37.90 38.20 38.23 35.74 33.76 32.26 32.25 31.24 30.14 28.91 28.71 29.00 28.66 28.09 27.34 26.94 28.17 28.74 25.83 26.53 26.70 26.46 26.04 26.37 26.72 27.14
30.47 29.45 36.95 38.14 37.06 38.96 38.34 36.82 36.48 36.20 37.16 38.00 37.26 37.19 38.22 38.20 38.91 38.42 37.83 36.70 36.47 34.05 31.85 30.85 30.77 29.58 28.06 27.44 27.77 27.41 26.34 25.36 25.37 26.07 26.78 26.82 25.24 24.74 24.38 25.35 25.33 25.47 25.62 25.06
31.60 33.71 36.65 39.11 39.35 39.27 39.22 38.32 38.71 37.80 37.47 37.61 36.40 37.23 37.19 37.83 38.02 37.75 36.98 34.96 34.09 32.62 30.51 28.84 28.43 28.06 27.17 27.13 27.41 26.01 24.03 23.87 24.35 24.10 25.81 25.78 26.27 26.33 24.96 24.09 23.48 25.00 25.49 25.43
33.15 36.11 37.64 39.27 40.22 40.56 39.92 39.10 38.18 38.35 38.11 37.51 36.94 36.62 36.94 36.84 37.47 37.59 35.81 33.71 32.35 30.95 29.80 28.96 27.92 27.15 26.90 27.01 26.09 24.08 23.80 23.82 23.95 25.13 24.54 24.57 25.73 25.49 25.89 25.95 26.27 25.84 26.61 27.15
32.48 37.09 36.69 35.88 36.75 37.77 37.16 37.08 38.32 37.75 37.16 37.25 36.50 35.96 36.94 36.37 37.35 36.75 33.34 31.66 30.28 29.82 28.63 27.81 27.54 26.76 26.60 26.60 25.42 24.41 23.54 24.41 24.69 24.94 23.98 24.42 24.16 24.89 30.90 31.98 32.62 32.58 32.23 30.80
38.25 39.85 38.04 37.36 37.24 37.41 37.19 37.87 38.15 37.61 36.62 34.94 35.47 36.20 36.90 36.14 36.47 37.62 32.37 30.72 29.39 28.53 28.08 27.52 26.79 26.03 26.30 26.53 25.78 24.48 22.99 23.95 24.61 26.15 24.11 23.22 23.70 24.13 24.26 27.60 31.25 31.15 31.23 31.61
40.51 38.26 36.96 37.05 35.86 37.21 36.96 37.27 38.05 35.17 35.33 34.91 34.72 36.04 36.39 35.42 34.93 32.61 30.74 30.33 29.88 28.80 27.77 26.98 25.85 25.18 26.36 26.61 25.16 23.76 23.17 27.99 24.91 24.15 23.16 23.36 23.96 24.68 24.77 24.63 23.76 24.34 28.74 29.39
39.74 38.17 38.26 36.57 35.39 34.50 35.03 35.05 33.57 32.74 32.46 32.87 34.11 34.12 34.39 31.92 31.05 30.57 30.06 28.71 27.52 26.75 26.21 25.56 24.66 24.83 26.30 25.90 24.90 23.06 23.02 23.52 23.85 23.13 23.81 25.10 24.94 24.57 24.38 24.62 24.16 24.10 24.71 27.11
34.68 35.65 35.92 35.33 34.39 34.21 33.97 33.54 31.36 30.37 31.49 32.77 31.96 31.90 31.97 31.38 30.59 29.10 27.28 26.83 24.96 23.87 23.94 24.28 23.87 24.91 25.72 25.22 23.84 22.84 23.17 27.90 27.34 23.89 23.86 23.98 24.01 23.81 24.65 24.58 23.26 23.59 24.03 23.41
28.68 29.05 29.61 29.80 31.84 32.54 32.29 32.31 32.50 32.13 32.20 31.66 30.63 30.44 29.68 28.72 27.54 26.18 26.20 26.16 25.48 24.40 24.00 24.53 24.45 26.05 26.16 25.51 23.67 23.46 23.51 23.70 27.00 24.67 23.30 22.97 22.44 22.80 23.63 23.09 23.77 23.63 23.35 24.54
35.72 34.53 34.18 33.02 31.25 31.15 31.03 31.71 31.57 31.48 30.99 31.04 30.06 28.58 26.92 25.67 26.27 25.42 24.99 24.67 23.72 23.32 24.14 25.17 25.54 25.77 25.49 25.24 24.83 24.25 23.07 23.27 23.58 22.64 23.41 23.17 22.79 23.02 23.74 23.93 23.34 22.67 22.36 23.51
35.60 34.56 33.90 33.23 32.11 30.91 30.33 28.79 29.62 28.52 28.62 28.60 27.96 27.04 26.55 25.48 26.32 25.76 24.95 23.29 22.09 20.98 22.22 23.98 28.26 27.39 24.58 25.82 26.63 23.25 20.93 20.82 22.84 22.33 23.39 24.60 21.65 22.23 22.88 23.47 22.87 22.09 22.07 22.30
32.20 32.87 33.00 31.78 31.79 31.23 30.13 30.90 31.65 31.04 30.54 28.86 27.64 26.60 25.91 26.29 26.59 25.43 24.28 22.69 22.63 22.91 25.01 24.28 26.01 24.59 24.25 24.78 28.17 20.29 19.85 21.61 23.19 22.34 21.76 20.55 20.13 20.60 22.84 23.52 22.72 21.93 21.40 21.51
28.04 27.93 29.17 30.32 30.26 30.75 30.62 30.63 30.18 29.52 29.03 28.28 27.45 26.80 26.47 26.26 25.68 24.71 22.88 22.20 23.51 25.27 24.84 27.00 24.15 23.64 24.43 25.42 24.84 20.96 21.36 24.17 20.98 18.31 18.22 18.14 18.48 20.38 22.06 21.52 20.97 21.13 21.01 20.81
28.20 27.66 28.91 27.88 28.92 29.60 29.95 29.75 29.69 28.93 27.81 26.98 26.84 26.73 25.60 24.46 24.29 23.95 24.75 23.51 23.72 29.61 25.73 24.03 24.19 25.86 24.53 28.01 22.40 21.99 25.06 19.51 15.91 15.69 14.97 17.05 17.53 19.97 21.07 20.79 20.34 20.77 20.50 20.04
30.91 30.82 29.27 28.11 28.45 28.99 29.05 29.16 28.45 28.16 27.19 26.46 26.34 26.14 25.47 25.29 24.93 22.89 21.81 24.61 24.33 27.62 24.77 24.24 26.25 28.13 28.78 25.18 22.52 21.29 18.57 15.00 14.45 14.58 15.75 14.92 19.19 20.47 20.60 20.60 20.21 20.93 20.20 19.54
32.08 31.05 29.62 27.32 26.36 25.88 27.09 28.10 27.30 27.59 27.38 27.36 27.13 27.06 25.55 23.68 23.89 25.69 26.20 28.29 27.85 27.51 25.44 24.79 26.93 28.90 28.84 22.30 19.68 16.24 14.65 13.00 12.66 12.57 14.39 21.08 20.88 20.99 20.50 20.07 19.77 20.47 20.23 19.86
32.30 32.03 28.29 25.33 25.72 27.88 28.48 27.22 25.71 24.86 25.26 26.20 26.60 26.95 26.70 26.70 26.43 25.82 25.61 25.17 28.61 27.28 24.85 27.93 28.69 28.69 24.26 20.57 17.11 15.36 14.09 12.58 12.17 10.11 14.84 19.17 19.34 18.86 19.92 20.06 19.52 19.83 20.50 20.57
30.01 30.02 29.85 29.34 29.51 29.23 28.80 27.55 27.29 26.84 25.64 25.10 25.52 25.84 25.79 26.08 25.82 26.41 24.79 25.33 24.49 27.17 23.87 23.68 24.41 24.91 21.19 19.22 17.70 17.22 15.65 14.94 16.41 13.76 15.08 16.15 19.48 19.46 19.74 19.62 18.06 17.71 18.61 19.19
28.94 32.16 27.35 26.60 28.17 29.52 28.57 28.36 26.79 27.03 28.20 26.79 27.47 27.18 26.15 24.87 24.46 25.30 25.27 23.89 22.95 24.36 23.82 22.69 23.14 24.00 19.20 18.31 18.69 17.27 15.98 15.14 17.36 13.79 14.25 13.94 15.48 12.73 17.00 18.67 18.10 18.75 19.17 19.61

GFSNGP_sfc_wetblb_117.txt.gz
Wetbulb
31.33 32.72 33.04 32.60 32.18 32.49 30.25 31.28 26.45 29.74 28.86 34.22 34.36 34.64 36.42 38.77 40.25 39.37 39.24 39.76 40.63 40.75 40.38 39.04 37.93 35.75 34.61 33.87 33.64 33.51 32.71 31.70 30.78 30.47 30.23 29.65 29.39 29.45 29.87 29.98 29.71 29.94 30.24 30.54
23.72 31.86 31.35 28.95 31.44 32.11 32.20 32.49 32.27 32.48 31.41 38.54 39.60 36.10 35.08 36.57 37.27 39.02 40.06 40.68 41.27 41.30 39.90 37.46 36.31 35.61 35.21 34.20 33.93 34.32 32.76 31.88 31.99 30.86 30.49 29.62 29.25 28.80 28.70 28.25 28.07 28.52 28.52 28.94
22.52 28.42 28.03 23.82 29.35 30.01 30.76 32.14 32.75 28.48 33.83 36.82 35.20 36.46 36.58 37.50 38.61 38.38 39.91 41.16 41.10 40.76 40.13 38.20 36.42 36.79 34.33 34.11 33.89 32.86 31.94 31.68 31.05 30.85 30.68 30.59 30.29 29.50 28.33 27.32 27.11 26.91 27.31 28.09
22.34 24.75 16.16 27.92 33.39 33.93 32.41 33.80 34.96 34.77 35.08 35.24 35.68 36.74 36.55 36.84 37.49 38.93 39.45 40.57 40.80 40.46 38.89 38.33 37.02 35.48 34.94 34.12 32.72 32.06 31.34 30.97 30.69 30.14 29.20 29.17 28.36 27.43 27.05 28.36 28.44 28.27 28.13 28.40
19.99 19.51 26.26 30.16 31.18 30.26 29.06 29.49 34.15 34.92 36.13 35.26 35.96 34.69 33.42 38.99 38.45 38.34 39.36 40.22 40.57 39.90 38.41 36.74 34.98 34.61 34.12 33.29 32.02 31.46 30.94 29.93 29.94 29.45 28.44 27.85 26.49 25.71 26.39 26.71 26.70 27.02 28.90 29.42
23.57 19.87 19.88 27.77 31.99 35.47 33.78 24.06 33.23 34.43 33.87 34.58 35.26 28.73 31.17 37.63 39.24 39.43 39.22 39.40 38.80 37.94 36.78 34.82 33.09 33.42 32.70 31.85 30.82 30.02 29.69 29.55 29.30 28.93 27.69 25.99 25.57 25.03 25.86 26.46 27.16 28.13 28.26 28.53
27.66 25.46 26.78 33.43 34.69 35.08 23.81 28.36 34.16 35.57 35.19 35.46 34.01 35.11 35.64 38.05 38.87 39.12 39.11 38.27 37.36 36.03 35.49 33.77 32.26 32.36 31.10 29.95 28.79 29.74 29.49 28.99 28.35 27.46 26.10 25.87 25.04 24.97 25.08 25.13 25.24 24.83 25.74 25.88
26.84 24.43 20.45 34.65 34.00 30.29 33.81 33.35 35.81 34.78 35.06 35.63 36.22 36.81 37.11 37.26 37.71 38.47 37.99 37.76 36.52 34.34 32.97 31.37 31.42 30.94 29.49 28.30 28.60 28.29 27.86 27.51 26.21 25.10 26.32 27.19 23.69 23.76 23.86 23.48 23.18 23.31 23.75 24.43
29.21 28.89 34.62 36.21 36.06 37.79 35.98 35.46 35.48 35.04 36.84 37.45 36.57 36.14 37.09 36.65 36.44 37.58 37.32 36.54 35.67 33.08 30.19 29.46 29.61 29.57 28.11 27.47 26.76 26.41 25.55 24.44 23.96 24.54 25.05 25.17 23.39 23.26 23.20 23.15 22.95 23.20 24.52 23.67
30.97 34.19 36.11 38.43 38.58 38.17 37.80 37.17 37.72 37.80 37.54 36.96 35.93 35.97 35.57 35.92 35.87 36.35 36.34 35.19 34.24 31.41 29.36 28.13 28.16 27.51 26.95 26.06 26.58 25.26 23.08 22.51 23.17 22.98 24.08 23.62 24.60 25.04 23.39 22.78 22.30 24.44 24.53 24.69
32.49 36.41 37.09 38.30 38.34 38.97 39.07 37.93 37.54 37.20 36.98 36.71 36.14 35.78 35.44 35.22 35.58 35.74 35.90 34.13 32.58 30.76 29.27 28.39 27.07 26.33 25.73 25.98 25.41 23.52 22.87 23.09 23.09 23.90 22.58 22.83 23.87 23.52 24.94 24.28 24.98 24.94 26.30 27.27
31.49 37.98 36.70 37.88 36.25 36.80 36.36 36.58 37.02 35.91 35.87 36.88 36.16 35.67 35.45 34.54 35.27 35.59 34.91 32.10 30.50 29.80 29.03 28.24 26.55 25.97 25.72 25.88 24.35 23.19 23.04 23.60 23.67 24.15 22.83 23.41 22.81 22.86 29.04 30.89 31.81 32.04 32.22 30.64
37.10 39.62 37.63 37.19 36.91 37.02 36.86 36.76 37.20 36.70 36.55 35.96 35.64 34.72 34.47 34.62 35.17 37.27 33.39 30.60 29.77 29.12 28.43 26.44 25.89 25.78 25.55 25.28 24.55 24.00 22.84 23.46 23.87 25.85 23.75 22.77 22.80 22.85 22.53 25.82 30.50 30.70 30.65 30.90
36.95 36.12 35.78 36.63 36.86 36.82 36.40 37.09 38.62 36.00 35.50 34.99 34.67 34.47 34.31 34.21 35.01 34.52 31.66 31.57 29.96 28.84 26.96 26.11 25.33 25.10 25.28 25.42 24.90 23.61 22.94 27.70 24.15 23.73 22.73 22.44 22.95 23.27 23.47 23.19 23.12 23.49 27.86 28.81
36.73 36.86 37.54 36.62 35.33 34.90 35.04 34.62 33.45 33.03 32.80 32.69 32.64 32.32 33.41 33.20 32.96 32.28 31.17 30.10 28.79 27.91 26.67 25.67 24.61 24.39 25.17 25.41 24.93 23.07 22.92 22.81 23.09 22.78 22.81 24.08 23.99 23.63 23.35 23.30 23.06 23.07 23.75 26.42
35.77 34.92 34.25 33.25 33.57 33.55 33.22 32.69 31.85 31.55 31.29 30.43 30.83 31.79 32.45 32.90 31.70 30.59 28.67 27.68 26.86 26.21 25.48 24.76 24.29 24.50 25.03 24.91 24.13 22.93 22.57 27.10 27.16 23.48 23.32 23.42 23.34 22.94 22.75 22.55 21.86 22.21 23.09 23.70
30.33 31.17 29.90 29.55 31.35 32.30 32.41 32.47 31.97 31.32 30.93 30.53 31.64 31.67 30.84 30.39 29.40 27.62 26.44 26.83 26.60 26.18 25.41 25.02 24.65 25.69 25.88 25.56 23.71 23.13 23.00 23.83 27.39 24.51 22.86 22.55 21.72 21.82 22.57 22.10 22.05 23.19 23.30 24.51
32.60 33.30 33.45 33.29 31.42 31.22 31.38 30.59 30.48 30.72 30.27 31.51 31.61 29.94 28.79 27.84 28.13 26.76 26.04 25.94 25.31 24.77 25.08 25.68 25.72 25.79 25.79 25.58 24.74 23.78 23.60 23.54 23.25 22.15 22.73 22.82 22.76 22.56 21.81 22.05 22.28 22.22 22.09 23.42
32.35 32.08 32.57 32.72 32.42 31.64 30.29 28.38 28.34 29.05 28.45 28.98 27.20 27.84 28.65 28.09 27.15 26.61 26.25 24.68 23.87 23.24 24.70 24.57 28.42 27.92 25.30 25.93 26.43 24.61 22.96 22.15 23.07 22.21 22.99 24.75 21.90 21.10 21.00 21.49 21.31 21.51 21.56 21.77
31.45 32.48 33.31 33.36 33.68 31.93 31.12 30.98 31.53 31.30 31.09 30.23 29.21 28.43 27.02 27.08 26.90 26.29 25.34 24.48 25.55 25.33 25.53 24.61 26.82 26.25 25.27 24.79 29.15 23.83 22.20 22.23 22.48 22.19 22.28 20.99 19.36 19.09 19.76 22.06 22.04 21.47 20.75 20.84
28.38 28.75 30.87 31.36 31.20 31.33 31.38 31.54 31.20 30.73 31.02 30.47 29.14 28.48 28.06 27.70 26.99 26.10 24.08 24.18 26.27 26.07 26.33 27.44 26.19 25.33 24.94 25.46 26.87 23.51 22.75 21.87 21.98 22.77 19.54 18.06 17.45 18.57 19.44 20.17 20.58 20.45 20.46 20.28
31.10 29.18 30.19 29.90 29.49 29.91 30.21 30.03 30.36 30.14 29.42 28.56 28.16 28.50 27.28 26.48 26.14 25.44 26.94 26.83 25.85 29.81 27.21 25.78 25.65 26.41 25.19 28.44 24.87 23.12 22.30 21.60 22.27 19.81 16.11 16.61 16.25 16.65 17.86 19.08 18.85 20.22 20.64 19.47
30.83 31.29 30.62 29.86 29.63 28.80 28.48 29.33 29.77 29.05 27.91 26.85 27.23 27.63 27.78 28.60 27.55 25.27 24.65 26.89 26.18 27.98 27.27 25.48 26.56 28.58 29.40 26.93 24.41 23.21 22.29 20.79 18.89 16.39 16.84 15.00 15.58 16.20 15.69 16.13 20.10 20.14 20.14 19.99
29.54 30.65 29.12 27.68 24.08 23.52 26.63 30.84 28.49 27.67 27.45 27.14 27.17 27.91 28.37 26.74 26.16 27.93 29.02 29.00 29.36 28.36 27.31 26.03 27.53 29.65 29.95 25.90 23.78 22.34 20.64 18.96 17.29 14.44 15.34 20.31 15.27 13.52 18.47 18.62 17.28 18.37 19.55 18.67
32.00 30.27 23.02 24.65 25.72 28.35 29.74 30.15 25.21 25.06 25.82 26.62 27.64 27.92 28.51 29.15 28.73 27.94 26.87 26.65 29.98 28.72 27.13 29.09 29.61 29.85 27.96 24.50 23.20 21.49 19.92 17.78 16.11 11.72 13.62 12.07 12.06 16.78 13.20 16.82 19.43 19.35 17.40 17.77
31.79 32.13 32.22 28.93 29.95 30.95 29.67 25.20 26.83 28.48 26.99 26.40 27.19 27.61 28.15 28.23 27.74 28.08 26.53 27.21 26.84 29.26 26.29 25.31 27.20 27.61 25.89 23.69 22.36 21.06 19.22 17.25 18.82 17.27 16.03 14.15 11.72 12.36 15.50 17.74 18.09 14.73 15.59 15.97
29.85 32.87 30.24 26.12 27.49 28.70 28.76 28.70 27.18 28.02 29.02 27.75 28.01 29.12 28.01 27.35 27.30 28.14 28.23 26.23 25.70 26.32 26.38 24.66 25.74 27.34 23.54 22.68 22.42 20.09 18.65 17.32 18.75 15.13 13.71 11.75 10.97 10.57 14.03 14.77 15.56 15.40 15.26 16.49